<?xml version="1.0" encoding="UTF-8" standalone="no" ?>
<gpx xmlns="http://www.topografix.com/GPX/1/1" xmlns:xsi="http://www.w3.org/2001/XMLSchema-instance" xsi:schemaLocation="http://www.topografix.com/GPX/1/1 http://www.topografix.com/GPX/1/1/gpx.xsd" version="1.1" creator="VisuGPX - https://www.visugpx.com">
  <metadata>
    <name>20150819 Bonhomme Balme </name>
    <desc><![CDATA[Etape 2 du GR5]]></desc>
  </metadata>
  <trk>
    <name><![CDATA[20150819 Bonhomme Balme _1]]></name>
    <trkseg>
      <trkpt lat="45.72218" lon="6.71737">
        <ele>2421.6</ele>
        <time>2015-08-19T07:14:13Z</time>
      </trkpt>
      <trkpt lat="45.72221" lon="6.71738">
        <ele>2421.6</ele>
        <time>2015-08-19T07:14:48Z</time>
      </trkpt>
      <trkpt lat="45.72221" lon="6.7174">
        <ele>2421.6</ele>
        <time>2015-08-19T07:14:53Z</time>
      </trkpt>
      <trkpt lat="45.7222" lon="6.71744">
        <ele>2421.6</ele>
        <time>2015-08-19T07:15:03Z</time>
      </trkpt>
      <trkpt lat="45.72219" lon="6.71743">
        <ele>2421.6</ele>
        <time>2015-08-19T07:15:08Z</time>
      </trkpt>
      <trkpt lat="45.72218" lon="6.71743">
        <ele>2402.7712</ele>
        <time>2015-08-19T07:15:23Z</time>
      </trkpt>
      <trkpt lat="45.72217" lon="6.71741">
        <ele>2402.7712</ele>
        <time>2015-08-19T07:15:33Z</time>
      </trkpt>
      <trkpt lat="45.72216" lon="6.71739">
        <ele>2402.7712</ele>
        <time>2015-08-19T07:15:38Z</time>
      </trkpt>
      <trkpt lat="45.7221" lon="6.71737">
        <ele>2413.4458</ele>
        <time>2015-08-19T07:15:43Z</time>
      </trkpt>
      <trkpt lat="45.72207" lon="6.71735">
        <ele>2413.4458</ele>
        <time>2015-08-19T07:15:48Z</time>
      </trkpt>
      <trkpt lat="45.72207" lon="6.71735">
        <ele>2413.4458</ele>
        <time>2015-08-19T07:15:53Z</time>
      </trkpt>
      <trkpt lat="45.72203" lon="6.71737">
        <ele>2413.4458</ele>
        <time>2015-08-19T07:16:03Z</time>
      </trkpt>
      <trkpt lat="45.72202" lon="6.71738">
        <ele>2413.4458</ele>
        <time>2015-08-19T07:16:08Z</time>
      </trkpt>
      <trkpt lat="45.72202" lon="6.71738">
        <ele>2413.4458</ele>
        <time>2015-08-19T07:16:13Z</time>
      </trkpt>
      <trkpt lat="45.72202" lon="6.71737">
        <ele>2426.2927</ele>
        <time>2015-08-19T07:16:18Z</time>
      </trkpt>
      <trkpt lat="45.72202" lon="6.71737">
        <ele>2426.2927</ele>
        <time>2015-08-19T07:16:23Z</time>
      </trkpt>
      <trkpt lat="45.72202" lon="6.71737">
        <ele>2426.2927</ele>
        <time>2015-08-19T07:16:43Z</time>
      </trkpt>
      <trkpt lat="45.72202" lon="6.71738">
        <ele>2426.2927</ele>
        <time>2015-08-19T07:16:48Z</time>
      </trkpt>
      <trkpt lat="45.72204" lon="6.71738">
        <ele>2426.2927</ele>
        <time>2015-08-19T07:16:53Z</time>
      </trkpt>
      <trkpt lat="45.72206" lon="6.71739">
        <ele>2426.2927</ele>
        <time>2015-08-19T07:16:58Z</time>
      </trkpt>
      <trkpt lat="45.72206" lon="6.71739">
        <ele>2426.2927</ele>
        <time>2015-08-19T07:17:03Z</time>
      </trkpt>
      <trkpt lat="45.72205" lon="6.71738">
        <ele>2426.2927</ele>
        <time>2015-08-19T07:17:13Z</time>
      </trkpt>
      <trkpt lat="45.72204" lon="6.71742">
        <ele>2426.2927</ele>
        <time>2015-08-19T07:17:18Z</time>
      </trkpt>
      <trkpt lat="45.72204" lon="6.71742">
        <ele>2426.2927</ele>
        <time>2015-08-19T07:17:23Z</time>
      </trkpt>
      <trkpt lat="45.72201" lon="6.71745">
        <ele>2443.726</ele>
        <time>2015-08-19T07:17:28Z</time>
      </trkpt>
      <trkpt lat="45.72198" lon="6.71746">
        <ele>2443.726</ele>
        <time>2015-08-19T07:17:33Z</time>
      </trkpt>
      <trkpt lat="45.72198" lon="6.71746">
        <ele>2443.726</ele>
        <time>2015-08-19T07:17:38Z</time>
      </trkpt>
      <trkpt lat="45.72198" lon="6.71746">
        <ele>2443.726</ele>
        <time>2015-08-19T07:18:03Z</time>
      </trkpt>
      <trkpt lat="45.72198" lon="6.71746">
        <ele>2443.726</ele>
        <time>2015-08-19T07:18:08Z</time>
      </trkpt>
      <trkpt lat="45.72197" lon="6.71745">
        <ele>2443.726</ele>
        <time>2015-08-19T07:18:53Z</time>
      </trkpt>
      <trkpt lat="45.72196" lon="6.71745">
        <ele>2443.726</ele>
        <time>2015-08-19T07:18:58Z</time>
      </trkpt>
      <trkpt lat="45.72194" lon="6.71743">
        <ele>2443.726</ele>
        <time>2015-08-19T07:19:18Z</time>
      </trkpt>
      <trkpt lat="45.72194" lon="6.71742">
        <ele>2443.726</ele>
        <time>2015-08-19T07:19:23Z</time>
      </trkpt>
      <trkpt lat="45.72194" lon="6.71742">
        <ele>2443.726</ele>
        <time>2015-08-19T07:19:28Z</time>
      </trkpt>
      <trkpt lat="45.72193" lon="6.7174">
        <ele>2460.9739</ele>
        <time>2015-08-19T07:19:58Z</time>
      </trkpt>
      <trkpt lat="45.72193" lon="6.7174">
        <ele>2460.9739</ele>
        <time>2015-08-19T07:20:03Z</time>
      </trkpt>
      <trkpt lat="45.72193" lon="6.71739">
        <ele>2460.9739</ele>
        <time>2015-08-19T07:20:43Z</time>
      </trkpt>
      <trkpt lat="45.72193" lon="6.71739">
        <ele>2460.9739</ele>
        <time>2015-08-19T07:20:48Z</time>
      </trkpt>
      <trkpt lat="45.72193" lon="6.71737">
        <ele>2460.9739</ele>
        <time>2015-08-19T07:21:13Z</time>
      </trkpt>
      <trkpt lat="45.72193" lon="6.71737">
        <ele>2460.9739</ele>
        <time>2015-08-19T07:21:18Z</time>
      </trkpt>
      <trkpt lat="45.72193" lon="6.71736">
        <ele>2460.9739</ele>
        <time>2015-08-19T07:22:23Z</time>
      </trkpt>
      <trkpt lat="45.72192" lon="6.71735">
        <ele>2460.9739</ele>
        <time>2015-08-19T07:22:28Z</time>
      </trkpt>
      <trkpt lat="45.72192" lon="6.71735">
        <ele>2460.9739</ele>
        <time>2015-08-19T07:22:33Z</time>
      </trkpt>
      <trkpt lat="45.72191" lon="6.71735">
        <ele>2460.9739</ele>
        <time>2015-08-19T07:22:48Z</time>
      </trkpt>
      <trkpt lat="45.72189" lon="6.71734">
        <ele>2460.9739</ele>
        <time>2015-08-19T07:22:53Z</time>
      </trkpt>
      <trkpt lat="45.72189" lon="6.71734">
        <ele>2460.9739</ele>
        <time>2015-08-19T07:22:58Z</time>
      </trkpt>
      <trkpt lat="45.7219" lon="6.71731">
        <ele>2477.0398</ele>
        <time>2015-08-19T07:23:23Z</time>
      </trkpt>
      <trkpt lat="45.7219" lon="6.71728">
        <ele>2477.0398</ele>
        <time>2015-08-19T07:23:28Z</time>
      </trkpt>
      <trkpt lat="45.7219" lon="6.71728">
        <ele>2477.0398</ele>
        <time>2015-08-19T07:23:33Z</time>
      </trkpt>
      <trkpt lat="45.7219" lon="6.71721">
        <ele>2477.0398</ele>
        <time>2015-08-19T07:24:23Z</time>
      </trkpt>
      <trkpt lat="45.72192" lon="6.71715">
        <ele>2491.121</ele>
        <time>2015-08-19T07:24:28Z</time>
      </trkpt>
      <trkpt lat="45.72196" lon="6.71711">
        <ele>2491.121</ele>
        <time>2015-08-19T07:24:33Z</time>
      </trkpt>
      <trkpt lat="45.72201" lon="6.71706">
        <ele>2503.0967</ele>
        <time>2015-08-19T07:24:38Z</time>
      </trkpt>
      <trkpt lat="45.72206" lon="6.71702">
        <ele>2503.0967</ele>
        <time>2015-08-19T07:24:43Z</time>
      </trkpt>
      <trkpt lat="45.7221" lon="6.71695">
        <ele>2512.8218</ele>
        <time>2015-08-19T07:24:48Z</time>
      </trkpt>
      <trkpt lat="45.72212" lon="6.71688">
        <ele>2512.8218</ele>
        <time>2015-08-19T07:24:53Z</time>
      </trkpt>
      <trkpt lat="45.72215" lon="6.7168">
        <ele>2520.384</ele>
        <time>2015-08-19T07:24:58Z</time>
      </trkpt>
      <trkpt lat="45.72215" lon="6.71669">
        <ele>2520.384</ele>
        <time>2015-08-19T07:25:03Z</time>
      </trkpt>
      <trkpt lat="45.72215" lon="6.71663">
        <ele>2525.9746</ele>
        <time>2015-08-19T07:25:08Z</time>
      </trkpt>
      <trkpt lat="45.72215" lon="6.71659">
        <ele>2525.9746</ele>
        <time>2015-08-19T07:25:13Z</time>
      </trkpt>
      <trkpt lat="45.72216" lon="6.71649">
        <ele>2529.4573</ele>
        <time>2015-08-19T07:25:18Z</time>
      </trkpt>
      <trkpt lat="45.72215" lon="6.71643">
        <ele>2529.4573</ele>
        <time>2015-08-19T07:25:23Z</time>
      </trkpt>
      <trkpt lat="45.72213" lon="6.71638">
        <ele>2529.4573</ele>
        <time>2015-08-19T07:25:28Z</time>
      </trkpt>
      <trkpt lat="45.72209" lon="6.7163">
        <ele>2531.016</ele>
        <time>2015-08-19T07:25:33Z</time>
      </trkpt>
      <trkpt lat="45.72206" lon="6.71622">
        <ele>2531.016</ele>
        <time>2015-08-19T07:25:38Z</time>
      </trkpt>
      <trkpt lat="45.72204" lon="6.71617">
        <ele>2531.0205</ele>
        <time>2015-08-19T07:25:43Z</time>
      </trkpt>
      <trkpt lat="45.72204" lon="6.71612">
        <ele>2531.0205</ele>
        <time>2015-08-19T07:25:48Z</time>
      </trkpt>
      <trkpt lat="45.72199" lon="6.71607">
        <ele>2531.0205</ele>
        <time>2015-08-19T07:25:53Z</time>
      </trkpt>
      <trkpt lat="45.72194" lon="6.71603">
        <ele>2529.5996</ele>
        <time>2015-08-19T07:25:58Z</time>
      </trkpt>
      <trkpt lat="45.72189" lon="6.71599">
        <ele>2529.5996</ele>
        <time>2015-08-19T07:26:03Z</time>
      </trkpt>
      <trkpt lat="45.72184" lon="6.71595">
        <ele>2527.191</ele>
        <time>2015-08-19T07:26:08Z</time>
      </trkpt>
      <trkpt lat="45.72179" lon="6.7159">
        <ele>2527.191</ele>
        <time>2015-08-19T07:26:13Z</time>
      </trkpt>
      <trkpt lat="45.72174" lon="6.71585">
        <ele>2524.1445</ele>
        <time>2015-08-19T07:26:18Z</time>
      </trkpt>
      <trkpt lat="45.7217" lon="6.71581">
        <ele>2524.1445</ele>
        <time>2015-08-19T07:26:23Z</time>
      </trkpt>
      <trkpt lat="45.72168" lon="6.71583">
        <ele>2524.1445</ele>
        <time>2015-08-19T07:26:28Z</time>
      </trkpt>
      <trkpt lat="45.72168" lon="6.71586">
        <ele>2520.6409</ele>
        <time>2015-08-19T07:26:33Z</time>
      </trkpt>
      <trkpt lat="45.72164" lon="6.71584">
        <ele>2520.6409</ele>
        <time>2015-08-19T07:26:38Z</time>
      </trkpt>
      <trkpt lat="45.72161" lon="6.71577">
        <ele>2516.8188</ele>
        <time>2015-08-19T07:26:43Z</time>
      </trkpt>
      <trkpt lat="45.72154" lon="6.71572">
        <ele>2516.8188</ele>
        <time>2015-08-19T07:26:48Z</time>
      </trkpt>
      <trkpt lat="45.72148" lon="6.7157">
        <ele>2512.8435</ele>
        <time>2015-08-19T07:26:53Z</time>
      </trkpt>
      <trkpt lat="45.72141" lon="6.71567">
        <ele>2512.8435</ele>
        <time>2015-08-19T07:26:58Z</time>
      </trkpt>
      <trkpt lat="45.72136" lon="6.71567">
        <ele>2508.8098</ele>
        <time>2015-08-19T07:27:03Z</time>
      </trkpt>
      <trkpt lat="45.72131" lon="6.71565">
        <ele>2508.8098</ele>
        <time>2015-08-19T07:27:08Z</time>
      </trkpt>
      <trkpt lat="45.72126" lon="6.71561">
        <ele>2504.922</ele>
        <time>2015-08-19T07:27:13Z</time>
      </trkpt>
      <trkpt lat="45.72122" lon="6.71557">
        <ele>2504.922</ele>
        <time>2015-08-19T07:27:18Z</time>
      </trkpt>
      <trkpt lat="45.72117" lon="6.71552">
        <ele>2501.1047</ele>
        <time>2015-08-19T07:27:23Z</time>
      </trkpt>
      <trkpt lat="45.72112" lon="6.71548">
        <ele>2501.1047</ele>
        <time>2015-08-19T07:27:28Z</time>
      </trkpt>
      <trkpt lat="45.72108" lon="6.71544">
        <ele>2497.2964</ele>
        <time>2015-08-19T07:27:33Z</time>
      </trkpt>
      <trkpt lat="45.72103" lon="6.71539">
        <ele>2497.2964</ele>
        <time>2015-08-19T07:27:38Z</time>
      </trkpt>
      <trkpt lat="45.72101" lon="6.71535">
        <ele>2493.4492</ele>
        <time>2015-08-19T07:27:43Z</time>
      </trkpt>
      <trkpt lat="45.72098" lon="6.71526">
        <ele>2493.4492</ele>
        <time>2015-08-19T07:27:48Z</time>
      </trkpt>
      <trkpt lat="45.72094" lon="6.71521">
        <ele>2489.6592</ele>
        <time>2015-08-19T07:27:53Z</time>
      </trkpt>
      <trkpt lat="45.72092" lon="6.71518">
        <ele>2489.6592</ele>
        <time>2015-08-19T07:27:58Z</time>
      </trkpt>
      <trkpt lat="45.72092" lon="6.71519">
        <ele>2489.6592</ele>
        <time>2015-08-19T07:28:03Z</time>
      </trkpt>
      <trkpt lat="45.72093" lon="6.71522">
        <ele>2489.6592</ele>
        <time>2015-08-19T07:28:08Z</time>
      </trkpt>
      <trkpt lat="45.72091" lon="6.71519">
        <ele>2485.779</ele>
        <time>2015-08-19T07:28:13Z</time>
      </trkpt>
      <trkpt lat="45.72092" lon="6.71516">
        <ele>2485.779</ele>
        <time>2015-08-19T07:28:18Z</time>
      </trkpt>
      <trkpt lat="45.72092" lon="6.71516">
        <ele>2485.779</ele>
        <time>2015-08-19T07:28:23Z</time>
      </trkpt>
      <trkpt lat="45.72087" lon="6.71506">
        <ele>2481.8296</ele>
        <time>2015-08-19T07:28:33Z</time>
      </trkpt>
      <trkpt lat="45.72085" lon="6.71499">
        <ele>2481.8296</ele>
        <time>2015-08-19T07:28:38Z</time>
      </trkpt>
      <trkpt lat="45.72072" lon="6.71477">
        <ele>2477.7158</ele>
        <time>2015-08-19T07:28:53Z</time>
      </trkpt>
      <trkpt lat="45.72068" lon="6.71472">
        <ele>2477.7158</ele>
        <time>2015-08-19T07:28:58Z</time>
      </trkpt>
      <trkpt lat="45.7206" lon="6.71461">
        <ele>2473.4346</ele>
        <time>2015-08-19T07:29:08Z</time>
      </trkpt>
      <trkpt lat="45.72057" lon="6.71455">
        <ele>2473.4346</ele>
        <time>2015-08-19T07:29:13Z</time>
      </trkpt>
      <trkpt lat="45.72046" lon="6.71452">
        <ele>2469.039</ele>
        <time>2015-08-19T07:29:23Z</time>
      </trkpt>
      <trkpt lat="45.72041" lon="6.71451">
        <ele>2469.039</ele>
        <time>2015-08-19T07:29:28Z</time>
      </trkpt>
      <trkpt lat="45.72026" lon="6.71452">
        <ele>2464.385</ele>
        <time>2015-08-19T07:29:38Z</time>
      </trkpt>
      <trkpt lat="45.7202" lon="6.71453">
        <ele>2464.385</ele>
        <time>2015-08-19T07:29:43Z</time>
      </trkpt>
      <trkpt lat="45.72006" lon="6.71461">
        <ele>2459.6323</ele>
        <time>2015-08-19T07:29:53Z</time>
      </trkpt>
      <trkpt lat="45.72" lon="6.71465">
        <ele>2459.6323</ele>
        <time>2015-08-19T07:29:58Z</time>
      </trkpt>
      <trkpt lat="45.71992" lon="6.71471">
        <ele>2454.8633</ele>
        <time>2015-08-19T07:30:08Z</time>
      </trkpt>
      <trkpt lat="45.71986" lon="6.71477">
        <ele>2454.8633</ele>
        <time>2015-08-19T07:30:13Z</time>
      </trkpt>
      <trkpt lat="45.71974" lon="6.71486">
        <ele>2450.0327</ele>
        <time>2015-08-19T07:30:23Z</time>
      </trkpt>
      <trkpt lat="45.7197" lon="6.7149">
        <ele>2450.0327</ele>
        <time>2015-08-19T07:30:28Z</time>
      </trkpt>
      <trkpt lat="45.71964" lon="6.71493">
        <ele>2445.4797</ele>
        <time>2015-08-19T07:30:38Z</time>
      </trkpt>
      <trkpt lat="45.71959" lon="6.71495">
        <ele>2445.4797</ele>
        <time>2015-08-19T07:30:43Z</time>
      </trkpt>
      <trkpt lat="45.71946" lon="6.715">
        <ele>2441.133</ele>
        <time>2015-08-19T07:30:58Z</time>
      </trkpt>
      <trkpt lat="45.71941" lon="6.71501">
        <ele>2441.133</ele>
        <time>2015-08-19T07:31:03Z</time>
      </trkpt>
      <trkpt lat="45.71935" lon="6.71501">
        <ele>2437.169</ele>
        <time>2015-08-19T07:31:13Z</time>
      </trkpt>
      <trkpt lat="45.71932" lon="6.71502">
        <ele>2437.169</ele>
        <time>2015-08-19T07:31:18Z</time>
      </trkpt>
      <trkpt lat="45.71925" lon="6.71502">
        <ele>2433.6418</ele>
        <time>2015-08-19T07:31:28Z</time>
      </trkpt>
      <trkpt lat="45.71923" lon="6.71502">
        <ele>2433.6418</ele>
        <time>2015-08-19T07:31:33Z</time>
      </trkpt>
      <trkpt lat="45.71915" lon="6.71498">
        <ele>2430.6177</ele>
        <time>2015-08-19T07:31:43Z</time>
      </trkpt>
      <trkpt lat="45.71913" lon="6.71496">
        <ele>2430.6177</ele>
        <time>2015-08-19T07:31:48Z</time>
      </trkpt>
      <trkpt lat="45.7191" lon="6.71495">
        <ele>2430.6177</ele>
        <time>2015-08-19T07:31:58Z</time>
      </trkpt>
      <trkpt lat="45.71907" lon="6.71495">
        <ele>2430.6177</ele>
        <time>2015-08-19T07:32:03Z</time>
      </trkpt>
      <trkpt lat="45.71902" lon="6.71494">
        <ele>2428.1724</ele>
        <time>2015-08-19T07:32:13Z</time>
      </trkpt>
      <trkpt lat="45.71901" lon="6.71493">
        <ele>2428.1724</ele>
        <time>2015-08-19T07:32:18Z</time>
      </trkpt>
      <trkpt lat="45.71895" lon="6.71487">
        <ele>2426.2302</ele>
        <time>2015-08-19T07:32:28Z</time>
      </trkpt>
      <trkpt lat="45.71893" lon="6.71486">
        <ele>2426.2302</ele>
        <time>2015-08-19T07:32:33Z</time>
      </trkpt>
      <trkpt lat="45.71887" lon="6.71486">
        <ele>2426.2302</ele>
        <time>2015-08-19T07:32:43Z</time>
      </trkpt>
      <trkpt lat="45.71883" lon="6.71482">
        <ele>2424.7595</ele>
        <time>2015-08-19T07:32:48Z</time>
      </trkpt>
      <trkpt lat="45.71877" lon="6.71476">
        <ele>2424.7595</ele>
        <time>2015-08-19T07:32:58Z</time>
      </trkpt>
      <trkpt lat="45.71875" lon="6.71474">
        <ele>2423.7566</ele>
        <time>2015-08-19T07:33:03Z</time>
      </trkpt>
      <trkpt lat="45.71867" lon="6.71469">
        <ele>2423.7566</ele>
        <time>2015-08-19T07:33:18Z</time>
      </trkpt>
      <trkpt lat="45.71863" lon="6.71467">
        <ele>2423.4075</ele>
        <time>2015-08-19T07:33:23Z</time>
      </trkpt>
      <trkpt lat="45.71858" lon="6.71464">
        <ele>2423.4075</ele>
        <time>2015-08-19T07:33:33Z</time>
      </trkpt>
      <trkpt lat="45.71856" lon="6.71463">
        <ele>2423.4075</ele>
        <time>2015-08-19T07:33:38Z</time>
      </trkpt>
      <trkpt lat="45.71851" lon="6.71461">
        <ele>2423.644</ele>
        <time>2015-08-19T07:33:48Z</time>
      </trkpt>
      <trkpt lat="45.71847" lon="6.7146">
        <ele>2423.644</ele>
        <time>2015-08-19T07:33:53Z</time>
      </trkpt>
      <trkpt lat="45.71841" lon="6.71459">
        <ele>2424.158</ele>
        <time>2015-08-19T07:34:03Z</time>
      </trkpt>
      <trkpt lat="45.7184" lon="6.71461">
        <ele>2424.158</ele>
        <time>2015-08-19T07:34:08Z</time>
      </trkpt>
      <trkpt lat="45.71837" lon="6.71463">
        <ele>2424.158</ele>
        <time>2015-08-19T07:34:18Z</time>
      </trkpt>
      <trkpt lat="45.71835" lon="6.71462">
        <ele>2424.158</ele>
        <time>2015-08-19T07:34:23Z</time>
      </trkpt>
      <trkpt lat="45.71828" lon="6.71461">
        <ele>2425.2593</ele>
        <time>2015-08-19T07:34:33Z</time>
      </trkpt>
      <trkpt lat="45.71823" lon="6.71458">
        <ele>2425.2593</ele>
        <time>2015-08-19T07:34:38Z</time>
      </trkpt>
      <trkpt lat="45.71815" lon="6.71452">
        <ele>2426.9165</ele>
        <time>2015-08-19T07:34:53Z</time>
      </trkpt>
      <trkpt lat="45.71813" lon="6.71449">
        <ele>2426.9165</ele>
        <time>2015-08-19T07:34:58Z</time>
      </trkpt>
      <trkpt lat="45.71809" lon="6.71445">
        <ele>2426.9165</ele>
        <time>2015-08-19T07:35:08Z</time>
      </trkpt>
      <trkpt lat="45.71806" lon="6.71443">
        <ele>2428.872</ele>
        <time>2015-08-19T07:35:13Z</time>
      </trkpt>
      <trkpt lat="45.71799" lon="6.71438">
        <ele>2428.872</ele>
        <time>2015-08-19T07:35:23Z</time>
      </trkpt>
      <trkpt lat="45.71798" lon="6.71438">
        <ele>2428.872</ele>
        <time>2015-08-19T07:35:28Z</time>
      </trkpt>
      <trkpt lat="45.71802" lon="6.71439">
        <ele>2431.261</ele>
        <time>2015-08-19T07:35:38Z</time>
      </trkpt>
      <trkpt lat="45.71802" lon="6.71438">
        <ele>2431.261</ele>
        <time>2015-08-19T07:35:43Z</time>
      </trkpt>
      <trkpt lat="45.71812" lon="6.71433">
        <ele>2433.7388</ele>
        <time>2015-08-19T07:35:53Z</time>
      </trkpt>
      <trkpt lat="45.71815" lon="6.71433">
        <ele>2433.7388</ele>
        <time>2015-08-19T07:35:58Z</time>
      </trkpt>
      <trkpt lat="45.71819" lon="6.71432">
        <ele>2433.7388</ele>
        <time>2015-08-19T07:36:08Z</time>
      </trkpt>
      <trkpt lat="45.7182" lon="6.71431">
        <ele>2433.7388</ele>
        <time>2015-08-19T07:36:13Z</time>
      </trkpt>
      <trkpt lat="45.71818" lon="6.71429">
        <ele>2436.6057</ele>
        <time>2015-08-19T07:36:23Z</time>
      </trkpt>
      <trkpt lat="45.71817" lon="6.71429">
        <ele>2436.6057</ele>
        <time>2015-08-19T07:36:28Z</time>
      </trkpt>
      <trkpt lat="45.71811" lon="6.71425">
        <ele>2436.6057</ele>
        <time>2015-08-19T07:36:43Z</time>
      </trkpt>
      <trkpt lat="45.71809" lon="6.71424">
        <ele>2439.338</ele>
        <time>2015-08-19T07:36:48Z</time>
      </trkpt>
      <trkpt lat="45.71805" lon="6.71419">
        <ele>2439.338</ele>
        <time>2015-08-19T07:36:58Z</time>
      </trkpt>
      <trkpt lat="45.71805" lon="6.71413">
        <ele>2439.338</ele>
        <time>2015-08-19T07:37:03Z</time>
      </trkpt>
      <trkpt lat="45.71801" lon="6.71404">
        <ele>2442.192</ele>
        <time>2015-08-19T07:37:13Z</time>
      </trkpt>
      <trkpt lat="45.718" lon="6.71402">
        <ele>2442.192</ele>
        <time>2015-08-19T07:37:18Z</time>
      </trkpt>
      <trkpt lat="45.71793" lon="6.71396">
        <ele>2444.9978</ele>
        <time>2015-08-19T07:37:28Z</time>
      </trkpt>
      <trkpt lat="45.71791" lon="6.71395">
        <ele>2444.9978</ele>
        <time>2015-08-19T07:37:33Z</time>
      </trkpt>
      <trkpt lat="45.71786" lon="6.7139">
        <ele>2444.9978</ele>
        <time>2015-08-19T07:37:43Z</time>
      </trkpt>
      <trkpt lat="45.71786" lon="6.71385">
        <ele>2447.6453</ele>
        <time>2015-08-19T07:37:48Z</time>
      </trkpt>
      <trkpt lat="45.71784" lon="6.71378">
        <ele>2447.6453</ele>
        <time>2015-08-19T07:37:58Z</time>
      </trkpt>
      <trkpt lat="45.71782" lon="6.71374">
        <ele>2447.6453</ele>
        <time>2015-08-19T07:38:03Z</time>
      </trkpt>
      <trkpt lat="45.71777" lon="6.71367">
        <ele>2450.559</ele>
        <time>2015-08-19T07:38:13Z</time>
      </trkpt>
      <trkpt lat="45.71774" lon="6.71365">
        <ele>2450.559</ele>
        <time>2015-08-19T07:38:18Z</time>
      </trkpt>
      <trkpt lat="45.71769" lon="6.71361">
        <ele>2450.559</ele>
        <time>2015-08-19T07:38:28Z</time>
      </trkpt>
      <trkpt lat="45.71768" lon="6.71359">
        <ele>2453.679</ele>
        <time>2015-08-19T07:38:33Z</time>
      </trkpt>
      <trkpt lat="45.7176" lon="6.7135">
        <ele>2456.89</ele>
        <time>2015-08-19T07:38:48Z</time>
      </trkpt>
      <trkpt lat="45.71758" lon="6.71347">
        <ele>2456.89</ele>
        <time>2015-08-19T07:38:53Z</time>
      </trkpt>
      <trkpt lat="45.71753" lon="6.71343">
        <ele>2456.89</ele>
        <time>2015-08-19T07:39:03Z</time>
      </trkpt>
      <trkpt lat="45.71751" lon="6.71343">
        <ele>2460.2058</ele>
        <time>2015-08-19T07:39:08Z</time>
      </trkpt>
      <trkpt lat="45.71748" lon="6.71351">
        <ele>2460.2058</ele>
        <time>2015-08-19T07:39:18Z</time>
      </trkpt>
      <trkpt lat="45.71747" lon="6.71351">
        <ele>2460.2058</ele>
        <time>2015-08-19T07:39:23Z</time>
      </trkpt>
      <trkpt lat="45.71739" lon="6.71344">
        <ele>2463.773</ele>
        <time>2015-08-19T07:39:33Z</time>
      </trkpt>
      <trkpt lat="45.71736" lon="6.71342">
        <ele>2463.773</ele>
        <time>2015-08-19T07:39:38Z</time>
      </trkpt>
      <trkpt lat="45.7173" lon="6.71339">
        <ele>2467.2805</ele>
        <time>2015-08-19T07:39:48Z</time>
      </trkpt>
      <trkpt lat="45.71728" lon="6.71337">
        <ele>2467.2805</ele>
        <time>2015-08-19T07:39:53Z</time>
      </trkpt>
      <trkpt lat="45.71722" lon="6.71328">
        <ele>2470.5918</ele>
        <time>2015-08-19T07:40:03Z</time>
      </trkpt>
      <trkpt lat="45.71721" lon="6.71326">
        <ele>2470.5918</ele>
        <time>2015-08-19T07:40:08Z</time>
      </trkpt>
      <trkpt lat="45.71719" lon="6.71321">
        <ele>2470.5918</ele>
        <time>2015-08-19T07:40:18Z</time>
      </trkpt>
      <trkpt lat="45.71716" lon="6.71317">
        <ele>2473.73</ele>
        <time>2015-08-19T07:40:23Z</time>
      </trkpt>
      <trkpt lat="45.71712" lon="6.7131">
        <ele>2473.73</ele>
        <time>2015-08-19T07:40:33Z</time>
      </trkpt>
      <trkpt lat="45.71711" lon="6.71306">
        <ele>2476.7317</ele>
        <time>2015-08-19T07:40:38Z</time>
      </trkpt>
      <trkpt lat="45.71707" lon="6.71297">
        <ele>2476.7317</ele>
        <time>2015-08-19T07:40:48Z</time>
      </trkpt>
      <trkpt lat="45.71704" lon="6.71293">
        <ele>2479.6016</ele>
        <time>2015-08-19T07:40:53Z</time>
      </trkpt>
      <trkpt lat="45.71696" lon="6.71277">
        <ele>2482.3005</ele>
        <time>2015-08-19T07:41:08Z</time>
      </trkpt>
      <trkpt lat="45.71694" lon="6.71273">
        <ele>2482.3005</ele>
        <time>2015-08-19T07:41:13Z</time>
      </trkpt>
      <trkpt lat="45.71689" lon="6.7126">
        <ele>2484.7344</ele>
        <time>2015-08-19T07:41:23Z</time>
      </trkpt>
      <trkpt lat="45.71687" lon="6.71253">
        <ele>2484.7344</ele>
        <time>2015-08-19T07:41:28Z</time>
      </trkpt>
      <trkpt lat="45.71681" lon="6.71241">
        <ele>2486.993</ele>
        <time>2015-08-19T07:41:38Z</time>
      </trkpt>
      <trkpt lat="45.71678" lon="6.71236">
        <ele>2486.993</ele>
        <time>2015-08-19T07:41:43Z</time>
      </trkpt>
      <trkpt lat="45.71675" lon="6.71228">
        <ele>2489.057</ele>
        <time>2015-08-19T07:41:53Z</time>
      </trkpt>
      <trkpt lat="45.71674" lon="6.71224">
        <ele>2489.057</ele>
        <time>2015-08-19T07:41:58Z</time>
      </trkpt>
      <trkpt lat="45.71672" lon="6.71216">
        <ele>2489.057</ele>
        <time>2015-08-19T07:42:08Z</time>
      </trkpt>
      <trkpt lat="45.71671" lon="6.7121">
        <ele>2490.9673</ele>
        <time>2015-08-19T07:42:13Z</time>
      </trkpt>
      <trkpt lat="45.71665" lon="6.71195">
        <ele>2492.7622</ele>
        <time>2015-08-19T07:42:23Z</time>
      </trkpt>
      <trkpt lat="45.71662" lon="6.71191">
        <ele>2492.7622</ele>
        <time>2015-08-19T07:42:28Z</time>
      </trkpt>
      <trkpt lat="45.71656" lon="6.71183">
        <ele>2494.5354</ele>
        <time>2015-08-19T07:42:38Z</time>
      </trkpt>
      <trkpt lat="45.71651" lon="6.71181">
        <ele>2494.5354</ele>
        <time>2015-08-19T07:42:43Z</time>
      </trkpt>
      <trkpt lat="45.71641" lon="6.71177">
        <ele>2496.2573</ele>
        <time>2015-08-19T07:42:53Z</time>
      </trkpt>
      <trkpt lat="45.71636" lon="6.71174">
        <ele>2496.2573</ele>
        <time>2015-08-19T07:42:58Z</time>
      </trkpt>
      <trkpt lat="45.71627" lon="6.71168">
        <ele>2497.7854</ele>
        <time>2015-08-19T07:43:08Z</time>
      </trkpt>
      <trkpt lat="45.71624" lon="6.71167">
        <ele>2497.7854</ele>
        <time>2015-08-19T07:43:13Z</time>
      </trkpt>
      <trkpt lat="45.71617" lon="6.71156">
        <ele>2499.133</ele>
        <time>2015-08-19T07:43:28Z</time>
      </trkpt>
      <trkpt lat="45.71612" lon="6.71153">
        <ele>2499.133</ele>
        <time>2015-08-19T07:43:33Z</time>
      </trkpt>
      <trkpt lat="45.71604" lon="6.71145">
        <ele>2500.3567</ele>
        <time>2015-08-19T07:43:43Z</time>
      </trkpt>
      <trkpt lat="45.71601" lon="6.71141">
        <ele>2500.3567</ele>
        <time>2015-08-19T07:43:48Z</time>
      </trkpt>
      <trkpt lat="45.71594" lon="6.71131">
        <ele>2501.4797</ele>
        <time>2015-08-19T07:43:58Z</time>
      </trkpt>
      <trkpt lat="45.71591" lon="6.71129">
        <ele>2501.4797</ele>
        <time>2015-08-19T07:44:03Z</time>
      </trkpt>
      <trkpt lat="45.71585" lon="6.71125">
        <ele>2502.4092</ele>
        <time>2015-08-19T07:44:13Z</time>
      </trkpt>
      <trkpt lat="45.71581" lon="6.71124">
        <ele>2502.4092</ele>
        <time>2015-08-19T07:44:18Z</time>
      </trkpt>
      <trkpt lat="45.71575" lon="6.7112">
        <ele>2503.1602</ele>
        <time>2015-08-19T07:44:28Z</time>
      </trkpt>
      <trkpt lat="45.71572" lon="6.71117">
        <ele>2503.1602</ele>
        <time>2015-08-19T07:44:33Z</time>
      </trkpt>
      <trkpt lat="45.71566" lon="6.71113">
        <ele>2503.7908</ele>
        <time>2015-08-19T07:44:43Z</time>
      </trkpt>
      <trkpt lat="45.71562" lon="6.71111">
        <ele>2503.7908</ele>
        <time>2015-08-19T07:44:48Z</time>
      </trkpt>
      <trkpt lat="45.71557" lon="6.71109">
        <ele>2504.4272</ele>
        <time>2015-08-19T07:44:58Z</time>
      </trkpt>
      <trkpt lat="45.71554" lon="6.71106">
        <ele>2504.4272</ele>
        <time>2015-08-19T07:45:03Z</time>
      </trkpt>
      <trkpt lat="45.71547" lon="6.71102">
        <ele>2505.1287</ele>
        <time>2015-08-19T07:45:13Z</time>
      </trkpt>
      <trkpt lat="45.71544" lon="6.71099">
        <ele>2505.1287</ele>
        <time>2015-08-19T07:45:18Z</time>
      </trkpt>
      <trkpt lat="45.71534" lon="6.71093">
        <ele>2506.0076</ele>
        <time>2015-08-19T07:45:33Z</time>
      </trkpt>
      <trkpt lat="45.71533" lon="6.71091">
        <ele>2506.0076</ele>
        <time>2015-08-19T07:45:38Z</time>
      </trkpt>
      <trkpt lat="45.71528" lon="6.71088">
        <ele>2506.0076</ele>
        <time>2015-08-19T07:45:48Z</time>
      </trkpt>
      <trkpt lat="45.71524" lon="6.71085">
        <ele>2506.9229</ele>
        <time>2015-08-19T07:45:53Z</time>
      </trkpt>
      <trkpt lat="45.71519" lon="6.71083">
        <ele>2506.9229</ele>
        <time>2015-08-19T07:46:03Z</time>
      </trkpt>
      <trkpt lat="45.71518" lon="6.71086">
        <ele>2506.9229</ele>
        <time>2015-08-19T07:46:08Z</time>
      </trkpt>
      <trkpt lat="45.71511" lon="6.71084">
        <ele>2508.2043</ele>
        <time>2015-08-19T07:46:18Z</time>
      </trkpt>
      <trkpt lat="45.71509" lon="6.71083">
        <ele>2508.2043</ele>
        <time>2015-08-19T07:46:23Z</time>
      </trkpt>
      <trkpt lat="45.71504" lon="6.71082">
        <ele>2508.2043</ele>
        <time>2015-08-19T07:46:33Z</time>
      </trkpt>
      <trkpt lat="45.71501" lon="6.71081">
        <ele>2509.7253</ele>
        <time>2015-08-19T07:46:38Z</time>
      </trkpt>
      <trkpt lat="45.71494" lon="6.71077">
        <ele>2509.7253</ele>
        <time>2015-08-19T07:46:48Z</time>
      </trkpt>
      <trkpt lat="45.71491" lon="6.71075">
        <ele>2511.3667</ele>
        <time>2015-08-19T07:46:53Z</time>
      </trkpt>
      <trkpt lat="45.71486" lon="6.71073">
        <ele>2511.3667</ele>
        <time>2015-08-19T07:47:03Z</time>
      </trkpt>
      <trkpt lat="45.71484" lon="6.71071">
        <ele>2511.3667</ele>
        <time>2015-08-19T07:47:08Z</time>
      </trkpt>
      <trkpt lat="45.71479" lon="6.7107">
        <ele>2513.278</ele>
        <time>2015-08-19T07:47:18Z</time>
      </trkpt>
      <trkpt lat="45.71476" lon="6.71069">
        <ele>2513.278</ele>
        <time>2015-08-19T07:47:23Z</time>
      </trkpt>
      <trkpt lat="45.71468" lon="6.71068">
        <ele>2515.2363</ele>
        <time>2015-08-19T07:47:38Z</time>
      </trkpt>
      <trkpt lat="45.71466" lon="6.71068">
        <ele>2515.2363</ele>
        <time>2015-08-19T07:47:43Z</time>
      </trkpt>
      <trkpt lat="45.71459" lon="6.71067">
        <ele>2515.2363</ele>
        <time>2015-08-19T07:47:53Z</time>
      </trkpt>
      <trkpt lat="45.71455" lon="6.71064">
        <ele>2517.295</ele>
        <time>2015-08-19T07:47:58Z</time>
      </trkpt>
      <trkpt lat="45.71449" lon="6.71061">
        <ele>2517.295</ele>
        <time>2015-08-19T07:48:08Z</time>
      </trkpt>
      <trkpt lat="45.71446" lon="6.71058">
        <ele>2519.3147</ele>
        <time>2015-08-19T07:48:13Z</time>
      </trkpt>
      <trkpt lat="45.71438" lon="6.71059">
        <ele>2519.3147</ele>
        <time>2015-08-19T07:48:23Z</time>
      </trkpt>
      <trkpt lat="45.71434" lon="6.7106">
        <ele>2521.254</ele>
        <time>2015-08-19T07:48:28Z</time>
      </trkpt>
      <trkpt lat="45.71429" lon="6.71055">
        <ele>2521.254</ele>
        <time>2015-08-19T07:48:38Z</time>
      </trkpt>
      <trkpt lat="45.71428" lon="6.71054">
        <ele>2521.254</ele>
        <time>2015-08-19T07:48:43Z</time>
      </trkpt>
      <trkpt lat="45.71432" lon="6.71051">
        <ele>2522.9734</ele>
        <time>2015-08-19T07:48:53Z</time>
      </trkpt>
      <trkpt lat="45.71435" lon="6.71049">
        <ele>2522.9734</ele>
        <time>2015-08-19T07:48:58Z</time>
      </trkpt>
      <trkpt lat="45.71441" lon="6.71047">
        <ele>2524.4312</ele>
        <time>2015-08-19T07:49:08Z</time>
      </trkpt>
      <trkpt lat="45.71443" lon="6.71046">
        <ele>2524.4312</ele>
        <time>2015-08-19T07:49:13Z</time>
      </trkpt>
      <trkpt lat="45.71448" lon="6.71043">
        <ele>2524.4312</ele>
        <time>2015-08-19T07:49:23Z</time>
      </trkpt>
      <trkpt lat="45.71446" lon="6.7104">
        <ele>2525.7761</ele>
        <time>2015-08-19T07:49:28Z</time>
      </trkpt>
      <trkpt lat="45.71438" lon="6.71032">
        <ele>2527.061</ele>
        <time>2015-08-19T07:49:43Z</time>
      </trkpt>
      <trkpt lat="45.71436" lon="6.71028">
        <ele>2527.061</ele>
        <time>2015-08-19T07:49:48Z</time>
      </trkpt>
      <trkpt lat="45.7143" lon="6.71021">
        <ele>2528.3052</ele>
        <time>2015-08-19T07:49:58Z</time>
      </trkpt>
      <trkpt lat="45.71427" lon="6.71017">
        <ele>2528.3052</ele>
        <time>2015-08-19T07:50:03Z</time>
      </trkpt>
      <trkpt lat="45.7142" lon="6.7101">
        <ele>2529.5703</ele>
        <time>2015-08-19T07:50:13Z</time>
      </trkpt>
      <trkpt lat="45.71416" lon="6.71006">
        <ele>2529.5703</ele>
        <time>2015-08-19T07:50:18Z</time>
      </trkpt>
      <trkpt lat="45.71409" lon="6.70998">
        <ele>2530.8416</ele>
        <time>2015-08-19T07:50:28Z</time>
      </trkpt>
      <trkpt lat="45.71407" lon="6.70995">
        <ele>2530.8416</ele>
        <time>2015-08-19T07:50:33Z</time>
      </trkpt>
      <trkpt lat="45.71398" lon="6.70988">
        <ele>2532.1194</ele>
        <time>2015-08-19T07:50:43Z</time>
      </trkpt>
      <trkpt lat="45.71393" lon="6.70986">
        <ele>2532.1194</ele>
        <time>2015-08-19T07:50:48Z</time>
      </trkpt>
      <trkpt lat="45.71387" lon="6.70982">
        <ele>2533.3467</ele>
        <time>2015-08-19T07:50:58Z</time>
      </trkpt>
      <trkpt lat="45.71384" lon="6.70979">
        <ele>2533.3467</ele>
        <time>2015-08-19T07:51:03Z</time>
      </trkpt>
      <trkpt lat="45.71378" lon="6.7097">
        <ele>2534.4846</ele>
        <time>2015-08-19T07:51:13Z</time>
      </trkpt>
      <trkpt lat="45.71374" lon="6.70965">
        <ele>2534.4846</ele>
        <time>2015-08-19T07:51:18Z</time>
      </trkpt>
      <trkpt lat="45.71368" lon="6.70958">
        <ele>2535.5557</ele>
        <time>2015-08-19T07:51:28Z</time>
      </trkpt>
      <trkpt lat="45.71363" lon="6.70954">
        <ele>2535.5557</ele>
        <time>2015-08-19T07:51:33Z</time>
      </trkpt>
      <trkpt lat="45.71351" lon="6.7094">
        <ele>2536.5518</ele>
        <time>2015-08-19T07:51:48Z</time>
      </trkpt>
      <trkpt lat="45.71348" lon="6.70936">
        <ele>2536.5518</ele>
        <time>2015-08-19T07:51:53Z</time>
      </trkpt>
      <trkpt lat="45.7134" lon="6.70929">
        <ele>2537.3796</ele>
        <time>2015-08-19T07:52:03Z</time>
      </trkpt>
      <trkpt lat="45.71335" lon="6.70927">
        <ele>2537.3796</ele>
        <time>2015-08-19T07:52:08Z</time>
      </trkpt>
      <trkpt lat="45.71327" lon="6.70922">
        <ele>2537.9956</ele>
        <time>2015-08-19T07:52:18Z</time>
      </trkpt>
      <trkpt lat="45.71323" lon="6.70919">
        <ele>2537.9956</ele>
        <time>2015-08-19T07:52:23Z</time>
      </trkpt>
      <trkpt lat="45.71313" lon="6.70915">
        <ele>2538.3318</ele>
        <time>2015-08-19T07:52:33Z</time>
      </trkpt>
      <trkpt lat="45.71309" lon="6.70911">
        <ele>2538.3318</ele>
        <time>2015-08-19T07:52:38Z</time>
      </trkpt>
      <trkpt lat="45.71305" lon="6.70909">
        <ele>2538.3545</ele>
        <time>2015-08-19T07:52:48Z</time>
      </trkpt>
      <trkpt lat="45.71305" lon="6.7091">
        <ele>2538.3545</ele>
        <time>2015-08-19T07:52:53Z</time>
      </trkpt>
      <trkpt lat="45.71304" lon="6.70909">
        <ele>2538.3545</ele>
        <time>2015-08-19T07:53:03Z</time>
      </trkpt>
      <trkpt lat="45.71304" lon="6.70906">
        <ele>2538.3545</ele>
        <time>2015-08-19T07:53:08Z</time>
      </trkpt>
      <trkpt lat="45.71305" lon="6.70908">
        <ele>2538.3545</ele>
        <time>2015-08-19T07:53:18Z</time>
      </trkpt>
      <trkpt lat="45.71305" lon="6.70908">
        <ele>2538.3545</ele>
        <time>2015-08-19T07:53:23Z</time>
      </trkpt>
      <trkpt lat="45.71305" lon="6.7091">
        <ele>2538.3545</ele>
        <time>2015-08-19T07:53:38Z</time>
      </trkpt>
      <trkpt lat="45.71304" lon="6.70911">
        <ele>2538.3545</ele>
        <time>2015-08-19T07:53:43Z</time>
      </trkpt>
      <trkpt lat="45.71304" lon="6.70911">
        <ele>2538.3545</ele>
        <time>2015-08-19T07:53:53Z</time>
      </trkpt>
      <trkpt lat="45.71304" lon="6.7091">
        <ele>2538.3545</ele>
        <time>2015-08-19T07:53:58Z</time>
      </trkpt>
      <trkpt lat="45.71305" lon="6.7091">
        <ele>2537.9614</ele>
        <time>2015-08-19T07:54:08Z</time>
      </trkpt>
      <trkpt lat="45.71306" lon="6.7091">
        <ele>2537.9614</ele>
        <time>2015-08-19T07:54:13Z</time>
      </trkpt>
      <trkpt lat="45.71302" lon="6.70907">
        <ele>2537.9614</ele>
        <time>2015-08-19T07:54:23Z</time>
      </trkpt>
      <trkpt lat="45.713" lon="6.70905">
        <ele>2537.9614</ele>
        <time>2015-08-19T07:54:28Z</time>
      </trkpt>
      <trkpt lat="45.71297" lon="6.70901">
        <ele>2537.578</ele>
        <time>2015-08-19T07:54:38Z</time>
      </trkpt>
      <trkpt lat="45.71298" lon="6.70902">
        <ele>2537.578</ele>
        <time>2015-08-19T07:54:43Z</time>
      </trkpt>
      <trkpt lat="45.71293" lon="6.709">
        <ele>2537.578</ele>
        <time>2015-08-19T07:54:53Z</time>
      </trkpt>
      <trkpt lat="45.71287" lon="6.70898">
        <ele>2537.2087</ele>
        <time>2015-08-19T07:54:58Z</time>
      </trkpt>
      <trkpt lat="45.71278" lon="6.70895">
        <ele>2536.8435</ele>
        <time>2015-08-19T07:55:08Z</time>
      </trkpt>
      <trkpt lat="45.71274" lon="6.70892">
        <ele>2536.8435</ele>
        <time>2015-08-19T07:55:13Z</time>
      </trkpt>
      <trkpt lat="45.71266" lon="6.70884">
        <ele>2536.5017</ele>
        <time>2015-08-19T07:55:23Z</time>
      </trkpt>
      <trkpt lat="45.71261" lon="6.70879">
        <ele>2536.5017</ele>
        <time>2015-08-19T07:55:28Z</time>
      </trkpt>
      <trkpt lat="45.71254" lon="6.70865">
        <ele>2535.9993</ele>
        <time>2015-08-19T07:55:43Z</time>
      </trkpt>
      <trkpt lat="45.71251" lon="6.70857">
        <ele>2535.9993</ele>
        <time>2015-08-19T07:55:48Z</time>
      </trkpt>
      <trkpt lat="45.71246" lon="6.70844">
        <ele>2535.3677</ele>
        <time>2015-08-19T07:55:58Z</time>
      </trkpt>
      <trkpt lat="45.71244" lon="6.7084">
        <ele>2535.3677</ele>
        <time>2015-08-19T07:56:03Z</time>
      </trkpt>
      <trkpt lat="45.71239" lon="6.70825">
        <ele>2534.5789</ele>
        <time>2015-08-19T07:56:13Z</time>
      </trkpt>
      <trkpt lat="45.71237" lon="6.70816">
        <ele>2534.5789</ele>
        <time>2015-08-19T07:56:18Z</time>
      </trkpt>
      <trkpt lat="45.71233" lon="6.70802">
        <ele>2533.6357</ele>
        <time>2015-08-19T07:56:28Z</time>
      </trkpt>
      <trkpt lat="45.7123" lon="6.70798">
        <ele>2533.6357</ele>
        <time>2015-08-19T07:56:33Z</time>
      </trkpt>
      <trkpt lat="45.71224" lon="6.70788">
        <ele>2532.3545</ele>
        <time>2015-08-19T07:56:43Z</time>
      </trkpt>
      <trkpt lat="45.71224" lon="6.70783">
        <ele>2532.3545</ele>
        <time>2015-08-19T07:56:48Z</time>
      </trkpt>
      <trkpt lat="45.71218" lon="6.70767">
        <ele>2530.983</ele>
        <time>2015-08-19T07:56:58Z</time>
      </trkpt>
      <trkpt lat="45.71213" lon="6.70762">
        <ele>2530.983</ele>
        <time>2015-08-19T07:57:03Z</time>
      </trkpt>
      <trkpt lat="45.71206" lon="6.70751">
        <ele>2529.5208</ele>
        <time>2015-08-19T07:57:13Z</time>
      </trkpt>
      <trkpt lat="45.71201" lon="6.70744">
        <ele>2529.5208</ele>
        <time>2015-08-19T07:57:18Z</time>
      </trkpt>
      <trkpt lat="45.71195" lon="6.70732">
        <ele>2528.025</ele>
        <time>2015-08-19T07:57:28Z</time>
      </trkpt>
      <trkpt lat="45.71192" lon="6.70729">
        <ele>2528.025</ele>
        <time>2015-08-19T07:57:33Z</time>
      </trkpt>
      <trkpt lat="45.71184" lon="6.7072">
        <ele>2526.361</ele>
        <time>2015-08-19T07:57:43Z</time>
      </trkpt>
      <trkpt lat="45.7118" lon="6.70714">
        <ele>2526.361</ele>
        <time>2015-08-19T07:57:48Z</time>
      </trkpt>
      <trkpt lat="45.71173" lon="6.707">
        <ele>2524.5056</ele>
        <time>2015-08-19T07:57:58Z</time>
      </trkpt>
      <trkpt lat="45.71168" lon="6.70692">
        <ele>2524.5056</ele>
        <time>2015-08-19T07:58:03Z</time>
      </trkpt>
      <trkpt lat="45.71161" lon="6.7067">
        <ele>2522.4521</ele>
        <time>2015-08-19T07:58:18Z</time>
      </trkpt>
      <trkpt lat="45.71159" lon="6.70666">
        <ele>2522.4521</ele>
        <time>2015-08-19T07:58:23Z</time>
      </trkpt>
      <trkpt lat="45.71156" lon="6.70657">
        <ele>2520.2087</ele>
        <time>2015-08-19T07:58:33Z</time>
      </trkpt>
      <trkpt lat="45.71153" lon="6.70652">
        <ele>2520.2087</ele>
        <time>2015-08-19T07:58:38Z</time>
      </trkpt>
      <trkpt lat="45.71145" lon="6.70634">
        <ele>2517.841</ele>
        <time>2015-08-19T07:58:48Z</time>
      </trkpt>
      <trkpt lat="45.71143" lon="6.7063">
        <ele>2517.841</ele>
        <time>2015-08-19T07:58:53Z</time>
      </trkpt>
      <trkpt lat="45.71138" lon="6.70614">
        <ele>2515.3813</ele>
        <time>2015-08-19T07:59:03Z</time>
      </trkpt>
      <trkpt lat="45.71137" lon="6.70609">
        <ele>2515.3813</ele>
        <time>2015-08-19T07:59:08Z</time>
      </trkpt>
      <trkpt lat="45.71133" lon="6.70598">
        <ele>2512.7444</ele>
        <time>2015-08-19T07:59:18Z</time>
      </trkpt>
      <trkpt lat="45.71131" lon="6.7059">
        <ele>2512.7444</ele>
        <time>2015-08-19T07:59:23Z</time>
      </trkpt>
      <trkpt lat="45.71124" lon="6.70574">
        <ele>2509.9954</ele>
        <time>2015-08-19T07:59:33Z</time>
      </trkpt>
      <trkpt lat="45.7112" lon="6.70569">
        <ele>2509.9954</ele>
        <time>2015-08-19T07:59:38Z</time>
      </trkpt>
      <trkpt lat="45.71113" lon="6.70551">
        <ele>2506.7913</ele>
        <time>2015-08-19T07:59:53Z</time>
      </trkpt>
      <trkpt lat="45.71111" lon="6.70545">
        <ele>2506.7913</ele>
        <time>2015-08-19T07:59:58Z</time>
      </trkpt>
      <trkpt lat="45.71106" lon="6.70534">
        <ele>2503.5068</ele>
        <time>2015-08-19T08:00:08Z</time>
      </trkpt>
      <trkpt lat="45.71105" lon="6.70529">
        <ele>2503.5068</ele>
        <time>2015-08-19T08:00:13Z</time>
      </trkpt>
      <trkpt lat="45.71101" lon="6.70518">
        <ele>2500.3457</ele>
        <time>2015-08-19T08:00:23Z</time>
      </trkpt>
      <trkpt lat="45.711" lon="6.70518">
        <ele>2500.3457</ele>
        <time>2015-08-19T08:00:28Z</time>
      </trkpt>
      <trkpt lat="45.71096" lon="6.70512">
        <ele>2500.3457</ele>
        <time>2015-08-19T08:00:38Z</time>
      </trkpt>
      <trkpt lat="45.71095" lon="6.70506">
        <ele>2496.89</ele>
        <time>2015-08-19T08:00:43Z</time>
      </trkpt>
      <trkpt lat="45.71087" lon="6.70494">
        <ele>2493.474</ele>
        <time>2015-08-19T08:00:53Z</time>
      </trkpt>
      <trkpt lat="45.71083" lon="6.70489">
        <ele>2493.474</ele>
        <time>2015-08-19T08:00:58Z</time>
      </trkpt>
      <trkpt lat="45.7108" lon="6.70476">
        <ele>2490.004</ele>
        <time>2015-08-19T08:01:08Z</time>
      </trkpt>
      <trkpt lat="45.7108" lon="6.70471">
        <ele>2490.004</ele>
        <time>2015-08-19T08:01:13Z</time>
      </trkpt>
      <trkpt lat="45.71073" lon="6.70459">
        <ele>2486.507</ele>
        <time>2015-08-19T08:01:23Z</time>
      </trkpt>
      <trkpt lat="45.71068" lon="6.70448">
        <ele>2486.507</ele>
        <time>2015-08-19T08:01:28Z</time>
      </trkpt>
      <trkpt lat="45.71063" lon="6.70445">
        <ele>2482.865</ele>
        <time>2015-08-19T08:01:38Z</time>
      </trkpt>
      <trkpt lat="45.71064" lon="6.70446">
        <ele>2482.865</ele>
        <time>2015-08-19T08:01:43Z</time>
      </trkpt>
      <trkpt lat="45.71066" lon="6.70444">
        <ele>2482.865</ele>
        <time>2015-08-19T08:01:58Z</time>
      </trkpt>
      <trkpt lat="45.71067" lon="6.70442">
        <ele>2482.865</ele>
        <time>2015-08-19T08:02:03Z</time>
      </trkpt>
      <trkpt lat="45.71066" lon="6.70438">
        <ele>2482.865</ele>
        <time>2015-08-19T08:02:13Z</time>
      </trkpt>
      <trkpt lat="45.71066" lon="6.7044">
        <ele>2479.4436</ele>
        <time>2015-08-19T08:02:18Z</time>
      </trkpt>
      <trkpt lat="45.71065" lon="6.7044">
        <ele>2479.4436</ele>
        <time>2015-08-19T08:02:28Z</time>
      </trkpt>
      <trkpt lat="45.71063" lon="6.70434">
        <ele>2479.4436</ele>
        <time>2015-08-19T08:02:33Z</time>
      </trkpt>
      <trkpt lat="45.7106" lon="6.70417">
        <ele>2476.3794</ele>
        <time>2015-08-19T08:02:43Z</time>
      </trkpt>
      <trkpt lat="45.71056" lon="6.70412">
        <ele>2476.3794</ele>
        <time>2015-08-19T08:02:48Z</time>
      </trkpt>
      <trkpt lat="45.71051" lon="6.70405">
        <ele>2473.451</ele>
        <time>2015-08-19T08:02:58Z</time>
      </trkpt>
      <trkpt lat="45.7105" lon="6.704">
        <ele>2473.451</ele>
        <time>2015-08-19T08:03:03Z</time>
      </trkpt>
      <trkpt lat="45.71046" lon="6.7039">
        <ele>2470.5398</ele>
        <time>2015-08-19T08:03:13Z</time>
      </trkpt>
      <trkpt lat="45.71044" lon="6.70384">
        <ele>2470.5398</ele>
        <time>2015-08-19T08:03:18Z</time>
      </trkpt>
      <trkpt lat="45.71039" lon="6.70367">
        <ele>2467.3909</ele>
        <time>2015-08-19T08:03:33Z</time>
      </trkpt>
      <trkpt lat="45.71037" lon="6.70361">
        <ele>2467.3909</ele>
        <time>2015-08-19T08:03:38Z</time>
      </trkpt>
      <trkpt lat="45.71035" lon="6.70348">
        <ele>2464.3167</ele>
        <time>2015-08-19T08:03:48Z</time>
      </trkpt>
      <trkpt lat="45.71034" lon="6.70342">
        <ele>2464.3167</ele>
        <time>2015-08-19T08:03:53Z</time>
      </trkpt>
      <trkpt lat="45.71032" lon="6.70329">
        <ele>2461.3892</ele>
        <time>2015-08-19T08:04:03Z</time>
      </trkpt>
      <trkpt lat="45.71028" lon="6.70321">
        <ele>2461.3892</ele>
        <time>2015-08-19T08:04:08Z</time>
      </trkpt>
      <trkpt lat="45.71023" lon="6.70311">
        <ele>2458.459</ele>
        <time>2015-08-19T08:04:18Z</time>
      </trkpt>
      <trkpt lat="45.71021" lon="6.70306">
        <ele>2458.459</ele>
        <time>2015-08-19T08:04:23Z</time>
      </trkpt>
      <trkpt lat="45.71017" lon="6.70293">
        <ele>2455.5889</ele>
        <time>2015-08-19T08:04:33Z</time>
      </trkpt>
      <trkpt lat="45.71018" lon="6.70288">
        <ele>2455.5889</ele>
        <time>2015-08-19T08:04:38Z</time>
      </trkpt>
      <trkpt lat="45.71015" lon="6.70275">
        <ele>2452.8074</ele>
        <time>2015-08-19T08:04:48Z</time>
      </trkpt>
      <trkpt lat="45.71013" lon="6.70268">
        <ele>2452.8074</ele>
        <time>2015-08-19T08:04:53Z</time>
      </trkpt>
      <trkpt lat="45.7101" lon="6.70253">
        <ele>2450.0688</ele>
        <time>2015-08-19T08:05:08Z</time>
      </trkpt>
      <trkpt lat="45.71009" lon="6.70249">
        <ele>2450.0688</ele>
        <time>2015-08-19T08:05:13Z</time>
      </trkpt>
      <trkpt lat="45.7101" lon="6.70242">
        <ele>2450.0688</ele>
        <time>2015-08-19T08:05:23Z</time>
      </trkpt>
      <trkpt lat="45.71009" lon="6.70237">
        <ele>2447.3015</ele>
        <time>2015-08-19T08:05:28Z</time>
      </trkpt>
      <trkpt lat="45.71006" lon="6.70229">
        <ele>2447.3015</ele>
        <time>2015-08-19T08:05:38Z</time>
      </trkpt>
      <trkpt lat="45.71006" lon="6.70226">
        <ele>2447.3015</ele>
        <time>2015-08-19T08:05:43Z</time>
      </trkpt>
      <trkpt lat="45.71004" lon="6.70224">
        <ele>2444.237</ele>
        <time>2015-08-19T08:05:53Z</time>
      </trkpt>
      <trkpt lat="45.71004" lon="6.70222">
        <ele>2444.237</ele>
        <time>2015-08-19T08:05:58Z</time>
      </trkpt>
      <trkpt lat="45.71004" lon="6.70215">
        <ele>2444.237</ele>
        <time>2015-08-19T08:06:08Z</time>
      </trkpt>
      <trkpt lat="45.71004" lon="6.70214">
        <ele>2444.237</ele>
        <time>2015-08-19T08:06:13Z</time>
      </trkpt>
      <trkpt lat="45.71001" lon="6.7021">
        <ele>2440.6133</ele>
        <time>2015-08-19T08:06:23Z</time>
      </trkpt>
      <trkpt lat="45.71001" lon="6.7021">
        <ele>2440.6133</ele>
        <time>2015-08-19T08:06:28Z</time>
      </trkpt>
      <trkpt lat="45.71001" lon="6.70208">
        <ele>2440.6133</ele>
        <time>2015-08-19T08:06:38Z</time>
      </trkpt>
      <trkpt lat="45.70999" lon="6.70208">
        <ele>2440.6133</ele>
        <time>2015-08-19T08:06:43Z</time>
      </trkpt>
      <trkpt lat="45.70997" lon="6.70201">
        <ele>2440.6133</ele>
        <time>2015-08-19T08:06:53Z</time>
      </trkpt>
      <trkpt lat="45.70997" lon="6.70198">
        <ele>2436.6348</ele>
        <time>2015-08-19T08:06:58Z</time>
      </trkpt>
      <trkpt lat="45.70993" lon="6.70199">
        <ele>2436.6348</ele>
        <time>2015-08-19T08:07:13Z</time>
      </trkpt>
      <trkpt lat="45.70992" lon="6.70199">
        <ele>2436.6348</ele>
        <time>2015-08-19T08:07:18Z</time>
      </trkpt>
      <trkpt lat="45.70991" lon="6.70188">
        <ele>2432.694</ele>
        <time>2015-08-19T08:07:28Z</time>
      </trkpt>
      <trkpt lat="45.70991" lon="6.70183">
        <ele>2432.694</ele>
        <time>2015-08-19T08:07:33Z</time>
      </trkpt>
      <trkpt lat="45.70988" lon="6.7017">
        <ele>2428.9524</ele>
        <time>2015-08-19T08:07:43Z</time>
      </trkpt>
      <trkpt lat="45.70985" lon="6.70165">
        <ele>2428.9524</ele>
        <time>2015-08-19T08:07:48Z</time>
      </trkpt>
      <trkpt lat="45.70981" lon="6.70152">
        <ele>2425.4004</ele>
        <time>2015-08-19T08:07:58Z</time>
      </trkpt>
      <trkpt lat="45.70979" lon="6.70144">
        <ele>2425.4004</ele>
        <time>2015-08-19T08:08:03Z</time>
      </trkpt>
      <trkpt lat="45.70974" lon="6.70128">
        <ele>2422.0278</ele>
        <time>2015-08-19T08:08:13Z</time>
      </trkpt>
      <trkpt lat="45.70973" lon="6.70121">
        <ele>2422.0278</ele>
        <time>2015-08-19T08:08:18Z</time>
      </trkpt>
      <trkpt lat="45.7097" lon="6.70108">
        <ele>2418.8975</ele>
        <time>2015-08-19T08:08:28Z</time>
      </trkpt>
      <trkpt lat="45.70967" lon="6.70101">
        <ele>2418.8975</ele>
        <time>2015-08-19T08:08:33Z</time>
      </trkpt>
      <trkpt lat="45.70965" lon="6.70087">
        <ele>2416.0369</ele>
        <time>2015-08-19T08:08:43Z</time>
      </trkpt>
      <trkpt lat="45.70963" lon="6.7008">
        <ele>2416.0369</ele>
        <time>2015-08-19T08:08:48Z</time>
      </trkpt>
      <trkpt lat="45.70959" lon="6.70063">
        <ele>2413.5288</ele>
        <time>2015-08-19T08:08:58Z</time>
      </trkpt>
      <trkpt lat="45.70956" lon="6.70057">
        <ele>2413.5288</ele>
        <time>2015-08-19T08:09:03Z</time>
      </trkpt>
      <trkpt lat="45.70949" lon="6.70041">
        <ele>2411.4343</ele>
        <time>2015-08-19T08:09:13Z</time>
      </trkpt>
      <trkpt lat="45.70947" lon="6.70036">
        <ele>2411.4343</ele>
        <time>2015-08-19T08:09:18Z</time>
      </trkpt>
      <trkpt lat="45.70945" lon="6.70023">
        <ele>2409.7651</ele>
        <time>2015-08-19T08:09:28Z</time>
      </trkpt>
      <trkpt lat="45.70944" lon="6.70017">
        <ele>2409.7651</ele>
        <time>2015-08-19T08:09:33Z</time>
      </trkpt>
      <trkpt lat="45.7094" lon="6.70008">
        <ele>2408.4734</ele>
        <time>2015-08-19T08:09:43Z</time>
      </trkpt>
      <trkpt lat="45.70938" lon="6.70002">
        <ele>2408.4734</ele>
        <time>2015-08-19T08:09:48Z</time>
      </trkpt>
      <trkpt lat="45.70934" lon="6.69987">
        <ele>2407.47</ele>
        <time>2015-08-19T08:09:58Z</time>
      </trkpt>
      <trkpt lat="45.70933" lon="6.69981">
        <ele>2407.47</ele>
        <time>2015-08-19T08:10:03Z</time>
      </trkpt>
      <trkpt lat="45.70932" lon="6.69981">
        <ele>2407.47</ele>
        <time>2015-08-19T08:10:13Z</time>
      </trkpt>
      <trkpt lat="45.70935" lon="6.69984">
        <ele>2407.47</ele>
        <time>2015-08-19T08:10:18Z</time>
      </trkpt>
      <trkpt lat="45.70934" lon="6.69973">
        <ele>2407.2336</ele>
        <time>2015-08-19T08:10:28Z</time>
      </trkpt>
      <trkpt lat="45.70937" lon="6.69972">
        <ele>2407.2336</ele>
        <time>2015-08-19T08:10:33Z</time>
      </trkpt>
      <trkpt lat="45.70949" lon="6.69985">
        <ele>2406.9521</ele>
        <time>2015-08-19T08:10:48Z</time>
      </trkpt>
      <trkpt lat="45.70951" lon="6.69989">
        <ele>2406.9521</ele>
        <time>2015-08-19T08:10:53Z</time>
      </trkpt>
      <trkpt lat="45.70956" lon="6.69996">
        <ele>2406.9392</ele>
        <time>2015-08-19T08:11:03Z</time>
      </trkpt>
      <trkpt lat="45.70956" lon="6.70003">
        <ele>2406.9392</ele>
        <time>2015-08-19T08:11:08Z</time>
      </trkpt>
      <trkpt lat="45.7096" lon="6.70011">
        <ele>2406.9077</ele>
        <time>2015-08-19T08:11:18Z</time>
      </trkpt>
      <trkpt lat="45.70963" lon="6.70011">
        <ele>2406.9077</ele>
        <time>2015-08-19T08:11:23Z</time>
      </trkpt>
      <trkpt lat="45.70961" lon="6.69997">
        <ele>2406.5928</ele>
        <time>2015-08-19T08:11:33Z</time>
      </trkpt>
      <trkpt lat="45.70959" lon="6.69991">
        <ele>2406.5928</ele>
        <time>2015-08-19T08:11:38Z</time>
      </trkpt>
      <trkpt lat="45.70946" lon="6.69982">
        <ele>2406.1094</ele>
        <time>2015-08-19T08:11:48Z</time>
      </trkpt>
      <trkpt lat="45.70944" lon="6.6998">
        <ele>2406.1094</ele>
        <time>2015-08-19T08:11:53Z</time>
      </trkpt>
      <trkpt lat="45.70946" lon="6.69975">
        <ele>2406.1094</ele>
        <time>2015-08-19T08:12:03Z</time>
      </trkpt>
      <trkpt lat="45.70948" lon="6.6997">
        <ele>2405.1318</ele>
        <time>2015-08-19T08:12:08Z</time>
      </trkpt>
      <trkpt lat="45.70954" lon="6.69955">
        <ele>2404.1245</ele>
        <time>2015-08-19T08:12:18Z</time>
      </trkpt>
      <trkpt lat="45.70956" lon="6.69949">
        <ele>2404.1245</ele>
        <time>2015-08-19T08:12:23Z</time>
      </trkpt>
      <trkpt lat="45.70957" lon="6.69938">
        <ele>2403.056</ele>
        <time>2015-08-19T08:12:33Z</time>
      </trkpt>
      <trkpt lat="45.70956" lon="6.69931">
        <ele>2403.056</ele>
        <time>2015-08-19T08:12:38Z</time>
      </trkpt>
      <trkpt lat="45.70953" lon="6.69918">
        <ele>2401.9407</ele>
        <time>2015-08-19T08:12:48Z</time>
      </trkpt>
      <trkpt lat="45.70955" lon="6.69913">
        <ele>2401.9407</ele>
        <time>2015-08-19T08:12:53Z</time>
      </trkpt>
      <trkpt lat="45.70958" lon="6.699">
        <ele>2400.6914</ele>
        <time>2015-08-19T08:13:08Z</time>
      </trkpt>
      <trkpt lat="45.70958" lon="6.69895">
        <ele>2400.6914</ele>
        <time>2015-08-19T08:13:13Z</time>
      </trkpt>
      <trkpt lat="45.70962" lon="6.69889">
        <ele>2400.6914</ele>
        <time>2015-08-19T08:13:23Z</time>
      </trkpt>
      <trkpt lat="45.70961" lon="6.69882">
        <ele>2399.5884</ele>
        <time>2015-08-19T08:13:28Z</time>
      </trkpt>
      <trkpt lat="45.70967" lon="6.69868">
        <ele>2398.6743</ele>
        <time>2015-08-19T08:13:38Z</time>
      </trkpt>
      <trkpt lat="45.70966" lon="6.69863">
        <ele>2398.6743</ele>
        <time>2015-08-19T08:13:43Z</time>
      </trkpt>
      <trkpt lat="45.7097" lon="6.69851">
        <ele>2398.0603</ele>
        <time>2015-08-19T08:13:53Z</time>
      </trkpt>
      <trkpt lat="45.70969" lon="6.69848">
        <ele>2398.0603</ele>
        <time>2015-08-19T08:13:58Z</time>
      </trkpt>
      <trkpt lat="45.70966" lon="6.6984">
        <ele>2398.0603</ele>
        <time>2015-08-19T08:14:08Z</time>
      </trkpt>
      <trkpt lat="45.70966" lon="6.6984">
        <ele>2397.4744</ele>
        <time>2015-08-19T08:14:13Z</time>
      </trkpt>
      <trkpt lat="45.70958" lon="6.69832">
        <ele>2396.8657</ele>
        <time>2015-08-19T08:14:23Z</time>
      </trkpt>
      <trkpt lat="45.70954" lon="6.69829">
        <ele>2396.8657</ele>
        <time>2015-08-19T08:14:28Z</time>
      </trkpt>
      <trkpt lat="45.70951" lon="6.69828">
        <ele>2396.8657</ele>
        <time>2015-08-19T08:14:38Z</time>
      </trkpt>
      <trkpt lat="45.70953" lon="6.69822">
        <ele>2396.0151</ele>
        <time>2015-08-19T08:14:53Z</time>
      </trkpt>
      <trkpt lat="45.7095" lon="6.69814">
        <ele>2396.0151</ele>
        <time>2015-08-19T08:14:58Z</time>
      </trkpt>
      <trkpt lat="45.70951" lon="6.69806">
        <ele>2395.109</ele>
        <time>2015-08-19T08:15:08Z</time>
      </trkpt>
      <trkpt lat="45.70952" lon="6.69802">
        <ele>2395.109</ele>
        <time>2015-08-19T08:15:13Z</time>
      </trkpt>
      <trkpt lat="45.70954" lon="6.69793">
        <ele>2393.7869</ele>
        <time>2015-08-19T08:15:23Z</time>
      </trkpt>
      <trkpt lat="45.70954" lon="6.69786">
        <ele>2393.7869</ele>
        <time>2015-08-19T08:15:28Z</time>
      </trkpt>
      <trkpt lat="45.70957" lon="6.69767">
        <ele>2391.947</ele>
        <time>2015-08-19T08:15:43Z</time>
      </trkpt>
      <trkpt lat="45.70956" lon="6.69761">
        <ele>2391.947</ele>
        <time>2015-08-19T08:15:48Z</time>
      </trkpt>
      <trkpt lat="45.70957" lon="6.69749">
        <ele>2389.9727</ele>
        <time>2015-08-19T08:15:58Z</time>
      </trkpt>
      <trkpt lat="45.70958" lon="6.69748">
        <ele>2389.9727</ele>
        <time>2015-08-19T08:16:03Z</time>
      </trkpt>
      <trkpt lat="45.70955" lon="6.69734">
        <ele>2388.0166</ele>
        <time>2015-08-19T08:16:13Z</time>
      </trkpt>
      <trkpt lat="45.70957" lon="6.69727">
        <ele>2388.0166</ele>
        <time>2015-08-19T08:16:18Z</time>
      </trkpt>
      <trkpt lat="45.70964" lon="6.6972">
        <ele>2385.8755</ele>
        <time>2015-08-19T08:16:28Z</time>
      </trkpt>
      <trkpt lat="45.70964" lon="6.69717">
        <ele>2385.8755</ele>
        <time>2015-08-19T08:16:33Z</time>
      </trkpt>
      <trkpt lat="45.70964" lon="6.69701">
        <ele>2383.7793</ele>
        <time>2015-08-19T08:16:43Z</time>
      </trkpt>
      <trkpt lat="45.70964" lon="6.69699">
        <ele>2383.7793</ele>
        <time>2015-08-19T08:16:48Z</time>
      </trkpt>
      <trkpt lat="45.70964" lon="6.69699">
        <ele>2383.7793</ele>
        <time>2015-08-19T08:16:58Z</time>
      </trkpt>
      <trkpt lat="45.70958" lon="6.69685">
        <ele>2381.494</ele>
        <time>2015-08-19T08:18:03Z</time>
      </trkpt>
      <trkpt lat="45.70959" lon="6.69679">
        <ele>2381.494</ele>
        <time>2015-08-19T08:18:08Z</time>
      </trkpt>
      <trkpt lat="45.70963" lon="6.69667">
        <ele>2379.2356</ele>
        <time>2015-08-19T08:18:18Z</time>
      </trkpt>
      <trkpt lat="45.70967" lon="6.69662">
        <ele>2379.2356</ele>
        <time>2015-08-19T08:18:23Z</time>
      </trkpt>
      <trkpt lat="45.70971" lon="6.69643">
        <ele>2376.9456</ele>
        <time>2015-08-19T08:18:33Z</time>
      </trkpt>
      <trkpt lat="45.7097" lon="6.69636">
        <ele>2376.9456</ele>
        <time>2015-08-19T08:18:38Z</time>
      </trkpt>
      <trkpt lat="45.70969" lon="6.6962">
        <ele>2374.915</ele>
        <time>2015-08-19T08:18:48Z</time>
      </trkpt>
      <trkpt lat="45.70969" lon="6.69614">
        <ele>2374.915</ele>
        <time>2015-08-19T08:18:53Z</time>
      </trkpt>
      <trkpt lat="45.70972" lon="6.69603">
        <ele>2372.8801</ele>
        <time>2015-08-19T08:19:03Z</time>
      </trkpt>
      <trkpt lat="45.70972" lon="6.69595">
        <ele>2372.8801</ele>
        <time>2015-08-19T08:19:08Z</time>
      </trkpt>
      <trkpt lat="45.70971" lon="6.69582">
        <ele>2371.029</ele>
        <time>2015-08-19T08:19:18Z</time>
      </trkpt>
      <trkpt lat="45.70967" lon="6.69578">
        <ele>2371.029</ele>
        <time>2015-08-19T08:19:23Z</time>
      </trkpt>
      <trkpt lat="45.70961" lon="6.69573">
        <ele>2369.3044</ele>
        <time>2015-08-19T08:19:33Z</time>
      </trkpt>
      <trkpt lat="45.70961" lon="6.69572">
        <ele>2369.3044</ele>
        <time>2015-08-19T08:19:38Z</time>
      </trkpt>
      <trkpt lat="45.70978" lon="6.69577">
        <ele>2367.221</ele>
        <time>2015-08-19T08:19:53Z</time>
      </trkpt>
      <trkpt lat="45.70981" lon="6.69581">
        <ele>2367.221</ele>
        <time>2015-08-19T08:19:58Z</time>
      </trkpt>
      <trkpt lat="45.70982" lon="6.69581">
        <ele>2367.221</ele>
        <time>2015-08-19T08:20:08Z</time>
      </trkpt>
      <trkpt lat="45.70983" lon="6.69582">
        <ele>2367.221</ele>
        <time>2015-08-19T08:20:13Z</time>
      </trkpt>
      <trkpt lat="45.70985" lon="6.69593">
        <ele>2365.0217</ele>
        <time>2015-08-19T08:20:23Z</time>
      </trkpt>
      <trkpt lat="45.70985" lon="6.69599">
        <ele>2365.0217</ele>
        <time>2015-08-19T08:20:28Z</time>
      </trkpt>
      <trkpt lat="45.70988" lon="6.69599">
        <ele>2365.0217</ele>
        <time>2015-08-19T08:20:38Z</time>
      </trkpt>
      <trkpt lat="45.70995" lon="6.69595">
        <ele>2362.8171</ele>
        <time>2015-08-19T08:20:43Z</time>
      </trkpt>
      <trkpt lat="45.7101" lon="6.69588">
        <ele>2360.6948</ele>
        <time>2015-08-19T08:20:53Z</time>
      </trkpt>
      <trkpt lat="45.71009" lon="6.69583">
        <ele>2360.6948</ele>
        <time>2015-08-19T08:20:58Z</time>
      </trkpt>
      <trkpt lat="45.71008" lon="6.69574">
        <ele>2358.4766</ele>
        <time>2015-08-19T08:21:08Z</time>
      </trkpt>
      <trkpt lat="45.71009" lon="6.6957">
        <ele>2358.4766</ele>
        <time>2015-08-19T08:21:13Z</time>
      </trkpt>
      <trkpt lat="45.7101" lon="6.69559">
        <ele>2356.127</ele>
        <time>2015-08-19T08:21:23Z</time>
      </trkpt>
      <trkpt lat="45.71013" lon="6.69557">
        <ele>2356.127</ele>
        <time>2015-08-19T08:21:28Z</time>
      </trkpt>
      <trkpt lat="45.71014" lon="6.69544">
        <ele>2353.4558</ele>
        <time>2015-08-19T08:21:43Z</time>
      </trkpt>
      <trkpt lat="45.71014" lon="6.69541">
        <ele>2353.4558</ele>
        <time>2015-08-19T08:21:48Z</time>
      </trkpt>
      <trkpt lat="45.71018" lon="6.69534">
        <ele>2353.4558</ele>
        <time>2015-08-19T08:21:58Z</time>
      </trkpt>
      <trkpt lat="45.71024" lon="6.69528">
        <ele>2350.4888</ele>
        <time>2015-08-19T08:22:03Z</time>
      </trkpt>
      <trkpt lat="45.71034" lon="6.69522">
        <ele>2347.6975</ele>
        <time>2015-08-19T08:22:13Z</time>
      </trkpt>
      <trkpt lat="45.71039" lon="6.6952">
        <ele>2347.6975</ele>
        <time>2015-08-19T08:22:18Z</time>
      </trkpt>
      <trkpt lat="45.71047" lon="6.69519">
        <ele>2345.2446</ele>
        <time>2015-08-19T08:22:28Z</time>
      </trkpt>
      <trkpt lat="45.71045" lon="6.69516">
        <ele>2345.2446</ele>
        <time>2015-08-19T08:22:33Z</time>
      </trkpt>
      <trkpt lat="45.71041" lon="6.69516">
        <ele>2345.2446</ele>
        <time>2015-08-19T08:22:43Z</time>
      </trkpt>
      <trkpt lat="45.71044" lon="6.69518">
        <ele>2342.2856</ele>
        <time>2015-08-19T08:22:48Z</time>
      </trkpt>
      <trkpt lat="45.71058" lon="6.69515">
        <ele>2339.4084</ele>
        <time>2015-08-19T08:22:58Z</time>
      </trkpt>
      <trkpt lat="45.71065" lon="6.69512">
        <ele>2339.4084</ele>
        <time>2015-08-19T08:23:03Z</time>
      </trkpt>
      <trkpt lat="45.71077" lon="6.6951">
        <ele>2336.5237</ele>
        <time>2015-08-19T08:23:13Z</time>
      </trkpt>
      <trkpt lat="45.71081" lon="6.69512">
        <ele>2336.5237</ele>
        <time>2015-08-19T08:23:18Z</time>
      </trkpt>
      <trkpt lat="45.71095" lon="6.69508">
        <ele>2333.6055</ele>
        <time>2015-08-19T08:23:33Z</time>
      </trkpt>
      <trkpt lat="45.71097" lon="6.69505">
        <ele>2333.6055</ele>
        <time>2015-08-19T08:23:38Z</time>
      </trkpt>
      <trkpt lat="45.71104" lon="6.69497">
        <ele>2330.717</ele>
        <time>2015-08-19T08:23:48Z</time>
      </trkpt>
      <trkpt lat="45.71106" lon="6.69496">
        <ele>2330.717</ele>
        <time>2015-08-19T08:23:53Z</time>
      </trkpt>
      <trkpt lat="45.71106" lon="6.69489">
        <ele>2330.717</ele>
        <time>2015-08-19T08:24:03Z</time>
      </trkpt>
      <trkpt lat="45.71112" lon="6.69485">
        <ele>2327.6287</ele>
        <time>2015-08-19T08:24:08Z</time>
      </trkpt>
      <trkpt lat="45.71121" lon="6.69475">
        <ele>2324.6028</ele>
        <time>2015-08-19T08:24:18Z</time>
      </trkpt>
      <trkpt lat="45.71127" lon="6.6947">
        <ele>2324.6028</ele>
        <time>2015-08-19T08:24:23Z</time>
      </trkpt>
      <trkpt lat="45.71138" lon="6.69463">
        <ele>2321.696</ele>
        <time>2015-08-19T08:24:33Z</time>
      </trkpt>
      <trkpt lat="45.7114" lon="6.69459">
        <ele>2321.696</ele>
        <time>2015-08-19T08:24:38Z</time>
      </trkpt>
      <trkpt lat="45.71147" lon="6.6945">
        <ele>2318.6714</ele>
        <time>2015-08-19T08:24:48Z</time>
      </trkpt>
      <trkpt lat="45.71151" lon="6.69446">
        <ele>2318.6714</ele>
        <time>2015-08-19T08:24:53Z</time>
      </trkpt>
      <trkpt lat="45.7116" lon="6.69444">
        <ele>2315.8289</ele>
        <time>2015-08-19T08:25:03Z</time>
      </trkpt>
      <trkpt lat="45.71166" lon="6.69445">
        <ele>2315.8289</ele>
        <time>2015-08-19T08:25:08Z</time>
      </trkpt>
      <trkpt lat="45.71166" lon="6.69444">
        <ele>2315.8289</ele>
        <time>2015-08-19T08:25:18Z</time>
      </trkpt>
      <trkpt lat="45.71167" lon="6.69441">
        <ele>2313.287</ele>
        <time>2015-08-19T08:25:23Z</time>
      </trkpt>
      <trkpt lat="45.7117" lon="6.69442">
        <ele>2313.287</ele>
        <time>2015-08-19T08:25:33Z</time>
      </trkpt>
      <trkpt lat="45.71169" lon="6.69444">
        <ele>2313.287</ele>
        <time>2015-08-19T08:25:38Z</time>
      </trkpt>
      <trkpt lat="45.7117" lon="6.69445">
        <ele>2313.287</ele>
        <time>2015-08-19T08:25:53Z</time>
      </trkpt>
      <trkpt lat="45.71169" lon="6.69442">
        <ele>2313.287</ele>
        <time>2015-08-19T08:25:58Z</time>
      </trkpt>
      <trkpt lat="45.71168" lon="6.69439">
        <ele>2311.011</ele>
        <time>2015-08-19T08:26:08Z</time>
      </trkpt>
      <trkpt lat="45.71168" lon="6.69441">
        <ele>2311.011</ele>
        <time>2015-08-19T08:26:13Z</time>
      </trkpt>
      <trkpt lat="45.71166" lon="6.69442">
        <ele>2311.011</ele>
        <time>2015-08-19T08:26:23Z</time>
      </trkpt>
      <trkpt lat="45.71166" lon="6.69439">
        <ele>2311.011</ele>
        <time>2015-08-19T08:26:28Z</time>
      </trkpt>
      <trkpt lat="45.7117" lon="6.69439">
        <ele>2309.3276</ele>
        <time>2015-08-19T08:26:38Z</time>
      </trkpt>
      <trkpt lat="45.7117" lon="6.69439">
        <ele>2309.3276</ele>
        <time>2015-08-19T08:26:43Z</time>
      </trkpt>
      <trkpt lat="45.7117" lon="6.69437">
        <ele>2309.3276</ele>
        <time>2015-08-19T08:26:53Z</time>
      </trkpt>
      <trkpt lat="45.71169" lon="6.69439">
        <ele>2309.3276</ele>
        <time>2015-08-19T08:26:58Z</time>
      </trkpt>
      <trkpt lat="45.7117" lon="6.6944">
        <ele>2309.3276</ele>
        <time>2015-08-19T08:27:08Z</time>
      </trkpt>
      <trkpt lat="45.71169" lon="6.69439">
        <ele>2309.3276</ele>
        <time>2015-08-19T08:27:13Z</time>
      </trkpt>
      <trkpt lat="45.71166" lon="6.69437">
        <ele>2309.3276</ele>
        <time>2015-08-19T08:27:23Z</time>
      </trkpt>
      <trkpt lat="45.71167" lon="6.69437">
        <ele>2307.832</ele>
        <time>2015-08-19T08:27:28Z</time>
      </trkpt>
      <trkpt lat="45.71169" lon="6.69436">
        <ele>2307.832</ele>
        <time>2015-08-19T08:27:38Z</time>
      </trkpt>
      <trkpt lat="45.71167" lon="6.69436">
        <ele>2307.832</ele>
        <time>2015-08-19T08:27:43Z</time>
      </trkpt>
      <trkpt lat="45.71166" lon="6.69438">
        <ele>2307.832</ele>
        <time>2015-08-19T08:27:58Z</time>
      </trkpt>
      <trkpt lat="45.71165" lon="6.69438">
        <ele>2307.832</ele>
        <time>2015-08-19T08:28:03Z</time>
      </trkpt>
      <trkpt lat="45.71167" lon="6.69439">
        <ele>2306.682</ele>
        <time>2015-08-19T08:28:13Z</time>
      </trkpt>
      <trkpt lat="45.71168" lon="6.69438">
        <ele>2306.682</ele>
        <time>2015-08-19T08:28:18Z</time>
      </trkpt>
      <trkpt lat="45.71169" lon="6.69437">
        <ele>2306.682</ele>
        <time>2015-08-19T08:28:28Z</time>
      </trkpt>
      <trkpt lat="45.71171" lon="6.69436">
        <ele>2306.682</ele>
        <time>2015-08-19T08:28:33Z</time>
      </trkpt>
      <trkpt lat="45.71173" lon="6.69435">
        <ele>2306.682</ele>
        <time>2015-08-19T08:28:43Z</time>
      </trkpt>
      <trkpt lat="45.71172" lon="6.69433">
        <ele>2306.682</ele>
        <time>2015-08-19T08:28:48Z</time>
      </trkpt>
      <trkpt lat="45.71172" lon="6.69431">
        <ele>2305.9353</ele>
        <time>2015-08-19T08:28:58Z</time>
      </trkpt>
      <trkpt lat="45.71171" lon="6.69432">
        <ele>2305.9353</ele>
        <time>2015-08-19T08:29:03Z</time>
      </trkpt>
      <trkpt lat="45.7117" lon="6.6943">
        <ele>2305.9353</ele>
        <time>2015-08-19T08:29:13Z</time>
      </trkpt>
      <trkpt lat="45.71168" lon="6.69429">
        <ele>2305.9353</ele>
        <time>2015-08-19T08:29:18Z</time>
      </trkpt>
      <trkpt lat="45.71166" lon="6.69426">
        <ele>2305.141</ele>
        <time>2015-08-19T08:29:28Z</time>
      </trkpt>
      <trkpt lat="45.71164" lon="6.69422">
        <ele>2305.141</ele>
        <time>2015-08-19T08:29:33Z</time>
      </trkpt>
      <trkpt lat="45.71163" lon="6.69412">
        <ele>2304.3997</ele>
        <time>2015-08-19T08:29:43Z</time>
      </trkpt>
      <trkpt lat="45.71163" lon="6.69408">
        <ele>2304.3997</ele>
        <time>2015-08-19T08:29:48Z</time>
      </trkpt>
      <trkpt lat="45.71162" lon="6.6939">
        <ele>2303.545</ele>
        <time>2015-08-19T08:30:03Z</time>
      </trkpt>
      <trkpt lat="45.71161" lon="6.69382">
        <ele>2303.545</ele>
        <time>2015-08-19T08:30:08Z</time>
      </trkpt>
      <trkpt lat="45.71151" lon="6.69374">
        <ele>2302.7979</ele>
        <time>2015-08-19T08:30:18Z</time>
      </trkpt>
      <trkpt lat="45.71146" lon="6.69369">
        <ele>2302.7979</ele>
        <time>2015-08-19T08:30:23Z</time>
      </trkpt>
      <trkpt lat="45.71136" lon="6.69363">
        <ele>2302.2905</ele>
        <time>2015-08-19T08:30:33Z</time>
      </trkpt>
      <trkpt lat="45.71131" lon="6.69358">
        <ele>2302.2905</ele>
        <time>2015-08-19T08:30:38Z</time>
      </trkpt>
      <trkpt lat="45.71121" lon="6.69352">
        <ele>2302.03</ele>
        <time>2015-08-19T08:30:48Z</time>
      </trkpt>
      <trkpt lat="45.71116" lon="6.69348">
        <ele>2302.03</ele>
        <time>2015-08-19T08:30:53Z</time>
      </trkpt>
      <trkpt lat="45.71108" lon="6.69339">
        <ele>2301.9353</ele>
        <time>2015-08-19T08:31:03Z</time>
      </trkpt>
      <trkpt lat="45.71107" lon="6.69337">
        <ele>2301.9353</ele>
        <time>2015-08-19T08:31:08Z</time>
      </trkpt>
      <trkpt lat="45.71104" lon="6.69328">
        <ele>2301.8154</ele>
        <time>2015-08-19T08:31:18Z</time>
      </trkpt>
      <trkpt lat="45.71102" lon="6.69319">
        <ele>2301.8154</ele>
        <time>2015-08-19T08:31:23Z</time>
      </trkpt>
      <trkpt lat="45.71093" lon="6.69309">
        <ele>2301.7822</ele>
        <time>2015-08-19T08:31:33Z</time>
      </trkpt>
      <trkpt lat="45.71089" lon="6.69305">
        <ele>2301.7822</ele>
        <time>2015-08-19T08:31:38Z</time>
      </trkpt>
      <trkpt lat="45.71083" lon="6.69295">
        <ele>2301.766</ele>
        <time>2015-08-19T08:31:48Z</time>
      </trkpt>
      <trkpt lat="45.7108" lon="6.69292">
        <ele>2301.766</ele>
        <time>2015-08-19T08:31:53Z</time>
      </trkpt>
      <trkpt lat="45.71068" lon="6.6929">
        <ele>2301.6018</ele>
        <time>2015-08-19T08:32:08Z</time>
      </trkpt>
      <trkpt lat="45.71063" lon="6.69288">
        <ele>2301.6018</ele>
        <time>2015-08-19T08:32:13Z</time>
      </trkpt>
      <trkpt lat="45.71054" lon="6.69282">
        <ele>2301.4392</ele>
        <time>2015-08-19T08:32:23Z</time>
      </trkpt>
      <trkpt lat="45.71053" lon="6.69282">
        <ele>2301.4392</ele>
        <time>2015-08-19T08:32:28Z</time>
      </trkpt>
      <trkpt lat="45.71051" lon="6.69285">
        <ele>2301.4392</ele>
        <time>2015-08-19T08:32:38Z</time>
      </trkpt>
      <trkpt lat="45.71049" lon="6.69283">
        <ele>2301.4392</ele>
        <time>2015-08-19T08:32:43Z</time>
      </trkpt>
      <trkpt lat="45.71041" lon="6.69274">
        <ele>2301.2156</ele>
        <time>2015-08-19T08:32:53Z</time>
      </trkpt>
      <trkpt lat="45.71039" lon="6.69269">
        <ele>2301.2156</ele>
        <time>2015-08-19T08:32:58Z</time>
      </trkpt>
      <trkpt lat="45.71035" lon="6.69259">
        <ele>2301.0317</ele>
        <time>2015-08-19T08:33:08Z</time>
      </trkpt>
      <trkpt lat="45.71032" lon="6.69253">
        <ele>2301.0317</ele>
        <time>2015-08-19T08:33:13Z</time>
      </trkpt>
      <trkpt lat="45.71026" lon="6.69243">
        <ele>2300.7644</ele>
        <time>2015-08-19T08:33:23Z</time>
      </trkpt>
      <trkpt lat="45.71024" lon="6.69237">
        <ele>2300.7644</ele>
        <time>2015-08-19T08:33:28Z</time>
      </trkpt>
      <trkpt lat="45.71017" lon="6.69225">
        <ele>2300.387</ele>
        <time>2015-08-19T08:33:38Z</time>
      </trkpt>
      <trkpt lat="45.71014" lon="6.6922">
        <ele>2300.387</ele>
        <time>2015-08-19T08:33:43Z</time>
      </trkpt>
      <trkpt lat="45.71007" lon="6.69207">
        <ele>2300.0188</ele>
        <time>2015-08-19T08:33:53Z</time>
      </trkpt>
      <trkpt lat="45.71005" lon="6.69201">
        <ele>2300.0188</ele>
        <time>2015-08-19T08:33:58Z</time>
      </trkpt>
      <trkpt lat="45.70999" lon="6.69182">
        <ele>2299.612</ele>
        <time>2015-08-19T08:34:13Z</time>
      </trkpt>
      <trkpt lat="45.70998" lon="6.69182">
        <ele>2299.612</ele>
        <time>2015-08-19T08:34:18Z</time>
      </trkpt>
      <trkpt lat="45.70997" lon="6.69184">
        <ele>2299.612</ele>
        <time>2015-08-19T08:34:28Z</time>
      </trkpt>
      <trkpt lat="45.70998" lon="6.69186">
        <ele>2299.612</ele>
        <time>2015-08-19T08:34:33Z</time>
      </trkpt>
      <trkpt lat="45.71" lon="6.69185">
        <ele>2299.612</ele>
        <time>2015-08-19T08:34:43Z</time>
      </trkpt>
      <trkpt lat="45.71001" lon="6.69185">
        <ele>2299.612</ele>
        <time>2015-08-19T08:34:48Z</time>
      </trkpt>
      <trkpt lat="45.71" lon="6.69186">
        <ele>2299.612</ele>
        <time>2015-08-19T08:34:53Z</time>
      </trkpt>
      <trkpt lat="45.71" lon="6.69188">
        <ele>2298.8347</ele>
        <time>2015-08-19T08:34:58Z</time>
      </trkpt>
      <trkpt lat="45.71001" lon="6.69189">
        <ele>2298.8347</ele>
        <time>2015-08-19T08:35:03Z</time>
      </trkpt>
      <trkpt lat="45.71001" lon="6.69189">
        <ele>2298.8347</ele>
        <time>2015-08-19T08:35:08Z</time>
      </trkpt>
      <trkpt lat="45.71002" lon="6.69188">
        <ele>2298.8347</ele>
        <time>2015-08-19T08:35:13Z</time>
      </trkpt>
      <trkpt lat="45.71" lon="6.69187">
        <ele>2298.8347</ele>
        <time>2015-08-19T08:35:18Z</time>
      </trkpt>
      <trkpt lat="45.70997" lon="6.69186">
        <ele>2298.8347</ele>
        <time>2015-08-19T08:35:28Z</time>
      </trkpt>
      <trkpt lat="45.70999" lon="6.69188">
        <ele>2298.8347</ele>
        <time>2015-08-19T08:35:33Z</time>
      </trkpt>
      <trkpt lat="45.70996" lon="6.69159">
        <ele>2298.1584</ele>
        <time>2015-08-19T08:35:48Z</time>
      </trkpt>
      <trkpt lat="45.70997" lon="6.6915">
        <ele>2298.1584</ele>
        <time>2015-08-19T08:35:53Z</time>
      </trkpt>
      <trkpt lat="45.70998" lon="6.69135">
        <ele>2297.501</ele>
        <time>2015-08-19T08:36:03Z</time>
      </trkpt>
      <trkpt lat="45.70995" lon="6.69131">
        <ele>2297.501</ele>
        <time>2015-08-19T08:36:08Z</time>
      </trkpt>
      <trkpt lat="45.70994" lon="6.69122">
        <ele>2296.729</ele>
        <time>2015-08-19T08:36:18Z</time>
      </trkpt>
      <trkpt lat="45.70996" lon="6.69115">
        <ele>2296.729</ele>
        <time>2015-08-19T08:36:23Z</time>
      </trkpt>
      <trkpt lat="45.71" lon="6.69098">
        <ele>2295.892</ele>
        <time>2015-08-19T08:36:33Z</time>
      </trkpt>
      <trkpt lat="45.71002" lon="6.69091">
        <ele>2295.892</ele>
        <time>2015-08-19T08:36:38Z</time>
      </trkpt>
      <trkpt lat="45.71007" lon="6.69078">
        <ele>2294.748</ele>
        <time>2015-08-19T08:36:48Z</time>
      </trkpt>
      <trkpt lat="45.7101" lon="6.69071">
        <ele>2294.748</ele>
        <time>2015-08-19T08:36:53Z</time>
      </trkpt>
      <trkpt lat="45.7101" lon="6.69057">
        <ele>2293.4343</ele>
        <time>2015-08-19T08:37:03Z</time>
      </trkpt>
      <trkpt lat="45.71009" lon="6.69048">
        <ele>2293.4343</ele>
        <time>2015-08-19T08:37:08Z</time>
      </trkpt>
      <trkpt lat="45.71008" lon="6.69031">
        <ele>2292.2083</ele>
        <time>2015-08-19T08:37:18Z</time>
      </trkpt>
      <trkpt lat="45.71008" lon="6.69024">
        <ele>2292.2083</ele>
        <time>2015-08-19T08:37:23Z</time>
      </trkpt>
      <trkpt lat="45.71003" lon="6.69">
        <ele>2290.9043</ele>
        <time>2015-08-19T08:37:38Z</time>
      </trkpt>
      <trkpt lat="45.71" lon="6.68993">
        <ele>2290.9043</ele>
        <time>2015-08-19T08:37:43Z</time>
      </trkpt>
      <trkpt lat="45.7099" lon="6.68986">
        <ele>2289.7302</ele>
        <time>2015-08-19T08:37:53Z</time>
      </trkpt>
      <trkpt lat="45.70985" lon="6.68986">
        <ele>2289.7302</ele>
        <time>2015-08-19T08:37:58Z</time>
      </trkpt>
      <trkpt lat="45.70974" lon="6.68982">
        <ele>2288.5605</ele>
        <time>2015-08-19T08:38:08Z</time>
      </trkpt>
      <trkpt lat="45.70968" lon="6.68978">
        <ele>2288.5605</ele>
        <time>2015-08-19T08:38:13Z</time>
      </trkpt>
      <trkpt lat="45.70963" lon="6.68963">
        <ele>2287.3809</ele>
        <time>2015-08-19T08:38:23Z</time>
      </trkpt>
      <trkpt lat="45.70961" lon="6.68956">
        <ele>2287.3809</ele>
        <time>2015-08-19T08:38:28Z</time>
      </trkpt>
      <trkpt lat="45.7096" lon="6.68938">
        <ele>2286.2058</ele>
        <time>2015-08-19T08:38:38Z</time>
      </trkpt>
      <trkpt lat="45.7096" lon="6.6893">
        <ele>2286.2058</ele>
        <time>2015-08-19T08:38:43Z</time>
      </trkpt>
      <trkpt lat="45.70963" lon="6.68918">
        <ele>2284.9343</ele>
        <time>2015-08-19T08:38:53Z</time>
      </trkpt>
      <trkpt lat="45.70963" lon="6.68911">
        <ele>2284.9343</ele>
        <time>2015-08-19T08:38:58Z</time>
      </trkpt>
      <trkpt lat="45.70961" lon="6.68893">
        <ele>2283.5159</ele>
        <time>2015-08-19T08:39:13Z</time>
      </trkpt>
      <trkpt lat="45.70957" lon="6.68889">
        <ele>2283.5159</ele>
        <time>2015-08-19T08:39:18Z</time>
      </trkpt>
      <trkpt lat="45.70951" lon="6.68879">
        <ele>2282.15</ele>
        <time>2015-08-19T08:39:28Z</time>
      </trkpt>
      <trkpt lat="45.70948" lon="6.68873">
        <ele>2282.15</ele>
        <time>2015-08-19T08:39:33Z</time>
      </trkpt>
      <trkpt lat="45.70941" lon="6.68865">
        <ele>2280.732</ele>
        <time>2015-08-19T08:39:43Z</time>
      </trkpt>
      <trkpt lat="45.70936" lon="6.68862">
        <ele>2280.732</ele>
        <time>2015-08-19T08:39:48Z</time>
      </trkpt>
      <trkpt lat="45.70928" lon="6.68856">
        <ele>2279.1948</ele>
        <time>2015-08-19T08:39:58Z</time>
      </trkpt>
      <trkpt lat="45.70925" lon="6.68851">
        <ele>2279.1948</ele>
        <time>2015-08-19T08:40:03Z</time>
      </trkpt>
      <trkpt lat="45.70923" lon="6.68836">
        <ele>2277.5483</ele>
        <time>2015-08-19T08:40:13Z</time>
      </trkpt>
      <trkpt lat="45.70922" lon="6.68832">
        <ele>2277.5483</ele>
        <time>2015-08-19T08:40:18Z</time>
      </trkpt>
      <trkpt lat="45.70919" lon="6.6882">
        <ele>2275.9177</ele>
        <time>2015-08-19T08:40:28Z</time>
      </trkpt>
      <trkpt lat="45.70918" lon="6.68815">
        <ele>2275.9177</ele>
        <time>2015-08-19T08:40:33Z</time>
      </trkpt>
      <trkpt lat="45.70915" lon="6.68808">
        <ele>2274.3174</ele>
        <time>2015-08-19T08:40:43Z</time>
      </trkpt>
      <trkpt lat="45.70913" lon="6.68805">
        <ele>2274.3174</ele>
        <time>2015-08-19T08:40:48Z</time>
      </trkpt>
      <trkpt lat="45.709" lon="6.68795">
        <ele>2272.502</ele>
        <time>2015-08-19T08:41:03Z</time>
      </trkpt>
      <trkpt lat="45.70897" lon="6.68793">
        <ele>2272.502</ele>
        <time>2015-08-19T08:41:08Z</time>
      </trkpt>
      <trkpt lat="45.70893" lon="6.68786">
        <ele>2272.502</ele>
        <time>2015-08-19T08:41:18Z</time>
      </trkpt>
      <trkpt lat="45.70891" lon="6.68781">
        <ele>2270.3884</ele>
        <time>2015-08-19T08:41:23Z</time>
      </trkpt>
      <trkpt lat="45.70888" lon="6.68767">
        <ele>2268.1887</ele>
        <time>2015-08-19T08:41:38Z</time>
      </trkpt>
      <trkpt lat="45.70887" lon="6.68763">
        <ele>2268.1887</ele>
        <time>2015-08-19T08:41:43Z</time>
      </trkpt>
      <trkpt lat="45.70881" lon="6.68757">
        <ele>2265.855</ele>
        <time>2015-08-19T08:41:53Z</time>
      </trkpt>
      <trkpt lat="45.70876" lon="6.68751">
        <ele>2265.855</ele>
        <time>2015-08-19T08:41:58Z</time>
      </trkpt>
      <trkpt lat="45.7087" lon="6.68738">
        <ele>2263.487</ele>
        <time>2015-08-19T08:42:08Z</time>
      </trkpt>
      <trkpt lat="45.70868" lon="6.68733">
        <ele>2263.487</ele>
        <time>2015-08-19T08:42:13Z</time>
      </trkpt>
      <trkpt lat="45.70864" lon="6.68721">
        <ele>2261.0623</ele>
        <time>2015-08-19T08:42:23Z</time>
      </trkpt>
      <trkpt lat="45.70861" lon="6.68717">
        <ele>2261.0623</ele>
        <time>2015-08-19T08:42:28Z</time>
      </trkpt>
      <trkpt lat="45.70858" lon="6.68713">
        <ele>2261.0623</ele>
        <time>2015-08-19T08:42:38Z</time>
      </trkpt>
      <trkpt lat="45.70856" lon="6.6871">
        <ele>2258.43</ele>
        <time>2015-08-19T08:42:43Z</time>
      </trkpt>
      <trkpt lat="45.70854" lon="6.68698">
        <ele>2258.43</ele>
        <time>2015-08-19T08:42:53Z</time>
      </trkpt>
      <trkpt lat="45.70852" lon="6.6869">
        <ele>2255.6963</ele>
        <time>2015-08-19T08:42:58Z</time>
      </trkpt>
      <trkpt lat="45.70847" lon="6.68681">
        <ele>2255.6963</ele>
        <time>2015-08-19T08:43:08Z</time>
      </trkpt>
      <trkpt lat="45.70844" lon="6.68677">
        <ele>2252.9595</ele>
        <time>2015-08-19T08:43:13Z</time>
      </trkpt>
      <trkpt lat="45.70834" lon="6.68666">
        <ele>2250.3252</ele>
        <time>2015-08-19T08:43:28Z</time>
      </trkpt>
      <trkpt lat="45.70832" lon="6.68663">
        <ele>2250.3252</ele>
        <time>2015-08-19T08:43:33Z</time>
      </trkpt>
      <trkpt lat="45.70824" lon="6.68654">
        <ele>2247.6892</ele>
        <time>2015-08-19T08:43:43Z</time>
      </trkpt>
      <trkpt lat="45.70821" lon="6.68648">
        <ele>2247.6892</ele>
        <time>2015-08-19T08:43:48Z</time>
      </trkpt>
      <trkpt lat="45.70817" lon="6.68638">
        <ele>2245.1133</ele>
        <time>2015-08-19T08:43:58Z</time>
      </trkpt>
      <trkpt lat="45.70814" lon="6.68633">
        <ele>2245.1133</ele>
        <time>2015-08-19T08:44:03Z</time>
      </trkpt>
      <trkpt lat="45.7081" lon="6.68623">
        <ele>2242.6113</ele>
        <time>2015-08-19T08:44:13Z</time>
      </trkpt>
      <trkpt lat="45.70809" lon="6.68618">
        <ele>2242.6113</ele>
        <time>2015-08-19T08:44:18Z</time>
      </trkpt>
      <trkpt lat="45.70802" lon="6.68609">
        <ele>2240.1382</ele>
        <time>2015-08-19T08:44:28Z</time>
      </trkpt>
      <trkpt lat="45.70799" lon="6.68605">
        <ele>2240.1382</ele>
        <time>2015-08-19T08:44:33Z</time>
      </trkpt>
      <trkpt lat="45.70793" lon="6.68592">
        <ele>2237.666</ele>
        <time>2015-08-19T08:44:43Z</time>
      </trkpt>
      <trkpt lat="45.70792" lon="6.68588">
        <ele>2237.666</ele>
        <time>2015-08-19T08:44:48Z</time>
      </trkpt>
      <trkpt lat="45.70785" lon="6.6858">
        <ele>2235.2126</ele>
        <time>2015-08-19T08:44:58Z</time>
      </trkpt>
      <trkpt lat="45.70782" lon="6.68577">
        <ele>2235.2126</ele>
        <time>2015-08-19T08:45:03Z</time>
      </trkpt>
      <trkpt lat="45.70774" lon="6.68569">
        <ele>2232.751</ele>
        <time>2015-08-19T08:45:13Z</time>
      </trkpt>
      <trkpt lat="45.7077" lon="6.68567">
        <ele>2232.751</ele>
        <time>2015-08-19T08:45:18Z</time>
      </trkpt>
      <trkpt lat="45.70759" lon="6.68559">
        <ele>2230.0825</ele>
        <time>2015-08-19T08:45:33Z</time>
      </trkpt>
      <trkpt lat="45.70757" lon="6.68555">
        <ele>2230.0825</ele>
        <time>2015-08-19T08:45:38Z</time>
      </trkpt>
      <trkpt lat="45.7075" lon="6.68549">
        <ele>2227.457</ele>
        <time>2015-08-19T08:45:48Z</time>
      </trkpt>
      <trkpt lat="45.70747" lon="6.68544">
        <ele>2227.457</ele>
        <time>2015-08-19T08:45:53Z</time>
      </trkpt>
      <trkpt lat="45.7074" lon="6.6853">
        <ele>2224.7302</ele>
        <time>2015-08-19T08:46:03Z</time>
      </trkpt>
      <trkpt lat="45.70735" lon="6.68527">
        <ele>2224.7302</ele>
        <time>2015-08-19T08:46:08Z</time>
      </trkpt>
      <trkpt lat="45.70725" lon="6.68521">
        <ele>2222.0715</ele>
        <time>2015-08-19T08:46:18Z</time>
      </trkpt>
      <trkpt lat="45.70721" lon="6.68517">
        <ele>2222.0715</ele>
        <time>2015-08-19T08:46:23Z</time>
      </trkpt>
      <trkpt lat="45.70715" lon="6.68508">
        <ele>2219.5798</ele>
        <time>2015-08-19T08:46:33Z</time>
      </trkpt>
      <trkpt lat="45.70712" lon="6.68503">
        <ele>2219.5798</ele>
        <time>2015-08-19T08:46:38Z</time>
      </trkpt>
      <trkpt lat="45.70705" lon="6.68495">
        <ele>2217.1736</ele>
        <time>2015-08-19T08:46:48Z</time>
      </trkpt>
      <trkpt lat="45.70703" lon="6.68486">
        <ele>2217.1736</ele>
        <time>2015-08-19T08:46:53Z</time>
      </trkpt>
      <trkpt lat="45.70702" lon="6.68476">
        <ele>2214.8777</ele>
        <time>2015-08-19T08:47:03Z</time>
      </trkpt>
      <trkpt lat="45.70702" lon="6.68469">
        <ele>2214.8777</ele>
        <time>2015-08-19T08:47:08Z</time>
      </trkpt>
      <trkpt lat="45.70696" lon="6.68459">
        <ele>2212.7144</ele>
        <time>2015-08-19T08:47:18Z</time>
      </trkpt>
      <trkpt lat="45.70693" lon="6.68453">
        <ele>2212.7144</ele>
        <time>2015-08-19T08:47:23Z</time>
      </trkpt>
      <trkpt lat="45.70686" lon="6.6844">
        <ele>2210.5454</ele>
        <time>2015-08-19T08:47:33Z</time>
      </trkpt>
      <trkpt lat="45.70684" lon="6.68433">
        <ele>2210.5454</ele>
        <time>2015-08-19T08:47:38Z</time>
      </trkpt>
      <trkpt lat="45.70683" lon="6.68414">
        <ele>2208.2576</ele>
        <time>2015-08-19T08:47:53Z</time>
      </trkpt>
      <trkpt lat="45.70684" lon="6.68409">
        <ele>2208.2576</ele>
        <time>2015-08-19T08:47:58Z</time>
      </trkpt>
      <trkpt lat="45.70684" lon="6.684">
        <ele>2205.8752</ele>
        <time>2015-08-19T08:48:08Z</time>
      </trkpt>
      <trkpt lat="45.70681" lon="6.68395">
        <ele>2205.8752</ele>
        <time>2015-08-19T08:48:13Z</time>
      </trkpt>
      <trkpt lat="45.70673" lon="6.68386">
        <ele>2203.4937</ele>
        <time>2015-08-19T08:48:23Z</time>
      </trkpt>
      <trkpt lat="45.70668" lon="6.6838">
        <ele>2203.4937</ele>
        <time>2015-08-19T08:48:28Z</time>
      </trkpt>
      <trkpt lat="45.70659" lon="6.68368">
        <ele>2201.2869</ele>
        <time>2015-08-19T08:48:38Z</time>
      </trkpt>
      <trkpt lat="45.70657" lon="6.68364">
        <ele>2201.2869</ele>
        <time>2015-08-19T08:48:43Z</time>
      </trkpt>
      <trkpt lat="45.70657" lon="6.68361">
        <ele>2201.2869</ele>
        <time>2015-08-19T08:48:53Z</time>
      </trkpt>
      <trkpt lat="45.70657" lon="6.68361">
        <ele>2201.2869</ele>
        <time>2015-08-19T08:48:58Z</time>
      </trkpt>
      <trkpt lat="45.70657" lon="6.68362">
        <ele>2201.2869</ele>
        <time>2015-08-19T08:49:08Z</time>
      </trkpt>
      <trkpt lat="45.70657" lon="6.68362">
        <ele>2201.2869</ele>
        <time>2015-08-19T08:49:13Z</time>
      </trkpt>
      <trkpt lat="45.70657" lon="6.68359">
        <ele>2198.869</ele>
        <time>2015-08-19T08:49:23Z</time>
      </trkpt>
      <trkpt lat="45.70654" lon="6.68354">
        <ele>2198.869</ele>
        <time>2015-08-19T08:49:28Z</time>
      </trkpt>
      <trkpt lat="45.7064" lon="6.68344">
        <ele>2196.458</ele>
        <time>2015-08-19T08:49:43Z</time>
      </trkpt>
      <trkpt lat="45.70636" lon="6.68341">
        <ele>2196.458</ele>
        <time>2015-08-19T08:49:48Z</time>
      </trkpt>
      <trkpt lat="45.70628" lon="6.6833">
        <ele>2194.0264</ele>
        <time>2015-08-19T08:49:58Z</time>
      </trkpt>
      <trkpt lat="45.70627" lon="6.68321">
        <ele>2194.0264</ele>
        <time>2015-08-19T08:50:03Z</time>
      </trkpt>
      <trkpt lat="45.70623" lon="6.68318">
        <ele>2191.6777</ele>
        <time>2015-08-19T08:50:13Z</time>
      </trkpt>
      <trkpt lat="45.70624" lon="6.68317">
        <ele>2191.6777</ele>
        <time>2015-08-19T08:50:18Z</time>
      </trkpt>
      <trkpt lat="45.70626" lon="6.68317">
        <ele>2191.6777</ele>
        <time>2015-08-19T08:50:28Z</time>
      </trkpt>
      <trkpt lat="45.70626" lon="6.68318">
        <ele>2191.6777</ele>
        <time>2015-08-19T08:50:33Z</time>
      </trkpt>
      <trkpt lat="45.70626" lon="6.68318">
        <ele>2191.6777</ele>
        <time>2015-08-19T08:50:43Z</time>
      </trkpt>
      <trkpt lat="45.70628" lon="6.68317">
        <ele>2191.6777</ele>
        <time>2015-08-19T08:50:48Z</time>
      </trkpt>
      <trkpt lat="45.7063" lon="6.68316">
        <ele>2191.6777</ele>
        <time>2015-08-19T08:50:58Z</time>
      </trkpt>
      <trkpt lat="45.70629" lon="6.68317">
        <ele>2189.2917</ele>
        <time>2015-08-19T08:51:03Z</time>
      </trkpt>
      <trkpt lat="45.70621" lon="6.68314">
        <ele>2187.2327</ele>
        <time>2015-08-19T08:51:13Z</time>
      </trkpt>
      <trkpt lat="45.70613" lon="6.68315">
        <ele>2187.2327</ele>
        <time>2015-08-19T08:51:18Z</time>
      </trkpt>
      <trkpt lat="45.70605" lon="6.68318">
        <ele>2185.217</ele>
        <time>2015-08-19T08:51:28Z</time>
      </trkpt>
      <trkpt lat="45.70601" lon="6.68318">
        <ele>2185.217</ele>
        <time>2015-08-19T08:51:33Z</time>
      </trkpt>
      <trkpt lat="45.70589" lon="6.68313">
        <ele>2183.2415</ele>
        <time>2015-08-19T08:51:43Z</time>
      </trkpt>
      <trkpt lat="45.70584" lon="6.6831">
        <ele>2183.2415</ele>
        <time>2015-08-19T08:51:48Z</time>
      </trkpt>
      <trkpt lat="45.70575" lon="6.68301">
        <ele>2181.4326</ele>
        <time>2015-08-19T08:51:58Z</time>
      </trkpt>
      <trkpt lat="45.70572" lon="6.68297">
        <ele>2181.4326</ele>
        <time>2015-08-19T08:52:03Z</time>
      </trkpt>
      <trkpt lat="45.70562" lon="6.68291">
        <ele>2179.6333</ele>
        <time>2015-08-19T08:52:13Z</time>
      </trkpt>
      <trkpt lat="45.70556" lon="6.68288">
        <ele>2179.6333</ele>
        <time>2015-08-19T08:52:18Z</time>
      </trkpt>
      <trkpt lat="45.70542" lon="6.68281">
        <ele>2177.712</ele>
        <time>2015-08-19T08:52:33Z</time>
      </trkpt>
      <trkpt lat="45.70535" lon="6.68277">
        <ele>2177.712</ele>
        <time>2015-08-19T08:52:38Z</time>
      </trkpt>
      <trkpt lat="45.70524" lon="6.68273">
        <ele>2175.836</ele>
        <time>2015-08-19T08:52:48Z</time>
      </trkpt>
      <trkpt lat="45.70518" lon="6.6827">
        <ele>2175.836</ele>
        <time>2015-08-19T08:52:53Z</time>
      </trkpt>
      <trkpt lat="45.70509" lon="6.68272">
        <ele>2173.9</ele>
        <time>2015-08-19T08:53:03Z</time>
      </trkpt>
      <trkpt lat="45.70505" lon="6.68274">
        <ele>2173.9</ele>
        <time>2015-08-19T08:53:08Z</time>
      </trkpt>
      <trkpt lat="45.70495" lon="6.68277">
        <ele>2171.7493</ele>
        <time>2015-08-19T08:53:18Z</time>
      </trkpt>
      <trkpt lat="45.70492" lon="6.6828">
        <ele>2171.7493</ele>
        <time>2015-08-19T08:53:23Z</time>
      </trkpt>
      <trkpt lat="45.70491" lon="6.68282">
        <ele>2171.7493</ele>
        <time>2015-08-19T08:53:33Z</time>
      </trkpt>
      <trkpt lat="45.70491" lon="6.68281">
        <ele>2171.7493</ele>
        <time>2015-08-19T08:53:38Z</time>
      </trkpt>
      <trkpt lat="45.70488" lon="6.68284">
        <ele>2169.1116</ele>
        <time>2015-08-19T08:53:48Z</time>
      </trkpt>
      <trkpt lat="45.70484" lon="6.68286">
        <ele>2169.1116</ele>
        <time>2015-08-19T08:53:53Z</time>
      </trkpt>
      <trkpt lat="45.70475" lon="6.68287">
        <ele>2166.4707</ele>
        <time>2015-08-19T08:54:03Z</time>
      </trkpt>
      <trkpt lat="45.70473" lon="6.68286">
        <ele>2166.4707</ele>
        <time>2015-08-19T08:54:08Z</time>
      </trkpt>
      <trkpt lat="45.70472" lon="6.68288">
        <ele>2166.4707</ele>
        <time>2015-08-19T08:54:18Z</time>
      </trkpt>
      <trkpt lat="45.70473" lon="6.68287">
        <ele>2166.4707</ele>
        <time>2015-08-19T08:54:23Z</time>
      </trkpt>
      <trkpt lat="45.70472" lon="6.68287">
        <ele>2166.4707</ele>
        <time>2015-08-19T08:54:33Z</time>
      </trkpt>
      <trkpt lat="45.70471" lon="6.68286">
        <ele>2166.4707</ele>
        <time>2015-08-19T08:54:38Z</time>
      </trkpt>
      <trkpt lat="45.7047" lon="6.68285">
        <ele>2166.4707</ele>
        <time>2015-08-19T08:54:48Z</time>
      </trkpt>
      <trkpt lat="45.7047" lon="6.68285">
        <ele>2166.4707</ele>
        <time>2015-08-19T08:54:53Z</time>
      </trkpt>
      <trkpt lat="45.70471" lon="6.68288">
        <ele>2163.3955</ele>
        <time>2015-08-19T08:55:08Z</time>
      </trkpt>
      <trkpt lat="45.70472" lon="6.68285">
        <ele>2163.3955</ele>
        <time>2015-08-19T08:55:13Z</time>
      </trkpt>
      <trkpt lat="45.70472" lon="6.68285">
        <ele>2163.3955</ele>
        <time>2015-08-19T08:55:23Z</time>
      </trkpt>
      <trkpt lat="45.70475" lon="6.68289">
        <ele>2163.3955</ele>
        <time>2015-08-19T08:55:28Z</time>
      </trkpt>
      <trkpt lat="45.70477" lon="6.68295">
        <ele>2160.1946</ele>
        <time>2015-08-19T08:55:38Z</time>
      </trkpt>
      <trkpt lat="45.70476" lon="6.68296">
        <ele>2160.1946</ele>
        <time>2015-08-19T08:55:43Z</time>
      </trkpt>
      <trkpt lat="45.70473" lon="6.68298">
        <ele>2160.1946</ele>
        <time>2015-08-19T08:55:53Z</time>
      </trkpt>
      <trkpt lat="45.70474" lon="6.68299">
        <ele>2160.1946</ele>
        <time>2015-08-19T08:55:58Z</time>
      </trkpt>
      <trkpt lat="45.7047" lon="6.68302">
        <ele>2157.0957</ele>
        <time>2015-08-19T08:56:08Z</time>
      </trkpt>
      <trkpt lat="45.7047" lon="6.68302">
        <ele>2157.0957</ele>
        <time>2015-08-19T08:56:13Z</time>
      </trkpt>
      <trkpt lat="45.7047" lon="6.68306">
        <ele>2157.0957</ele>
        <time>2015-08-19T08:56:23Z</time>
      </trkpt>
      <trkpt lat="45.70468" lon="6.68306">
        <ele>2157.0957</ele>
        <time>2015-08-19T08:56:28Z</time>
      </trkpt>
      <trkpt lat="45.70467" lon="6.68307">
        <ele>2157.0957</ele>
        <time>2015-08-19T08:56:38Z</time>
      </trkpt>
      <trkpt lat="45.70468" lon="6.68305">
        <ele>2157.0957</ele>
        <time>2015-08-19T08:56:43Z</time>
      </trkpt>
      <trkpt lat="45.70469" lon="6.68302">
        <ele>2157.0957</ele>
        <time>2015-08-19T08:56:53Z</time>
      </trkpt>
      <trkpt lat="45.70469" lon="6.68302">
        <ele>2154.512</ele>
        <time>2015-08-19T08:56:58Z</time>
      </trkpt>
      <trkpt lat="45.70468" lon="6.68305">
        <ele>2154.512</ele>
        <time>2015-08-19T08:57:08Z</time>
      </trkpt>
      <trkpt lat="45.70469" lon="6.68307">
        <ele>2154.512</ele>
        <time>2015-08-19T08:57:13Z</time>
      </trkpt>
      <trkpt lat="45.70472" lon="6.68307">
        <ele>2154.512</ele>
        <time>2015-08-19T08:57:28Z</time>
      </trkpt>
      <trkpt lat="45.70474" lon="6.68307">
        <ele>2154.512</ele>
        <time>2015-08-19T08:57:33Z</time>
      </trkpt>
      <trkpt lat="45.70475" lon="6.68305">
        <ele>2152.1182</ele>
        <time>2015-08-19T08:57:43Z</time>
      </trkpt>
      <trkpt lat="45.70476" lon="6.68305">
        <ele>2152.1182</ele>
        <time>2015-08-19T08:57:48Z</time>
      </trkpt>
      <trkpt lat="45.70476" lon="6.68304">
        <ele>2152.1182</ele>
        <time>2015-08-19T08:57:58Z</time>
      </trkpt>
      <trkpt lat="45.70476" lon="6.68302">
        <ele>2152.1182</ele>
        <time>2015-08-19T08:58:03Z</time>
      </trkpt>
      <trkpt lat="45.70475" lon="6.68302">
        <ele>2152.1182</ele>
        <time>2015-08-19T08:58:13Z</time>
      </trkpt>
      <trkpt lat="45.70475" lon="6.68301">
        <ele>2152.1182</ele>
        <time>2015-08-19T08:58:18Z</time>
      </trkpt>
      <trkpt lat="45.70472" lon="6.68298">
        <ele>2152.1182</ele>
        <time>2015-08-19T08:58:28Z</time>
      </trkpt>
      <trkpt lat="45.70472" lon="6.68298">
        <ele>2152.1182</ele>
        <time>2015-08-19T08:58:33Z</time>
      </trkpt>
      <trkpt lat="45.7047" lon="6.68298">
        <ele>2150.1892</ele>
        <time>2015-08-19T08:58:43Z</time>
      </trkpt>
      <trkpt lat="45.7047" lon="6.68298">
        <ele>2150.1892</ele>
        <time>2015-08-19T08:58:48Z</time>
      </trkpt>
      <trkpt lat="45.70471" lon="6.68301">
        <ele>2150.1892</ele>
        <time>2015-08-19T08:58:53Z</time>
      </trkpt>
      <trkpt lat="45.70474" lon="6.68303">
        <ele>2150.1892</ele>
        <time>2015-08-19T08:58:58Z</time>
      </trkpt>
      <trkpt lat="45.70475" lon="6.68304">
        <ele>2150.1892</ele>
        <time>2015-08-19T08:59:03Z</time>
      </trkpt>
      <trkpt lat="45.70477" lon="6.68302">
        <ele>2150.1892</ele>
        <time>2015-08-19T08:59:13Z</time>
      </trkpt>
      <trkpt lat="45.70478" lon="6.68302">
        <ele>2148.5745</ele>
        <time>2015-08-19T08:59:18Z</time>
      </trkpt>
      <trkpt lat="45.70476" lon="6.68303">
        <ele>2148.5745</ele>
        <time>2015-08-19T08:59:23Z</time>
      </trkpt>
      <trkpt lat="45.70474" lon="6.68303">
        <ele>2148.5745</ele>
        <time>2015-08-19T08:59:33Z</time>
      </trkpt>
      <trkpt lat="45.70474" lon="6.68303">
        <ele>2148.5745</ele>
        <time>2015-08-19T08:59:38Z</time>
      </trkpt>
      <trkpt lat="45.70473" lon="6.68302">
        <ele>2148.5745</ele>
        <time>2015-08-19T08:59:48Z</time>
      </trkpt>
      <trkpt lat="45.70472" lon="6.68301">
        <ele>2148.5745</ele>
        <time>2015-08-19T08:59:53Z</time>
      </trkpt>
      <trkpt lat="45.70475" lon="6.683">
        <ele>2148.5745</ele>
        <time>2015-08-19T09:00:03Z</time>
      </trkpt>
      <trkpt lat="45.70474" lon="6.68297">
        <ele>2147.3066</ele>
        <time>2015-08-19T09:00:08Z</time>
      </trkpt>
      <trkpt lat="45.70475" lon="6.68297">
        <ele>2147.3066</ele>
        <time>2015-08-19T09:00:18Z</time>
      </trkpt>
      <trkpt lat="45.70476" lon="6.68295">
        <ele>2147.3066</ele>
        <time>2015-08-19T09:00:23Z</time>
      </trkpt>
      <trkpt lat="45.70476" lon="6.68294">
        <ele>2147.3066</ele>
        <time>2015-08-19T09:00:33Z</time>
      </trkpt>
      <trkpt lat="45.70475" lon="6.68294">
        <ele>2147.3066</ele>
        <time>2015-08-19T09:00:38Z</time>
      </trkpt>
      <trkpt lat="45.70475" lon="6.68294">
        <ele>2147.3066</ele>
        <time>2015-08-19T09:00:48Z</time>
      </trkpt>
      <trkpt lat="45.70475" lon="6.68293">
        <ele>2147.3066</ele>
        <time>2015-08-19T09:00:53Z</time>
      </trkpt>
      <trkpt lat="45.70475" lon="6.68294">
        <ele>2147.3066</ele>
        <time>2015-08-19T09:01:03Z</time>
      </trkpt>
      <trkpt lat="45.70474" lon="6.68296">
        <ele>2147.3066</ele>
        <time>2015-08-19T09:01:08Z</time>
      </trkpt>
      <trkpt lat="45.70475" lon="6.68294">
        <ele>2146.141</ele>
        <time>2015-08-19T09:01:23Z</time>
      </trkpt>
      <trkpt lat="45.70473" lon="6.68289">
        <ele>2146.141</ele>
        <time>2015-08-19T09:01:28Z</time>
      </trkpt>
      <trkpt lat="45.70467" lon="6.68282">
        <ele>2145.3557</ele>
        <time>2015-08-19T09:01:38Z</time>
      </trkpt>
      <trkpt lat="45.70464" lon="6.68281">
        <ele>2145.3557</ele>
        <time>2015-08-19T09:01:43Z</time>
      </trkpt>
      <trkpt lat="45.70455" lon="6.68283">
        <ele>2144.6873</ele>
        <time>2015-08-19T09:01:53Z</time>
      </trkpt>
      <trkpt lat="45.70451" lon="6.68287">
        <ele>2144.6873</ele>
        <time>2015-08-19T09:01:58Z</time>
      </trkpt>
      <trkpt lat="45.70449" lon="6.68296">
        <ele>2143.9214</ele>
        <time>2015-08-19T09:02:08Z</time>
      </trkpt>
      <trkpt lat="45.70446" lon="6.68299">
        <ele>2143.9214</ele>
        <time>2015-08-19T09:02:13Z</time>
      </trkpt>
      <trkpt lat="45.70439" lon="6.68293">
        <ele>2143.0317</ele>
        <time>2015-08-19T09:02:23Z</time>
      </trkpt>
      <trkpt lat="45.70439" lon="6.683">
        <ele>2143.0317</ele>
        <time>2015-08-19T09:02:28Z</time>
      </trkpt>
      <trkpt lat="45.70435" lon="6.68315">
        <ele>2141.793</ele>
        <time>2015-08-19T09:02:43Z</time>
      </trkpt>
      <trkpt lat="45.7043" lon="6.68309">
        <ele>2141.793</ele>
        <time>2015-08-19T09:02:48Z</time>
      </trkpt>
      <trkpt lat="45.70428" lon="6.68319">
        <ele>2140.5308</ele>
        <time>2015-08-19T09:02:58Z</time>
      </trkpt>
      <trkpt lat="45.70429" lon="6.68328">
        <ele>2140.5308</ele>
        <time>2015-08-19T09:03:03Z</time>
      </trkpt>
      <trkpt lat="45.70427" lon="6.68329">
        <ele>2140.5308</ele>
        <time>2015-08-19T09:03:13Z</time>
      </trkpt>
      <trkpt lat="45.7042" lon="6.68323">
        <ele>2139.0132</ele>
        <time>2015-08-19T09:03:18Z</time>
      </trkpt>
      <trkpt lat="45.70411" lon="6.68321">
        <ele>2139.0132</ele>
        <time>2015-08-19T09:03:28Z</time>
      </trkpt>
      <trkpt lat="45.70409" lon="6.68323">
        <ele>2137.3147</ele>
        <time>2015-08-19T09:03:33Z</time>
      </trkpt>
      <trkpt lat="45.70409" lon="6.68331">
        <ele>2137.3147</ele>
        <time>2015-08-19T09:03:43Z</time>
      </trkpt>
      <trkpt lat="45.7041" lon="6.68336">
        <ele>2135.404</ele>
        <time>2015-08-19T09:03:48Z</time>
      </trkpt>
      <trkpt lat="45.70405" lon="6.68336">
        <ele>2135.404</ele>
        <time>2015-08-19T09:03:58Z</time>
      </trkpt>
      <trkpt lat="45.70402" lon="6.68329">
        <ele>2133.3967</ele>
        <time>2015-08-19T09:04:03Z</time>
      </trkpt>
      <trkpt lat="45.70395" lon="6.68334">
        <ele>2133.3967</ele>
        <time>2015-08-19T09:04:13Z</time>
      </trkpt>
      <trkpt lat="45.70396" lon="6.68342">
        <ele>2131.2996</ele>
        <time>2015-08-19T09:04:18Z</time>
      </trkpt>
      <trkpt lat="45.70387" lon="6.6835">
        <ele>2129.0898</ele>
        <time>2015-08-19T09:04:33Z</time>
      </trkpt>
      <trkpt lat="45.70382" lon="6.68343">
        <ele>2129.0898</ele>
        <time>2015-08-19T09:04:38Z</time>
      </trkpt>
      <trkpt lat="45.70377" lon="6.68327">
        <ele>2126.8484</ele>
        <time>2015-08-19T09:04:48Z</time>
      </trkpt>
      <trkpt lat="45.70374" lon="6.68321">
        <ele>2126.8484</ele>
        <time>2015-08-19T09:04:53Z</time>
      </trkpt>
      <trkpt lat="45.70366" lon="6.68308">
        <ele>2124.65</ele>
        <time>2015-08-19T09:05:03Z</time>
      </trkpt>
      <trkpt lat="45.70364" lon="6.68301">
        <ele>2124.65</ele>
        <time>2015-08-19T09:05:08Z</time>
      </trkpt>
      <trkpt lat="45.7036" lon="6.68286">
        <ele>2122.4336</ele>
        <time>2015-08-19T09:05:18Z</time>
      </trkpt>
      <trkpt lat="45.70359" lon="6.68282">
        <ele>2122.4336</ele>
        <time>2015-08-19T09:05:23Z</time>
      </trkpt>
      <trkpt lat="45.70361" lon="6.68268">
        <ele>2120.0718</ele>
        <time>2015-08-19T09:05:33Z</time>
      </trkpt>
      <trkpt lat="45.70359" lon="6.68263">
        <ele>2120.0718</ele>
        <time>2015-08-19T09:05:38Z</time>
      </trkpt>
      <trkpt lat="45.70351" lon="6.68264">
        <ele>2117.5754</ele>
        <time>2015-08-19T09:05:48Z</time>
      </trkpt>
      <trkpt lat="45.70348" lon="6.68271">
        <ele>2117.5754</ele>
        <time>2015-08-19T09:05:53Z</time>
      </trkpt>
      <trkpt lat="45.70345" lon="6.68281">
        <ele>2114.855</ele>
        <time>2015-08-19T09:06:03Z</time>
      </trkpt>
      <trkpt lat="45.70344" lon="6.68286">
        <ele>2114.855</ele>
        <time>2015-08-19T09:06:08Z</time>
      </trkpt>
      <trkpt lat="45.70337" lon="6.683">
        <ele>2111.9143</ele>
        <time>2015-08-19T09:06:18Z</time>
      </trkpt>
      <trkpt lat="45.70334" lon="6.68305">
        <ele>2111.9143</ele>
        <time>2015-08-19T09:06:23Z</time>
      </trkpt>
      <trkpt lat="45.70332" lon="6.68317">
        <ele>2108.7861</ele>
        <time>2015-08-19T09:06:33Z</time>
      </trkpt>
      <trkpt lat="45.7033" lon="6.68324">
        <ele>2108.7861</ele>
        <time>2015-08-19T09:06:38Z</time>
      </trkpt>
      <trkpt lat="45.70328" lon="6.68323">
        <ele>2108.7861</ele>
        <time>2015-08-19T09:06:48Z</time>
      </trkpt>
      <trkpt lat="45.70328" lon="6.68323">
        <ele>2108.7861</ele>
        <time>2015-08-19T09:06:53Z</time>
      </trkpt>
      <trkpt lat="45.70327" lon="6.68323">
        <ele>2108.7861</ele>
        <time>2015-08-19T09:07:03Z</time>
      </trkpt>
      <trkpt lat="45.70326" lon="6.68322">
        <ele>2105.185</ele>
        <time>2015-08-19T09:07:08Z</time>
      </trkpt>
      <trkpt lat="45.70325" lon="6.68322">
        <ele>2105.185</ele>
        <time>2015-08-19T09:07:18Z</time>
      </trkpt>
      <trkpt lat="45.70325" lon="6.68319">
        <ele>2105.185</ele>
        <time>2015-08-19T09:07:23Z</time>
      </trkpt>
      <trkpt lat="45.70318" lon="6.68305">
        <ele>2101.5103</ele>
        <time>2015-08-19T09:07:38Z</time>
      </trkpt>
      <trkpt lat="45.70314" lon="6.68297">
        <ele>2101.5103</ele>
        <time>2015-08-19T09:07:43Z</time>
      </trkpt>
      <trkpt lat="45.70317" lon="6.68288">
        <ele>2098.1028</ele>
        <time>2015-08-19T09:07:53Z</time>
      </trkpt>
      <trkpt lat="45.70317" lon="6.68286">
        <ele>2098.1028</ele>
        <time>2015-08-19T09:07:58Z</time>
      </trkpt>
      <trkpt lat="45.7031" lon="6.68292">
        <ele>2094.6587</ele>
        <time>2015-08-19T09:08:08Z</time>
      </trkpt>
      <trkpt lat="45.70306" lon="6.68295">
        <ele>2094.6587</ele>
        <time>2015-08-19T09:08:13Z</time>
      </trkpt>
      <trkpt lat="45.70303" lon="6.68305">
        <ele>2091.1125</ele>
        <time>2015-08-19T09:08:23Z</time>
      </trkpt>
      <trkpt lat="45.70301" lon="6.68311">
        <ele>2091.1125</ele>
        <time>2015-08-19T09:08:28Z</time>
      </trkpt>
      <trkpt lat="45.70298" lon="6.68317">
        <ele>2087.6052</ele>
        <time>2015-08-19T09:08:38Z</time>
      </trkpt>
      <trkpt lat="45.70296" lon="6.68319">
        <ele>2087.6052</ele>
        <time>2015-08-19T09:08:43Z</time>
      </trkpt>
      <trkpt lat="45.70291" lon="6.68309">
        <ele>2084.1091</ele>
        <time>2015-08-19T09:08:53Z</time>
      </trkpt>
      <trkpt lat="45.70288" lon="6.683">
        <ele>2084.1091</ele>
        <time>2015-08-19T09:08:58Z</time>
      </trkpt>
      <trkpt lat="45.70288" lon="6.68288">
        <ele>2080.6848</ele>
        <time>2015-08-19T09:09:08Z</time>
      </trkpt>
      <trkpt lat="45.7029" lon="6.68287">
        <ele>2080.6848</ele>
        <time>2015-08-19T09:09:13Z</time>
      </trkpt>
      <trkpt lat="45.7029" lon="6.68289">
        <ele>2080.6848</ele>
        <time>2015-08-19T09:09:23Z</time>
      </trkpt>
      <trkpt lat="45.7029" lon="6.68289">
        <ele>2080.6848</ele>
        <time>2015-08-19T09:09:28Z</time>
      </trkpt>
      <trkpt lat="45.70287" lon="6.68285">
        <ele>2080.6848</ele>
        <time>2015-08-19T09:09:43Z</time>
      </trkpt>
      <trkpt lat="45.70289" lon="6.68285">
        <ele>2077.2007</ele>
        <time>2015-08-19T09:09:48Z</time>
      </trkpt>
      <trkpt lat="45.7029" lon="6.68286">
        <ele>2077.2007</ele>
        <time>2015-08-19T09:09:53Z</time>
      </trkpt>
      <trkpt lat="45.7029" lon="6.68289">
        <ele>2077.2007</ele>
        <time>2015-08-19T09:09:58Z</time>
      </trkpt>
      <trkpt lat="45.70289" lon="6.68294">
        <ele>2077.2007</ele>
        <time>2015-08-19T09:10:03Z</time>
      </trkpt>
      <trkpt lat="45.7029" lon="6.68293">
        <ele>2077.2007</ele>
        <time>2015-08-19T09:10:08Z</time>
      </trkpt>
      <trkpt lat="45.70288" lon="6.6829">
        <ele>2074.1836</ele>
        <time>2015-08-19T09:10:13Z</time>
      </trkpt>
      <trkpt lat="45.70287" lon="6.68285">
        <ele>2074.1836</ele>
        <time>2015-08-19T09:10:18Z</time>
      </trkpt>
      <trkpt lat="45.70287" lon="6.68286">
        <ele>2074.1836</ele>
        <time>2015-08-19T09:10:23Z</time>
      </trkpt>
      <trkpt lat="45.70287" lon="6.68285">
        <ele>2074.1836</ele>
        <time>2015-08-19T09:10:28Z</time>
      </trkpt>
      <trkpt lat="45.70287" lon="6.68272">
        <ele>2071.068</ele>
        <time>2015-08-19T09:10:38Z</time>
      </trkpt>
      <trkpt lat="45.7029" lon="6.68265">
        <ele>2071.068</ele>
        <time>2015-08-19T09:10:43Z</time>
      </trkpt>
      <trkpt lat="45.70293" lon="6.68249">
        <ele>2068.0945</ele>
        <time>2015-08-19T09:10:53Z</time>
      </trkpt>
      <trkpt lat="45.70294" lon="6.6824">
        <ele>2068.0945</ele>
        <time>2015-08-19T09:10:58Z</time>
      </trkpt>
      <trkpt lat="45.703" lon="6.68217">
        <ele>2065.0813</ele>
        <time>2015-08-19T09:11:13Z</time>
      </trkpt>
      <trkpt lat="45.70304" lon="6.68213">
        <ele>2065.0813</ele>
        <time>2015-08-19T09:11:18Z</time>
      </trkpt>
      <trkpt lat="45.70311" lon="6.682">
        <ele>2062.019</ele>
        <time>2015-08-19T09:11:28Z</time>
      </trkpt>
      <trkpt lat="45.70313" lon="6.68193">
        <ele>2062.019</ele>
        <time>2015-08-19T09:11:33Z</time>
      </trkpt>
      <trkpt lat="45.70313" lon="6.68193">
        <ele>2062.019</ele>
        <time>2015-08-19T09:11:43Z</time>
      </trkpt>
      <trkpt lat="45.70313" lon="6.68194">
        <ele>2062.019</ele>
        <time>2015-08-19T09:11:48Z</time>
      </trkpt>
      <trkpt lat="45.70313" lon="6.68195">
        <ele>2062.019</ele>
        <time>2015-08-19T09:11:58Z</time>
      </trkpt>
      <trkpt lat="45.70313" lon="6.68195">
        <ele>2062.019</ele>
        <time>2015-08-19T09:12:03Z</time>
      </trkpt>
      <trkpt lat="45.70313" lon="6.68194">
        <ele>2062.019</ele>
        <time>2015-08-19T09:12:13Z</time>
      </trkpt>
      <trkpt lat="45.70313" lon="6.68193">
        <ele>2059.1006</ele>
        <time>2015-08-19T09:12:23Z</time>
      </trkpt>
      <trkpt lat="45.70313" lon="6.68192">
        <ele>2059.1006</ele>
        <time>2015-08-19T09:12:43Z</time>
      </trkpt>
      <trkpt lat="45.70312" lon="6.68193">
        <ele>2059.1006</ele>
        <time>2015-08-19T09:12:48Z</time>
      </trkpt>
      <trkpt lat="45.70312" lon="6.68193">
        <ele>2059.1006</ele>
        <time>2015-08-19T09:12:53Z</time>
      </trkpt>
      <trkpt lat="45.70312" lon="6.68193">
        <ele>2059.1006</ele>
        <time>2015-08-19T09:13:03Z</time>
      </trkpt>
      <trkpt lat="45.70307" lon="6.68203">
        <ele>2056.5186</ele>
        <time>2015-08-19T09:13:23Z</time>
      </trkpt>
      <trkpt lat="45.70302" lon="6.68207">
        <ele>2056.5186</ele>
        <time>2015-08-19T09:13:28Z</time>
      </trkpt>
      <trkpt lat="45.70295" lon="6.68221">
        <ele>2054.1768</ele>
        <time>2015-08-19T09:13:38Z</time>
      </trkpt>
      <trkpt lat="45.70292" lon="6.68229">
        <ele>2054.1768</ele>
        <time>2015-08-19T09:13:43Z</time>
      </trkpt>
      <trkpt lat="45.70292" lon="6.68244">
        <ele>2052.1438</ele>
        <time>2015-08-19T09:13:53Z</time>
      </trkpt>
      <trkpt lat="45.70292" lon="6.68252">
        <ele>2052.1438</ele>
        <time>2015-08-19T09:13:58Z</time>
      </trkpt>
      <trkpt lat="45.70289" lon="6.68264">
        <ele>2050.5398</ele>
        <time>2015-08-19T09:14:08Z</time>
      </trkpt>
      <trkpt lat="45.70288" lon="6.6827">
        <ele>2050.5398</ele>
        <time>2015-08-19T09:14:13Z</time>
      </trkpt>
      <trkpt lat="45.70286" lon="6.6828">
        <ele>2049.403</ele>
        <time>2015-08-19T09:14:23Z</time>
      </trkpt>
      <trkpt lat="45.70285" lon="6.68283">
        <ele>2049.403</ele>
        <time>2015-08-19T09:14:28Z</time>
      </trkpt>
      <trkpt lat="45.70284" lon="6.68284">
        <ele>2049.403</ele>
        <time>2015-08-19T09:14:38Z</time>
      </trkpt>
      <trkpt lat="45.70284" lon="6.68285">
        <ele>2049.403</ele>
        <time>2015-08-19T09:14:43Z</time>
      </trkpt>
      <trkpt lat="45.70287" lon="6.68285">
        <ele>2049.403</ele>
        <time>2015-08-19T09:14:53Z</time>
      </trkpt>
      <trkpt lat="45.70285" lon="6.68286">
        <ele>2048.6665</ele>
        <time>2015-08-19T09:14:58Z</time>
      </trkpt>
      <trkpt lat="45.70285" lon="6.68284">
        <ele>2048.6665</ele>
        <time>2015-08-19T09:15:08Z</time>
      </trkpt>
      <trkpt lat="45.70285" lon="6.68283">
        <ele>2048.6665</ele>
        <time>2015-08-19T09:15:13Z</time>
      </trkpt>
      <trkpt lat="45.70282" lon="6.68281">
        <ele>2048.6665</ele>
        <time>2015-08-19T09:15:28Z</time>
      </trkpt>
      <trkpt lat="45.70283" lon="6.68282">
        <ele>2048.6665</ele>
        <time>2015-08-19T09:15:33Z</time>
      </trkpt>
      <trkpt lat="45.70285" lon="6.68285">
        <ele>2048.6665</ele>
        <time>2015-08-19T09:15:43Z</time>
      </trkpt>
      <trkpt lat="45.70284" lon="6.68286">
        <ele>2048.2812</ele>
        <time>2015-08-19T09:15:48Z</time>
      </trkpt>
      <trkpt lat="45.70283" lon="6.68286">
        <ele>2048.2812</ele>
        <time>2015-08-19T09:15:58Z</time>
      </trkpt>
      <trkpt lat="45.70283" lon="6.68287">
        <ele>2048.2812</ele>
        <time>2015-08-19T09:16:03Z</time>
      </trkpt>
      <trkpt lat="45.70279" lon="6.68287">
        <ele>2048.2812</ele>
        <time>2015-08-19T09:16:13Z</time>
      </trkpt>
      <trkpt lat="45.70275" lon="6.68285">
        <ele>2048.3455</ele>
        <time>2015-08-19T09:16:18Z</time>
      </trkpt>
      <trkpt lat="45.70266" lon="6.68283">
        <ele>2048.5737</ele>
        <time>2015-08-19T09:16:28Z</time>
      </trkpt>
      <trkpt lat="45.70261" lon="6.68283">
        <ele>2048.5737</ele>
        <time>2015-08-19T09:16:33Z</time>
      </trkpt>
      <trkpt lat="45.70256" lon="6.68283">
        <ele>2048.7878</ele>
        <time>2015-08-19T09:16:43Z</time>
      </trkpt>
      <trkpt lat="45.70254" lon="6.68283">
        <ele>2048.7878</ele>
        <time>2015-08-19T09:16:48Z</time>
      </trkpt>
      <trkpt lat="45.70242" lon="6.68288">
        <ele>2048.8086</ele>
        <time>2015-08-19T09:16:58Z</time>
      </trkpt>
      <trkpt lat="45.70235" lon="6.68288">
        <ele>2048.8086</ele>
        <time>2015-08-19T09:17:03Z</time>
      </trkpt>
      <trkpt lat="45.70226" lon="6.68289">
        <ele>2048.5854</ele>
        <time>2015-08-19T09:17:13Z</time>
      </trkpt>
      <trkpt lat="45.70224" lon="6.68285">
        <ele>2048.5854</ele>
        <time>2015-08-19T09:17:18Z</time>
      </trkpt>
      <trkpt lat="45.70218" lon="6.68282">
        <ele>2048.13</ele>
        <time>2015-08-19T09:17:28Z</time>
      </trkpt>
      <trkpt lat="45.70213" lon="6.68277">
        <ele>2048.13</ele>
        <time>2015-08-19T09:17:33Z</time>
      </trkpt>
      <trkpt lat="45.70207" lon="6.68276">
        <ele>2047.3676</ele>
        <time>2015-08-19T09:17:43Z</time>
      </trkpt>
      <trkpt lat="45.70204" lon="6.68274">
        <ele>2047.3676</ele>
        <time>2015-08-19T09:17:48Z</time>
      </trkpt>
      <trkpt lat="45.70197" lon="6.6826">
        <ele>2046.2297</ele>
        <time>2015-08-19T09:18:03Z</time>
      </trkpt>
      <trkpt lat="45.70193" lon="6.68252">
        <ele>2046.2297</ele>
        <time>2015-08-19T09:18:08Z</time>
      </trkpt>
      <trkpt lat="45.70186" lon="6.68245">
        <ele>2044.9137</ele>
        <time>2015-08-19T09:18:18Z</time>
      </trkpt>
      <trkpt lat="45.70182" lon="6.68244">
        <ele>2044.9137</ele>
        <time>2015-08-19T09:18:23Z</time>
      </trkpt>
      <trkpt lat="45.70173" lon="6.68241">
        <ele>2043.2568</ele>
        <time>2015-08-19T09:18:33Z</time>
      </trkpt>
      <trkpt lat="45.70173" lon="6.68242">
        <ele>2043.2568</ele>
        <time>2015-08-19T09:18:38Z</time>
      </trkpt>
      <trkpt lat="45.70165" lon="6.68244">
        <ele>2043.2568</ele>
        <time>2015-08-19T09:18:48Z</time>
      </trkpt>
      <trkpt lat="45.70165" lon="6.68247">
        <ele>2041.1674</ele>
        <time>2015-08-19T09:18:53Z</time>
      </trkpt>
      <trkpt lat="45.70158" lon="6.68255">
        <ele>2041.1674</ele>
        <time>2015-08-19T09:19:03Z</time>
      </trkpt>
      <trkpt lat="45.70156" lon="6.68258">
        <ele>2038.9216</ele>
        <time>2015-08-19T09:19:08Z</time>
      </trkpt>
      <trkpt lat="45.70152" lon="6.68272">
        <ele>2036.6323</ele>
        <time>2015-08-19T09:19:18Z</time>
      </trkpt>
      <trkpt lat="45.7015" lon="6.68279">
        <ele>2036.6323</ele>
        <time>2015-08-19T09:19:23Z</time>
      </trkpt>
      <trkpt lat="45.70145" lon="6.68283">
        <ele>2034.1155</ele>
        <time>2015-08-19T09:19:33Z</time>
      </trkpt>
      <trkpt lat="45.70141" lon="6.68282">
        <ele>2034.1155</ele>
        <time>2015-08-19T09:19:38Z</time>
      </trkpt>
      <trkpt lat="45.70135" lon="6.68278">
        <ele>2031.5477</ele>
        <time>2015-08-19T09:19:48Z</time>
      </trkpt>
      <trkpt lat="45.70135" lon="6.68276">
        <ele>2031.5477</ele>
        <time>2015-08-19T09:19:53Z</time>
      </trkpt>
      <trkpt lat="45.70123" lon="6.68272">
        <ele>2028.6891</ele>
        <time>2015-08-19T09:20:03Z</time>
      </trkpt>
      <trkpt lat="45.70123" lon="6.68272">
        <ele>2028.6891</ele>
        <time>2015-08-19T09:20:08Z</time>
      </trkpt>
      <trkpt lat="45.70124" lon="6.68265">
        <ele>2028.6891</ele>
        <time>2015-08-19T09:20:23Z</time>
      </trkpt>
      <trkpt lat="45.70125" lon="6.68267">
        <ele>2028.6891</ele>
        <time>2015-08-19T09:20:28Z</time>
      </trkpt>
      <trkpt lat="45.70125" lon="6.68264">
        <ele>2028.6891</ele>
        <time>2015-08-19T09:20:33Z</time>
      </trkpt>
      <trkpt lat="45.70125" lon="6.68263">
        <ele>2025.5343</ele>
        <time>2015-08-19T09:20:38Z</time>
      </trkpt>
      <trkpt lat="45.70126" lon="6.68262">
        <ele>2025.5343</ele>
        <time>2015-08-19T09:20:43Z</time>
      </trkpt>
      <trkpt lat="45.70125" lon="6.68262">
        <ele>2025.5343</ele>
        <time>2015-08-19T09:20:48Z</time>
      </trkpt>
      <trkpt lat="45.70125" lon="6.6826">
        <ele>2025.5343</ele>
        <time>2015-08-19T09:20:53Z</time>
      </trkpt>
      <trkpt lat="45.70131" lon="6.68252">
        <ele>2022.1948</ele>
        <time>2015-08-19T09:21:03Z</time>
      </trkpt>
      <trkpt lat="45.70137" lon="6.68241">
        <ele>2019.1921</ele>
        <time>2015-08-19T09:21:08Z</time>
      </trkpt>
      <trkpt lat="45.70144" lon="6.6823">
        <ele>2016.3748</ele>
        <time>2015-08-19T09:21:18Z</time>
      </trkpt>
      <trkpt lat="45.70147" lon="6.68221">
        <ele>2016.3748</ele>
        <time>2015-08-19T09:21:23Z</time>
      </trkpt>
      <trkpt lat="45.70153" lon="6.68209">
        <ele>2013.7023</ele>
        <time>2015-08-19T09:21:33Z</time>
      </trkpt>
      <trkpt lat="45.70155" lon="6.68203">
        <ele>2013.7023</ele>
        <time>2015-08-19T09:21:38Z</time>
      </trkpt>
      <trkpt lat="45.70155" lon="6.68191">
        <ele>2011.2814</ele>
        <time>2015-08-19T09:21:48Z</time>
      </trkpt>
      <trkpt lat="45.70151" lon="6.6819">
        <ele>2011.2814</ele>
        <time>2015-08-19T09:21:53Z</time>
      </trkpt>
      <trkpt lat="45.70142" lon="6.68182">
        <ele>2008.8209</ele>
        <time>2015-08-19T09:22:03Z</time>
      </trkpt>
      <trkpt lat="45.70139" lon="6.68174">
        <ele>2008.8209</ele>
        <time>2015-08-19T09:22:08Z</time>
      </trkpt>
      <trkpt lat="45.70134" lon="6.68166">
        <ele>2006.1232</ele>
        <time>2015-08-19T09:22:23Z</time>
      </trkpt>
      <trkpt lat="45.70132" lon="6.6816">
        <ele>2006.1232</ele>
        <time>2015-08-19T09:22:28Z</time>
      </trkpt>
      <trkpt lat="45.70128" lon="6.68154">
        <ele>2003.2797</ele>
        <time>2015-08-19T09:22:38Z</time>
      </trkpt>
      <trkpt lat="45.70124" lon="6.68151">
        <ele>2003.2797</ele>
        <time>2015-08-19T09:22:43Z</time>
      </trkpt>
      <trkpt lat="45.70118" lon="6.68143">
        <ele>2000.534</ele>
        <time>2015-08-19T09:22:53Z</time>
      </trkpt>
      <trkpt lat="45.70114" lon="6.68145">
        <ele>2000.534</ele>
        <time>2015-08-19T09:22:58Z</time>
      </trkpt>
      <trkpt lat="45.70107" lon="6.68154">
        <ele>1997.8378</ele>
        <time>2015-08-19T09:23:08Z</time>
      </trkpt>
      <trkpt lat="45.70104" lon="6.68159">
        <ele>1997.8378</ele>
        <time>2015-08-19T09:23:13Z</time>
      </trkpt>
      <trkpt lat="45.70094" lon="6.68154">
        <ele>1995.3478</ele>
        <time>2015-08-19T09:23:23Z</time>
      </trkpt>
      <trkpt lat="45.70094" lon="6.68152">
        <ele>1995.3478</ele>
        <time>2015-08-19T09:23:28Z</time>
      </trkpt>
      <trkpt lat="45.70087" lon="6.68145">
        <ele>1993.1221</ele>
        <time>2015-08-19T09:23:38Z</time>
      </trkpt>
      <trkpt lat="45.70083" lon="6.68138">
        <ele>1993.1221</ele>
        <time>2015-08-19T09:23:43Z</time>
      </trkpt>
      <trkpt lat="45.70076" lon="6.68125">
        <ele>1991.0265</ele>
        <time>2015-08-19T09:23:53Z</time>
      </trkpt>
      <trkpt lat="45.70074" lon="6.68124">
        <ele>1991.0265</ele>
        <time>2015-08-19T09:23:58Z</time>
      </trkpt>
      <trkpt lat="45.70066" lon="6.68117">
        <ele>1988.9651</ele>
        <time>2015-08-19T09:24:08Z</time>
      </trkpt>
      <trkpt lat="45.70065" lon="6.68114">
        <ele>1988.9651</ele>
        <time>2015-08-19T09:24:13Z</time>
      </trkpt>
      <trkpt lat="45.70062" lon="6.6811">
        <ele>1988.9651</ele>
        <time>2015-08-19T09:24:23Z</time>
      </trkpt>
      <trkpt lat="45.7006" lon="6.68109">
        <ele>1988.9651</ele>
        <time>2015-08-19T09:24:28Z</time>
      </trkpt>
      <trkpt lat="45.70048" lon="6.68105">
        <ele>1986.2006</ele>
        <time>2015-08-19T09:24:43Z</time>
      </trkpt>
      <trkpt lat="45.70048" lon="6.68101">
        <ele>1986.2006</ele>
        <time>2015-08-19T09:24:48Z</time>
      </trkpt>
      <trkpt lat="45.70049" lon="6.68091">
        <ele>1983.2905</ele>
        <time>2015-08-19T09:24:58Z</time>
      </trkpt>
      <trkpt lat="45.70054" lon="6.68087">
        <ele>1983.2905</ele>
        <time>2015-08-19T09:25:03Z</time>
      </trkpt>
      <trkpt lat="45.70057" lon="6.68087">
        <ele>1983.2905</ele>
        <time>2015-08-19T09:25:13Z</time>
      </trkpt>
      <trkpt lat="45.70057" lon="6.68085">
        <ele>1980.1619</ele>
        <time>2015-08-19T09:25:18Z</time>
      </trkpt>
      <trkpt lat="45.7005" lon="6.68081">
        <ele>1980.1619</ele>
        <time>2015-08-19T09:25:28Z</time>
      </trkpt>
      <trkpt lat="45.7005" lon="6.68079">
        <ele>1980.1619</ele>
        <time>2015-08-19T09:25:33Z</time>
      </trkpt>
      <trkpt lat="45.70048" lon="6.68077">
        <ele>1976.5306</ele>
        <time>2015-08-19T09:25:43Z</time>
      </trkpt>
      <trkpt lat="45.70043" lon="6.68073">
        <ele>1976.5306</ele>
        <time>2015-08-19T09:25:48Z</time>
      </trkpt>
      <trkpt lat="45.70037" lon="6.68071">
        <ele>1972.8273</ele>
        <time>2015-08-19T09:25:58Z</time>
      </trkpt>
      <trkpt lat="45.70034" lon="6.68069">
        <ele>1972.8273</ele>
        <time>2015-08-19T09:26:03Z</time>
      </trkpt>
      <trkpt lat="45.70031" lon="6.68064">
        <ele>1972.8273</ele>
        <time>2015-08-19T09:26:13Z</time>
      </trkpt>
      <trkpt lat="45.70031" lon="6.68061">
        <ele>1969.0757</ele>
        <time>2015-08-19T09:26:18Z</time>
      </trkpt>
      <trkpt lat="45.70026" lon="6.68053">
        <ele>1969.0757</ele>
        <time>2015-08-19T09:26:28Z</time>
      </trkpt>
      <trkpt lat="45.7002" lon="6.6805">
        <ele>1965.2698</ele>
        <time>2015-08-19T09:26:33Z</time>
      </trkpt>
      <trkpt lat="45.70019" lon="6.68049">
        <ele>1965.2698</ele>
        <time>2015-08-19T09:26:43Z</time>
      </trkpt>
      <trkpt lat="45.70017" lon="6.68049">
        <ele>1965.2698</ele>
        <time>2015-08-19T09:26:48Z</time>
      </trkpt>
      <trkpt lat="45.70015" lon="6.68049">
        <ele>1965.2698</ele>
        <time>2015-08-19T09:26:58Z</time>
      </trkpt>
      <trkpt lat="45.70015" lon="6.68048">
        <ele>1965.2698</ele>
        <time>2015-08-19T09:27:03Z</time>
      </trkpt>
      <trkpt lat="45.70011" lon="6.68042">
        <ele>1961.3313</ele>
        <time>2015-08-19T09:27:18Z</time>
      </trkpt>
      <trkpt lat="45.70011" lon="6.68039">
        <ele>1961.3313</ele>
        <time>2015-08-19T09:27:23Z</time>
      </trkpt>
      <trkpt lat="45.70007" lon="6.68026">
        <ele>1957.5057</ele>
        <time>2015-08-19T09:27:33Z</time>
      </trkpt>
      <trkpt lat="45.70006" lon="6.68019">
        <ele>1957.5057</ele>
        <time>2015-08-19T09:27:38Z</time>
      </trkpt>
      <trkpt lat="45.70002" lon="6.68011">
        <ele>1953.8179</ele>
        <time>2015-08-19T09:27:48Z</time>
      </trkpt>
      <trkpt lat="45.69999" lon="6.68006">
        <ele>1953.8179</ele>
        <time>2015-08-19T09:27:53Z</time>
      </trkpt>
      <trkpt lat="45.69992" lon="6.67991">
        <ele>1950.2473</ele>
        <time>2015-08-19T09:28:03Z</time>
      </trkpt>
      <trkpt lat="45.69994" lon="6.67987">
        <ele>1950.2473</ele>
        <time>2015-08-19T09:28:08Z</time>
      </trkpt>
      <trkpt lat="45.69984" lon="6.67982">
        <ele>1946.7744</ele>
        <time>2015-08-19T09:28:18Z</time>
      </trkpt>
      <trkpt lat="45.6998" lon="6.67978">
        <ele>1946.7744</ele>
        <time>2015-08-19T09:28:23Z</time>
      </trkpt>
      <trkpt lat="45.69973" lon="6.67972">
        <ele>1943.3809</ele>
        <time>2015-08-19T09:28:33Z</time>
      </trkpt>
      <trkpt lat="45.69971" lon="6.67969">
        <ele>1943.3809</ele>
        <time>2015-08-19T09:28:38Z</time>
      </trkpt>
      <trkpt lat="45.69966" lon="6.67966">
        <ele>1943.3809</ele>
        <time>2015-08-19T09:28:48Z</time>
      </trkpt>
      <trkpt lat="45.69962" lon="6.67966">
        <ele>1939.6027</ele>
        <time>2015-08-19T09:28:53Z</time>
      </trkpt>
      <trkpt lat="45.69957" lon="6.6796">
        <ele>1939.6027</ele>
        <time>2015-08-19T09:29:03Z</time>
      </trkpt>
      <trkpt lat="45.69955" lon="6.67955">
        <ele>1936.1202</ele>
        <time>2015-08-19T09:29:08Z</time>
      </trkpt>
      <trkpt lat="45.69948" lon="6.67952">
        <ele>1936.1202</ele>
        <time>2015-08-19T09:29:23Z</time>
      </trkpt>
      <trkpt lat="45.69945" lon="6.67949">
        <ele>1932.612</ele>
        <time>2015-08-19T09:29:28Z</time>
      </trkpt>
      <trkpt lat="45.69943" lon="6.67943">
        <ele>1932.612</ele>
        <time>2015-08-19T09:29:38Z</time>
      </trkpt>
      <trkpt lat="45.69947" lon="6.67937">
        <ele>1929.184</ele>
        <time>2015-08-19T09:29:43Z</time>
      </trkpt>
      <trkpt lat="45.69954" lon="6.67926">
        <ele>1925.9045</ele>
        <time>2015-08-19T09:29:53Z</time>
      </trkpt>
      <trkpt lat="45.69955" lon="6.67921">
        <ele>1925.9045</ele>
        <time>2015-08-19T09:29:58Z</time>
      </trkpt>
      <trkpt lat="45.69953" lon="6.67918">
        <ele>1925.9045</ele>
        <time>2015-08-19T09:30:08Z</time>
      </trkpt>
      <trkpt lat="45.69949" lon="6.67918">
        <ele>1922.6064</ele>
        <time>2015-08-19T09:30:13Z</time>
      </trkpt>
      <trkpt lat="45.69944" lon="6.67918">
        <ele>1922.6064</ele>
        <time>2015-08-19T09:30:23Z</time>
      </trkpt>
      <trkpt lat="45.69944" lon="6.67918">
        <ele>1922.6064</ele>
        <time>2015-08-19T09:30:28Z</time>
      </trkpt>
      <trkpt lat="45.69944" lon="6.67917">
        <ele>1922.6064</ele>
        <time>2015-08-19T09:30:38Z</time>
      </trkpt>
      <trkpt lat="45.69945" lon="6.67918">
        <ele>1922.6064</ele>
        <time>2015-08-19T09:30:43Z</time>
      </trkpt>
      <trkpt lat="45.69945" lon="6.67918">
        <ele>1922.6064</ele>
        <time>2015-08-19T09:30:53Z</time>
      </trkpt>
      <trkpt lat="45.6994" lon="6.67913">
        <ele>1919.264</ele>
        <time>2015-08-19T09:31:08Z</time>
      </trkpt>
      <trkpt lat="45.69937" lon="6.67911">
        <ele>1919.264</ele>
        <time>2015-08-19T09:31:13Z</time>
      </trkpt>
      <trkpt lat="45.69925" lon="6.67908">
        <ele>1916.0988</ele>
        <time>2015-08-19T09:31:28Z</time>
      </trkpt>
      <trkpt lat="45.69919" lon="6.67908">
        <ele>1916.0988</ele>
        <time>2015-08-19T09:31:33Z</time>
      </trkpt>
      <trkpt lat="45.69907" lon="6.6791">
        <ele>1912.8109</ele>
        <time>2015-08-19T09:31:43Z</time>
      </trkpt>
      <trkpt lat="45.69902" lon="6.67911">
        <ele>1912.8109</ele>
        <time>2015-08-19T09:31:48Z</time>
      </trkpt>
      <trkpt lat="45.69896" lon="6.67922">
        <ele>1909.6127</ele>
        <time>2015-08-19T09:31:58Z</time>
      </trkpt>
      <trkpt lat="45.69893" lon="6.67925">
        <ele>1909.6127</ele>
        <time>2015-08-19T09:32:03Z</time>
      </trkpt>
      <trkpt lat="45.69888" lon="6.6793">
        <ele>1906.5132</ele>
        <time>2015-08-19T09:32:13Z</time>
      </trkpt>
      <trkpt lat="45.69886" lon="6.67936">
        <ele>1906.5132</ele>
        <time>2015-08-19T09:32:18Z</time>
      </trkpt>
      <trkpt lat="45.69883" lon="6.67925">
        <ele>1903.5638</ele>
        <time>2015-08-19T09:32:28Z</time>
      </trkpt>
      <trkpt lat="45.69878" lon="6.67918">
        <ele>1903.5638</ele>
        <time>2015-08-19T09:32:33Z</time>
      </trkpt>
      <trkpt lat="45.69877" lon="6.67904">
        <ele>1900.6387</ele>
        <time>2015-08-19T09:32:43Z</time>
      </trkpt>
      <trkpt lat="45.69875" lon="6.67906">
        <ele>1900.6387</ele>
        <time>2015-08-19T09:32:48Z</time>
      </trkpt>
      <trkpt lat="45.69863" lon="6.67902">
        <ele>1897.8082</ele>
        <time>2015-08-19T09:32:58Z</time>
      </trkpt>
      <trkpt lat="45.69858" lon="6.67898">
        <ele>1897.8082</ele>
        <time>2015-08-19T09:33:03Z</time>
      </trkpt>
      <trkpt lat="45.6985" lon="6.67886">
        <ele>1894.8348</ele>
        <time>2015-08-19T09:33:18Z</time>
      </trkpt>
      <trkpt lat="45.69848" lon="6.67879">
        <ele>1894.8348</ele>
        <time>2015-08-19T09:33:23Z</time>
      </trkpt>
      <trkpt lat="45.69841" lon="6.67873">
        <ele>1891.8014</ele>
        <time>2015-08-19T09:33:33Z</time>
      </trkpt>
      <trkpt lat="45.69833" lon="6.67864">
        <ele>1889.0007</ele>
        <time>2015-08-19T09:33:38Z</time>
      </trkpt>
      <trkpt lat="45.6983" lon="6.67854">
        <ele>1889.0007</ele>
        <time>2015-08-19T09:33:48Z</time>
      </trkpt>
      <trkpt lat="45.69828" lon="6.67853">
        <ele>1885.9977</ele>
        <time>2015-08-19T09:33:53Z</time>
      </trkpt>
      <trkpt lat="45.69825" lon="6.67847">
        <ele>1885.9977</ele>
        <time>2015-08-19T09:34:03Z</time>
      </trkpt>
      <trkpt lat="45.69819" lon="6.6784">
        <ele>1882.9655</ele>
        <time>2015-08-19T09:34:08Z</time>
      </trkpt>
      <trkpt lat="45.69813" lon="6.67831">
        <ele>1882.9655</ele>
        <time>2015-08-19T09:34:18Z</time>
      </trkpt>
      <trkpt lat="45.69811" lon="6.67826">
        <ele>1880.1084</ele>
        <time>2015-08-19T09:34:23Z</time>
      </trkpt>
      <trkpt lat="45.69806" lon="6.67816">
        <ele>1880.1084</ele>
        <time>2015-08-19T09:34:33Z</time>
      </trkpt>
      <trkpt lat="45.69803" lon="6.67811">
        <ele>1877.3843</ele>
        <time>2015-08-19T09:34:38Z</time>
      </trkpt>
      <trkpt lat="45.69795" lon="6.67812">
        <ele>1877.3843</ele>
        <time>2015-08-19T09:34:48Z</time>
      </trkpt>
      <trkpt lat="45.69791" lon="6.67813">
        <ele>1874.5952</ele>
        <time>2015-08-19T09:34:53Z</time>
      </trkpt>
      <trkpt lat="45.69786" lon="6.67813">
        <ele>1874.5952</ele>
        <time>2015-08-19T09:34:58Z</time>
      </trkpt>
      <trkpt lat="45.69781" lon="6.67812">
        <ele>1871.7599</ele>
        <time>2015-08-19T09:35:03Z</time>
      </trkpt>
      <trkpt lat="45.69778" lon="6.67809">
        <ele>1871.7599</ele>
        <time>2015-08-19T09:35:08Z</time>
      </trkpt>
      <trkpt lat="45.69772" lon="6.67806">
        <ele>1869.0106</ele>
        <time>2015-08-19T09:35:13Z</time>
      </trkpt>
      <trkpt lat="45.69765" lon="6.67804">
        <ele>1869.0106</ele>
        <time>2015-08-19T09:35:18Z</time>
      </trkpt>
      <trkpt lat="45.69758" lon="6.67798">
        <ele>1866.3549</ele>
        <time>2015-08-19T09:35:23Z</time>
      </trkpt>
      <trkpt lat="45.69753" lon="6.67795">
        <ele>1866.3549</ele>
        <time>2015-08-19T09:35:28Z</time>
      </trkpt>
      <trkpt lat="45.69753" lon="6.67792">
        <ele>1866.3549</ele>
        <time>2015-08-19T09:35:33Z</time>
      </trkpt>
      <trkpt lat="45.69753" lon="6.67788">
        <ele>1863.7703</ele>
        <time>2015-08-19T09:35:38Z</time>
      </trkpt>
      <trkpt lat="45.69751" lon="6.67783">
        <ele>1863.7703</ele>
        <time>2015-08-19T09:35:43Z</time>
      </trkpt>
      <trkpt lat="45.69747" lon="6.67781">
        <ele>1863.7703</ele>
        <time>2015-08-19T09:35:48Z</time>
      </trkpt>
      <trkpt lat="45.69743" lon="6.67777">
        <ele>1861.1637</ele>
        <time>2015-08-19T09:35:53Z</time>
      </trkpt>
      <trkpt lat="45.69738" lon="6.67772">
        <ele>1861.1637</ele>
        <time>2015-08-19T09:35:58Z</time>
      </trkpt>
      <trkpt lat="45.69732" lon="6.67765">
        <ele>1858.6508</ele>
        <time>2015-08-19T09:36:03Z</time>
      </trkpt>
      <trkpt lat="45.69728" lon="6.6776">
        <ele>1858.6508</ele>
        <time>2015-08-19T09:36:08Z</time>
      </trkpt>
      <trkpt lat="45.69726" lon="6.67754">
        <ele>1856.1654</ele>
        <time>2015-08-19T09:36:13Z</time>
      </trkpt>
      <trkpt lat="45.69725" lon="6.67747">
        <ele>1856.1654</ele>
        <time>2015-08-19T09:36:18Z</time>
      </trkpt>
      <trkpt lat="45.69721" lon="6.6774">
        <ele>1853.6897</ele>
        <time>2015-08-19T09:36:23Z</time>
      </trkpt>
      <trkpt lat="45.69719" lon="6.67734">
        <ele>1853.6897</ele>
        <time>2015-08-19T09:36:28Z</time>
      </trkpt>
      <trkpt lat="45.69721" lon="6.67731">
        <ele>1853.6897</ele>
        <time>2015-08-19T09:36:33Z</time>
      </trkpt>
      <trkpt lat="45.69723" lon="6.67728">
        <ele>1851.1924</ele>
        <time>2015-08-19T09:36:38Z</time>
      </trkpt>
      <trkpt lat="45.69719" lon="6.67728">
        <ele>1851.1924</ele>
        <time>2015-08-19T09:36:43Z</time>
      </trkpt>
      <trkpt lat="45.69711" lon="6.67725">
        <ele>1848.7454</ele>
        <time>2015-08-19T09:36:48Z</time>
      </trkpt>
      <trkpt lat="45.69705" lon="6.6772">
        <ele>1848.7454</ele>
        <time>2015-08-19T09:36:53Z</time>
      </trkpt>
      <trkpt lat="45.697" lon="6.67719">
        <ele>1846.3723</ele>
        <time>2015-08-19T09:36:58Z</time>
      </trkpt>
      <trkpt lat="45.69698" lon="6.67717">
        <ele>1846.3723</ele>
        <time>2015-08-19T09:37:03Z</time>
      </trkpt>
      <trkpt lat="45.69693" lon="6.67711">
        <ele>1846.3723</ele>
        <time>2015-08-19T09:37:08Z</time>
      </trkpt>
      <trkpt lat="45.69688" lon="6.6771">
        <ele>1844.1378</ele>
        <time>2015-08-19T09:37:13Z</time>
      </trkpt>
      <trkpt lat="45.69684" lon="6.6771">
        <ele>1844.1378</ele>
        <time>2015-08-19T09:37:18Z</time>
      </trkpt>
      <trkpt lat="45.69682" lon="6.67707">
        <ele>1844.1378</ele>
        <time>2015-08-19T09:37:23Z</time>
      </trkpt>
      <trkpt lat="45.6968" lon="6.67704">
        <ele>1842.1735</ele>
        <time>2015-08-19T09:37:28Z</time>
      </trkpt>
      <trkpt lat="45.69675" lon="6.67699">
        <ele>1842.1735</ele>
        <time>2015-08-19T09:37:33Z</time>
      </trkpt>
      <trkpt lat="45.6967" lon="6.67693">
        <ele>1840.2115</ele>
        <time>2015-08-19T09:37:38Z</time>
      </trkpt>
      <trkpt lat="45.69668" lon="6.67689">
        <ele>1840.2115</ele>
        <time>2015-08-19T09:37:43Z</time>
      </trkpt>
      <trkpt lat="45.69665" lon="6.67681">
        <ele>1838.5947</ele>
        <time>2015-08-19T09:37:48Z</time>
      </trkpt>
      <trkpt lat="45.69659" lon="6.67675">
        <ele>1838.5947</ele>
        <time>2015-08-19T09:37:53Z</time>
      </trkpt>
      <trkpt lat="45.69656" lon="6.67673">
        <ele>1836.8757</ele>
        <time>2015-08-19T09:37:58Z</time>
      </trkpt>
      <trkpt lat="45.6965" lon="6.67667">
        <ele>1836.8757</ele>
        <time>2015-08-19T09:38:03Z</time>
      </trkpt>
      <trkpt lat="45.69647" lon="6.67663">
        <ele>1835.1594</ele>
        <time>2015-08-19T09:38:08Z</time>
      </trkpt>
      <trkpt lat="45.69647" lon="6.67656">
        <ele>1835.1594</ele>
        <time>2015-08-19T09:38:13Z</time>
      </trkpt>
      <trkpt lat="45.69644" lon="6.6765">
        <ele>1833.4999</ele>
        <time>2015-08-19T09:38:18Z</time>
      </trkpt>
      <trkpt lat="45.69642" lon="6.67646">
        <ele>1833.4999</ele>
        <time>2015-08-19T09:38:23Z</time>
      </trkpt>
      <trkpt lat="45.6964" lon="6.67641">
        <ele>1833.4999</ele>
        <time>2015-08-19T09:38:28Z</time>
      </trkpt>
      <trkpt lat="45.69639" lon="6.67635">
        <ele>1831.8602</ele>
        <time>2015-08-19T09:38:33Z</time>
      </trkpt>
      <trkpt lat="45.69634" lon="6.67627">
        <ele>1831.8602</ele>
        <time>2015-08-19T09:38:38Z</time>
      </trkpt>
      <trkpt lat="45.6963" lon="6.67619">
        <ele>1830.2068</ele>
        <time>2015-08-19T09:38:43Z</time>
      </trkpt>
      <trkpt lat="45.69626" lon="6.67613">
        <ele>1830.2068</ele>
        <time>2015-08-19T09:38:48Z</time>
      </trkpt>
      <trkpt lat="45.6962" lon="6.67608">
        <ele>1828.6378</ele>
        <time>2015-08-19T09:38:53Z</time>
      </trkpt>
      <trkpt lat="45.69617" lon="6.67602">
        <ele>1828.6378</ele>
        <time>2015-08-19T09:38:58Z</time>
      </trkpt>
      <trkpt lat="45.69616" lon="6.67594">
        <ele>1827.1292</ele>
        <time>2015-08-19T09:39:03Z</time>
      </trkpt>
      <trkpt lat="45.69617" lon="6.6759">
        <ele>1827.1292</ele>
        <time>2015-08-19T09:39:08Z</time>
      </trkpt>
      <trkpt lat="45.69621" lon="6.67585">
        <ele>1825.6436</ele>
        <time>2015-08-19T09:39:13Z</time>
      </trkpt>
      <trkpt lat="45.69625" lon="6.67577">
        <ele>1825.6436</ele>
        <time>2015-08-19T09:39:18Z</time>
      </trkpt>
      <trkpt lat="45.69625" lon="6.6757">
        <ele>1824.2191</ele>
        <time>2015-08-19T09:39:23Z</time>
      </trkpt>
      <trkpt lat="45.69619" lon="6.67569">
        <ele>1824.2191</ele>
        <time>2015-08-19T09:39:28Z</time>
      </trkpt>
      <trkpt lat="45.69613" lon="6.67567">
        <ele>1822.8907</ele>
        <time>2015-08-19T09:39:33Z</time>
      </trkpt>
      <trkpt lat="45.69607" lon="6.67563">
        <ele>1822.8907</ele>
        <time>2015-08-19T09:39:38Z</time>
      </trkpt>
      <trkpt lat="45.69603" lon="6.67557">
        <ele>1821.7336</ele>
        <time>2015-08-19T09:39:43Z</time>
      </trkpt>
      <trkpt lat="45.69597" lon="6.67552">
        <ele>1821.7336</ele>
        <time>2015-08-19T09:39:48Z</time>
      </trkpt>
      <trkpt lat="45.69593" lon="6.67547">
        <ele>1820.76</ele>
        <time>2015-08-19T09:39:53Z</time>
      </trkpt>
      <trkpt lat="45.69589" lon="6.67542">
        <ele>1820.76</ele>
        <time>2015-08-19T09:39:58Z</time>
      </trkpt>
      <trkpt lat="45.69587" lon="6.67536">
        <ele>1820.0378</ele>
        <time>2015-08-19T09:40:03Z</time>
      </trkpt>
      <trkpt lat="45.69584" lon="6.67529">
        <ele>1820.0378</ele>
        <time>2015-08-19T09:40:08Z</time>
      </trkpt>
      <trkpt lat="45.6958" lon="6.67523">
        <ele>1819.5002</ele>
        <time>2015-08-19T09:40:13Z</time>
      </trkpt>
      <trkpt lat="45.69577" lon="6.67515">
        <ele>1819.5002</ele>
        <time>2015-08-19T09:40:18Z</time>
      </trkpt>
      <trkpt lat="45.69576" lon="6.67508">
        <ele>1819.1422</ele>
        <time>2015-08-19T09:40:23Z</time>
      </trkpt>
      <trkpt lat="45.69573" lon="6.67503">
        <ele>1819.1422</ele>
        <time>2015-08-19T09:40:28Z</time>
      </trkpt>
      <trkpt lat="45.6957" lon="6.67496">
        <ele>1818.8724</ele>
        <time>2015-08-19T09:40:33Z</time>
      </trkpt>
      <trkpt lat="45.69566" lon="6.6749">
        <ele>1818.8724</ele>
        <time>2015-08-19T09:40:38Z</time>
      </trkpt>
      <trkpt lat="45.6956" lon="6.67487">
        <ele>1818.635</ele>
        <time>2015-08-19T09:40:43Z</time>
      </trkpt>
      <trkpt lat="45.69554" lon="6.67481">
        <ele>1818.635</ele>
        <time>2015-08-19T09:40:48Z</time>
      </trkpt>
      <trkpt lat="45.69552" lon="6.67476">
        <ele>1818.4934</ele>
        <time>2015-08-19T09:40:53Z</time>
      </trkpt>
      <trkpt lat="45.69546" lon="6.67469">
        <ele>1818.4934</ele>
        <time>2015-08-19T09:40:58Z</time>
      </trkpt>
      <trkpt lat="45.69543" lon="6.67465">
        <ele>1818.3623</ele>
        <time>2015-08-19T09:41:03Z</time>
      </trkpt>
      <trkpt lat="45.69542" lon="6.67458">
        <ele>1818.3623</ele>
        <time>2015-08-19T09:41:08Z</time>
      </trkpt>
      <trkpt lat="45.69539" lon="6.67452">
        <ele>1818.278</ele>
        <time>2015-08-19T09:41:13Z</time>
      </trkpt>
      <trkpt lat="45.69534" lon="6.67448">
        <ele>1818.278</ele>
        <time>2015-08-19T09:41:18Z</time>
      </trkpt>
      <trkpt lat="45.6953" lon="6.67444">
        <ele>1818.1011</ele>
        <time>2015-08-19T09:41:23Z</time>
      </trkpt>
      <trkpt lat="45.69523" lon="6.6744">
        <ele>1818.1011</ele>
        <time>2015-08-19T09:41:28Z</time>
      </trkpt>
      <trkpt lat="45.69516" lon="6.67438">
        <ele>1818.1498</ele>
        <time>2015-08-19T09:41:33Z</time>
      </trkpt>
      <trkpt lat="45.69514" lon="6.67438">
        <ele>1818.1498</ele>
        <time>2015-08-19T09:41:38Z</time>
      </trkpt>
      <trkpt lat="45.69513" lon="6.67438">
        <ele>1818.1498</ele>
        <time>2015-08-19T09:41:43Z</time>
      </trkpt>
      <trkpt lat="45.69512" lon="6.67437">
        <ele>1818.1498</ele>
        <time>2015-08-19T09:41:48Z</time>
      </trkpt>
      <trkpt lat="45.69512" lon="6.67437">
        <ele>1818.1498</ele>
        <time>2015-08-19T09:41:53Z</time>
      </trkpt>
      <trkpt lat="45.69512" lon="6.67435">
        <ele>1818.1498</ele>
        <time>2015-08-19T09:42:48Z</time>
      </trkpt>
      <trkpt lat="45.6951" lon="6.67432">
        <ele>1818.1498</ele>
        <time>2015-08-19T09:42:53Z</time>
      </trkpt>
      <trkpt lat="45.69507" lon="6.67427">
        <ele>1818.3007</ele>
        <time>2015-08-19T09:42:58Z</time>
      </trkpt>
      <trkpt lat="45.69505" lon="6.67417">
        <ele>1818.3007</ele>
        <time>2015-08-19T09:43:03Z</time>
      </trkpt>
      <trkpt lat="45.69502" lon="6.67412">
        <ele>1818.3813</ele>
        <time>2015-08-19T09:43:08Z</time>
      </trkpt>
      <trkpt lat="45.69498" lon="6.67411">
        <ele>1818.3813</ele>
        <time>2015-08-19T09:43:13Z</time>
      </trkpt>
      <trkpt lat="45.69491" lon="6.67413">
        <ele>1818.3046</ele>
        <time>2015-08-19T09:43:18Z</time>
      </trkpt>
      <trkpt lat="45.69483" lon="6.67415">
        <ele>1818.3046</ele>
        <time>2015-08-19T09:43:23Z</time>
      </trkpt>
      <trkpt lat="45.69478" lon="6.67416">
        <ele>1818.3362</ele>
        <time>2015-08-19T09:43:28Z</time>
      </trkpt>
      <trkpt lat="45.69474" lon="6.67417">
        <ele>1818.3362</ele>
        <time>2015-08-19T09:43:33Z</time>
      </trkpt>
      <trkpt lat="45.69469" lon="6.67418">
        <ele>1818.2035</ele>
        <time>2015-08-19T09:43:38Z</time>
      </trkpt>
      <trkpt lat="45.69463" lon="6.67421">
        <ele>1818.2035</ele>
        <time>2015-08-19T09:43:43Z</time>
      </trkpt>
      <trkpt lat="45.69458" lon="6.67421">
        <ele>1818.0148</ele>
        <time>2015-08-19T09:43:48Z</time>
      </trkpt>
      <trkpt lat="45.69456" lon="6.67417">
        <ele>1818.0148</ele>
        <time>2015-08-19T09:43:53Z</time>
      </trkpt>
      <trkpt lat="45.69452" lon="6.67412">
        <ele>1817.9138</ele>
        <time>2015-08-19T09:43:58Z</time>
      </trkpt>
      <trkpt lat="45.6945" lon="6.67406">
        <ele>1817.9138</ele>
        <time>2015-08-19T09:44:03Z</time>
      </trkpt>
      <trkpt lat="45.6945" lon="6.67398">
        <ele>1818.0051</ele>
        <time>2015-08-19T09:44:08Z</time>
      </trkpt>
      <trkpt lat="45.69447" lon="6.67392">
        <ele>1818.0051</ele>
        <time>2015-08-19T09:44:13Z</time>
      </trkpt>
      <trkpt lat="45.69442" lon="6.67386">
        <ele>1818.0969</ele>
        <time>2015-08-19T09:44:18Z</time>
      </trkpt>
      <trkpt lat="45.69439" lon="6.67381">
        <ele>1818.0969</ele>
        <time>2015-08-19T09:44:23Z</time>
      </trkpt>
      <trkpt lat="45.69438" lon="6.67376">
        <ele>1818.0969</ele>
        <time>2015-08-19T09:44:28Z</time>
      </trkpt>
      <trkpt lat="45.69435" lon="6.67368">
        <ele>1818.17</ele>
        <time>2015-08-19T09:44:33Z</time>
      </trkpt>
      <trkpt lat="45.69434" lon="6.6736">
        <ele>1818.17</ele>
        <time>2015-08-19T09:44:38Z</time>
      </trkpt>
      <trkpt lat="45.69432" lon="6.67354">
        <ele>1818.2938</ele>
        <time>2015-08-19T09:44:43Z</time>
      </trkpt>
      <trkpt lat="45.69429" lon="6.67346">
        <ele>1818.2938</ele>
        <time>2015-08-19T09:44:48Z</time>
      </trkpt>
      <trkpt lat="45.69426" lon="6.67338">
        <ele>1818.561</ele>
        <time>2015-08-19T09:44:53Z</time>
      </trkpt>
      <trkpt lat="45.69425" lon="6.67331">
        <ele>1818.561</ele>
        <time>2015-08-19T09:44:58Z</time>
      </trkpt>
      <trkpt lat="45.69423" lon="6.67324">
        <ele>1819.0288</ele>
        <time>2015-08-19T09:45:03Z</time>
      </trkpt>
      <trkpt lat="45.69419" lon="6.67319">
        <ele>1819.0288</ele>
        <time>2015-08-19T09:45:08Z</time>
      </trkpt>
      <trkpt lat="45.69413" lon="6.67317">
        <ele>1819.4037</ele>
        <time>2015-08-19T09:45:13Z</time>
      </trkpt>
      <trkpt lat="45.69409" lon="6.67317">
        <ele>1819.4037</ele>
        <time>2015-08-19T09:45:18Z</time>
      </trkpt>
      <trkpt lat="45.69403" lon="6.67315">
        <ele>1819.7168</ele>
        <time>2015-08-19T09:45:23Z</time>
      </trkpt>
      <trkpt lat="45.69398" lon="6.67312">
        <ele>1819.7168</ele>
        <time>2015-08-19T09:45:28Z</time>
      </trkpt>
      <trkpt lat="45.69393" lon="6.67307">
        <ele>1819.9543</ele>
        <time>2015-08-19T09:45:33Z</time>
      </trkpt>
      <trkpt lat="45.6939" lon="6.67301">
        <ele>1819.9543</ele>
        <time>2015-08-19T09:45:38Z</time>
      </trkpt>
      <trkpt lat="45.69388" lon="6.67293">
        <ele>1820.2047</ele>
        <time>2015-08-19T09:45:43Z</time>
      </trkpt>
      <trkpt lat="45.69386" lon="6.67285">
        <ele>1820.2047</ele>
        <time>2015-08-19T09:45:48Z</time>
      </trkpt>
      <trkpt lat="45.69384" lon="6.67279">
        <ele>1820.4489</ele>
        <time>2015-08-19T09:45:53Z</time>
      </trkpt>
      <trkpt lat="45.69382" lon="6.67268">
        <ele>1820.4489</ele>
        <time>2015-08-19T09:45:58Z</time>
      </trkpt>
      <trkpt lat="45.69383" lon="6.67261">
        <ele>1820.6985</ele>
        <time>2015-08-19T09:46:03Z</time>
      </trkpt>
      <trkpt lat="45.69385" lon="6.67251">
        <ele>1820.6985</ele>
        <time>2015-08-19T09:46:08Z</time>
      </trkpt>
      <trkpt lat="45.69386" lon="6.67242">
        <ele>1820.8347</ele>
        <time>2015-08-19T09:46:13Z</time>
      </trkpt>
      <trkpt lat="45.69385" lon="6.67235">
        <ele>1820.8347</ele>
        <time>2015-08-19T09:46:18Z</time>
      </trkpt>
      <trkpt lat="45.69385" lon="6.67225">
        <ele>1820.8344</ele>
        <time>2015-08-19T09:46:23Z</time>
      </trkpt>
      <trkpt lat="45.69384" lon="6.6722">
        <ele>1820.8344</ele>
        <time>2015-08-19T09:46:28Z</time>
      </trkpt>
      <trkpt lat="45.69384" lon="6.67216">
        <ele>1820.8344</ele>
        <time>2015-08-19T09:46:33Z</time>
      </trkpt>
      <trkpt lat="45.69383" lon="6.6721">
        <ele>1820.8351</ele>
        <time>2015-08-19T09:46:38Z</time>
      </trkpt>
      <trkpt lat="45.69381" lon="6.67202">
        <ele>1820.8351</ele>
        <time>2015-08-19T09:46:43Z</time>
      </trkpt>
      <trkpt lat="45.69378" lon="6.67193">
        <ele>1820.7771</ele>
        <time>2015-08-19T09:46:48Z</time>
      </trkpt>
      <trkpt lat="45.69376" lon="6.67186">
        <ele>1820.7771</ele>
        <time>2015-08-19T09:46:53Z</time>
      </trkpt>
      <trkpt lat="45.69374" lon="6.67177">
        <ele>1820.7063</ele>
        <time>2015-08-19T09:46:58Z</time>
      </trkpt>
      <trkpt lat="45.69374" lon="6.67171">
        <ele>1820.7063</ele>
        <time>2015-08-19T09:47:03Z</time>
      </trkpt>
      <trkpt lat="45.69371" lon="6.67165">
        <ele>1820.7063</ele>
        <time>2015-08-19T09:47:08Z</time>
      </trkpt>
      <trkpt lat="45.6937" lon="6.67155">
        <ele>1820.7664</ele>
        <time>2015-08-19T09:47:13Z</time>
      </trkpt>
      <trkpt lat="45.69369" lon="6.67149">
        <ele>1820.7664</ele>
        <time>2015-08-19T09:47:18Z</time>
      </trkpt>
      <trkpt lat="45.69369" lon="6.6714">
        <ele>1820.8883</ele>
        <time>2015-08-19T09:47:23Z</time>
      </trkpt>
      <trkpt lat="45.69369" lon="6.67133">
        <ele>1820.8883</ele>
        <time>2015-08-19T09:47:28Z</time>
      </trkpt>
      <trkpt lat="45.69368" lon="6.67125">
        <ele>1821.1089</ele>
        <time>2015-08-19T09:47:33Z</time>
      </trkpt>
      <trkpt lat="45.69367" lon="6.6712">
        <ele>1821.1089</ele>
        <time>2015-08-19T09:47:38Z</time>
      </trkpt>
      <trkpt lat="45.69364" lon="6.67113">
        <ele>1821.4193</ele>
        <time>2015-08-19T09:47:43Z</time>
      </trkpt>
      <trkpt lat="45.69361" lon="6.67109">
        <ele>1821.4193</ele>
        <time>2015-08-19T09:47:48Z</time>
      </trkpt>
      <trkpt lat="45.69356" lon="6.67105">
        <ele>1821.7819</ele>
        <time>2015-08-19T09:47:53Z</time>
      </trkpt>
      <trkpt lat="45.69353" lon="6.67097">
        <ele>1821.7819</ele>
        <time>2015-08-19T09:47:58Z</time>
      </trkpt>
      <trkpt lat="45.69349" lon="6.67089">
        <ele>1822.1333</ele>
        <time>2015-08-19T09:48:03Z</time>
      </trkpt>
      <trkpt lat="45.69348" lon="6.67082">
        <ele>1822.1333</ele>
        <time>2015-08-19T09:48:08Z</time>
      </trkpt>
      <trkpt lat="45.69348" lon="6.67075">
        <ele>1822.4003</ele>
        <time>2015-08-19T09:48:13Z</time>
      </trkpt>
      <trkpt lat="45.69346" lon="6.67068">
        <ele>1822.4003</ele>
        <time>2015-08-19T09:48:18Z</time>
      </trkpt>
      <trkpt lat="45.69345" lon="6.67062">
        <ele>1822.4866</ele>
        <time>2015-08-19T09:48:23Z</time>
      </trkpt>
      <trkpt lat="45.69343" lon="6.67057">
        <ele>1822.4866</ele>
        <time>2015-08-19T09:48:28Z</time>
      </trkpt>
      <trkpt lat="45.69335" lon="6.6705">
        <ele>1822.5776</ele>
        <time>2015-08-19T09:48:33Z</time>
      </trkpt>
      <trkpt lat="45.69331" lon="6.67048">
        <ele>1822.5776</ele>
        <time>2015-08-19T09:48:38Z</time>
      </trkpt>
      <trkpt lat="45.69327" lon="6.67046">
        <ele>1822.5776</ele>
        <time>2015-08-19T09:48:43Z</time>
      </trkpt>
      <trkpt lat="45.69326" lon="6.67044">
        <ele>1822.7299</ele>
        <time>2015-08-19T09:48:48Z</time>
      </trkpt>
      <trkpt lat="45.69324" lon="6.6704">
        <ele>1822.7299</ele>
        <time>2015-08-19T09:48:53Z</time>
      </trkpt>
      <trkpt lat="45.69321" lon="6.67035">
        <ele>1822.7299</ele>
        <time>2015-08-19T09:48:58Z</time>
      </trkpt>
      <trkpt lat="45.69318" lon="6.67031">
        <ele>1823.0243</ele>
        <time>2015-08-19T09:49:03Z</time>
      </trkpt>
      <trkpt lat="45.69316" lon="6.67025">
        <ele>1823.0243</ele>
        <time>2015-08-19T09:49:08Z</time>
      </trkpt>
      <trkpt lat="45.69313" lon="6.6702">
        <ele>1823.0243</ele>
        <time>2015-08-19T09:49:13Z</time>
      </trkpt>
      <trkpt lat="45.69311" lon="6.67013">
        <ele>1823.2764</ele>
        <time>2015-08-19T09:49:18Z</time>
      </trkpt>
      <trkpt lat="45.69309" lon="6.67008">
        <ele>1823.2764</ele>
        <time>2015-08-19T09:49:23Z</time>
      </trkpt>
      <trkpt lat="45.69308" lon="6.67003">
        <ele>1823.2764</ele>
        <time>2015-08-19T09:49:28Z</time>
      </trkpt>
      <trkpt lat="45.69307" lon="6.66995">
        <ele>1823.5315</ele>
        <time>2015-08-19T09:49:33Z</time>
      </trkpt>
      <trkpt lat="45.69308" lon="6.66992">
        <ele>1823.5315</ele>
        <time>2015-08-19T09:49:38Z</time>
      </trkpt>
      <trkpt lat="45.6931" lon="6.66993">
        <ele>1823.5315</ele>
        <time>2015-08-19T09:49:43Z</time>
      </trkpt>
      <trkpt lat="45.6931" lon="6.66994">
        <ele>1823.5315</ele>
        <time>2015-08-19T09:49:48Z</time>
      </trkpt>
      <trkpt lat="45.69309" lon="6.66994">
        <ele>1823.5315</ele>
        <time>2015-08-19T09:49:53Z</time>
      </trkpt>
      <trkpt lat="45.6931" lon="6.66995">
        <ele>1823.5315</ele>
        <time>2015-08-19T09:49:58Z</time>
      </trkpt>
      <trkpt lat="45.69311" lon="6.66997">
        <ele>1823.5315</ele>
        <time>2015-08-19T09:50:03Z</time>
      </trkpt>
      <trkpt lat="45.6931" lon="6.66996">
        <ele>1823.5315</ele>
        <time>2015-08-19T09:50:08Z</time>
      </trkpt>
      <trkpt lat="45.69309" lon="6.66996">
        <ele>1823.5315</ele>
        <time>2015-08-19T09:50:13Z</time>
      </trkpt>
      <trkpt lat="45.69309" lon="6.66995">
        <ele>1824.0046</ele>
        <time>2015-08-19T09:50:18Z</time>
      </trkpt>
      <trkpt lat="45.69308" lon="6.66996">
        <ele>1824.0046</ele>
        <time>2015-08-19T09:50:23Z</time>
      </trkpt>
      <trkpt lat="45.69307" lon="6.66997">
        <ele>1824.0046</ele>
        <time>2015-08-19T09:50:28Z</time>
      </trkpt>
      <trkpt lat="45.69306" lon="6.66999">
        <ele>1824.0046</ele>
        <time>2015-08-19T09:50:33Z</time>
      </trkpt>
      <trkpt lat="45.69306" lon="6.66998">
        <ele>1824.0046</ele>
        <time>2015-08-19T09:50:38Z</time>
      </trkpt>
      <trkpt lat="45.69307" lon="6.66997">
        <ele>1824.0046</ele>
        <time>2015-08-19T09:50:43Z</time>
      </trkpt>
      <trkpt lat="45.69304" lon="6.66999">
        <ele>1824.6208</ele>
        <time>2015-08-19T09:50:48Z</time>
      </trkpt>
      <trkpt lat="45.69304" lon="6.66997">
        <ele>1824.6208</ele>
        <time>2015-08-19T09:50:53Z</time>
      </trkpt>
      <trkpt lat="45.69304" lon="6.66995">
        <ele>1824.6208</ele>
        <time>2015-08-19T09:50:58Z</time>
      </trkpt>
      <trkpt lat="45.69304" lon="6.66995">
        <ele>1824.6208</ele>
        <time>2015-08-19T09:51:03Z</time>
      </trkpt>
      <trkpt lat="45.69303" lon="6.66995">
        <ele>1824.6208</ele>
        <time>2015-08-19T09:51:08Z</time>
      </trkpt>
      <trkpt lat="45.69303" lon="6.66995">
        <ele>1824.6208</ele>
        <time>2015-08-19T09:51:13Z</time>
      </trkpt>
      <trkpt lat="45.69303" lon="6.66995">
        <ele>1824.6208</ele>
        <time>2015-08-19T09:51:18Z</time>
      </trkpt>
      <trkpt lat="45.69305" lon="6.66994">
        <ele>1824.6208</ele>
        <time>2015-08-19T09:52:23Z</time>
      </trkpt>
      <trkpt lat="45.69305" lon="6.66994">
        <ele>1824.6208</ele>
        <time>2015-08-19T09:52:28Z</time>
      </trkpt>
      <trkpt lat="45.69304" lon="6.66994">
        <ele>1824.6208</ele>
        <time>2015-08-19T09:52:38Z</time>
      </trkpt>
      <trkpt lat="45.69304" lon="6.66988">
        <ele>1824.82</ele>
        <time>2015-08-19T09:52:43Z</time>
      </trkpt>
      <trkpt lat="45.69306" lon="6.66979">
        <ele>1824.82</ele>
        <time>2015-08-19T09:52:48Z</time>
      </trkpt>
      <trkpt lat="45.69306" lon="6.66975">
        <ele>1825.0935</ele>
        <time>2015-08-19T09:52:53Z</time>
      </trkpt>
      <trkpt lat="45.69307" lon="6.66968">
        <ele>1825.0935</ele>
        <time>2015-08-19T09:52:58Z</time>
      </trkpt>
      <trkpt lat="45.69307" lon="6.66968">
        <ele>1825.0935</ele>
        <time>2015-08-19T09:53:03Z</time>
      </trkpt>
      <trkpt lat="45.69309" lon="6.66965">
        <ele>1825.0935</ele>
        <time>2015-08-19T09:53:28Z</time>
      </trkpt>
      <trkpt lat="45.69313" lon="6.66957">
        <ele>1825.5793</ele>
        <time>2015-08-19T09:53:33Z</time>
      </trkpt>
      <trkpt lat="45.69316" lon="6.66949">
        <ele>1825.5793</ele>
        <time>2015-08-19T09:53:38Z</time>
      </trkpt>
      <trkpt lat="45.69317" lon="6.66943">
        <ele>1826.0735</ele>
        <time>2015-08-19T09:53:43Z</time>
      </trkpt>
      <trkpt lat="45.69317" lon="6.66934">
        <ele>1826.0735</ele>
        <time>2015-08-19T09:53:48Z</time>
      </trkpt>
      <trkpt lat="45.69318" lon="6.6693">
        <ele>1826.5742</ele>
        <time>2015-08-19T09:53:53Z</time>
      </trkpt>
      <trkpt lat="45.69318" lon="6.6693">
        <ele>1826.5742</ele>
        <time>2015-08-19T09:53:58Z</time>
      </trkpt>
      <trkpt lat="45.69319" lon="6.66929">
        <ele>1826.5742</ele>
        <time>2015-08-19T09:54:13Z</time>
      </trkpt>
      <trkpt lat="45.69321" lon="6.66926">
        <ele>1826.5742</ele>
        <time>2015-08-19T09:54:18Z</time>
      </trkpt>
      <trkpt lat="45.69323" lon="6.66925">
        <ele>1826.5742</ele>
        <time>2015-08-19T09:54:23Z</time>
      </trkpt>
      <trkpt lat="45.69323" lon="6.66925">
        <ele>1826.5742</ele>
        <time>2015-08-19T09:54:28Z</time>
      </trkpt>
      <trkpt lat="45.69323" lon="6.66923">
        <ele>1826.5742</ele>
        <time>2015-08-19T09:54:48Z</time>
      </trkpt>
      <trkpt lat="45.69323" lon="6.66922">
        <ele>1826.5742</ele>
        <time>2015-08-19T09:55:08Z</time>
      </trkpt>
      <trkpt lat="45.69323" lon="6.66922">
        <ele>1826.5742</ele>
        <time>2015-08-19T09:55:13Z</time>
      </trkpt>
      <trkpt lat="45.69324" lon="6.66921">
        <ele>1826.5742</ele>
        <time>2015-08-19T09:55:18Z</time>
      </trkpt>
      <trkpt lat="45.69324" lon="6.66923">
        <ele>1827.0221</ele>
        <time>2015-08-19T09:55:23Z</time>
      </trkpt>
      <trkpt lat="45.69324" lon="6.66923">
        <ele>1827.0221</ele>
        <time>2015-08-19T09:55:28Z</time>
      </trkpt>
      <trkpt lat="45.69324" lon="6.66922">
        <ele>1827.0221</ele>
        <time>2015-08-19T09:55:43Z</time>
      </trkpt>
      <trkpt lat="45.69325" lon="6.66922">
        <ele>1827.0221</ele>
        <time>2015-08-19T09:55:48Z</time>
      </trkpt>
      <trkpt lat="45.69322" lon="6.6692">
        <ele>1827.0221</ele>
        <time>2015-08-19T09:55:53Z</time>
      </trkpt>
      <trkpt lat="45.69323" lon="6.66914">
        <ele>1827.7086</ele>
        <time>2015-08-19T09:55:58Z</time>
      </trkpt>
      <trkpt lat="45.69324" lon="6.6691">
        <ele>1827.7086</ele>
        <time>2015-08-19T09:56:03Z</time>
      </trkpt>
      <trkpt lat="45.69325" lon="6.6691">
        <ele>1827.7086</ele>
        <time>2015-08-19T09:56:08Z</time>
      </trkpt>
      <trkpt lat="45.69325" lon="6.6691">
        <ele>1827.7086</ele>
        <time>2015-08-19T09:56:13Z</time>
      </trkpt>
      <trkpt lat="45.69325" lon="6.6691">
        <ele>1827.7086</ele>
        <time>2015-08-19T09:56:23Z</time>
      </trkpt>
      <trkpt lat="45.69325" lon="6.6691">
        <ele>1827.7086</ele>
        <time>2015-08-19T09:57:18Z</time>
      </trkpt>
      <trkpt lat="45.69325" lon="6.6691">
        <ele>1827.7086</ele>
        <time>2015-08-19T09:57:23Z</time>
      </trkpt>
      <trkpt lat="45.69325" lon="6.6691">
        <ele>1827.7086</ele>
        <time>2015-08-19T09:57:28Z</time>
      </trkpt>
      <trkpt lat="45.69325" lon="6.6691">
        <ele>1827.7086</ele>
        <time>2015-08-19T09:57:33Z</time>
      </trkpt>
      <trkpt lat="45.69325" lon="6.6691">
        <ele>1827.7086</ele>
        <time>2015-08-19T09:58:03Z</time>
      </trkpt>
      <trkpt lat="45.69325" lon="6.66911">
        <ele>1827.7086</ele>
        <time>2015-08-19T09:58:13Z</time>
      </trkpt>
      <trkpt lat="45.69324" lon="6.6691">
        <ele>1827.7086</ele>
        <time>2015-08-19T09:58:28Z</time>
      </trkpt>
      <trkpt lat="45.69319" lon="6.66911">
        <ele>1827.9951</ele>
        <time>2015-08-19T09:58:33Z</time>
      </trkpt>
      <trkpt lat="45.6932" lon="6.66916">
        <ele>1827.9951</ele>
        <time>2015-08-19T09:58:43Z</time>
      </trkpt>
      <trkpt lat="45.69323" lon="6.66917">
        <ele>1827.9951</ele>
        <time>2015-08-19T09:58:48Z</time>
      </trkpt>
      <trkpt lat="45.69325" lon="6.66917">
        <ele>1827.9951</ele>
        <time>2015-08-19T09:58:58Z</time>
      </trkpt>
      <trkpt lat="45.69325" lon="6.66917">
        <ele>1827.9951</ele>
        <time>2015-08-19T09:59:03Z</time>
      </trkpt>
      <trkpt lat="45.69324" lon="6.66918">
        <ele>1828.3573</ele>
        <time>2015-08-19T09:59:18Z</time>
      </trkpt>
      <trkpt lat="45.69323" lon="6.66916">
        <ele>1828.3573</ele>
        <time>2015-08-19T09:59:23Z</time>
      </trkpt>
      <trkpt lat="45.69323" lon="6.66916">
        <ele>1828.3573</ele>
        <time>2015-08-19T09:59:33Z</time>
      </trkpt>
      <trkpt lat="45.69323" lon="6.66915">
        <ele>1828.3573</ele>
        <time>2015-08-19T10:01:08Z</time>
      </trkpt>
      <trkpt lat="45.6932" lon="6.66916">
        <ele>1828.3573</ele>
        <time>2015-08-19T10:01:23Z</time>
      </trkpt>
      <trkpt lat="45.6932" lon="6.66916">
        <ele>1828.3573</ele>
        <time>2015-08-19T10:01:28Z</time>
      </trkpt>
      <trkpt lat="45.6932" lon="6.66916">
        <ele>1828.3573</ele>
        <time>2015-08-19T10:01:33Z</time>
      </trkpt>
      <trkpt lat="45.69322" lon="6.66918">
        <ele>1828.3573</ele>
        <time>2015-08-19T10:02:13Z</time>
      </trkpt>
      <trkpt lat="45.69322" lon="6.66918">
        <ele>1828.3573</ele>
        <time>2015-08-19T10:02:18Z</time>
      </trkpt>
      <trkpt lat="45.69322" lon="6.66917">
        <ele>1828.3573</ele>
        <time>2015-08-19T10:03:18Z</time>
      </trkpt>
      <trkpt lat="45.69322" lon="6.66917">
        <ele>1828.3573</ele>
        <time>2015-08-19T10:03:23Z</time>
      </trkpt>
      <trkpt lat="45.69322" lon="6.66918">
        <ele>1828.3573</ele>
        <time>2015-08-19T10:03:48Z</time>
      </trkpt>
      <trkpt lat="45.69322" lon="6.66918">
        <ele>1828.3573</ele>
        <time>2015-08-19T10:03:53Z</time>
      </trkpt>
      <trkpt lat="45.6932" lon="6.66911">
        <ele>1828.0399</ele>
        <time>2015-08-19T10:04:08Z</time>
      </trkpt>
      <trkpt lat="45.69322" lon="6.6689">
        <ele>1827.9159</ele>
        <time>2015-08-19T10:04:18Z</time>
      </trkpt>
      <trkpt lat="45.69323" lon="6.66883">
        <ele>1827.9159</ele>
        <time>2015-08-19T10:04:23Z</time>
      </trkpt>
      <trkpt lat="45.69321" lon="6.66868">
        <ele>1827.9142</ele>
        <time>2015-08-19T10:04:33Z</time>
      </trkpt>
      <trkpt lat="45.69318" lon="6.66864">
        <ele>1827.9142</ele>
        <time>2015-08-19T10:04:38Z</time>
      </trkpt>
      <trkpt lat="45.69311" lon="6.66853">
        <ele>1827.9403</ele>
        <time>2015-08-19T10:04:48Z</time>
      </trkpt>
      <trkpt lat="45.6931" lon="6.66851">
        <ele>1827.9403</ele>
        <time>2015-08-19T10:04:53Z</time>
      </trkpt>
      <trkpt lat="45.69306" lon="6.66835">
        <ele>1828.0072</ele>
        <time>2015-08-19T10:05:03Z</time>
      </trkpt>
      <trkpt lat="45.69305" lon="6.6683">
        <ele>1828.0072</ele>
        <time>2015-08-19T10:05:08Z</time>
      </trkpt>
      <trkpt lat="45.69298" lon="6.66819">
        <ele>1828.1847</ele>
        <time>2015-08-19T10:05:18Z</time>
      </trkpt>
      <trkpt lat="45.69296" lon="6.66813">
        <ele>1828.1847</ele>
        <time>2015-08-19T10:05:23Z</time>
      </trkpt>
      <trkpt lat="45.69285" lon="6.66797">
        <ele>1828.4071</ele>
        <time>2015-08-19T10:05:38Z</time>
      </trkpt>
      <trkpt lat="45.69281" lon="6.66794">
        <ele>1828.4071</ele>
        <time>2015-08-19T10:05:43Z</time>
      </trkpt>
      <trkpt lat="45.69273" lon="6.66783">
        <ele>1828.7723</ele>
        <time>2015-08-19T10:05:53Z</time>
      </trkpt>
      <trkpt lat="45.69272" lon="6.66777">
        <ele>1828.7723</ele>
        <time>2015-08-19T10:05:58Z</time>
      </trkpt>
      <trkpt lat="45.69266" lon="6.66769">
        <ele>1829.2842</ele>
        <time>2015-08-19T10:06:08Z</time>
      </trkpt>
      <trkpt lat="45.69261" lon="6.66764">
        <ele>1829.2842</ele>
        <time>2015-08-19T10:06:13Z</time>
      </trkpt>
      <trkpt lat="45.69258" lon="6.66755">
        <ele>1829.7728</ele>
        <time>2015-08-19T10:06:23Z</time>
      </trkpt>
      <trkpt lat="45.69254" lon="6.66751">
        <ele>1829.7728</ele>
        <time>2015-08-19T10:06:28Z</time>
      </trkpt>
      <trkpt lat="45.69244" lon="6.66744">
        <ele>1830.2827</ele>
        <time>2015-08-19T10:06:38Z</time>
      </trkpt>
      <trkpt lat="45.69239" lon="6.6674">
        <ele>1830.2827</ele>
        <time>2015-08-19T10:06:43Z</time>
      </trkpt>
      <trkpt lat="45.69234" lon="6.66726">
        <ele>1830.9126</ele>
        <time>2015-08-19T10:06:53Z</time>
      </trkpt>
      <trkpt lat="45.69235" lon="6.66722">
        <ele>1830.9126</ele>
        <time>2015-08-19T10:06:58Z</time>
      </trkpt>
      <trkpt lat="45.69236" lon="6.66707">
        <ele>1831.4512</ele>
        <time>2015-08-19T10:07:08Z</time>
      </trkpt>
      <trkpt lat="45.69239" lon="6.66699">
        <ele>1831.4512</ele>
        <time>2015-08-19T10:07:13Z</time>
      </trkpt>
      <trkpt lat="45.69243" lon="6.6669">
        <ele>1831.8901</ele>
        <time>2015-08-19T10:07:23Z</time>
      </trkpt>
      <trkpt lat="45.69245" lon="6.66686">
        <ele>1831.8901</ele>
        <time>2015-08-19T10:07:28Z</time>
      </trkpt>
      <trkpt lat="45.6925" lon="6.66673">
        <ele>1832.3375</ele>
        <time>2015-08-19T10:07:38Z</time>
      </trkpt>
      <trkpt lat="45.69251" lon="6.66668">
        <ele>1832.3375</ele>
        <time>2015-08-19T10:07:43Z</time>
      </trkpt>
      <trkpt lat="45.6925" lon="6.66657">
        <ele>1832.6626</ele>
        <time>2015-08-19T10:07:53Z</time>
      </trkpt>
      <trkpt lat="45.69251" lon="6.66652">
        <ele>1832.6626</ele>
        <time>2015-08-19T10:07:58Z</time>
      </trkpt>
      <trkpt lat="45.69254" lon="6.66642">
        <ele>1833.0044</ele>
        <time>2015-08-19T10:08:13Z</time>
      </trkpt>
      <trkpt lat="45.69255" lon="6.66637">
        <ele>1833.0044</ele>
        <time>2015-08-19T10:08:18Z</time>
      </trkpt>
      <trkpt lat="45.69261" lon="6.66628">
        <ele>1833.4769</ele>
        <time>2015-08-19T10:08:28Z</time>
      </trkpt>
      <trkpt lat="45.69264" lon="6.66624">
        <ele>1833.4769</ele>
        <time>2015-08-19T10:08:33Z</time>
      </trkpt>
      <trkpt lat="45.69267" lon="6.66613">
        <ele>1834.0847</ele>
        <time>2015-08-19T10:08:43Z</time>
      </trkpt>
      <trkpt lat="45.69271" lon="6.66608">
        <ele>1834.0847</ele>
        <time>2015-08-19T10:08:48Z</time>
      </trkpt>
      <trkpt lat="45.69275" lon="6.66596">
        <ele>1835.0333</ele>
        <time>2015-08-19T10:08:58Z</time>
      </trkpt>
      <trkpt lat="45.69273" lon="6.66591">
        <ele>1835.0333</ele>
        <time>2015-08-19T10:09:03Z</time>
      </trkpt>
      <trkpt lat="45.69269" lon="6.6658">
        <ele>1836.181</ele>
        <time>2015-08-19T10:09:13Z</time>
      </trkpt>
      <trkpt lat="45.69267" lon="6.66576">
        <ele>1836.181</ele>
        <time>2015-08-19T10:09:18Z</time>
      </trkpt>
      <trkpt lat="45.69261" lon="6.66569">
        <ele>1837.4532</ele>
        <time>2015-08-19T10:09:28Z</time>
      </trkpt>
      <trkpt lat="45.69258" lon="6.66564">
        <ele>1837.4532</ele>
        <time>2015-08-19T10:09:33Z</time>
      </trkpt>
      <trkpt lat="45.69253" lon="6.66559">
        <ele>1838.7954</ele>
        <time>2015-08-19T10:09:43Z</time>
      </trkpt>
      <trkpt lat="45.69247" lon="6.66559">
        <ele>1838.7954</ele>
        <time>2015-08-19T10:09:48Z</time>
      </trkpt>
      <trkpt lat="45.69238" lon="6.6656">
        <ele>1840.0266</ele>
        <time>2015-08-19T10:09:58Z</time>
      </trkpt>
      <trkpt lat="45.69234" lon="6.66566">
        <ele>1840.0266</ele>
        <time>2015-08-19T10:10:03Z</time>
      </trkpt>
      <trkpt lat="45.69229" lon="6.66575">
        <ele>1841.3403</ele>
        <time>2015-08-19T10:10:13Z</time>
      </trkpt>
      <trkpt lat="45.69227" lon="6.66579">
        <ele>1841.3403</ele>
        <time>2015-08-19T10:10:18Z</time>
      </trkpt>
      <trkpt lat="45.69222" lon="6.66587">
        <ele>1842.7711</ele>
        <time>2015-08-19T10:10:28Z</time>
      </trkpt>
      <trkpt lat="45.69218" lon="6.66593">
        <ele>1842.7711</ele>
        <time>2015-08-19T10:10:33Z</time>
      </trkpt>
      <trkpt lat="45.69211" lon="6.66594">
        <ele>1844.2645</ele>
        <time>2015-08-19T10:10:43Z</time>
      </trkpt>
      <trkpt lat="45.69207" lon="6.66594">
        <ele>1844.2645</ele>
        <time>2015-08-19T10:10:48Z</time>
      </trkpt>
      <trkpt lat="45.69197" lon="6.66596">
        <ele>1845.741</ele>
        <time>2015-08-19T10:10:58Z</time>
      </trkpt>
      <trkpt lat="45.69192" lon="6.66597">
        <ele>1845.741</ele>
        <time>2015-08-19T10:11:03Z</time>
      </trkpt>
      <trkpt lat="45.69184" lon="6.66597">
        <ele>1847.2278</ele>
        <time>2015-08-19T10:11:13Z</time>
      </trkpt>
      <trkpt lat="45.69181" lon="6.66599">
        <ele>1847.2278</ele>
        <time>2015-08-19T10:11:18Z</time>
      </trkpt>
      <trkpt lat="45.69166" lon="6.66599">
        <ele>1848.7216</ele>
        <time>2015-08-19T10:11:33Z</time>
      </trkpt>
      <trkpt lat="45.69162" lon="6.66596">
        <ele>1848.7216</ele>
        <time>2015-08-19T10:11:38Z</time>
      </trkpt>
      <trkpt lat="45.6916" lon="6.66586">
        <ele>1850.3488</ele>
        <time>2015-08-19T10:11:48Z</time>
      </trkpt>
      <trkpt lat="45.69161" lon="6.66578">
        <ele>1850.3488</ele>
        <time>2015-08-19T10:11:53Z</time>
      </trkpt>
      <trkpt lat="45.69162" lon="6.66567">
        <ele>1851.9524</ele>
        <time>2015-08-19T10:12:03Z</time>
      </trkpt>
      <trkpt lat="45.69163" lon="6.6656">
        <ele>1851.9524</ele>
        <time>2015-08-19T10:12:08Z</time>
      </trkpt>
      <trkpt lat="45.69166" lon="6.66549">
        <ele>1853.4739</ele>
        <time>2015-08-19T10:12:18Z</time>
      </trkpt>
      <trkpt lat="45.69166" lon="6.66545">
        <ele>1853.4739</ele>
        <time>2015-08-19T10:12:23Z</time>
      </trkpt>
      <trkpt lat="45.69171" lon="6.6653">
        <ele>1854.9021</ele>
        <time>2015-08-19T10:12:33Z</time>
      </trkpt>
      <trkpt lat="45.69173" lon="6.66523">
        <ele>1854.9021</ele>
        <time>2015-08-19T10:12:38Z</time>
      </trkpt>
      <trkpt lat="45.69174" lon="6.66511">
        <ele>1856.4436</ele>
        <time>2015-08-19T10:12:48Z</time>
      </trkpt>
      <trkpt lat="45.69174" lon="6.66506">
        <ele>1856.4436</ele>
        <time>2015-08-19T10:12:53Z</time>
      </trkpt>
      <trkpt lat="45.69176" lon="6.66495">
        <ele>1858.001</ele>
        <time>2015-08-19T10:13:03Z</time>
      </trkpt>
      <trkpt lat="45.69176" lon="6.66489">
        <ele>1858.001</ele>
        <time>2015-08-19T10:13:08Z</time>
      </trkpt>
      <trkpt lat="45.69175" lon="6.66479">
        <ele>1859.542</ele>
        <time>2015-08-19T10:13:18Z</time>
      </trkpt>
      <trkpt lat="45.69176" lon="6.66472">
        <ele>1859.542</ele>
        <time>2015-08-19T10:13:23Z</time>
      </trkpt>
      <trkpt lat="45.69176" lon="6.66463">
        <ele>1861.152</ele>
        <time>2015-08-19T10:13:33Z</time>
      </trkpt>
      <trkpt lat="45.69175" lon="6.6646">
        <ele>1861.152</ele>
        <time>2015-08-19T10:13:38Z</time>
      </trkpt>
      <trkpt lat="45.69169" lon="6.66445">
        <ele>1862.881</ele>
        <time>2015-08-19T10:13:53Z</time>
      </trkpt>
      <trkpt lat="45.69167" lon="6.66439">
        <ele>1862.881</ele>
        <time>2015-08-19T10:13:58Z</time>
      </trkpt>
      <trkpt lat="45.69164" lon="6.6643">
        <ele>1864.689</ele>
        <time>2015-08-19T10:14:08Z</time>
      </trkpt>
      <trkpt lat="45.69162" lon="6.66428">
        <ele>1864.689</ele>
        <time>2015-08-19T10:14:13Z</time>
      </trkpt>
      <trkpt lat="45.69155" lon="6.66423">
        <ele>1866.4374</ele>
        <time>2015-08-19T10:14:23Z</time>
      </trkpt>
      <trkpt lat="45.69153" lon="6.66419">
        <ele>1866.4374</ele>
        <time>2015-08-19T10:14:28Z</time>
      </trkpt>
      <trkpt lat="45.69149" lon="6.66409">
        <ele>1868.1139</ele>
        <time>2015-08-19T10:14:38Z</time>
      </trkpt>
      <trkpt lat="45.69146" lon="6.66404">
        <ele>1868.1139</ele>
        <time>2015-08-19T10:14:43Z</time>
      </trkpt>
      <trkpt lat="45.69142" lon="6.66394">
        <ele>1869.9087</ele>
        <time>2015-08-19T10:14:53Z</time>
      </trkpt>
      <trkpt lat="45.69139" lon="6.66389">
        <ele>1869.9087</ele>
        <time>2015-08-19T10:14:58Z</time>
      </trkpt>
      <trkpt lat="45.69134" lon="6.66382">
        <ele>1871.7097</ele>
        <time>2015-08-19T10:15:08Z</time>
      </trkpt>
      <trkpt lat="45.69132" lon="6.66376">
        <ele>1871.7097</ele>
        <time>2015-08-19T10:15:13Z</time>
      </trkpt>
      <trkpt lat="45.69131" lon="6.66362">
        <ele>1873.471</ele>
        <time>2015-08-19T10:15:23Z</time>
      </trkpt>
      <trkpt lat="45.69131" lon="6.66358">
        <ele>1873.471</ele>
        <time>2015-08-19T10:15:28Z</time>
      </trkpt>
      <trkpt lat="45.69132" lon="6.66347">
        <ele>1875.3082</ele>
        <time>2015-08-19T10:15:38Z</time>
      </trkpt>
      <trkpt lat="45.69132" lon="6.66344">
        <ele>1875.3082</ele>
        <time>2015-08-19T10:15:43Z</time>
      </trkpt>
      <trkpt lat="45.69135" lon="6.66335">
        <ele>1877.012</ele>
        <time>2015-08-19T10:15:53Z</time>
      </trkpt>
      <trkpt lat="45.69135" lon="6.66328">
        <ele>1877.012</ele>
        <time>2015-08-19T10:15:58Z</time>
      </trkpt>
      <trkpt lat="45.69134" lon="6.66314">
        <ele>1878.7197</ele>
        <time>2015-08-19T10:16:08Z</time>
      </trkpt>
      <trkpt lat="45.69134" lon="6.66306">
        <ele>1878.7197</ele>
        <time>2015-08-19T10:16:13Z</time>
      </trkpt>
      <trkpt lat="45.69129" lon="6.66293">
        <ele>1880.2996</ele>
        <time>2015-08-19T10:16:23Z</time>
      </trkpt>
      <trkpt lat="45.69128" lon="6.66284">
        <ele>1880.2996</ele>
        <time>2015-08-19T10:16:28Z</time>
      </trkpt>
      <trkpt lat="45.69125" lon="6.66264">
        <ele>1881.9326</ele>
        <time>2015-08-19T10:16:43Z</time>
      </trkpt>
      <trkpt lat="45.69123" lon="6.66255">
        <ele>1881.9326</ele>
        <time>2015-08-19T10:16:48Z</time>
      </trkpt>
      <trkpt lat="45.6912" lon="6.66253">
        <ele>1883.4838</ele>
        <time>2015-08-19T10:16:58Z</time>
      </trkpt>
      <trkpt lat="45.69119" lon="6.66252">
        <ele>1883.4838</ele>
        <time>2015-08-19T10:17:03Z</time>
      </trkpt>
      <trkpt lat="45.69121" lon="6.66254">
        <ele>1883.4838</ele>
        <time>2015-08-19T10:17:13Z</time>
      </trkpt>
      <trkpt lat="45.6912" lon="6.66256">
        <ele>1883.4838</ele>
        <time>2015-08-19T10:17:18Z</time>
      </trkpt>
      <trkpt lat="45.69117" lon="6.66257">
        <ele>1883.4838</ele>
        <time>2015-08-19T10:17:28Z</time>
      </trkpt>
      <trkpt lat="45.69118" lon="6.66255">
        <ele>1884.9147</ele>
        <time>2015-08-19T10:17:33Z</time>
      </trkpt>
      <trkpt lat="45.69116" lon="6.66252">
        <ele>1884.9147</ele>
        <time>2015-08-19T10:17:43Z</time>
      </trkpt>
      <trkpt lat="45.69117" lon="6.66254">
        <ele>1884.9147</ele>
        <time>2015-08-19T10:17:48Z</time>
      </trkpt>
      <trkpt lat="45.69118" lon="6.66259">
        <ele>1884.9147</ele>
        <time>2015-08-19T10:17:58Z</time>
      </trkpt>
      <trkpt lat="45.69119" lon="6.66258">
        <ele>1884.9147</ele>
        <time>2015-08-19T10:18:03Z</time>
      </trkpt>
      <trkpt lat="45.69119" lon="6.66255">
        <ele>1885.9596</ele>
        <time>2015-08-19T10:18:13Z</time>
      </trkpt>
      <trkpt lat="45.69119" lon="6.66256">
        <ele>1885.9596</ele>
        <time>2015-08-19T10:18:18Z</time>
      </trkpt>
      <trkpt lat="45.69118" lon="6.66254">
        <ele>1885.9596</ele>
        <time>2015-08-19T10:18:28Z</time>
      </trkpt>
      <trkpt lat="45.69118" lon="6.66253">
        <ele>1885.9596</ele>
        <time>2015-08-19T10:18:33Z</time>
      </trkpt>
      <trkpt lat="45.69119" lon="6.6626">
        <ele>1885.9596</ele>
        <time>2015-08-19T10:18:48Z</time>
      </trkpt>
      <trkpt lat="45.69121" lon="6.66258">
        <ele>1886.6906</ele>
        <time>2015-08-19T10:18:53Z</time>
      </trkpt>
      <trkpt lat="45.69121" lon="6.66258">
        <ele>1886.6906</ele>
        <time>2015-08-19T10:19:03Z</time>
      </trkpt>
      <trkpt lat="45.69121" lon="6.66255">
        <ele>1886.6906</ele>
        <time>2015-08-19T10:19:08Z</time>
      </trkpt>
      <trkpt lat="45.6912" lon="6.66254">
        <ele>1886.6906</ele>
        <time>2015-08-19T10:19:18Z</time>
      </trkpt>
      <trkpt lat="45.6912" lon="6.66254">
        <ele>1886.6906</ele>
        <time>2015-08-19T10:19:23Z</time>
      </trkpt>
      <trkpt lat="45.69118" lon="6.66254">
        <ele>1886.6906</ele>
        <time>2015-08-19T10:19:33Z</time>
      </trkpt>
      <trkpt lat="45.69118" lon="6.66254">
        <ele>1886.6906</ele>
        <time>2015-08-19T10:19:38Z</time>
      </trkpt>
      <trkpt lat="45.69118" lon="6.66254">
        <ele>1886.6906</ele>
        <time>2015-08-19T10:19:48Z</time>
      </trkpt>
      <trkpt lat="45.69118" lon="6.66248">
        <ele>1887.2474</ele>
        <time>2015-08-19T10:21:58Z</time>
      </trkpt>
      <trkpt lat="45.69117" lon="6.66231">
        <ele>1887.7744</ele>
        <time>2015-08-19T10:22:08Z</time>
      </trkpt>
      <trkpt lat="45.69116" lon="6.66222">
        <ele>1887.7744</ele>
        <time>2015-08-19T10:22:13Z</time>
      </trkpt>
      <trkpt lat="45.69111" lon="6.66198">
        <ele>1888.5497</ele>
        <time>2015-08-19T10:22:28Z</time>
      </trkpt>
      <trkpt lat="45.69111" lon="6.6619">
        <ele>1888.5497</ele>
        <time>2015-08-19T10:22:33Z</time>
      </trkpt>
      <trkpt lat="45.69107" lon="6.66179">
        <ele>1889.4124</ele>
        <time>2015-08-19T10:22:43Z</time>
      </trkpt>
      <trkpt lat="45.69105" lon="6.66173">
        <ele>1889.4124</ele>
        <time>2015-08-19T10:22:48Z</time>
      </trkpt>
      <trkpt lat="45.69101" lon="6.66158">
        <ele>1890.04</ele>
        <time>2015-08-19T10:22:58Z</time>
      </trkpt>
      <trkpt lat="45.691" lon="6.66148">
        <ele>1890.04</ele>
        <time>2015-08-19T10:23:03Z</time>
      </trkpt>
      <trkpt lat="45.69098" lon="6.66133">
        <ele>1890.5095</ele>
        <time>2015-08-19T10:23:13Z</time>
      </trkpt>
      <trkpt lat="45.69096" lon="6.66125">
        <ele>1890.5095</ele>
        <time>2015-08-19T10:23:18Z</time>
      </trkpt>
      <trkpt lat="45.69094" lon="6.66108">
        <ele>1890.8494</ele>
        <time>2015-08-19T10:23:28Z</time>
      </trkpt>
      <trkpt lat="45.69093" lon="6.66099">
        <ele>1890.8494</ele>
        <time>2015-08-19T10:23:33Z</time>
      </trkpt>
      <trkpt lat="45.6909" lon="6.66084">
        <ele>1891.0139</ele>
        <time>2015-08-19T10:23:43Z</time>
      </trkpt>
      <trkpt lat="45.69088" lon="6.66078">
        <ele>1891.0139</ele>
        <time>2015-08-19T10:23:48Z</time>
      </trkpt>
      <trkpt lat="45.69077" lon="6.66065">
        <ele>1890.9762</ele>
        <time>2015-08-19T10:23:58Z</time>
      </trkpt>
      <trkpt lat="45.69073" lon="6.66058">
        <ele>1890.9762</ele>
        <time>2015-08-19T10:24:03Z</time>
      </trkpt>
      <trkpt lat="45.69064" lon="6.66043">
        <ele>1890.726</ele>
        <time>2015-08-19T10:24:13Z</time>
      </trkpt>
      <trkpt lat="45.69062" lon="6.66039">
        <ele>1890.726</ele>
        <time>2015-08-19T10:24:18Z</time>
      </trkpt>
      <trkpt lat="45.69049" lon="6.66024">
        <ele>1890.3263</ele>
        <time>2015-08-19T10:24:33Z</time>
      </trkpt>
      <trkpt lat="45.69044" lon="6.66023">
        <ele>1890.3263</ele>
        <time>2015-08-19T10:24:38Z</time>
      </trkpt>
      <trkpt lat="45.69032" lon="6.66017">
        <ele>1889.5912</ele>
        <time>2015-08-19T10:24:48Z</time>
      </trkpt>
      <trkpt lat="45.69027" lon="6.66015">
        <ele>1889.5912</ele>
        <time>2015-08-19T10:24:53Z</time>
      </trkpt>
      <trkpt lat="45.69017" lon="6.66002">
        <ele>1888.8247</ele>
        <time>2015-08-19T10:25:03Z</time>
      </trkpt>
      <trkpt lat="45.69013" lon="6.65997">
        <ele>1888.8247</ele>
        <time>2015-08-19T10:25:08Z</time>
      </trkpt>
      <trkpt lat="45.69005" lon="6.65984">
        <ele>1888.006</ele>
        <time>2015-08-19T10:25:18Z</time>
      </trkpt>
      <trkpt lat="45.69001" lon="6.6598">
        <ele>1888.006</ele>
        <time>2015-08-19T10:25:23Z</time>
      </trkpt>
      <trkpt lat="45.68993" lon="6.65967">
        <ele>1887.2888</ele>
        <time>2015-08-19T10:25:33Z</time>
      </trkpt>
      <trkpt lat="45.68992" lon="6.65961">
        <ele>1887.2888</ele>
        <time>2015-08-19T10:25:38Z</time>
      </trkpt>
      <trkpt lat="45.68987" lon="6.65946">
        <ele>1886.7141</ele>
        <time>2015-08-19T10:25:48Z</time>
      </trkpt>
      <trkpt lat="45.68981" lon="6.65936">
        <ele>1886.7141</ele>
        <time>2015-08-19T10:25:53Z</time>
      </trkpt>
      <trkpt lat="45.68977" lon="6.65926">
        <ele>1886.2476</ele>
        <time>2015-08-19T10:26:03Z</time>
      </trkpt>
      <trkpt lat="45.68972" lon="6.65918">
        <ele>1886.2476</ele>
        <time>2015-08-19T10:26:08Z</time>
      </trkpt>
      <trkpt lat="45.68967" lon="6.65906">
        <ele>1885.8569</ele>
        <time>2015-08-19T10:26:18Z</time>
      </trkpt>
      <trkpt lat="45.68962" lon="6.65901">
        <ele>1885.8569</ele>
        <time>2015-08-19T10:26:23Z</time>
      </trkpt>
      <trkpt lat="45.68956" lon="6.65892">
        <ele>1885.4974</ele>
        <time>2015-08-19T10:26:33Z</time>
      </trkpt>
      <trkpt lat="45.68953" lon="6.65887">
        <ele>1885.4974</ele>
        <time>2015-08-19T10:26:38Z</time>
      </trkpt>
      <trkpt lat="45.68951" lon="6.65877">
        <ele>1885.1997</ele>
        <time>2015-08-19T10:26:48Z</time>
      </trkpt>
      <trkpt lat="45.6895" lon="6.65869">
        <ele>1885.1997</ele>
        <time>2015-08-19T10:26:53Z</time>
      </trkpt>
      <trkpt lat="45.68949" lon="6.65863">
        <ele>1885.006</ele>
        <time>2015-08-19T10:26:58Z</time>
      </trkpt>
      <trkpt lat="45.68949" lon="6.65857">
        <ele>1885.006</ele>
        <time>2015-08-19T10:27:03Z</time>
      </trkpt>
      <trkpt lat="45.68948" lon="6.65853">
        <ele>1885.006</ele>
        <time>2015-08-19T10:27:08Z</time>
      </trkpt>
      <trkpt lat="45.68947" lon="6.65848">
        <ele>1885.0128</ele>
        <time>2015-08-19T10:27:13Z</time>
      </trkpt>
      <trkpt lat="45.68947" lon="6.65842">
        <ele>1885.0128</ele>
        <time>2015-08-19T10:27:18Z</time>
      </trkpt>
      <trkpt lat="45.68945" lon="6.65836">
        <ele>1885.0128</ele>
        <time>2015-08-19T10:27:23Z</time>
      </trkpt>
      <trkpt lat="45.68945" lon="6.65827">
        <ele>1885.2513</ele>
        <time>2015-08-19T10:27:28Z</time>
      </trkpt>
      <trkpt lat="45.68944" lon="6.65819">
        <ele>1885.2513</ele>
        <time>2015-08-19T10:27:33Z</time>
      </trkpt>
      <trkpt lat="45.68942" lon="6.65812">
        <ele>1885.6198</ele>
        <time>2015-08-19T10:27:38Z</time>
      </trkpt>
      <trkpt lat="45.68941" lon="6.65805">
        <ele>1885.6198</ele>
        <time>2015-08-19T10:27:43Z</time>
      </trkpt>
      <trkpt lat="45.68938" lon="6.65795">
        <ele>1886.1243</ele>
        <time>2015-08-19T10:27:48Z</time>
      </trkpt>
      <trkpt lat="45.68935" lon="6.6579">
        <ele>1886.1243</ele>
        <time>2015-08-19T10:27:53Z</time>
      </trkpt>
      <trkpt lat="45.68931" lon="6.65786">
        <ele>1886.655</ele>
        <time>2015-08-19T10:27:58Z</time>
      </trkpt>
      <trkpt lat="45.68927" lon="6.65783">
        <ele>1886.655</ele>
        <time>2015-08-19T10:28:03Z</time>
      </trkpt>
      <trkpt lat="45.68923" lon="6.65778">
        <ele>1887.1099</ele>
        <time>2015-08-19T10:28:08Z</time>
      </trkpt>
      <trkpt lat="45.6892" lon="6.65774">
        <ele>1887.1099</ele>
        <time>2015-08-19T10:28:13Z</time>
      </trkpt>
      <trkpt lat="45.68915" lon="6.65769">
        <ele>1887.3365</ele>
        <time>2015-08-19T10:28:18Z</time>
      </trkpt>
      <trkpt lat="45.68911" lon="6.65764">
        <ele>1887.3365</ele>
        <time>2015-08-19T10:28:23Z</time>
      </trkpt>
      <trkpt lat="45.68907" lon="6.65758">
        <ele>1887.4828</ele>
        <time>2015-08-19T10:28:28Z</time>
      </trkpt>
      <trkpt lat="45.68903" lon="6.65752">
        <ele>1887.4828</ele>
        <time>2015-08-19T10:28:33Z</time>
      </trkpt>
      <trkpt lat="45.689" lon="6.65746">
        <ele>1887.6139</ele>
        <time>2015-08-19T10:28:38Z</time>
      </trkpt>
      <trkpt lat="45.68899" lon="6.65743">
        <ele>1887.6139</ele>
        <time>2015-08-19T10:28:43Z</time>
      </trkpt>
      <trkpt lat="45.68893" lon="6.65743">
        <ele>1887.6139</ele>
        <time>2015-08-19T10:28:48Z</time>
      </trkpt>
      <trkpt lat="45.68887" lon="6.65745">
        <ele>1887.5016</ele>
        <time>2015-08-19T10:28:53Z</time>
      </trkpt>
      <trkpt lat="45.68883" lon="6.65746">
        <ele>1887.5016</ele>
        <time>2015-08-19T10:28:58Z</time>
      </trkpt>
      <trkpt lat="45.68879" lon="6.65749">
        <ele>1887.5016</ele>
        <time>2015-08-19T10:29:03Z</time>
      </trkpt>
      <trkpt lat="45.68874" lon="6.65752">
        <ele>1887.2811</ele>
        <time>2015-08-19T10:29:08Z</time>
      </trkpt>
      <trkpt lat="45.68868" lon="6.65756">
        <ele>1887.2811</ele>
        <time>2015-08-19T10:29:13Z</time>
      </trkpt>
      <trkpt lat="45.68866" lon="6.65758">
        <ele>1887.1356</ele>
        <time>2015-08-19T10:29:18Z</time>
      </trkpt>
      <trkpt lat="45.68862" lon="6.65761">
        <ele>1887.1356</ele>
        <time>2015-08-19T10:29:23Z</time>
      </trkpt>
      <trkpt lat="45.68858" lon="6.65762">
        <ele>1887.1356</ele>
        <time>2015-08-19T10:29:28Z</time>
      </trkpt>
      <trkpt lat="45.68853" lon="6.65762">
        <ele>1886.9752</ele>
        <time>2015-08-19T10:29:33Z</time>
      </trkpt>
      <trkpt lat="45.68849" lon="6.65762">
        <ele>1886.9752</ele>
        <time>2015-08-19T10:29:38Z</time>
      </trkpt>
      <trkpt lat="45.68845" lon="6.65763">
        <ele>1886.9752</ele>
        <time>2015-08-19T10:29:43Z</time>
      </trkpt>
      <trkpt lat="45.68839" lon="6.65763">
        <ele>1886.7739</ele>
        <time>2015-08-19T10:29:48Z</time>
      </trkpt>
      <trkpt lat="45.68835" lon="6.65761">
        <ele>1886.7739</ele>
        <time>2015-08-19T10:29:53Z</time>
      </trkpt>
      <trkpt lat="45.6883" lon="6.65762">
        <ele>1886.7739</ele>
        <time>2015-08-19T10:29:58Z</time>
      </trkpt>
      <trkpt lat="45.68827" lon="6.65763">
        <ele>1886.7816</ele>
        <time>2015-08-19T10:30:03Z</time>
      </trkpt>
      <trkpt lat="45.68822" lon="6.65761">
        <ele>1886.7816</ele>
        <time>2015-08-19T10:30:08Z</time>
      </trkpt>
      <trkpt lat="45.68818" lon="6.6576">
        <ele>1886.7816</ele>
        <time>2015-08-19T10:30:13Z</time>
      </trkpt>
      <trkpt lat="45.68813" lon="6.6576">
        <ele>1886.9268</ele>
        <time>2015-08-19T10:30:18Z</time>
      </trkpt>
      <trkpt lat="45.6881" lon="6.65759">
        <ele>1886.9268</ele>
        <time>2015-08-19T10:30:23Z</time>
      </trkpt>
      <trkpt lat="45.68806" lon="6.65759">
        <ele>1886.9268</ele>
        <time>2015-08-19T10:30:28Z</time>
      </trkpt>
      <trkpt lat="45.68804" lon="6.6576">
        <ele>1887.1857</ele>
        <time>2015-08-19T10:30:33Z</time>
      </trkpt>
      <trkpt lat="45.68799" lon="6.65759">
        <ele>1887.1857</ele>
        <time>2015-08-19T10:30:38Z</time>
      </trkpt>
      <trkpt lat="45.68795" lon="6.65758">
        <ele>1887.1857</ele>
        <time>2015-08-19T10:30:43Z</time>
      </trkpt>
      <trkpt lat="45.68792" lon="6.65757">
        <ele>1887.3917</ele>
        <time>2015-08-19T10:30:48Z</time>
      </trkpt>
      <trkpt lat="45.6879" lon="6.65757">
        <ele>1887.3917</ele>
        <time>2015-08-19T10:30:53Z</time>
      </trkpt>
      <trkpt lat="45.68785" lon="6.65757">
        <ele>1887.3917</ele>
        <time>2015-08-19T10:30:58Z</time>
      </trkpt>
      <trkpt lat="45.68783" lon="6.65756">
        <ele>1887.5205</ele>
        <time>2015-08-19T10:31:03Z</time>
      </trkpt>
      <trkpt lat="45.6878" lon="6.65754">
        <ele>1887.5205</ele>
        <time>2015-08-19T10:31:08Z</time>
      </trkpt>
      <trkpt lat="45.68775" lon="6.65751">
        <ele>1887.5205</ele>
        <time>2015-08-19T10:31:13Z</time>
      </trkpt>
      <trkpt lat="45.68768" lon="6.65746">
        <ele>1887.8234</ele>
        <time>2015-08-19T10:31:18Z</time>
      </trkpt>
      <trkpt lat="45.68766" lon="6.65747">
        <ele>1887.8234</ele>
        <time>2015-08-19T10:31:23Z</time>
      </trkpt>
      <trkpt lat="45.68767" lon="6.65748">
        <ele>1887.8234</ele>
        <time>2015-08-19T10:31:28Z</time>
      </trkpt>
      <trkpt lat="45.68769" lon="6.65749">
        <ele>1887.8234</ele>
        <time>2015-08-19T10:31:33Z</time>
      </trkpt>
      <trkpt lat="45.6877" lon="6.65748">
        <ele>1887.8234</ele>
        <time>2015-08-19T10:31:38Z</time>
      </trkpt>
      <trkpt lat="45.68768" lon="6.65747">
        <ele>1888.3452</ele>
        <time>2015-08-19T10:31:43Z</time>
      </trkpt>
      <trkpt lat="45.68767" lon="6.65746">
        <ele>1888.3452</ele>
        <time>2015-08-19T10:31:48Z</time>
      </trkpt>
      <trkpt lat="45.68765" lon="6.65744">
        <ele>1888.3452</ele>
        <time>2015-08-19T10:31:53Z</time>
      </trkpt>
      <trkpt lat="45.68764" lon="6.65743">
        <ele>1888.3452</ele>
        <time>2015-08-19T10:31:58Z</time>
      </trkpt>
      <trkpt lat="45.68766" lon="6.65744">
        <ele>1888.3452</ele>
        <time>2015-08-19T10:32:03Z</time>
      </trkpt>
      <trkpt lat="45.68768" lon="6.65745">
        <ele>1888.3452</ele>
        <time>2015-08-19T10:32:08Z</time>
      </trkpt>
      <trkpt lat="45.6877" lon="6.65744">
        <ele>1889.1271</ele>
        <time>2015-08-19T10:32:13Z</time>
      </trkpt>
      <trkpt lat="45.6877" lon="6.65744">
        <ele>1889.1271</ele>
        <time>2015-08-19T10:32:18Z</time>
      </trkpt>
      <trkpt lat="45.68768" lon="6.65743">
        <ele>1889.1271</ele>
        <time>2015-08-19T10:32:33Z</time>
      </trkpt>
      <trkpt lat="45.68762" lon="6.6574">
        <ele>1889.1271</ele>
        <time>2015-08-19T10:32:38Z</time>
      </trkpt>
      <trkpt lat="45.68758" lon="6.65736">
        <ele>1890.1918</ele>
        <time>2015-08-19T10:32:43Z</time>
      </trkpt>
      <trkpt lat="45.68755" lon="6.65731">
        <ele>1890.1918</ele>
        <time>2015-08-19T10:32:48Z</time>
      </trkpt>
      <trkpt lat="45.68752" lon="6.65727">
        <ele>1890.1918</ele>
        <time>2015-08-19T10:32:53Z</time>
      </trkpt>
      <trkpt lat="45.68749" lon="6.65725">
        <ele>1891.4009</ele>
        <time>2015-08-19T10:32:58Z</time>
      </trkpt>
      <trkpt lat="45.68745" lon="6.65722">
        <ele>1891.4009</ele>
        <time>2015-08-19T10:33:03Z</time>
      </trkpt>
      <trkpt lat="45.6874" lon="6.65719">
        <ele>1892.698</ele>
        <time>2015-08-19T10:33:08Z</time>
      </trkpt>
      <trkpt lat="45.68739" lon="6.65719">
        <ele>1892.698</ele>
        <time>2015-08-19T10:33:13Z</time>
      </trkpt>
      <trkpt lat="45.68735" lon="6.65718">
        <ele>1892.698</ele>
        <time>2015-08-19T10:33:18Z</time>
      </trkpt>
      <trkpt lat="45.68734" lon="6.65713">
        <ele>1894.0017</ele>
        <time>2015-08-19T10:33:23Z</time>
      </trkpt>
      <trkpt lat="45.68731" lon="6.65709">
        <ele>1894.0017</ele>
        <time>2015-08-19T10:33:28Z</time>
      </trkpt>
      <trkpt lat="45.68727" lon="6.65708">
        <ele>1894.0017</ele>
        <time>2015-08-19T10:33:33Z</time>
      </trkpt>
      <trkpt lat="45.68724" lon="6.65708">
        <ele>1895.2365</ele>
        <time>2015-08-19T10:33:38Z</time>
      </trkpt>
      <trkpt lat="45.68722" lon="6.65708">
        <ele>1895.2365</ele>
        <time>2015-08-19T10:33:43Z</time>
      </trkpt>
      <trkpt lat="45.68718" lon="6.65704">
        <ele>1895.2365</ele>
        <time>2015-08-19T10:33:48Z</time>
      </trkpt>
      <trkpt lat="45.68716" lon="6.65702">
        <ele>1895.2365</ele>
        <time>2015-08-19T10:33:53Z</time>
      </trkpt>
      <trkpt lat="45.68715" lon="6.65701">
        <ele>1896.3181</ele>
        <time>2015-08-19T10:33:58Z</time>
      </trkpt>
      <trkpt lat="45.68712" lon="6.65698">
        <ele>1896.3181</ele>
        <time>2015-08-19T10:34:03Z</time>
      </trkpt>
      <trkpt lat="45.68706" lon="6.65696">
        <ele>1897.1404</ele>
        <time>2015-08-19T10:34:08Z</time>
      </trkpt>
      <trkpt lat="45.68702" lon="6.65697">
        <ele>1897.1404</ele>
        <time>2015-08-19T10:34:13Z</time>
      </trkpt>
      <trkpt lat="45.687" lon="6.65698">
        <ele>1897.1404</ele>
        <time>2015-08-19T10:34:18Z</time>
      </trkpt>
      <trkpt lat="45.687" lon="6.65698">
        <ele>1897.1404</ele>
        <time>2015-08-19T10:34:23Z</time>
      </trkpt>
      <trkpt lat="45.68699" lon="6.65696">
        <ele>1897.1404</ele>
        <time>2015-08-19T10:34:28Z</time>
      </trkpt>
      <trkpt lat="45.68697" lon="6.65693">
        <ele>1897.807</ele>
        <time>2015-08-19T10:34:33Z</time>
      </trkpt>
      <trkpt lat="45.68693" lon="6.65692">
        <ele>1897.807</ele>
        <time>2015-08-19T10:34:38Z</time>
      </trkpt>
      <trkpt lat="45.68689" lon="6.6569">
        <ele>1897.807</ele>
        <time>2015-08-19T10:34:43Z</time>
      </trkpt>
      <trkpt lat="45.68686" lon="6.65688">
        <ele>1898.7032</ele>
        <time>2015-08-19T10:34:48Z</time>
      </trkpt>
      <trkpt lat="45.68684" lon="6.65687">
        <ele>1898.7032</ele>
        <time>2015-08-19T10:34:53Z</time>
      </trkpt>
      <trkpt lat="45.68681" lon="6.65684">
        <ele>1898.7032</ele>
        <time>2015-08-19T10:34:58Z</time>
      </trkpt>
      <trkpt lat="45.68678" lon="6.65682">
        <ele>1898.7032</ele>
        <time>2015-08-19T10:35:03Z</time>
      </trkpt>
      <trkpt lat="45.68676" lon="6.65681">
        <ele>1900.0553</ele>
        <time>2015-08-19T10:35:08Z</time>
      </trkpt>
      <trkpt lat="45.68674" lon="6.6568">
        <ele>1900.0553</ele>
        <time>2015-08-19T10:35:13Z</time>
      </trkpt>
      <trkpt lat="45.68671" lon="6.6568">
        <ele>1900.0553</ele>
        <time>2015-08-19T10:35:18Z</time>
      </trkpt>
      <trkpt lat="45.68667" lon="6.6568">
        <ele>1901.5383</ele>
        <time>2015-08-19T10:35:23Z</time>
      </trkpt>
      <trkpt lat="45.68664" lon="6.65679">
        <ele>1901.5383</ele>
        <time>2015-08-19T10:35:28Z</time>
      </trkpt>
      <trkpt lat="45.68664" lon="6.65678">
        <ele>1901.5383</ele>
        <time>2015-08-19T10:35:33Z</time>
      </trkpt>
      <trkpt lat="45.68665" lon="6.65677">
        <ele>1901.5383</ele>
        <time>2015-08-19T10:35:38Z</time>
      </trkpt>
      <trkpt lat="45.68662" lon="6.65674">
        <ele>1901.5383</ele>
        <time>2015-08-19T10:35:43Z</time>
      </trkpt>
      <trkpt lat="45.68658" lon="6.65672">
        <ele>1903.1108</ele>
        <time>2015-08-19T10:35:48Z</time>
      </trkpt>
      <trkpt lat="45.68653" lon="6.65674">
        <ele>1903.1108</ele>
        <time>2015-08-19T10:35:53Z</time>
      </trkpt>
      <trkpt lat="45.68651" lon="6.65673">
        <ele>1903.1108</ele>
        <time>2015-08-19T10:35:58Z</time>
      </trkpt>
      <trkpt lat="45.68648" lon="6.65671">
        <ele>1904.8201</ele>
        <time>2015-08-19T10:36:03Z</time>
      </trkpt>
      <trkpt lat="45.68645" lon="6.65671">
        <ele>1904.8201</ele>
        <time>2015-08-19T10:36:08Z</time>
      </trkpt>
      <trkpt lat="45.68642" lon="6.65672">
        <ele>1904.8201</ele>
        <time>2015-08-19T10:36:13Z</time>
      </trkpt>
      <trkpt lat="45.6864" lon="6.65672">
        <ele>1904.8201</ele>
        <time>2015-08-19T10:36:18Z</time>
      </trkpt>
      <trkpt lat="45.68639" lon="6.65673">
        <ele>1906.6521</ele>
        <time>2015-08-19T10:36:23Z</time>
      </trkpt>
      <trkpt lat="45.68637" lon="6.65675">
        <ele>1906.6521</ele>
        <time>2015-08-19T10:36:28Z</time>
      </trkpt>
      <trkpt lat="45.68636" lon="6.65677">
        <ele>1906.6521</ele>
        <time>2015-08-19T10:36:33Z</time>
      </trkpt>
      <trkpt lat="45.68634" lon="6.65679">
        <ele>1906.6521</ele>
        <time>2015-08-19T10:36:38Z</time>
      </trkpt>
      <trkpt lat="45.68632" lon="6.65684">
        <ele>1908.8965</ele>
        <time>2015-08-19T10:36:43Z</time>
      </trkpt>
      <trkpt lat="45.68632" lon="6.65683">
        <ele>1908.8965</ele>
        <time>2015-08-19T10:36:48Z</time>
      </trkpt>
      <trkpt lat="45.68633" lon="6.65684">
        <ele>1908.8965</ele>
        <time>2015-08-19T10:36:53Z</time>
      </trkpt>
      <trkpt lat="45.68633" lon="6.65684">
        <ele>1908.8965</ele>
        <time>2015-08-19T10:36:58Z</time>
      </trkpt>
      <trkpt lat="45.68633" lon="6.65684">
        <ele>1908.8965</ele>
        <time>2015-08-19T10:37:03Z</time>
      </trkpt>
      <trkpt lat="45.68633" lon="6.65687">
        <ele>1908.8965</ele>
        <time>2015-08-19T10:37:08Z</time>
      </trkpt>
      <trkpt lat="45.68629" lon="6.65688">
        <ele>1908.8965</ele>
        <time>2015-08-19T10:37:13Z</time>
      </trkpt>
      <trkpt lat="45.68625" lon="6.65693">
        <ele>1911.604</ele>
        <time>2015-08-19T10:37:18Z</time>
      </trkpt>
      <trkpt lat="45.6862" lon="6.65693">
        <ele>1911.604</ele>
        <time>2015-08-19T10:37:23Z</time>
      </trkpt>
      <trkpt lat="45.68618" lon="6.65693">
        <ele>1911.604</ele>
        <time>2015-08-19T10:37:28Z</time>
      </trkpt>
      <trkpt lat="45.68614" lon="6.65694">
        <ele>1914.0856</ele>
        <time>2015-08-19T10:37:33Z</time>
      </trkpt>
      <trkpt lat="45.68609" lon="6.65692">
        <ele>1914.0856</ele>
        <time>2015-08-19T10:37:38Z</time>
      </trkpt>
      <trkpt lat="45.68607" lon="6.6569">
        <ele>1914.0856</ele>
        <time>2015-08-19T10:37:43Z</time>
      </trkpt>
      <trkpt lat="45.68607" lon="6.65691">
        <ele>1914.0856</ele>
        <time>2015-08-19T10:37:48Z</time>
      </trkpt>
      <trkpt lat="45.68605" lon="6.65692">
        <ele>1916.4386</ele>
        <time>2015-08-19T10:37:53Z</time>
      </trkpt>
      <trkpt lat="45.68604" lon="6.65691">
        <ele>1916.4386</ele>
        <time>2015-08-19T10:37:58Z</time>
      </trkpt>
      <trkpt lat="45.68602" lon="6.65687">
        <ele>1916.4386</ele>
        <time>2015-08-19T10:38:03Z</time>
      </trkpt>
      <trkpt lat="45.68602" lon="6.65682">
        <ele>1916.4386</ele>
        <time>2015-08-19T10:38:08Z</time>
      </trkpt>
      <trkpt lat="45.68601" lon="6.65677">
        <ele>1919.0563</ele>
        <time>2015-08-19T10:38:13Z</time>
      </trkpt>
      <trkpt lat="45.68601" lon="6.65676">
        <ele>1919.0563</ele>
        <time>2015-08-19T10:38:18Z</time>
      </trkpt>
      <trkpt lat="45.68598" lon="6.65676">
        <ele>1919.0563</ele>
        <time>2015-08-19T10:38:23Z</time>
      </trkpt>
      <trkpt lat="45.68596" lon="6.65678">
        <ele>1919.0563</ele>
        <time>2015-08-19T10:38:28Z</time>
      </trkpt>
      <trkpt lat="45.68594" lon="6.65681">
        <ele>1921.8699</ele>
        <time>2015-08-19T10:38:33Z</time>
      </trkpt>
      <trkpt lat="45.68593" lon="6.65685">
        <ele>1921.8699</ele>
        <time>2015-08-19T10:38:38Z</time>
      </trkpt>
      <trkpt lat="45.6859" lon="6.65685">
        <ele>1921.8699</ele>
        <time>2015-08-19T10:38:43Z</time>
      </trkpt>
      <trkpt lat="45.68587" lon="6.65686">
        <ele>1921.8699</ele>
        <time>2015-08-19T10:38:48Z</time>
      </trkpt>
      <trkpt lat="45.68583" lon="6.65685">
        <ele>1924.8153</ele>
        <time>2015-08-19T10:38:53Z</time>
      </trkpt>
      <trkpt lat="45.68579" lon="6.65685">
        <ele>1924.8153</ele>
        <time>2015-08-19T10:38:58Z</time>
      </trkpt>
      <trkpt lat="45.68577" lon="6.65686">
        <ele>1924.8153</ele>
        <time>2015-08-19T10:39:03Z</time>
      </trkpt>
      <trkpt lat="45.68574" lon="6.65689">
        <ele>1927.862</ele>
        <time>2015-08-19T10:39:08Z</time>
      </trkpt>
      <trkpt lat="45.68572" lon="6.65688">
        <ele>1927.862</ele>
        <time>2015-08-19T10:39:13Z</time>
      </trkpt>
      <trkpt lat="45.68571" lon="6.65689">
        <ele>1927.862</ele>
        <time>2015-08-19T10:39:18Z</time>
      </trkpt>
      <trkpt lat="45.6857" lon="6.65691">
        <ele>1927.862</ele>
        <time>2015-08-19T10:39:23Z</time>
      </trkpt>
      <trkpt lat="45.68568" lon="6.65691">
        <ele>1927.862</ele>
        <time>2015-08-19T10:39:28Z</time>
      </trkpt>
      <trkpt lat="45.68564" lon="6.65692">
        <ele>1930.4337</ele>
        <time>2015-08-19T10:39:33Z</time>
      </trkpt>
      <trkpt lat="45.68563" lon="6.65691">
        <ele>1930.4337</ele>
        <time>2015-08-19T10:39:38Z</time>
      </trkpt>
      <trkpt lat="45.68562" lon="6.65691">
        <ele>1930.4337</ele>
        <time>2015-08-19T10:39:43Z</time>
      </trkpt>
      <trkpt lat="45.68559" lon="6.65691">
        <ele>1930.4337</ele>
        <time>2015-08-19T10:39:48Z</time>
      </trkpt>
      <trkpt lat="45.68557" lon="6.6569">
        <ele>1930.4337</ele>
        <time>2015-08-19T10:39:53Z</time>
      </trkpt>
      <trkpt lat="45.68555" lon="6.6569">
        <ele>1932.6896</ele>
        <time>2015-08-19T10:39:58Z</time>
      </trkpt>
      <trkpt lat="45.68553" lon="6.6569">
        <ele>1932.6896</ele>
        <time>2015-08-19T10:40:03Z</time>
      </trkpt>
      <trkpt lat="45.68551" lon="6.65691">
        <ele>1932.6896</ele>
        <time>2015-08-19T10:40:08Z</time>
      </trkpt>
      <trkpt lat="45.68548" lon="6.6569">
        <ele>1932.6896</ele>
        <time>2015-08-19T10:40:13Z</time>
      </trkpt>
      <trkpt lat="45.68547" lon="6.6569">
        <ele>1932.6896</ele>
        <time>2015-08-19T10:40:18Z</time>
      </trkpt>
      <trkpt lat="45.68546" lon="6.65688">
        <ele>1935.124</ele>
        <time>2015-08-19T10:40:23Z</time>
      </trkpt>
      <trkpt lat="45.68544" lon="6.65689">
        <ele>1935.124</ele>
        <time>2015-08-19T10:40:28Z</time>
      </trkpt>
      <trkpt lat="45.68541" lon="6.6569">
        <ele>1935.124</ele>
        <time>2015-08-19T10:40:33Z</time>
      </trkpt>
      <trkpt lat="45.68538" lon="6.65686">
        <ele>1937.6475</ele>
        <time>2015-08-19T10:40:38Z</time>
      </trkpt>
      <trkpt lat="45.68536" lon="6.65682">
        <ele>1937.6475</ele>
        <time>2015-08-19T10:40:43Z</time>
      </trkpt>
      <trkpt lat="45.68535" lon="6.65682">
        <ele>1937.6475</ele>
        <time>2015-08-19T10:40:48Z</time>
      </trkpt>
      <trkpt lat="45.68533" lon="6.65681">
        <ele>1937.6475</ele>
        <time>2015-08-19T10:40:53Z</time>
      </trkpt>
      <trkpt lat="45.68531" lon="6.65679">
        <ele>1937.6475</ele>
        <time>2015-08-19T10:40:58Z</time>
      </trkpt>
      <trkpt lat="45.68529" lon="6.65679">
        <ele>1940.3495</ele>
        <time>2015-08-19T10:41:03Z</time>
      </trkpt>
      <trkpt lat="45.68528" lon="6.65679">
        <ele>1940.3495</ele>
        <time>2015-08-19T10:41:08Z</time>
      </trkpt>
      <trkpt lat="45.68529" lon="6.65678">
        <ele>1940.3495</ele>
        <time>2015-08-19T10:41:13Z</time>
      </trkpt>
      <trkpt lat="45.6853" lon="6.65678">
        <ele>1940.3495</ele>
        <time>2015-08-19T10:41:18Z</time>
      </trkpt>
      <trkpt lat="45.68531" lon="6.65678">
        <ele>1940.3495</ele>
        <time>2015-08-19T10:41:23Z</time>
      </trkpt>
      <trkpt lat="45.68531" lon="6.65679">
        <ele>1940.3495</ele>
        <time>2015-08-19T10:41:28Z</time>
      </trkpt>
      <trkpt lat="45.6853" lon="6.65684">
        <ele>1940.3495</ele>
        <time>2015-08-19T10:41:33Z</time>
      </trkpt>
      <trkpt lat="45.68531" lon="6.65688">
        <ele>1943.0244</ele>
        <time>2015-08-19T10:41:38Z</time>
      </trkpt>
      <trkpt lat="45.68531" lon="6.65689">
        <ele>1943.0244</ele>
        <time>2015-08-19T10:41:43Z</time>
      </trkpt>
      <trkpt lat="45.6853" lon="6.65688">
        <ele>1943.0244</ele>
        <time>2015-08-19T10:41:48Z</time>
      </trkpt>
      <trkpt lat="45.68527" lon="6.65686">
        <ele>1943.0244</ele>
        <time>2015-08-19T10:41:53Z</time>
      </trkpt>
      <trkpt lat="45.68524" lon="6.65682">
        <ele>1945.4102</ele>
        <time>2015-08-19T10:41:58Z</time>
      </trkpt>
      <trkpt lat="45.68523" lon="6.65679">
        <ele>1945.4102</ele>
        <time>2015-08-19T10:42:03Z</time>
      </trkpt>
      <trkpt lat="45.68521" lon="6.65676">
        <ele>1945.4102</ele>
        <time>2015-08-19T10:42:08Z</time>
      </trkpt>
      <trkpt lat="45.68518" lon="6.65673">
        <ele>1947.8843</ele>
        <time>2015-08-19T10:42:13Z</time>
      </trkpt>
      <trkpt lat="45.68517" lon="6.65669">
        <ele>1947.8843</ele>
        <time>2015-08-19T10:42:18Z</time>
      </trkpt>
      <trkpt lat="45.68515" lon="6.65667">
        <ele>1947.8843</ele>
        <time>2015-08-19T10:42:23Z</time>
      </trkpt>
      <trkpt lat="45.68513" lon="6.65664">
        <ele>1947.8843</ele>
        <time>2015-08-19T10:42:28Z</time>
      </trkpt>
      <trkpt lat="45.68511" lon="6.6566">
        <ele>1950.7246</ele>
        <time>2015-08-19T10:42:33Z</time>
      </trkpt>
      <trkpt lat="45.6851" lon="6.65658">
        <ele>1950.7246</ele>
        <time>2015-08-19T10:42:38Z</time>
      </trkpt>
      <trkpt lat="45.68509" lon="6.65655">
        <ele>1950.7246</ele>
        <time>2015-08-19T10:42:43Z</time>
      </trkpt>
      <trkpt lat="45.68507" lon="6.65654">
        <ele>1950.7246</ele>
        <time>2015-08-19T10:42:48Z</time>
      </trkpt>
      <trkpt lat="45.68504" lon="6.65653">
        <ele>1953.914</ele>
        <time>2015-08-19T10:42:53Z</time>
      </trkpt>
      <trkpt lat="45.68503" lon="6.65655">
        <ele>1953.914</ele>
        <time>2015-08-19T10:42:58Z</time>
      </trkpt>
      <trkpt lat="45.68501" lon="6.65656">
        <ele>1953.914</ele>
        <time>2015-08-19T10:43:03Z</time>
      </trkpt>
      <trkpt lat="45.68498" lon="6.65655">
        <ele>1953.914</ele>
        <time>2015-08-19T10:43:08Z</time>
      </trkpt>
      <trkpt lat="45.68497" lon="6.65653">
        <ele>1953.914</ele>
        <time>2015-08-19T10:43:13Z</time>
      </trkpt>
      <trkpt lat="45.68498" lon="6.65651">
        <ele>1957.0319</ele>
        <time>2015-08-19T10:43:18Z</time>
      </trkpt>
      <trkpt lat="45.68499" lon="6.6565">
        <ele>1957.0319</ele>
        <time>2015-08-19T10:43:23Z</time>
      </trkpt>
      <trkpt lat="45.685" lon="6.65649">
        <ele>1957.0319</ele>
        <time>2015-08-19T10:43:28Z</time>
      </trkpt>
      <trkpt lat="45.68502" lon="6.65647">
        <ele>1957.0319</ele>
        <time>2015-08-19T10:43:33Z</time>
      </trkpt>
      <trkpt lat="45.68505" lon="6.65644">
        <ele>1957.0319</ele>
        <time>2015-08-19T10:43:38Z</time>
      </trkpt>
      <trkpt lat="45.68505" lon="6.6564">
        <ele>1960.0784</ele>
        <time>2015-08-19T10:43:43Z</time>
      </trkpt>
      <trkpt lat="45.68504" lon="6.6564">
        <ele>1960.0784</ele>
        <time>2015-08-19T10:43:48Z</time>
      </trkpt>
      <trkpt lat="45.68504" lon="6.6564">
        <ele>1960.0784</ele>
        <time>2015-08-19T10:43:53Z</time>
      </trkpt>
      <trkpt lat="45.68506" lon="6.65639">
        <ele>1960.0784</ele>
        <time>2015-08-19T10:43:58Z</time>
      </trkpt>
      <trkpt lat="45.68507" lon="6.65638">
        <ele>1960.0784</ele>
        <time>2015-08-19T10:44:03Z</time>
      </trkpt>
      <trkpt lat="45.68507" lon="6.65637">
        <ele>1960.0784</ele>
        <time>2015-08-19T10:44:08Z</time>
      </trkpt>
      <trkpt lat="45.6851" lon="6.65634">
        <ele>1962.9818</ele>
        <time>2015-08-19T10:44:13Z</time>
      </trkpt>
      <trkpt lat="45.68512" lon="6.65633">
        <ele>1962.9818</ele>
        <time>2015-08-19T10:44:18Z</time>
      </trkpt>
      <trkpt lat="45.68514" lon="6.65635">
        <ele>1962.9818</ele>
        <time>2015-08-19T10:44:23Z</time>
      </trkpt>
      <trkpt lat="45.68516" lon="6.65633">
        <ele>1962.9818</ele>
        <time>2015-08-19T10:44:28Z</time>
      </trkpt>
      <trkpt lat="45.68519" lon="6.65631">
        <ele>1965.9358</ele>
        <time>2015-08-19T10:44:33Z</time>
      </trkpt>
      <trkpt lat="45.68522" lon="6.65631">
        <ele>1965.9358</ele>
        <time>2015-08-19T10:44:38Z</time>
      </trkpt>
      <trkpt lat="45.68524" lon="6.65628">
        <ele>1965.9358</ele>
        <time>2015-08-19T10:44:43Z</time>
      </trkpt>
      <trkpt lat="45.68524" lon="6.65627">
        <ele>1965.9358</ele>
        <time>2015-08-19T10:44:48Z</time>
      </trkpt>
      <trkpt lat="45.68523" lon="6.65626">
        <ele>1965.9358</ele>
        <time>2015-08-19T10:44:53Z</time>
      </trkpt>
      <trkpt lat="45.68521" lon="6.6563">
        <ele>1968.4999</ele>
        <time>2015-08-19T10:44:58Z</time>
      </trkpt>
      <trkpt lat="45.6852" lon="6.65631">
        <ele>1968.4999</ele>
        <time>2015-08-19T10:45:03Z</time>
      </trkpt>
      <trkpt lat="45.68519" lon="6.65634">
        <ele>1968.4999</ele>
        <time>2015-08-19T10:45:08Z</time>
      </trkpt>
      <trkpt lat="45.6852" lon="6.65635">
        <ele>1968.4999</ele>
        <time>2015-08-19T10:45:13Z</time>
      </trkpt>
      <trkpt lat="45.68521" lon="6.65636">
        <ele>1968.4999</ele>
        <time>2015-08-19T10:45:18Z</time>
      </trkpt>
      <trkpt lat="45.68521" lon="6.65636">
        <ele>1968.4999</ele>
        <time>2015-08-19T10:45:23Z</time>
      </trkpt>
      <trkpt lat="45.68521" lon="6.65638">
        <ele>1968.4999</ele>
        <time>2015-08-19T10:45:28Z</time>
      </trkpt>
      <trkpt lat="45.68519" lon="6.65639">
        <ele>1971.2618</ele>
        <time>2015-08-19T10:45:33Z</time>
      </trkpt>
      <trkpt lat="45.68518" lon="6.6564">
        <ele>1971.2618</ele>
        <time>2015-08-19T10:45:38Z</time>
      </trkpt>
      <trkpt lat="45.68518" lon="6.6564">
        <ele>1971.2618</ele>
        <time>2015-08-19T10:45:43Z</time>
      </trkpt>
      <trkpt lat="45.68518" lon="6.65639">
        <ele>1971.2618</ele>
        <time>2015-08-19T10:46:28Z</time>
      </trkpt>
      <trkpt lat="45.68518" lon="6.65638">
        <ele>1971.2618</ele>
        <time>2015-08-19T10:46:48Z</time>
      </trkpt>
      <trkpt lat="45.68518" lon="6.65638">
        <ele>1971.2618</ele>
        <time>2015-08-19T10:46:53Z</time>
      </trkpt>
      <trkpt lat="45.68519" lon="6.65638">
        <ele>1971.2618</ele>
        <time>2015-08-19T10:47:53Z</time>
      </trkpt>
      <trkpt lat="45.68519" lon="6.65638">
        <ele>1971.2618</ele>
        <time>2015-08-19T10:47:58Z</time>
      </trkpt>
      <trkpt lat="45.68519" lon="6.65638">
        <ele>1971.2618</ele>
        <time>2015-08-19T10:48:03Z</time>
      </trkpt>
      <trkpt lat="45.68519" lon="6.65639">
        <ele>1971.2618</ele>
        <time>2015-08-19T10:48:08Z</time>
      </trkpt>
      <trkpt lat="45.68519" lon="6.65639">
        <ele>1971.2618</ele>
        <time>2015-08-19T10:48:13Z</time>
      </trkpt>
      <trkpt lat="45.68518" lon="6.6564">
        <ele>1971.2618</ele>
        <time>2015-08-19T10:48:18Z</time>
      </trkpt>
      <trkpt lat="45.68518" lon="6.6564">
        <ele>1971.2618</ele>
        <time>2015-08-19T10:48:23Z</time>
      </trkpt>
      <trkpt lat="45.68518" lon="6.65638">
        <ele>1971.2618</ele>
        <time>2015-08-19T10:48:43Z</time>
      </trkpt>
      <trkpt lat="45.68518" lon="6.65638">
        <ele>1971.2618</ele>
        <time>2015-08-19T10:48:48Z</time>
      </trkpt>
      <trkpt lat="45.68519" lon="6.65638">
        <ele>1971.2618</ele>
        <time>2015-08-19T10:49:38Z</time>
      </trkpt>
      <trkpt lat="45.6852" lon="6.65637">
        <ele>1971.2618</ele>
        <time>2015-08-19T10:49:43Z</time>
      </trkpt>
      <trkpt lat="45.68517" lon="6.65634">
        <ele>1973.44</ele>
        <time>2015-08-19T10:49:48Z</time>
      </trkpt>
      <trkpt lat="45.68515" lon="6.65631">
        <ele>1973.44</ele>
        <time>2015-08-19T10:49:53Z</time>
      </trkpt>
      <trkpt lat="45.68513" lon="6.65627">
        <ele>1973.44</ele>
        <time>2015-08-19T10:50:03Z</time>
      </trkpt>
      <trkpt lat="45.68514" lon="6.65625">
        <ele>1973.44</ele>
        <time>2015-08-19T10:50:08Z</time>
      </trkpt>
      <trkpt lat="45.68512" lon="6.65621">
        <ele>1975.3638</ele>
        <time>2015-08-19T10:50:18Z</time>
      </trkpt>
      <trkpt lat="45.68511" lon="6.6562">
        <ele>1975.3638</ele>
        <time>2015-08-19T10:50:23Z</time>
      </trkpt>
      <trkpt lat="45.68507" lon="6.65615">
        <ele>1975.3638</ele>
        <time>2015-08-19T10:50:33Z</time>
      </trkpt>
      <trkpt lat="45.68505" lon="6.65613">
        <ele>1975.3638</ele>
        <time>2015-08-19T10:50:38Z</time>
      </trkpt>
      <trkpt lat="45.68503" lon="6.65613">
        <ele>1977.5988</ele>
        <time>2015-08-19T10:50:48Z</time>
      </trkpt>
      <trkpt lat="45.68501" lon="6.65612">
        <ele>1977.5988</ele>
        <time>2015-08-19T10:50:53Z</time>
      </trkpt>
      <trkpt lat="45.68497" lon="6.65612">
        <ele>1977.5988</ele>
        <time>2015-08-19T10:51:03Z</time>
      </trkpt>
      <trkpt lat="45.68496" lon="6.65612">
        <ele>1977.5988</ele>
        <time>2015-08-19T10:51:08Z</time>
      </trkpt>
      <trkpt lat="45.68494" lon="6.65611">
        <ele>1980.1064</ele>
        <time>2015-08-19T10:51:18Z</time>
      </trkpt>
      <trkpt lat="45.68494" lon="6.65611">
        <ele>1980.1064</ele>
        <time>2015-08-19T10:51:23Z</time>
      </trkpt>
      <trkpt lat="45.68484" lon="6.65608">
        <ele>1982.5475</ele>
        <time>2015-08-19T10:51:33Z</time>
      </trkpt>
      <trkpt lat="45.68484" lon="6.65608">
        <ele>1982.5475</ele>
        <time>2015-08-19T10:51:38Z</time>
      </trkpt>
      <trkpt lat="45.68483" lon="6.65607">
        <ele>1982.5475</ele>
        <time>2015-08-19T10:51:48Z</time>
      </trkpt>
      <trkpt lat="45.68479" lon="6.65603">
        <ele>1982.5475</ele>
        <time>2015-08-19T10:51:53Z</time>
      </trkpt>
      <trkpt lat="45.68473" lon="6.65593">
        <ele>1984.9106</ele>
        <time>2015-08-19T10:52:08Z</time>
      </trkpt>
      <trkpt lat="45.68474" lon="6.65592">
        <ele>1984.9106</ele>
        <time>2015-08-19T10:52:23Z</time>
      </trkpt>
      <trkpt lat="45.68474" lon="6.65592">
        <ele>1984.9106</ele>
        <time>2015-08-19T10:52:28Z</time>
      </trkpt>
      <trkpt lat="45.68476" lon="6.65592">
        <ele>1984.9106</ele>
        <time>2015-08-19T10:52:38Z</time>
      </trkpt>
      <trkpt lat="45.68476" lon="6.65591">
        <ele>1984.9106</ele>
        <time>2015-08-19T10:52:43Z</time>
      </trkpt>
      <trkpt lat="45.68476" lon="6.65591">
        <ele>1984.9106</ele>
        <time>2015-08-19T10:52:53Z</time>
      </trkpt>
      <trkpt lat="45.6848" lon="6.65589">
        <ele>1984.9106</ele>
        <time>2015-08-19T10:52:58Z</time>
      </trkpt>
      <trkpt lat="45.68481" lon="6.65589">
        <ele>1987.4309</ele>
        <time>2015-08-19T10:53:08Z</time>
      </trkpt>
      <trkpt lat="45.68483" lon="6.65588">
        <ele>1987.4309</ele>
        <time>2015-08-19T10:53:13Z</time>
      </trkpt>
      <trkpt lat="45.68483" lon="6.65588">
        <ele>1987.4309</ele>
        <time>2015-08-19T10:53:23Z</time>
      </trkpt>
      <trkpt lat="45.68485" lon="6.65585">
        <ele>1987.4309</ele>
        <time>2015-08-19T10:53:38Z</time>
      </trkpt>
      <trkpt lat="45.68485" lon="6.65585">
        <ele>1987.4309</ele>
        <time>2015-08-19T10:53:43Z</time>
      </trkpt>
      <trkpt lat="45.68487" lon="6.65567">
        <ele>1990.1095</ele>
        <time>2015-08-19T10:53:58Z</time>
      </trkpt>
      <trkpt lat="45.68487" lon="6.65567">
        <ele>1990.1095</ele>
        <time>2015-08-19T10:54:03Z</time>
      </trkpt>
      <trkpt lat="45.68486" lon="6.65565">
        <ele>1990.1095</ele>
        <time>2015-08-19T10:54:13Z</time>
      </trkpt>
      <trkpt lat="45.68485" lon="6.65565">
        <ele>1990.1095</ele>
        <time>2015-08-19T10:54:18Z</time>
      </trkpt>
      <trkpt lat="45.68482" lon="6.65562">
        <ele>1990.1095</ele>
        <time>2015-08-19T10:54:28Z</time>
      </trkpt>
      <trkpt lat="45.68481" lon="6.65561">
        <ele>1990.1095</ele>
        <time>2015-08-19T10:54:33Z</time>
      </trkpt>
      <trkpt lat="45.6848" lon="6.65558">
        <ele>1993.3794</ele>
        <time>2015-08-19T10:54:43Z</time>
      </trkpt>
      <trkpt lat="45.6848" lon="6.65557">
        <ele>1993.3794</ele>
        <time>2015-08-19T10:54:48Z</time>
      </trkpt>
      <trkpt lat="45.68479" lon="6.65554">
        <ele>1993.3794</ele>
        <time>2015-08-19T10:54:58Z</time>
      </trkpt>
      <trkpt lat="45.68476" lon="6.65552">
        <ele>1993.3794</ele>
        <time>2015-08-19T10:55:03Z</time>
      </trkpt>
      <trkpt lat="45.68476" lon="6.65552">
        <ele>1993.3794</ele>
        <time>2015-08-19T10:55:13Z</time>
      </trkpt>
      <trkpt lat="45.68473" lon="6.65548">
        <ele>1996.7902</ele>
        <time>2015-08-19T10:55:18Z</time>
      </trkpt>
      <trkpt lat="45.68469" lon="6.65546">
        <ele>1996.7902</ele>
        <time>2015-08-19T10:55:28Z</time>
      </trkpt>
      <trkpt lat="45.68469" lon="6.65545">
        <ele>1996.7902</ele>
        <time>2015-08-19T10:55:48Z</time>
      </trkpt>
      <trkpt lat="45.6847" lon="6.65545">
        <ele>1996.7902</ele>
        <time>2015-08-19T10:55:53Z</time>
      </trkpt>
      <trkpt lat="45.68474" lon="6.65544">
        <ele>1996.7902</ele>
        <time>2015-08-19T10:56:03Z</time>
      </trkpt>
      <trkpt lat="45.68475" lon="6.65543">
        <ele>2000.5149</ele>
        <time>2015-08-19T10:56:08Z</time>
      </trkpt>
      <trkpt lat="45.68478" lon="6.65542">
        <ele>2000.5149</ele>
        <time>2015-08-19T10:56:18Z</time>
      </trkpt>
      <trkpt lat="45.68479" lon="6.65541">
        <ele>2000.5149</ele>
        <time>2015-08-19T10:56:33Z</time>
      </trkpt>
      <trkpt lat="45.68481" lon="6.6554">
        <ele>2000.5149</ele>
        <time>2015-08-19T10:56:38Z</time>
      </trkpt>
      <trkpt lat="45.68486" lon="6.65535">
        <ele>2004.2955</ele>
        <time>2015-08-19T10:56:48Z</time>
      </trkpt>
      <trkpt lat="45.68489" lon="6.6553">
        <ele>2004.2955</ele>
        <time>2015-08-19T10:56:53Z</time>
      </trkpt>
      <trkpt lat="45.68491" lon="6.65528">
        <ele>2004.2955</ele>
        <time>2015-08-19T10:57:03Z</time>
      </trkpt>
      <trkpt lat="45.68491" lon="6.65521">
        <ele>2007.8062</ele>
        <time>2015-08-19T10:57:08Z</time>
      </trkpt>
      <trkpt lat="45.68492" lon="6.65519">
        <ele>2007.8062</ele>
        <time>2015-08-19T10:57:18Z</time>
      </trkpt>
      <trkpt lat="45.68492" lon="6.65518">
        <ele>2007.8062</ele>
        <time>2015-08-19T10:57:23Z</time>
      </trkpt>
      <trkpt lat="45.68491" lon="6.65511">
        <ele>2007.8062</ele>
        <time>2015-08-19T10:57:33Z</time>
      </trkpt>
      <trkpt lat="45.68491" lon="6.65511">
        <ele>2007.8062</ele>
        <time>2015-08-19T10:57:38Z</time>
      </trkpt>
      <trkpt lat="45.68492" lon="6.65511">
        <ele>2007.8062</ele>
        <time>2015-08-19T10:58:03Z</time>
      </trkpt>
      <trkpt lat="45.68492" lon="6.65511">
        <ele>2007.8062</ele>
        <time>2015-08-19T10:58:08Z</time>
      </trkpt>
      <trkpt lat="45.68489" lon="6.65508">
        <ele>2011.6537</ele>
        <time>2015-08-19T10:58:23Z</time>
      </trkpt>
      <trkpt lat="45.68488" lon="6.65507">
        <ele>2011.6537</ele>
        <time>2015-08-19T10:58:38Z</time>
      </trkpt>
      <trkpt lat="45.68486" lon="6.65501">
        <ele>2011.6537</ele>
        <time>2015-08-19T10:58:43Z</time>
      </trkpt>
      <trkpt lat="45.68484" lon="6.65499">
        <ele>2011.6537</ele>
        <time>2015-08-19T10:58:53Z</time>
      </trkpt>
      <trkpt lat="45.68478" lon="6.65493">
        <ele>2015.6072</ele>
        <time>2015-08-19T10:58:58Z</time>
      </trkpt>
      <trkpt lat="45.68473" lon="6.65491">
        <ele>2015.6072</ele>
        <time>2015-08-19T10:59:08Z</time>
      </trkpt>
      <trkpt lat="45.68472" lon="6.65491">
        <ele>2015.6072</ele>
        <time>2015-08-19T10:59:13Z</time>
      </trkpt>
      <trkpt lat="45.68472" lon="6.65491">
        <ele>2015.6072</ele>
        <time>2015-08-19T10:59:18Z</time>
      </trkpt>
      <trkpt lat="45.68472" lon="6.65491">
        <ele>2015.6072</ele>
        <time>2015-08-19T11:00:03Z</time>
      </trkpt>
      <trkpt lat="45.68472" lon="6.65491">
        <ele>2015.6072</ele>
        <time>2015-08-19T11:00:08Z</time>
      </trkpt>
      <trkpt lat="45.68472" lon="6.65491">
        <ele>2015.6072</ele>
        <time>2015-08-19T11:00:13Z</time>
      </trkpt>
      <trkpt lat="45.6847" lon="6.65491">
        <ele>2015.6072</ele>
        <time>2015-08-19T11:00:18Z</time>
      </trkpt>
      <trkpt lat="45.6847" lon="6.65491">
        <ele>2015.6072</ele>
        <time>2015-08-19T11:00:23Z</time>
      </trkpt>
      <trkpt lat="45.68469" lon="6.65491">
        <ele>2019.5101</ele>
        <time>2015-08-19T11:00:38Z</time>
      </trkpt>
      <trkpt lat="45.6847" lon="6.65491">
        <ele>2019.5101</ele>
        <time>2015-08-19T11:00:43Z</time>
      </trkpt>
      <trkpt lat="45.6847" lon="6.65491">
        <ele>2019.5101</ele>
        <time>2015-08-19T11:00:48Z</time>
      </trkpt>
      <trkpt lat="45.6847" lon="6.65491">
        <ele>2019.5101</ele>
        <time>2015-08-19T11:01:58Z</time>
      </trkpt>
      <trkpt lat="45.6847" lon="6.6549">
        <ele>2019.5101</ele>
        <time>2015-08-19T11:02:28Z</time>
      </trkpt>
      <trkpt lat="45.6847" lon="6.6549">
        <ele>2019.5101</ele>
        <time>2015-08-19T11:02:38Z</time>
      </trkpt>
      <trkpt lat="45.68468" lon="6.65486">
        <ele>2019.5101</ele>
        <time>2015-08-19T11:02:43Z</time>
      </trkpt>
      <trkpt lat="45.68464" lon="6.65472">
        <ele>2023.5345</ele>
        <time>2015-08-19T11:02:53Z</time>
      </trkpt>
      <trkpt lat="45.68461" lon="6.65467">
        <ele>2023.5345</ele>
        <time>2015-08-19T11:02:58Z</time>
      </trkpt>
      <trkpt lat="45.68453" lon="6.65461">
        <ele>2027.2202</ele>
        <time>2015-08-19T11:03:13Z</time>
      </trkpt>
      <trkpt lat="45.68449" lon="6.65456">
        <ele>2027.2202</ele>
        <time>2015-08-19T11:03:18Z</time>
      </trkpt>
      <trkpt lat="45.68444" lon="6.65453">
        <ele>2030.531</ele>
        <time>2015-08-19T11:03:28Z</time>
      </trkpt>
      <trkpt lat="45.68442" lon="6.65449">
        <ele>2030.531</ele>
        <time>2015-08-19T11:03:33Z</time>
      </trkpt>
      <trkpt lat="45.68437" lon="6.65444">
        <ele>2033.6072</ele>
        <time>2015-08-19T11:03:43Z</time>
      </trkpt>
      <trkpt lat="45.68436" lon="6.65443">
        <ele>2033.6072</ele>
        <time>2015-08-19T11:03:48Z</time>
      </trkpt>
      <trkpt lat="45.6844" lon="6.65442">
        <ele>2033.6072</ele>
        <time>2015-08-19T11:03:58Z</time>
      </trkpt>
      <trkpt lat="45.68443" lon="6.65442">
        <ele>2033.6072</ele>
        <time>2015-08-19T11:04:03Z</time>
      </trkpt>
      <trkpt lat="45.68448" lon="6.65442">
        <ele>2036.6952</ele>
        <time>2015-08-19T11:04:13Z</time>
      </trkpt>
      <trkpt lat="45.68451" lon="6.65443">
        <ele>2036.6952</ele>
        <time>2015-08-19T11:04:18Z</time>
      </trkpt>
      <trkpt lat="45.68458" lon="6.65444">
        <ele>2039.5621</ele>
        <time>2015-08-19T11:04:28Z</time>
      </trkpt>
      <trkpt lat="45.68461" lon="6.65445">
        <ele>2039.5621</ele>
        <time>2015-08-19T11:04:33Z</time>
      </trkpt>
      <trkpt lat="45.68467" lon="6.65444">
        <ele>2042.0361</ele>
        <time>2015-08-19T11:04:43Z</time>
      </trkpt>
      <trkpt lat="45.68471" lon="6.65441">
        <ele>2042.0361</ele>
        <time>2015-08-19T11:04:48Z</time>
      </trkpt>
      <trkpt lat="45.68469" lon="6.65432">
        <ele>2044.262</ele>
        <time>2015-08-19T11:04:58Z</time>
      </trkpt>
      <trkpt lat="45.68466" lon="6.6543">
        <ele>2044.262</ele>
        <time>2015-08-19T11:05:03Z</time>
      </trkpt>
      <trkpt lat="45.68463" lon="6.65424">
        <ele>2046.1727</ele>
        <time>2015-08-19T11:05:13Z</time>
      </trkpt>
      <trkpt lat="45.68461" lon="6.6542">
        <ele>2046.1727</ele>
        <time>2015-08-19T11:05:18Z</time>
      </trkpt>
      <trkpt lat="45.68452" lon="6.65411">
        <ele>2048.0532</ele>
        <time>2015-08-19T11:05:33Z</time>
      </trkpt>
      <trkpt lat="45.6845" lon="6.65409">
        <ele>2048.0532</ele>
        <time>2015-08-19T11:05:38Z</time>
      </trkpt>
      <trkpt lat="45.68445" lon="6.65405">
        <ele>2048.0532</ele>
        <time>2015-08-19T11:05:48Z</time>
      </trkpt>
      <trkpt lat="45.68443" lon="6.654">
        <ele>2049.721</ele>
        <time>2015-08-19T11:05:53Z</time>
      </trkpt>
      <trkpt lat="45.68437" lon="6.65395">
        <ele>2049.721</ele>
        <time>2015-08-19T11:06:03Z</time>
      </trkpt>
      <trkpt lat="45.68436" lon="6.65391">
        <ele>2051.3674</ele>
        <time>2015-08-19T11:06:08Z</time>
      </trkpt>
      <trkpt lat="45.68434" lon="6.65382">
        <ele>2051.3674</ele>
        <time>2015-08-19T11:06:18Z</time>
      </trkpt>
      <trkpt lat="45.68434" lon="6.65379">
        <ele>2051.3674</ele>
        <time>2015-08-19T11:06:23Z</time>
      </trkpt>
      <trkpt lat="45.68432" lon="6.65371">
        <ele>2053.012</ele>
        <time>2015-08-19T11:06:33Z</time>
      </trkpt>
      <trkpt lat="45.68433" lon="6.65365">
        <ele>2053.012</ele>
        <time>2015-08-19T11:06:38Z</time>
      </trkpt>
      <trkpt lat="45.68434" lon="6.65354">
        <ele>2054.4998</ele>
        <time>2015-08-19T11:06:48Z</time>
      </trkpt>
      <trkpt lat="45.68434" lon="6.65347">
        <ele>2054.4998</ele>
        <time>2015-08-19T11:06:53Z</time>
      </trkpt>
      <trkpt lat="45.68433" lon="6.6534">
        <ele>2055.86</ele>
        <time>2015-08-19T11:07:03Z</time>
      </trkpt>
      <trkpt lat="45.6843" lon="6.65334">
        <ele>2055.86</ele>
        <time>2015-08-19T11:07:08Z</time>
      </trkpt>
      <trkpt lat="45.68425" lon="6.6532">
        <ele>2057.179</ele>
        <time>2015-08-19T11:07:23Z</time>
      </trkpt>
      <trkpt lat="45.68424" lon="6.65315">
        <ele>2057.179</ele>
        <time>2015-08-19T11:07:28Z</time>
      </trkpt>
      <trkpt lat="45.68421" lon="6.65309">
        <ele>2058.3193</ele>
        <time>2015-08-19T11:07:38Z</time>
      </trkpt>
      <trkpt lat="45.68419" lon="6.65305">
        <ele>2058.3193</ele>
        <time>2015-08-19T11:07:43Z</time>
      </trkpt>
      <trkpt lat="45.68416" lon="6.65297">
        <ele>2059.4863</ele>
        <time>2015-08-19T11:07:53Z</time>
      </trkpt>
      <trkpt lat="45.68415" lon="6.65291">
        <ele>2059.4863</ele>
        <time>2015-08-19T11:07:58Z</time>
      </trkpt>
      <trkpt lat="45.68412" lon="6.65279">
        <ele>2060.582</ele>
        <time>2015-08-19T11:08:08Z</time>
      </trkpt>
      <trkpt lat="45.68409" lon="6.65275">
        <ele>2060.582</ele>
        <time>2015-08-19T11:08:13Z</time>
      </trkpt>
      <trkpt lat="45.68406" lon="6.65266">
        <ele>2061.5444</ele>
        <time>2015-08-19T11:08:23Z</time>
      </trkpt>
      <trkpt lat="45.68405" lon="6.65259">
        <ele>2061.5444</ele>
        <time>2015-08-19T11:08:28Z</time>
      </trkpt>
      <trkpt lat="45.68401" lon="6.65249">
        <ele>2062.345</ele>
        <time>2015-08-19T11:08:38Z</time>
      </trkpt>
      <trkpt lat="45.68398" lon="6.65244">
        <ele>2062.345</ele>
        <time>2015-08-19T11:08:43Z</time>
      </trkpt>
      <trkpt lat="45.68391" lon="6.6524">
        <ele>2063.1165</ele>
        <time>2015-08-19T11:08:53Z</time>
      </trkpt>
      <trkpt lat="45.68387" lon="6.65241">
        <ele>2063.1165</ele>
        <time>2015-08-19T11:08:58Z</time>
      </trkpt>
      <trkpt lat="45.68382" lon="6.65243">
        <ele>2063.9387</ele>
        <time>2015-08-19T11:09:08Z</time>
      </trkpt>
      <trkpt lat="45.68378" lon="6.65246">
        <ele>2063.9387</ele>
        <time>2015-08-19T11:09:13Z</time>
      </trkpt>
      <trkpt lat="45.68371" lon="6.65251">
        <ele>2064.799</ele>
        <time>2015-08-19T11:09:28Z</time>
      </trkpt>
      <trkpt lat="45.68367" lon="6.6525">
        <ele>2064.799</ele>
        <time>2015-08-19T11:09:33Z</time>
      </trkpt>
      <trkpt lat="45.68361" lon="6.65249">
        <ele>2065.4978</ele>
        <time>2015-08-19T11:09:43Z</time>
      </trkpt>
      <trkpt lat="45.68358" lon="6.65246">
        <ele>2065.4978</ele>
        <time>2015-08-19T11:09:48Z</time>
      </trkpt>
      <trkpt lat="45.68352" lon="6.65241">
        <ele>2066.2686</ele>
        <time>2015-08-19T11:09:58Z</time>
      </trkpt>
      <trkpt lat="45.68349" lon="6.65239">
        <ele>2066.2686</ele>
        <time>2015-08-19T11:10:03Z</time>
      </trkpt>
      <trkpt lat="45.68342" lon="6.65235">
        <ele>2066.9958</ele>
        <time>2015-08-19T11:10:13Z</time>
      </trkpt>
      <trkpt lat="45.68338" lon="6.65233">
        <ele>2066.9958</ele>
        <time>2015-08-19T11:10:18Z</time>
      </trkpt>
      <trkpt lat="45.68333" lon="6.65228">
        <ele>2067.7312</ele>
        <time>2015-08-19T11:10:28Z</time>
      </trkpt>
      <trkpt lat="45.68332" lon="6.65225">
        <ele>2067.7312</ele>
        <time>2015-08-19T11:10:33Z</time>
      </trkpt>
      <trkpt lat="45.68327" lon="6.65219">
        <ele>2067.7312</ele>
        <time>2015-08-19T11:10:43Z</time>
      </trkpt>
      <trkpt lat="45.68324" lon="6.65214">
        <ele>2068.4792</ele>
        <time>2015-08-19T11:10:48Z</time>
      </trkpt>
      <trkpt lat="45.68319" lon="6.65208">
        <ele>2068.4792</ele>
        <time>2015-08-19T11:10:58Z</time>
      </trkpt>
      <trkpt lat="45.68316" lon="6.65204">
        <ele>2069.3303</ele>
        <time>2015-08-19T11:11:03Z</time>
      </trkpt>
      <trkpt lat="45.68314" lon="6.65195">
        <ele>2069.3303</ele>
        <time>2015-08-19T11:11:13Z</time>
      </trkpt>
      <trkpt lat="45.68313" lon="6.65191">
        <ele>2070.31</ele>
        <time>2015-08-19T11:11:18Z</time>
      </trkpt>
      <trkpt lat="45.68316" lon="6.65192">
        <ele>2070.31</ele>
        <time>2015-08-19T11:11:28Z</time>
      </trkpt>
      <trkpt lat="45.68316" lon="6.65192">
        <ele>2070.31</ele>
        <time>2015-08-19T11:11:33Z</time>
      </trkpt>
      <trkpt lat="45.68313" lon="6.65193">
        <ele>2070.31</ele>
        <time>2015-08-19T11:11:43Z</time>
      </trkpt>
      <trkpt lat="45.68313" lon="6.65192">
        <ele>2070.31</ele>
        <time>2015-08-19T11:11:48Z</time>
      </trkpt>
      <trkpt lat="45.68314" lon="6.65192">
        <ele>2070.31</ele>
        <time>2015-08-19T11:11:58Z</time>
      </trkpt>
      <trkpt lat="45.68314" lon="6.65194">
        <ele>2071.2253</ele>
        <time>2015-08-19T11:12:03Z</time>
      </trkpt>
      <trkpt lat="45.68315" lon="6.6519">
        <ele>2071.2253</ele>
        <time>2015-08-19T11:12:13Z</time>
      </trkpt>
      <trkpt lat="45.68314" lon="6.6519">
        <ele>2071.2253</ele>
        <time>2015-08-19T11:12:18Z</time>
      </trkpt>
      <trkpt lat="45.68314" lon="6.65196">
        <ele>2071.2253</ele>
        <time>2015-08-19T11:12:33Z</time>
      </trkpt>
      <trkpt lat="45.68315" lon="6.65196">
        <ele>2071.2253</ele>
        <time>2015-08-19T11:12:38Z</time>
      </trkpt>
      <trkpt lat="45.68315" lon="6.65196">
        <ele>2071.2253</ele>
        <time>2015-08-19T11:12:43Z</time>
      </trkpt>
      <trkpt lat="45.68315" lon="6.65192">
        <ele>2072.2004</ele>
        <time>2015-08-19T11:13:23Z</time>
      </trkpt>
      <trkpt lat="45.68315" lon="6.65192">
        <ele>2072.2004</ele>
        <time>2015-08-19T11:13:38Z</time>
      </trkpt>
      <trkpt lat="45.68316" lon="6.65191">
        <ele>2072.2004</ele>
        <time>2015-08-19T11:14:23Z</time>
      </trkpt>
      <trkpt lat="45.68317" lon="6.6519">
        <ele>2072.2004</ele>
        <time>2015-08-19T11:14:28Z</time>
      </trkpt>
      <trkpt lat="45.68317" lon="6.6519">
        <ele>2072.2004</ele>
        <time>2015-08-19T11:14:38Z</time>
      </trkpt>
      <trkpt lat="45.68317" lon="6.65188">
        <ele>2072.2004</ele>
        <time>2015-08-19T11:15:58Z</time>
      </trkpt>
      <trkpt lat="45.68317" lon="6.65188">
        <ele>2072.2004</ele>
        <time>2015-08-19T11:16:03Z</time>
      </trkpt>
      <trkpt lat="45.68316" lon="6.65188">
        <ele>2072.2004</ele>
        <time>2015-08-19T11:16:28Z</time>
      </trkpt>
      <trkpt lat="45.68316" lon="6.65188">
        <ele>2072.2004</ele>
        <time>2015-08-19T11:16:33Z</time>
      </trkpt>
      <trkpt lat="45.68316" lon="6.65188">
        <ele>2072.2004</ele>
        <time>2015-08-19T11:20:43Z</time>
      </trkpt>
      <trkpt lat="45.68316" lon="6.65188">
        <ele>2072.2004</ele>
        <time>2015-08-19T11:20:53Z</time>
      </trkpt>
      <trkpt lat="45.68315" lon="6.65187">
        <ele>2072.2004</ele>
        <time>2015-08-19T11:21:28Z</time>
      </trkpt>
      <trkpt lat="45.68314" lon="6.65188">
        <ele>2072.2004</ele>
        <time>2015-08-19T11:21:48Z</time>
      </trkpt>
      <trkpt lat="45.68314" lon="6.65188">
        <ele>2072.2004</ele>
        <time>2015-08-19T11:21:58Z</time>
      </trkpt>
      <trkpt lat="45.68313" lon="6.65189">
        <ele>2072.2004</ele>
        <time>2015-08-19T11:22:13Z</time>
      </trkpt>
      <trkpt lat="45.68309" lon="6.65189">
        <ele>2073.2346</ele>
        <time>2015-08-19T11:22:18Z</time>
      </trkpt>
      <trkpt lat="45.68301" lon="6.65183">
        <ele>2073.2346</ele>
        <time>2015-08-19T11:22:28Z</time>
      </trkpt>
      <trkpt lat="45.68295" lon="6.6518">
        <ele>2074.1685</ele>
        <time>2015-08-19T11:22:33Z</time>
      </trkpt>
      <trkpt lat="45.68287" lon="6.65179">
        <ele>2074.1685</ele>
        <time>2015-08-19T11:22:43Z</time>
      </trkpt>
      <trkpt lat="45.68282" lon="6.65183">
        <ele>2074.7385</ele>
        <time>2015-08-19T11:22:48Z</time>
      </trkpt>
      <trkpt lat="45.68267" lon="6.65193">
        <ele>2074.933</ele>
        <time>2015-08-19T11:23:03Z</time>
      </trkpt>
      <trkpt lat="45.68263" lon="6.65198">
        <ele>2074.933</ele>
        <time>2015-08-19T11:23:08Z</time>
      </trkpt>
      <trkpt lat="45.68256" lon="6.65199">
        <ele>2074.7996</ele>
        <time>2015-08-19T11:23:18Z</time>
      </trkpt>
      <trkpt lat="45.68252" lon="6.65195">
        <ele>2074.7996</ele>
        <time>2015-08-19T11:23:23Z</time>
      </trkpt>
      <trkpt lat="45.68241" lon="6.65194">
        <ele>2074.3533</ele>
        <time>2015-08-19T11:23:33Z</time>
      </trkpt>
      <trkpt lat="45.68235" lon="6.65193">
        <ele>2074.3533</ele>
        <time>2015-08-19T11:23:38Z</time>
      </trkpt>
      <trkpt lat="45.68224" lon="6.65195">
        <ele>2073.754</ele>
        <time>2015-08-19T11:23:48Z</time>
      </trkpt>
      <trkpt lat="45.68219" lon="6.65196">
        <ele>2073.754</ele>
        <time>2015-08-19T11:23:53Z</time>
      </trkpt>
      <trkpt lat="45.68208" lon="6.65195">
        <ele>2073.034</ele>
        <time>2015-08-19T11:24:03Z</time>
      </trkpt>
      <trkpt lat="45.68203" lon="6.65195">
        <ele>2073.034</ele>
        <time>2015-08-19T11:24:08Z</time>
      </trkpt>
      <trkpt lat="45.68193" lon="6.65193">
        <ele>2072.253</ele>
        <time>2015-08-19T11:24:18Z</time>
      </trkpt>
      <trkpt lat="45.68187" lon="6.65194">
        <ele>2072.253</ele>
        <time>2015-08-19T11:24:23Z</time>
      </trkpt>
      <trkpt lat="45.68176" lon="6.65194">
        <ele>2071.4656</ele>
        <time>2015-08-19T11:24:33Z</time>
      </trkpt>
      <trkpt lat="45.68171" lon="6.65198">
        <ele>2071.4656</ele>
        <time>2015-08-19T11:24:38Z</time>
      </trkpt>
      <trkpt lat="45.68163" lon="6.65196">
        <ele>2070.7085</ele>
        <time>2015-08-19T11:24:48Z</time>
      </trkpt>
      <trkpt lat="45.6816" lon="6.65193">
        <ele>2070.7085</ele>
        <time>2015-08-19T11:24:53Z</time>
      </trkpt>
      <trkpt lat="45.68151" lon="6.65188">
        <ele>2069.9856</ele>
        <time>2015-08-19T11:25:03Z</time>
      </trkpt>
      <trkpt lat="45.68148" lon="6.65184">
        <ele>2069.9856</ele>
        <time>2015-08-19T11:25:08Z</time>
      </trkpt>
      <trkpt lat="45.68141" lon="6.65178">
        <ele>2069.244</ele>
        <time>2015-08-19T11:25:18Z</time>
      </trkpt>
      <trkpt lat="45.68137" lon="6.65181">
        <ele>2069.244</ele>
        <time>2015-08-19T11:25:23Z</time>
      </trkpt>
      <trkpt lat="45.68129" lon="6.65181">
        <ele>2068.5193</ele>
        <time>2015-08-19T11:25:33Z</time>
      </trkpt>
      <trkpt lat="45.68126" lon="6.65178">
        <ele>2068.5193</ele>
        <time>2015-08-19T11:25:38Z</time>
      </trkpt>
      <trkpt lat="45.68112" lon="6.65176">
        <ele>2067.817</ele>
        <time>2015-08-19T11:25:53Z</time>
      </trkpt>
      <trkpt lat="45.68108" lon="6.65175">
        <ele>2067.817</ele>
        <time>2015-08-19T11:25:58Z</time>
      </trkpt>
      <trkpt lat="45.68099" lon="6.65174">
        <ele>2067.155</ele>
        <time>2015-08-19T11:26:08Z</time>
      </trkpt>
      <trkpt lat="45.68094" lon="6.65174">
        <ele>2067.155</ele>
        <time>2015-08-19T11:26:13Z</time>
      </trkpt>
      <trkpt lat="45.68087" lon="6.65171">
        <ele>2066.5796</ele>
        <time>2015-08-19T11:26:23Z</time>
      </trkpt>
      <trkpt lat="45.68083" lon="6.65163">
        <ele>2066.5796</ele>
        <time>2015-08-19T11:26:28Z</time>
      </trkpt>
      <trkpt lat="45.68079" lon="6.65151">
        <ele>2066.1323</ele>
        <time>2015-08-19T11:26:38Z</time>
      </trkpt>
      <trkpt lat="45.68076" lon="6.65146">
        <ele>2066.1323</ele>
        <time>2015-08-19T11:26:43Z</time>
      </trkpt>
      <trkpt lat="45.6807" lon="6.65133">
        <ele>2065.8228</ele>
        <time>2015-08-19T11:26:53Z</time>
      </trkpt>
      <trkpt lat="45.68066" lon="6.65129">
        <ele>2065.8228</ele>
        <time>2015-08-19T11:26:58Z</time>
      </trkpt>
      <trkpt lat="45.6806" lon="6.65124">
        <ele>2065.5867</ele>
        <time>2015-08-19T11:27:08Z</time>
      </trkpt>
      <trkpt lat="45.68057" lon="6.65123">
        <ele>2065.5867</ele>
        <time>2015-08-19T11:27:13Z</time>
      </trkpt>
      <trkpt lat="45.68049" lon="6.65121">
        <ele>2065.3503</ele>
        <time>2015-08-19T11:27:23Z</time>
      </trkpt>
      <trkpt lat="45.68044" lon="6.6512">
        <ele>2065.3503</ele>
        <time>2015-08-19T11:27:28Z</time>
      </trkpt>
      <trkpt lat="45.68035" lon="6.6511">
        <ele>2065.088</ele>
        <time>2015-08-19T11:27:38Z</time>
      </trkpt>
      <trkpt lat="45.68032" lon="6.65103">
        <ele>2065.088</ele>
        <time>2015-08-19T11:27:43Z</time>
      </trkpt>
      <trkpt lat="45.68034" lon="6.65083">
        <ele>2064.7756</ele>
        <time>2015-08-19T11:27:58Z</time>
      </trkpt>
      <trkpt lat="45.68033" lon="6.65075">
        <ele>2064.7756</ele>
        <time>2015-08-19T11:28:03Z</time>
      </trkpt>
      <trkpt lat="45.68035" lon="6.65062">
        <ele>2064.3914</ele>
        <time>2015-08-19T11:28:13Z</time>
      </trkpt>
      <trkpt lat="45.68034" lon="6.65054">
        <ele>2064.3914</ele>
        <time>2015-08-19T11:28:18Z</time>
      </trkpt>
      <trkpt lat="45.68034" lon="6.6504">
        <ele>2063.8284</ele>
        <time>2015-08-19T11:28:28Z</time>
      </trkpt>
      <trkpt lat="45.68033" lon="6.65034">
        <ele>2063.8284</ele>
        <time>2015-08-19T11:28:33Z</time>
      </trkpt>
      <trkpt lat="45.68034" lon="6.65035">
        <ele>2063.8284</ele>
        <time>2015-08-19T11:28:43Z</time>
      </trkpt>
      <trkpt lat="45.68034" lon="6.65038">
        <ele>2063.8284</ele>
        <time>2015-08-19T11:28:48Z</time>
      </trkpt>
      <trkpt lat="45.68035" lon="6.65039">
        <ele>2063.1174</ele>
        <time>2015-08-19T11:28:58Z</time>
      </trkpt>
      <trkpt lat="45.68035" lon="6.65039">
        <ele>2063.1174</ele>
        <time>2015-08-19T11:29:03Z</time>
      </trkpt>
      <trkpt lat="45.68034" lon="6.65037">
        <ele>2063.1174</ele>
        <time>2015-08-19T11:29:13Z</time>
      </trkpt>
      <trkpt lat="45.68032" lon="6.65032">
        <ele>2063.1174</ele>
        <time>2015-08-19T11:29:18Z</time>
      </trkpt>
      <trkpt lat="45.68034" lon="6.6503">
        <ele>2063.1174</ele>
        <time>2015-08-19T11:29:28Z</time>
      </trkpt>
      <trkpt lat="45.68034" lon="6.65031">
        <ele>2062.3306</ele>
        <time>2015-08-19T11:29:33Z</time>
      </trkpt>
      <trkpt lat="45.68028" lon="6.65018">
        <ele>2061.4626</ele>
        <time>2015-08-19T11:29:43Z</time>
      </trkpt>
      <trkpt lat="45.68026" lon="6.65011">
        <ele>2061.4626</ele>
        <time>2015-08-19T11:29:48Z</time>
      </trkpt>
      <trkpt lat="45.68024" lon="6.64997">
        <ele>2060.4946</ele>
        <time>2015-08-19T11:29:58Z</time>
      </trkpt>
      <trkpt lat="45.68023" lon="6.64989">
        <ele>2060.4946</ele>
        <time>2015-08-19T11:30:03Z</time>
      </trkpt>
      <trkpt lat="45.68014" lon="6.64976">
        <ele>2059.2935</ele>
        <time>2015-08-19T11:30:18Z</time>
      </trkpt>
      <trkpt lat="45.68012" lon="6.64973">
        <ele>2059.2935</ele>
        <time>2015-08-19T11:30:23Z</time>
      </trkpt>
      <trkpt lat="45.6801" lon="6.64961">
        <ele>2057.895</ele>
        <time>2015-08-19T11:30:33Z</time>
      </trkpt>
      <trkpt lat="45.68009" lon="6.64955">
        <ele>2057.895</ele>
        <time>2015-08-19T11:30:38Z</time>
      </trkpt>
      <trkpt lat="45.68009" lon="6.64944">
        <ele>2056.232</ele>
        <time>2015-08-19T11:30:48Z</time>
      </trkpt>
      <trkpt lat="45.68008" lon="6.64937">
        <ele>2056.232</ele>
        <time>2015-08-19T11:30:53Z</time>
      </trkpt>
      <trkpt lat="45.68" lon="6.64935">
        <ele>2054.1995</ele>
        <time>2015-08-19T11:31:03Z</time>
      </trkpt>
      <trkpt lat="45.67996" lon="6.64932">
        <ele>2054.1995</ele>
        <time>2015-08-19T11:31:08Z</time>
      </trkpt>
      <trkpt lat="45.6799" lon="6.64923">
        <ele>2051.802</ele>
        <time>2015-08-19T11:31:18Z</time>
      </trkpt>
      <trkpt lat="45.67988" lon="6.64915">
        <ele>2051.802</ele>
        <time>2015-08-19T11:31:23Z</time>
      </trkpt>
      <trkpt lat="45.67986" lon="6.64901">
        <ele>2049.2317</ele>
        <time>2015-08-19T11:31:33Z</time>
      </trkpt>
      <trkpt lat="45.67982" lon="6.64896">
        <ele>2049.2317</ele>
        <time>2015-08-19T11:31:38Z</time>
      </trkpt>
      <trkpt lat="45.67978" lon="6.64886">
        <ele>2046.5372</ele>
        <time>2015-08-19T11:31:48Z</time>
      </trkpt>
      <trkpt lat="45.67976" lon="6.64881">
        <ele>2046.5372</ele>
        <time>2015-08-19T11:31:53Z</time>
      </trkpt>
      <trkpt lat="45.67973" lon="6.64865">
        <ele>2043.7355</ele>
        <time>2015-08-19T11:32:03Z</time>
      </trkpt>
      <trkpt lat="45.6797" lon="6.6486">
        <ele>2043.7355</ele>
        <time>2015-08-19T11:32:08Z</time>
      </trkpt>
      <trkpt lat="45.67967" lon="6.64848">
        <ele>2040.7119</ele>
        <time>2015-08-19T11:32:18Z</time>
      </trkpt>
      <trkpt lat="45.67965" lon="6.64842">
        <ele>2040.7119</ele>
        <time>2015-08-19T11:32:23Z</time>
      </trkpt>
      <trkpt lat="45.67964" lon="6.64825">
        <ele>2037.4044</ele>
        <time>2015-08-19T11:32:38Z</time>
      </trkpt>
      <trkpt lat="45.67962" lon="6.64818">
        <ele>2037.4044</ele>
        <time>2015-08-19T11:32:43Z</time>
      </trkpt>
      <trkpt lat="45.67967" lon="6.64806">
        <ele>2033.8999</ele>
        <time>2015-08-19T11:32:53Z</time>
      </trkpt>
      <trkpt lat="45.6797" lon="6.64801">
        <ele>2033.8999</ele>
        <time>2015-08-19T11:32:58Z</time>
      </trkpt>
      <trkpt lat="45.67975" lon="6.64795">
        <ele>2030.3082</ele>
        <time>2015-08-19T11:33:08Z</time>
      </trkpt>
      <trkpt lat="45.67979" lon="6.64792">
        <ele>2030.3082</ele>
        <time>2015-08-19T11:33:13Z</time>
      </trkpt>
      <trkpt lat="45.67988" lon="6.64782">
        <ele>2026.5438</ele>
        <time>2015-08-19T11:33:23Z</time>
      </trkpt>
      <trkpt lat="45.67991" lon="6.64777">
        <ele>2026.5438</ele>
        <time>2015-08-19T11:33:28Z</time>
      </trkpt>
      <trkpt lat="45.68002" lon="6.64775">
        <ele>2022.7148</ele>
        <time>2015-08-19T11:33:38Z</time>
      </trkpt>
      <trkpt lat="45.68007" lon="6.64776">
        <ele>2022.7148</ele>
        <time>2015-08-19T11:33:43Z</time>
      </trkpt>
      <trkpt lat="45.68013" lon="6.64787">
        <ele>2019.0225</ele>
        <time>2015-08-19T11:33:53Z</time>
      </trkpt>
      <trkpt lat="45.68014" lon="6.64782">
        <ele>2019.0225</ele>
        <time>2015-08-19T11:33:58Z</time>
      </trkpt>
      <trkpt lat="45.68015" lon="6.64765">
        <ele>2015.3496</ele>
        <time>2015-08-19T11:34:08Z</time>
      </trkpt>
      <trkpt lat="45.68014" lon="6.64758">
        <ele>2015.3496</ele>
        <time>2015-08-19T11:34:13Z</time>
      </trkpt>
      <trkpt lat="45.68005" lon="6.64752">
        <ele>2011.7751</ele>
        <time>2015-08-19T11:34:23Z</time>
      </trkpt>
      <trkpt lat="45.68" lon="6.6475">
        <ele>2011.7751</ele>
        <time>2015-08-19T11:34:28Z</time>
      </trkpt>
      <trkpt lat="45.67994" lon="6.64748">
        <ele>2008.3425</ele>
        <time>2015-08-19T11:34:38Z</time>
      </trkpt>
      <trkpt lat="45.67994" lon="6.64746">
        <ele>2008.3425</ele>
        <time>2015-08-19T11:34:43Z</time>
      </trkpt>
      <trkpt lat="45.67994" lon="6.64742">
        <ele>2008.3425</ele>
        <time>2015-08-19T11:34:53Z</time>
      </trkpt>
      <trkpt lat="45.67996" lon="6.64739">
        <ele>2008.3425</ele>
        <time>2015-08-19T11:34:58Z</time>
      </trkpt>
      <trkpt lat="45.67999" lon="6.64731">
        <ele>2004.7311</ele>
        <time>2015-08-19T11:35:08Z</time>
      </trkpt>
      <trkpt lat="45.68" lon="6.64726">
        <ele>2004.7311</ele>
        <time>2015-08-19T11:35:13Z</time>
      </trkpt>
      <trkpt lat="45.67997" lon="6.64715">
        <ele>2001.4366</ele>
        <time>2015-08-19T11:35:28Z</time>
      </trkpt>
      <trkpt lat="45.67994" lon="6.64714">
        <ele>2001.4366</ele>
        <time>2015-08-19T11:35:33Z</time>
      </trkpt>
      <trkpt lat="45.67989" lon="6.64709">
        <ele>1998.5571</ele>
        <time>2015-08-19T11:35:43Z</time>
      </trkpt>
      <trkpt lat="45.67988" lon="6.64707">
        <ele>1998.5571</ele>
        <time>2015-08-19T11:35:48Z</time>
      </trkpt>
      <trkpt lat="45.67982" lon="6.647">
        <ele>1996.0809</ele>
        <time>2015-08-19T11:35:58Z</time>
      </trkpt>
      <trkpt lat="45.6798" lon="6.64699">
        <ele>1996.0809</ele>
        <time>2015-08-19T11:36:03Z</time>
      </trkpt>
      <trkpt lat="45.67976" lon="6.64698">
        <ele>1996.0809</ele>
        <time>2015-08-19T11:36:13Z</time>
      </trkpt>
      <trkpt lat="45.67973" lon="6.64695">
        <ele>1994.1544</ele>
        <time>2015-08-19T11:36:18Z</time>
      </trkpt>
      <trkpt lat="45.67966" lon="6.64691">
        <ele>1994.1544</ele>
        <time>2015-08-19T11:36:28Z</time>
      </trkpt>
      <trkpt lat="45.67965" lon="6.64691">
        <ele>1994.1544</ele>
        <time>2015-08-19T11:36:33Z</time>
      </trkpt>
      <trkpt lat="45.67961" lon="6.6469">
        <ele>1992.7675</ele>
        <time>2015-08-19T11:36:43Z</time>
      </trkpt>
      <trkpt lat="45.6796" lon="6.64688">
        <ele>1992.7675</ele>
        <time>2015-08-19T11:36:48Z</time>
      </trkpt>
      <trkpt lat="45.67956" lon="6.64684">
        <ele>1992.7675</ele>
        <time>2015-08-19T11:36:58Z</time>
      </trkpt>
      <trkpt lat="45.67954" lon="6.64681">
        <ele>1992.7675</ele>
        <time>2015-08-19T11:37:03Z</time>
      </trkpt>
      <trkpt lat="45.67946" lon="6.64674">
        <ele>1992.0527</ele>
        <time>2015-08-19T11:37:13Z</time>
      </trkpt>
      <trkpt lat="45.67944" lon="6.64671">
        <ele>1992.0527</ele>
        <time>2015-08-19T11:37:18Z</time>
      </trkpt>
      <trkpt lat="45.67937" lon="6.6467">
        <ele>1991.9009</ele>
        <time>2015-08-19T11:37:33Z</time>
      </trkpt>
      <trkpt lat="45.67933" lon="6.6467">
        <ele>1991.9009</ele>
        <time>2015-08-19T11:37:38Z</time>
      </trkpt>
      <trkpt lat="45.67928" lon="6.64673">
        <ele>1992.093</ele>
        <time>2015-08-19T11:37:48Z</time>
      </trkpt>
      <trkpt lat="45.67927" lon="6.64674">
        <ele>1992.093</ele>
        <time>2015-08-19T11:37:53Z</time>
      </trkpt>
      <trkpt lat="45.67921" lon="6.64679">
        <ele>1992.093</ele>
        <time>2015-08-19T11:38:03Z</time>
      </trkpt>
      <trkpt lat="45.67919" lon="6.64681">
        <ele>1992.6564</ele>
        <time>2015-08-19T11:38:08Z</time>
      </trkpt>
      <trkpt lat="45.67915" lon="6.6468">
        <ele>1992.6564</ele>
        <time>2015-08-19T11:38:18Z</time>
      </trkpt>
      <trkpt lat="45.67911" lon="6.64679">
        <ele>1992.6564</ele>
        <time>2015-08-19T11:38:23Z</time>
      </trkpt>
      <trkpt lat="45.67903" lon="6.64677">
        <ele>1993.2831</ele>
        <time>2015-08-19T11:38:33Z</time>
      </trkpt>
      <trkpt lat="45.679" lon="6.64676">
        <ele>1993.2831</ele>
        <time>2015-08-19T11:38:38Z</time>
      </trkpt>
      <trkpt lat="45.67895" lon="6.64669">
        <ele>1994.0625</ele>
        <time>2015-08-19T11:38:48Z</time>
      </trkpt>
      <trkpt lat="45.67895" lon="6.64667">
        <ele>1994.0625</ele>
        <time>2015-08-19T11:38:53Z</time>
      </trkpt>
      <trkpt lat="45.67894" lon="6.6466">
        <ele>1994.0625</ele>
        <time>2015-08-19T11:39:03Z</time>
      </trkpt>
      <trkpt lat="45.67893" lon="6.64658">
        <ele>1994.0625</ele>
        <time>2015-08-19T11:39:08Z</time>
      </trkpt>
      <trkpt lat="45.67885" lon="6.64661">
        <ele>1995.0481</ele>
        <time>2015-08-19T11:39:18Z</time>
      </trkpt>
      <trkpt lat="45.67882" lon="6.64659">
        <ele>1995.0481</ele>
        <time>2015-08-19T11:39:23Z</time>
      </trkpt>
      <trkpt lat="45.67874" lon="6.64642">
        <ele>1996.3464</ele>
        <time>2015-08-19T11:39:38Z</time>
      </trkpt>
      <trkpt lat="45.67874" lon="6.64636">
        <ele>1996.3464</ele>
        <time>2015-08-19T11:39:43Z</time>
      </trkpt>
      <trkpt lat="45.6787" lon="6.64628">
        <ele>1998.0552</ele>
        <time>2015-08-19T11:39:53Z</time>
      </trkpt>
      <trkpt lat="45.67868" lon="6.64623">
        <ele>1998.0552</ele>
        <time>2015-08-19T11:39:58Z</time>
      </trkpt>
      <trkpt lat="45.67865" lon="6.64616">
        <ele>2000.0188</ele>
        <time>2015-08-19T11:40:08Z</time>
      </trkpt>
      <trkpt lat="45.67863" lon="6.64611">
        <ele>2000.0188</ele>
        <time>2015-08-19T11:40:13Z</time>
      </trkpt>
      <trkpt lat="45.67858" lon="6.64604">
        <ele>2002.136</ele>
        <time>2015-08-19T11:40:23Z</time>
      </trkpt>
      <trkpt lat="45.67854" lon="6.64599">
        <ele>2002.136</ele>
        <time>2015-08-19T11:40:28Z</time>
      </trkpt>
      <trkpt lat="45.67851" lon="6.64589">
        <ele>2004.3408</ele>
        <time>2015-08-19T11:40:38Z</time>
      </trkpt>
      <trkpt lat="45.67849" lon="6.64586">
        <ele>2004.3408</ele>
        <time>2015-08-19T11:40:43Z</time>
      </trkpt>
      <trkpt lat="45.67845" lon="6.6458">
        <ele>2004.3408</ele>
        <time>2015-08-19T11:40:53Z</time>
      </trkpt>
      <trkpt lat="45.67843" lon="6.64578">
        <ele>2006.6735</ele>
        <time>2015-08-19T11:40:58Z</time>
      </trkpt>
      <trkpt lat="45.67837" lon="6.64572">
        <ele>2006.6735</ele>
        <time>2015-08-19T11:41:08Z</time>
      </trkpt>
      <trkpt lat="45.67833" lon="6.64567">
        <ele>2008.9978</ele>
        <time>2015-08-19T11:41:13Z</time>
      </trkpt>
      <trkpt lat="45.6783" lon="6.64563">
        <ele>2008.9978</ele>
        <time>2015-08-19T11:41:23Z</time>
      </trkpt>
      <trkpt lat="45.67826" lon="6.64561">
        <ele>2008.9978</ele>
        <time>2015-08-19T11:41:28Z</time>
      </trkpt>
      <trkpt lat="45.67819" lon="6.64552">
        <ele>2011.6775</ele>
        <time>2015-08-19T11:41:43Z</time>
      </trkpt>
      <trkpt lat="45.67816" lon="6.64547">
        <ele>2011.6775</ele>
        <time>2015-08-19T11:41:48Z</time>
      </trkpt>
      <trkpt lat="45.67813" lon="6.64538">
        <ele>2014.4728</ele>
        <time>2015-08-19T11:41:58Z</time>
      </trkpt>
      <trkpt lat="45.6781" lon="6.64534">
        <ele>2014.4728</ele>
        <time>2015-08-19T11:42:03Z</time>
      </trkpt>
      <trkpt lat="45.6781" lon="6.64526">
        <ele>2014.4728</ele>
        <time>2015-08-19T11:42:13Z</time>
      </trkpt>
      <trkpt lat="45.6781" lon="6.64524">
        <ele>2017.3052</ele>
        <time>2015-08-19T11:42:18Z</time>
      </trkpt>
      <trkpt lat="45.67809" lon="6.64517">
        <ele>2017.3052</ele>
        <time>2015-08-19T11:42:28Z</time>
      </trkpt>
      <trkpt lat="45.67809" lon="6.64516">
        <ele>2017.3052</ele>
        <time>2015-08-19T11:42:33Z</time>
      </trkpt>
      <trkpt lat="45.67806" lon="6.64509">
        <ele>2020.304</ele>
        <time>2015-08-19T11:42:43Z</time>
      </trkpt>
      <trkpt lat="45.67804" lon="6.64505">
        <ele>2020.304</ele>
        <time>2015-08-19T11:42:48Z</time>
      </trkpt>
      <trkpt lat="45.67803" lon="6.645">
        <ele>2020.304</ele>
        <time>2015-08-19T11:42:58Z</time>
      </trkpt>
      <trkpt lat="45.67802" lon="6.64496">
        <ele>2023.4011</ele>
        <time>2015-08-19T11:43:03Z</time>
      </trkpt>
      <trkpt lat="45.678" lon="6.64491">
        <ele>2023.4011</ele>
        <time>2015-08-19T11:43:13Z</time>
      </trkpt>
      <trkpt lat="45.67798" lon="6.64487">
        <ele>2023.4011</ele>
        <time>2015-08-19T11:43:18Z</time>
      </trkpt>
      <trkpt lat="45.67797" lon="6.64485">
        <ele>2026.5482</ele>
        <time>2015-08-19T11:43:28Z</time>
      </trkpt>
      <trkpt lat="45.67796" lon="6.64484">
        <ele>2026.5482</ele>
        <time>2015-08-19T11:43:33Z</time>
      </trkpt>
      <trkpt lat="45.67792" lon="6.64482">
        <ele>2026.5482</ele>
        <time>2015-08-19T11:43:43Z</time>
      </trkpt>
      <trkpt lat="45.67789" lon="6.6448">
        <ele>2026.5482</ele>
        <time>2015-08-19T11:43:48Z</time>
      </trkpt>
      <trkpt lat="45.67784" lon="6.64478">
        <ele>2029.7583</ele>
        <time>2015-08-19T11:44:03Z</time>
      </trkpt>
      <trkpt lat="45.67781" lon="6.64476">
        <ele>2029.7583</ele>
        <time>2015-08-19T11:44:08Z</time>
      </trkpt>
      <trkpt lat="45.67775" lon="6.64475">
        <ele>2032.9135</ele>
        <time>2015-08-19T11:44:18Z</time>
      </trkpt>
      <trkpt lat="45.67771" lon="6.64473">
        <ele>2032.9135</ele>
        <time>2015-08-19T11:44:23Z</time>
      </trkpt>
      <trkpt lat="45.67766" lon="6.64473">
        <ele>2036.0782</ele>
        <time>2015-08-19T11:44:33Z</time>
      </trkpt>
      <trkpt lat="45.67763" lon="6.64474">
        <ele>2036.0782</ele>
        <time>2015-08-19T11:44:38Z</time>
      </trkpt>
      <trkpt lat="45.67757" lon="6.64475">
        <ele>2039.0675</ele>
        <time>2015-08-19T11:44:48Z</time>
      </trkpt>
      <trkpt lat="45.67754" lon="6.64475">
        <ele>2039.0675</ele>
        <time>2015-08-19T11:44:53Z</time>
      </trkpt>
      <trkpt lat="45.67749" lon="6.64476">
        <ele>2039.0675</ele>
        <time>2015-08-19T11:45:03Z</time>
      </trkpt>
      <trkpt lat="45.67747" lon="6.64479">
        <ele>2041.8691</ele>
        <time>2015-08-19T11:45:08Z</time>
      </trkpt>
      <trkpt lat="45.67741" lon="6.64485">
        <ele>2041.8691</ele>
        <time>2015-08-19T11:45:18Z</time>
      </trkpt>
      <trkpt lat="45.67737" lon="6.64487">
        <ele>2044.516</ele>
        <time>2015-08-19T11:45:23Z</time>
      </trkpt>
      <trkpt lat="45.67729" lon="6.64491">
        <ele>2044.516</ele>
        <time>2015-08-19T11:45:33Z</time>
      </trkpt>
      <trkpt lat="45.67726" lon="6.64492">
        <ele>2047.0825</ele>
        <time>2015-08-19T11:45:38Z</time>
      </trkpt>
      <trkpt lat="45.67719" lon="6.64494">
        <ele>2047.0825</ele>
        <time>2015-08-19T11:45:48Z</time>
      </trkpt>
      <trkpt lat="45.67716" lon="6.64495">
        <ele>2049.595</ele>
        <time>2015-08-19T11:45:53Z</time>
      </trkpt>
      <trkpt lat="45.67709" lon="6.645">
        <ele>2049.595</ele>
        <time>2015-08-19T11:46:03Z</time>
      </trkpt>
      <trkpt lat="45.67705" lon="6.64501">
        <ele>2051.9343</ele>
        <time>2015-08-19T11:46:08Z</time>
      </trkpt>
      <trkpt lat="45.67695" lon="6.64505">
        <ele>2054.106</ele>
        <time>2015-08-19T11:46:23Z</time>
      </trkpt>
      <trkpt lat="45.67692" lon="6.64506">
        <ele>2054.106</ele>
        <time>2015-08-19T11:46:28Z</time>
      </trkpt>
      <trkpt lat="45.67686" lon="6.64507">
        <ele>2056.0872</ele>
        <time>2015-08-19T11:46:38Z</time>
      </trkpt>
      <trkpt lat="45.67682" lon="6.64507">
        <ele>2056.0872</ele>
        <time>2015-08-19T11:46:43Z</time>
      </trkpt>
      <trkpt lat="45.67677" lon="6.64502">
        <ele>2057.93</ele>
        <time>2015-08-19T11:46:53Z</time>
      </trkpt>
      <trkpt lat="45.67677" lon="6.64501">
        <ele>2057.93</ele>
        <time>2015-08-19T11:46:58Z</time>
      </trkpt>
      <trkpt lat="45.67678" lon="6.64501">
        <ele>2057.93</ele>
        <time>2015-08-19T11:47:08Z</time>
      </trkpt>
      <trkpt lat="45.67679" lon="6.64499">
        <ele>2057.93</ele>
        <time>2015-08-19T11:47:13Z</time>
      </trkpt>
      <trkpt lat="45.67679" lon="6.64496">
        <ele>2057.93</ele>
        <time>2015-08-19T11:47:23Z</time>
      </trkpt>
      <trkpt lat="45.67679" lon="6.64496">
        <ele>2057.93</ele>
        <time>2015-08-19T11:47:28Z</time>
      </trkpt>
      <trkpt lat="45.67678" lon="6.64497">
        <ele>2057.93</ele>
        <time>2015-08-19T11:47:38Z</time>
      </trkpt>
      <trkpt lat="45.67677" lon="6.64499">
        <ele>2057.93</ele>
        <time>2015-08-19T11:47:43Z</time>
      </trkpt>
      <trkpt lat="45.67677" lon="6.64501">
        <ele>2060.1292</ele>
        <time>2015-08-19T11:47:53Z</time>
      </trkpt>
      <trkpt lat="45.67678" lon="6.64501">
        <ele>2060.1292</ele>
        <time>2015-08-19T11:47:58Z</time>
      </trkpt>
      <trkpt lat="45.67678" lon="6.645">
        <ele>2060.1292</ele>
        <time>2015-08-19T11:48:08Z</time>
      </trkpt>
      <trkpt lat="45.67678" lon="6.645">
        <ele>2060.1292</ele>
        <time>2015-08-19T11:48:13Z</time>
      </trkpt>
      <trkpt lat="45.67679" lon="6.645">
        <ele>2060.1292</ele>
        <time>2015-08-19T11:48:23Z</time>
      </trkpt>
      <trkpt lat="45.6768" lon="6.64499">
        <ele>2060.1292</ele>
        <time>2015-08-19T11:48:28Z</time>
      </trkpt>
      <trkpt lat="45.67679" lon="6.64499">
        <ele>2060.1292</ele>
        <time>2015-08-19T11:48:38Z</time>
      </trkpt>
      <trkpt lat="45.67679" lon="6.64499">
        <ele>2060.1292</ele>
        <time>2015-08-19T11:48:43Z</time>
      </trkpt>
      <trkpt lat="45.67678" lon="6.64498">
        <ele>2060.1292</ele>
        <time>2015-08-19T11:48:53Z</time>
      </trkpt>
      <trkpt lat="45.67678" lon="6.64499">
        <ele>2060.1292</ele>
        <time>2015-08-19T11:48:58Z</time>
      </trkpt>
      <trkpt lat="45.6768" lon="6.645">
        <ele>2060.1292</ele>
        <time>2015-08-19T11:49:13Z</time>
      </trkpt>
      <trkpt lat="45.67678" lon="6.64499">
        <ele>2062.2646</ele>
        <time>2015-08-19T11:49:18Z</time>
      </trkpt>
      <trkpt lat="45.67677" lon="6.645">
        <ele>2062.2646</ele>
        <time>2015-08-19T11:49:28Z</time>
      </trkpt>
      <trkpt lat="45.67677" lon="6.64499">
        <ele>2062.2646</ele>
        <time>2015-08-19T11:49:33Z</time>
      </trkpt>
      <trkpt lat="45.67678" lon="6.64499">
        <ele>2062.2646</ele>
        <time>2015-08-19T11:49:43Z</time>
      </trkpt>
      <trkpt lat="45.67678" lon="6.64499">
        <ele>2062.2646</ele>
        <time>2015-08-19T11:49:48Z</time>
      </trkpt>
      <trkpt lat="45.67677" lon="6.645">
        <ele>2062.2646</ele>
        <time>2015-08-19T11:49:58Z</time>
      </trkpt>
      <trkpt lat="45.67677" lon="6.645">
        <ele>2062.2646</ele>
        <time>2015-08-19T11:50:03Z</time>
      </trkpt>
      <trkpt lat="45.67677" lon="6.64501">
        <ele>2062.2646</ele>
        <time>2015-08-19T11:50:13Z</time>
      </trkpt>
      <trkpt lat="45.67678" lon="6.64501">
        <ele>2062.2646</ele>
        <time>2015-08-19T11:50:18Z</time>
      </trkpt>
      <trkpt lat="45.67678" lon="6.645">
        <ele>2062.2646</ele>
        <time>2015-08-19T11:50:28Z</time>
      </trkpt>
      <trkpt lat="45.67678" lon="6.64501">
        <ele>2062.2646</ele>
        <time>2015-08-19T11:50:33Z</time>
      </trkpt>
      <trkpt lat="45.67679" lon="6.64501">
        <ele>2062.2646</ele>
        <time>2015-08-19T11:50:43Z</time>
      </trkpt>
      <trkpt lat="45.67679" lon="6.64501">
        <ele>2062.2646</ele>
        <time>2015-08-19T11:50:48Z</time>
      </trkpt>
      <trkpt lat="45.67678" lon="6.64499">
        <ele>2064.3071</ele>
        <time>2015-08-19T11:51:03Z</time>
      </trkpt>
      <trkpt lat="45.67679" lon="6.64498">
        <ele>2064.3071</ele>
        <time>2015-08-19T11:51:08Z</time>
      </trkpt>
      <trkpt lat="45.67678" lon="6.64499">
        <ele>2064.3071</ele>
        <time>2015-08-19T11:51:18Z</time>
      </trkpt>
      <trkpt lat="45.67678" lon="6.64499">
        <ele>2064.3071</ele>
        <time>2015-08-19T11:51:23Z</time>
      </trkpt>
      <trkpt lat="45.67677" lon="6.64499">
        <ele>2064.3071</ele>
        <time>2015-08-19T11:51:33Z</time>
      </trkpt>
      <trkpt lat="45.67673" lon="6.64496">
        <ele>2064.3071</ele>
        <time>2015-08-19T11:51:38Z</time>
      </trkpt>
      <trkpt lat="45.67662" lon="6.64489">
        <ele>2066.1294</ele>
        <time>2015-08-19T11:51:48Z</time>
      </trkpt>
      <trkpt lat="45.67653" lon="6.64474">
        <ele>2067.6145</ele>
        <time>2015-08-19T11:52:03Z</time>
      </trkpt>
      <trkpt lat="45.67649" lon="6.64468">
        <ele>2067.6145</ele>
        <time>2015-08-19T11:52:08Z</time>
      </trkpt>
      <trkpt lat="45.67638" lon="6.64461">
        <ele>2068.7126</ele>
        <time>2015-08-19T11:52:18Z</time>
      </trkpt>
      <trkpt lat="45.67634" lon="6.64457">
        <ele>2068.7126</ele>
        <time>2015-08-19T11:52:23Z</time>
      </trkpt>
      <trkpt lat="45.67627" lon="6.64457">
        <ele>2069.3938</ele>
        <time>2015-08-19T11:52:33Z</time>
      </trkpt>
      <trkpt lat="45.67624" lon="6.64453">
        <ele>2069.3938</ele>
        <time>2015-08-19T11:52:38Z</time>
      </trkpt>
      <trkpt lat="45.67621" lon="6.64438">
        <ele>2069.7468</ele>
        <time>2015-08-19T11:52:48Z</time>
      </trkpt>
      <trkpt lat="45.67621" lon="6.64432">
        <ele>2069.7468</ele>
        <time>2015-08-19T11:52:53Z</time>
      </trkpt>
      <trkpt lat="45.67617" lon="6.64423">
        <ele>2069.711</ele>
        <time>2015-08-19T11:53:03Z</time>
      </trkpt>
      <trkpt lat="45.67615" lon="6.6442">
        <ele>2069.711</ele>
        <time>2015-08-19T11:53:08Z</time>
      </trkpt>
      <trkpt lat="45.67604" lon="6.64423">
        <ele>2069.2024</ele>
        <time>2015-08-19T11:53:23Z</time>
      </trkpt>
      <trkpt lat="45.67599" lon="6.64432">
        <ele>2069.2024</ele>
        <time>2015-08-19T11:53:28Z</time>
      </trkpt>
      <trkpt lat="45.67594" lon="6.6444">
        <ele>2068.1738</ele>
        <time>2015-08-19T11:53:38Z</time>
      </trkpt>
      <trkpt lat="45.67589" lon="6.64448">
        <ele>2068.1738</ele>
        <time>2015-08-19T11:53:43Z</time>
      </trkpt>
      <trkpt lat="45.67579" lon="6.64453">
        <ele>2066.7268</ele>
        <time>2015-08-19T11:53:53Z</time>
      </trkpt>
      <trkpt lat="45.67575" lon="6.64458">
        <ele>2066.7268</ele>
        <time>2015-08-19T11:53:58Z</time>
      </trkpt>
      <trkpt lat="45.67564" lon="6.64465">
        <ele>2064.9575</ele>
        <time>2015-08-19T11:54:08Z</time>
      </trkpt>
      <trkpt lat="45.67562" lon="6.64468">
        <ele>2064.9575</ele>
        <time>2015-08-19T11:54:13Z</time>
      </trkpt>
      <trkpt lat="45.67557" lon="6.64469">
        <ele>2064.9575</ele>
        <time>2015-08-19T11:54:23Z</time>
      </trkpt>
      <trkpt lat="45.67556" lon="6.64461">
        <ele>2062.7969</ele>
        <time>2015-08-19T11:54:28Z</time>
      </trkpt>
      <trkpt lat="45.67557" lon="6.64452">
        <ele>2062.7969</ele>
        <time>2015-08-19T11:54:38Z</time>
      </trkpt>
      <trkpt lat="45.67556" lon="6.6445">
        <ele>2062.7969</ele>
        <time>2015-08-19T11:54:43Z</time>
      </trkpt>
      <trkpt lat="45.67556" lon="6.64451">
        <ele>2062.7969</ele>
        <time>2015-08-19T11:54:53Z</time>
      </trkpt>
      <trkpt lat="45.67556" lon="6.64452">
        <ele>2060.3694</ele>
        <time>2015-08-19T11:54:58Z</time>
      </trkpt>
      <trkpt lat="45.67558" lon="6.64441">
        <ele>2060.3694</ele>
        <time>2015-08-19T11:55:08Z</time>
      </trkpt>
      <trkpt lat="45.67559" lon="6.64434">
        <ele>2057.7192</ele>
        <time>2015-08-19T11:55:13Z</time>
      </trkpt>
      <trkpt lat="45.67564" lon="6.64421">
        <ele>2055.076</ele>
        <time>2015-08-19T11:55:23Z</time>
      </trkpt>
      <trkpt lat="45.67566" lon="6.64416">
        <ele>2055.076</ele>
        <time>2015-08-19T11:55:28Z</time>
      </trkpt>
      <trkpt lat="45.67569" lon="6.64411">
        <ele>2055.076</ele>
        <time>2015-08-19T11:55:38Z</time>
      </trkpt>
      <trkpt lat="45.67572" lon="6.64408">
        <ele>2052.377</ele>
        <time>2015-08-19T11:55:43Z</time>
      </trkpt>
      <trkpt lat="45.67573" lon="6.64387">
        <ele>2049.5515</ele>
        <time>2015-08-19T11:55:58Z</time>
      </trkpt>
      <trkpt lat="45.67575" lon="6.64379">
        <ele>2049.5515</ele>
        <time>2015-08-19T11:56:03Z</time>
      </trkpt>
      <trkpt lat="45.67576" lon="6.6436">
        <ele>2046.6338</ele>
        <time>2015-08-19T11:56:13Z</time>
      </trkpt>
      <trkpt lat="45.67577" lon="6.64352">
        <ele>2046.6338</ele>
        <time>2015-08-19T11:56:18Z</time>
      </trkpt>
      <trkpt lat="45.67572" lon="6.64348">
        <ele>2043.6711</ele>
        <time>2015-08-19T11:56:28Z</time>
      </trkpt>
      <trkpt lat="45.67572" lon="6.64353">
        <ele>2043.6711</ele>
        <time>2015-08-19T11:56:33Z</time>
      </trkpt>
      <trkpt lat="45.67566" lon="6.64368">
        <ele>2040.5481</ele>
        <time>2015-08-19T11:56:43Z</time>
      </trkpt>
      <trkpt lat="45.67563" lon="6.64375">
        <ele>2040.5481</ele>
        <time>2015-08-19T11:56:48Z</time>
      </trkpt>
      <trkpt lat="45.67553" lon="6.64382">
        <ele>2037.4034</ele>
        <time>2015-08-19T11:56:58Z</time>
      </trkpt>
      <trkpt lat="45.6755" lon="6.64391">
        <ele>2037.4034</ele>
        <time>2015-08-19T11:57:03Z</time>
      </trkpt>
      <trkpt lat="45.67545" lon="6.64404">
        <ele>2034.3365</ele>
        <time>2015-08-19T11:57:13Z</time>
      </trkpt>
      <trkpt lat="45.6754" lon="6.64409">
        <ele>2034.3365</ele>
        <time>2015-08-19T11:57:18Z</time>
      </trkpt>
      <trkpt lat="45.67536" lon="6.64419">
        <ele>2031.2374</ele>
        <time>2015-08-19T11:57:28Z</time>
      </trkpt>
      <trkpt lat="45.67534" lon="6.64423">
        <ele>2031.2374</ele>
        <time>2015-08-19T11:57:33Z</time>
      </trkpt>
      <trkpt lat="45.6753" lon="6.64435">
        <ele>2028.0182</ele>
        <time>2015-08-19T11:57:43Z</time>
      </trkpt>
      <trkpt lat="45.67529" lon="6.64438">
        <ele>2028.0182</ele>
        <time>2015-08-19T11:57:48Z</time>
      </trkpt>
      <trkpt lat="45.67526" lon="6.64447">
        <ele>2024.9727</ele>
        <time>2015-08-19T11:57:58Z</time>
      </trkpt>
      <trkpt lat="45.67523" lon="6.64444">
        <ele>2024.9727</ele>
        <time>2015-08-19T11:58:03Z</time>
      </trkpt>
      <trkpt lat="45.67514" lon="6.64437">
        <ele>2022.2277</ele>
        <time>2015-08-19T11:58:18Z</time>
      </trkpt>
      <trkpt lat="45.6751" lon="6.64438">
        <ele>2022.2277</ele>
        <time>2015-08-19T11:58:23Z</time>
      </trkpt>
      <trkpt lat="45.67499" lon="6.64445">
        <ele>2019.7849</ele>
        <time>2015-08-19T11:58:33Z</time>
      </trkpt>
      <trkpt lat="45.67494" lon="6.64444">
        <ele>2019.7849</ele>
        <time>2015-08-19T11:58:38Z</time>
      </trkpt>
      <trkpt lat="45.67486" lon="6.64437">
        <ele>2017.7019</ele>
        <time>2015-08-19T11:58:48Z</time>
      </trkpt>
      <trkpt lat="45.67483" lon="6.64432">
        <ele>2017.7019</ele>
        <time>2015-08-19T11:58:53Z</time>
      </trkpt>
      <trkpt lat="45.67483" lon="6.64418">
        <ele>2015.8292</ele>
        <time>2015-08-19T11:59:03Z</time>
      </trkpt>
      <trkpt lat="45.67483" lon="6.64409">
        <ele>2015.8292</ele>
        <time>2015-08-19T11:59:08Z</time>
      </trkpt>
      <trkpt lat="45.67478" lon="6.64398">
        <ele>2014.1141</ele>
        <time>2015-08-19T11:59:18Z</time>
      </trkpt>
      <trkpt lat="45.67477" lon="6.6439">
        <ele>2014.1141</ele>
        <time>2015-08-19T11:59:23Z</time>
      </trkpt>
      <trkpt lat="45.67476" lon="6.64376">
        <ele>2012.4779</ele>
        <time>2015-08-19T11:59:33Z</time>
      </trkpt>
      <trkpt lat="45.67474" lon="6.64368">
        <ele>2012.4779</ele>
        <time>2015-08-19T11:59:38Z</time>
      </trkpt>
      <trkpt lat="45.67468" lon="6.64359">
        <ele>2010.8329</ele>
        <time>2015-08-19T11:59:48Z</time>
      </trkpt>
      <trkpt lat="45.67467" lon="6.64353">
        <ele>2010.8329</ele>
        <time>2015-08-19T11:59:53Z</time>
      </trkpt>
      <trkpt lat="45.67463" lon="6.64345">
        <ele>2009.2129</ele>
        <time>2015-08-19T12:00:03Z</time>
      </trkpt>
      <trkpt lat="45.6746" lon="6.64344">
        <ele>2009.2129</ele>
        <time>2015-08-19T12:00:08Z</time>
      </trkpt>
      <trkpt lat="45.67451" lon="6.64341">
        <ele>2007.7931</ele>
        <time>2015-08-19T12:00:18Z</time>
      </trkpt>
      <trkpt lat="45.67449" lon="6.64339">
        <ele>2007.7931</ele>
        <time>2015-08-19T12:00:23Z</time>
      </trkpt>
      <trkpt lat="45.67445" lon="6.64334">
        <ele>2007.7931</ele>
        <time>2015-08-19T12:00:33Z</time>
      </trkpt>
      <trkpt lat="45.67442" lon="6.64332">
        <ele>2006.5618</ele>
        <time>2015-08-19T12:00:38Z</time>
      </trkpt>
      <trkpt lat="45.67434" lon="6.64327">
        <ele>2006.5618</ele>
        <time>2015-08-19T12:00:48Z</time>
      </trkpt>
      <trkpt lat="45.67431" lon="6.64324">
        <ele>2005.2628</ele>
        <time>2015-08-19T12:00:53Z</time>
      </trkpt>
      <trkpt lat="45.67423" lon="6.64318">
        <ele>2005.2628</ele>
        <time>2015-08-19T12:01:03Z</time>
      </trkpt>
      <trkpt lat="45.67421" lon="6.64313">
        <ele>2004.1051</ele>
        <time>2015-08-19T12:01:08Z</time>
      </trkpt>
      <trkpt lat="45.67413" lon="6.64307">
        <ele>2004.1051</ele>
        <time>2015-08-19T12:01:23Z</time>
      </trkpt>
      <trkpt lat="45.67411" lon="6.64304">
        <ele>2003.0514</ele>
        <time>2015-08-19T12:01:28Z</time>
      </trkpt>
      <trkpt lat="45.67404" lon="6.64299">
        <ele>2003.0514</ele>
        <time>2015-08-19T12:01:38Z</time>
      </trkpt>
      <trkpt lat="45.67398" lon="6.64297">
        <ele>2002.2106</ele>
        <time>2015-08-19T12:01:43Z</time>
      </trkpt>
      <trkpt lat="45.67392" lon="6.64296">
        <ele>2002.2106</ele>
        <time>2015-08-19T12:01:53Z</time>
      </trkpt>
      <trkpt lat="45.67387" lon="6.64291">
        <ele>2001.553</ele>
        <time>2015-08-19T12:01:58Z</time>
      </trkpt>
      <trkpt lat="45.67378" lon="6.64289">
        <ele>2001.553</ele>
        <time>2015-08-19T12:02:08Z</time>
      </trkpt>
      <trkpt lat="45.67379" lon="6.64287">
        <ele>2001.1084</ele>
        <time>2015-08-19T12:02:13Z</time>
      </trkpt>
      <trkpt lat="45.67378" lon="6.64286">
        <ele>2001.1084</ele>
        <time>2015-08-19T12:02:23Z</time>
      </trkpt>
      <trkpt lat="45.67379" lon="6.64285">
        <ele>2001.1084</ele>
        <time>2015-08-19T12:02:28Z</time>
      </trkpt>
      <trkpt lat="45.67379" lon="6.64284">
        <ele>2001.1084</ele>
        <time>2015-08-19T12:02:38Z</time>
      </trkpt>
      <trkpt lat="45.67379" lon="6.64284">
        <ele>2001.1084</ele>
        <time>2015-08-19T12:02:43Z</time>
      </trkpt>
      <trkpt lat="45.67379" lon="6.64286">
        <ele>2001.1084</ele>
        <time>2015-08-19T12:02:53Z</time>
      </trkpt>
      <trkpt lat="45.67379" lon="6.64287">
        <ele>2001.1084</ele>
        <time>2015-08-19T12:02:58Z</time>
      </trkpt>
      <trkpt lat="45.67374" lon="6.64286">
        <ele>2001.004</ele>
        <time>2015-08-19T12:03:08Z</time>
      </trkpt>
      <trkpt lat="45.67372" lon="6.64286">
        <ele>2001.004</ele>
        <time>2015-08-19T12:03:13Z</time>
      </trkpt>
      <trkpt lat="45.67367" lon="6.64285">
        <ele>2001.004</ele>
        <time>2015-08-19T12:03:23Z</time>
      </trkpt>
      <trkpt lat="45.67362" lon="6.64284">
        <ele>2001.2708</ele>
        <time>2015-08-19T12:03:28Z</time>
      </trkpt>
      <trkpt lat="45.67352" lon="6.64279">
        <ele>2001.8058</ele>
        <time>2015-08-19T12:03:43Z</time>
      </trkpt>
      <trkpt lat="45.67349" lon="6.64278">
        <ele>2001.8058</ele>
        <time>2015-08-19T12:03:48Z</time>
      </trkpt>
      <trkpt lat="45.67341" lon="6.64275">
        <ele>2002.5422</ele>
        <time>2015-08-19T12:03:58Z</time>
      </trkpt>
      <trkpt lat="45.67336" lon="6.64275">
        <ele>2002.5422</ele>
        <time>2015-08-19T12:04:03Z</time>
      </trkpt>
      <trkpt lat="45.67332" lon="6.6427">
        <ele>2003.4894</ele>
        <time>2015-08-19T12:04:13Z</time>
      </trkpt>
      <trkpt lat="45.67328" lon="6.64267">
        <ele>2003.4894</ele>
        <time>2015-08-19T12:04:18Z</time>
      </trkpt>
      <trkpt lat="45.6732" lon="6.64265">
        <ele>2004.6117</ele>
        <time>2015-08-19T12:04:28Z</time>
      </trkpt>
      <trkpt lat="45.67317" lon="6.64263">
        <ele>2004.6117</ele>
        <time>2015-08-19T12:04:33Z</time>
      </trkpt>
      <trkpt lat="45.67308" lon="6.64262">
        <ele>2005.6888</ele>
        <time>2015-08-19T12:04:43Z</time>
      </trkpt>
      <trkpt lat="45.67303" lon="6.64262">
        <ele>2005.6888</ele>
        <time>2015-08-19T12:04:48Z</time>
      </trkpt>
      <trkpt lat="45.67297" lon="6.64258">
        <ele>2006.5018</ele>
        <time>2015-08-19T12:04:58Z</time>
      </trkpt>
      <trkpt lat="45.67293" lon="6.64257">
        <ele>2006.5018</ele>
        <time>2015-08-19T12:05:03Z</time>
      </trkpt>
      <trkpt lat="45.67283" lon="6.64255">
        <ele>2006.8491</ele>
        <time>2015-08-19T12:05:13Z</time>
      </trkpt>
      <trkpt lat="45.67278" lon="6.64255">
        <ele>2006.8491</ele>
        <time>2015-08-19T12:05:18Z</time>
      </trkpt>
      <trkpt lat="45.67269" lon="6.64256">
        <ele>2006.8617</ele>
        <time>2015-08-19T12:05:28Z</time>
      </trkpt>
      <trkpt lat="45.6726" lon="6.64254">
        <ele>2006.8617</ele>
        <time>2015-08-19T12:05:33Z</time>
      </trkpt>
      <trkpt lat="45.6725" lon="6.64252">
        <ele>2007.008</ele>
        <time>2015-08-19T12:05:43Z</time>
      </trkpt>
      <trkpt lat="45.67243" lon="6.64249">
        <ele>2007.008</ele>
        <time>2015-08-19T12:05:48Z</time>
      </trkpt>
      <trkpt lat="45.67228" lon="6.6424">
        <ele>2007.4193</ele>
        <time>2015-08-19T12:06:03Z</time>
      </trkpt>
      <trkpt lat="45.67224" lon="6.64238">
        <ele>2007.4193</ele>
        <time>2015-08-19T12:06:08Z</time>
      </trkpt>
      <trkpt lat="45.67213" lon="6.64238">
        <ele>2007.856</ele>
        <time>2015-08-19T12:06:18Z</time>
      </trkpt>
      <trkpt lat="45.67208" lon="6.64237">
        <ele>2007.856</ele>
        <time>2015-08-19T12:06:23Z</time>
      </trkpt>
      <trkpt lat="45.672" lon="6.64232">
        <ele>2008.2689</ele>
        <time>2015-08-19T12:06:33Z</time>
      </trkpt>
      <trkpt lat="45.67198" lon="6.64226">
        <ele>2008.2689</ele>
        <time>2015-08-19T12:06:38Z</time>
      </trkpt>
      <trkpt lat="45.67189" lon="6.64221">
        <ele>2008.584</ele>
        <time>2015-08-19T12:06:48Z</time>
      </trkpt>
      <trkpt lat="45.67185" lon="6.64218">
        <ele>2008.584</ele>
        <time>2015-08-19T12:06:53Z</time>
      </trkpt>
      <trkpt lat="45.67178" lon="6.64215">
        <ele>2008.632</ele>
        <time>2015-08-19T12:07:03Z</time>
      </trkpt>
      <trkpt lat="45.67177" lon="6.6421">
        <ele>2008.632</ele>
        <time>2015-08-19T12:07:08Z</time>
      </trkpt>
      <trkpt lat="45.6717" lon="6.64203">
        <ele>2008.3289</ele>
        <time>2015-08-19T12:07:18Z</time>
      </trkpt>
      <trkpt lat="45.67165" lon="6.64201">
        <ele>2008.3289</ele>
        <time>2015-08-19T12:07:23Z</time>
      </trkpt>
      <trkpt lat="45.67153" lon="6.64198">
        <ele>2007.8574</ele>
        <time>2015-08-19T12:07:33Z</time>
      </trkpt>
      <trkpt lat="45.67147" lon="6.64195">
        <ele>2007.8574</ele>
        <time>2015-08-19T12:07:38Z</time>
      </trkpt>
      <trkpt lat="45.67142" lon="6.64189">
        <ele>2007.4017</ele>
        <time>2015-08-19T12:07:48Z</time>
      </trkpt>
      <trkpt lat="45.67138" lon="6.64188">
        <ele>2007.4017</ele>
        <time>2015-08-19T12:07:53Z</time>
      </trkpt>
      <trkpt lat="45.67134" lon="6.64188">
        <ele>2007.4017</ele>
        <time>2015-08-19T12:08:03Z</time>
      </trkpt>
      <trkpt lat="45.67132" lon="6.64187">
        <ele>2006.7869</ele>
        <time>2015-08-19T12:08:08Z</time>
      </trkpt>
      <trkpt lat="45.67134" lon="6.64177">
        <ele>2006.7869</ele>
        <time>2015-08-19T12:08:23Z</time>
      </trkpt>
      <trkpt lat="45.67133" lon="6.6417">
        <ele>2005.9229</ele>
        <time>2015-08-19T12:08:28Z</time>
      </trkpt>
      <trkpt lat="45.67132" lon="6.6416">
        <ele>2005.9229</ele>
        <time>2015-08-19T12:08:38Z</time>
      </trkpt>
      <trkpt lat="45.6713" lon="6.64155">
        <ele>2004.8715</ele>
        <time>2015-08-19T12:08:43Z</time>
      </trkpt>
      <trkpt lat="45.67129" lon="6.64146">
        <ele>2004.8715</ele>
        <time>2015-08-19T12:08:53Z</time>
      </trkpt>
      <trkpt lat="45.67127" lon="6.64142">
        <ele>2003.6328</ele>
        <time>2015-08-19T12:08:58Z</time>
      </trkpt>
      <trkpt lat="45.67128" lon="6.64137">
        <ele>2003.6328</ele>
        <time>2015-08-19T12:09:08Z</time>
      </trkpt>
      <trkpt lat="45.67128" lon="6.64133">
        <ele>2003.6328</ele>
        <time>2015-08-19T12:09:13Z</time>
      </trkpt>
      <trkpt lat="45.67127" lon="6.64127">
        <ele>2001.8329</ele>
        <time>2015-08-19T12:09:23Z</time>
      </trkpt>
      <trkpt lat="45.67127" lon="6.64124">
        <ele>2001.8329</ele>
        <time>2015-08-19T12:09:28Z</time>
      </trkpt>
      <trkpt lat="45.67125" lon="6.64119">
        <ele>2001.8329</ele>
        <time>2015-08-19T12:09:38Z</time>
      </trkpt>
      <trkpt lat="45.6712" lon="6.64116">
        <ele>1999.7034</ele>
        <time>2015-08-19T12:09:43Z</time>
      </trkpt>
      <trkpt lat="45.67113" lon="6.6411">
        <ele>1999.7034</ele>
        <time>2015-08-19T12:09:53Z</time>
      </trkpt>
      <trkpt lat="45.67106" lon="6.64107">
        <ele>1997.4885</ele>
        <time>2015-08-19T12:09:58Z</time>
      </trkpt>
      <trkpt lat="45.67097" lon="6.64107">
        <ele>1995.386</ele>
        <time>2015-08-19T12:10:08Z</time>
      </trkpt>
      <trkpt lat="45.67094" lon="6.64106">
        <ele>1995.386</ele>
        <time>2015-08-19T12:10:13Z</time>
      </trkpt>
      <trkpt lat="45.67082" lon="6.64108">
        <ele>1993.2473</ele>
        <time>2015-08-19T12:10:28Z</time>
      </trkpt>
      <trkpt lat="45.67081" lon="6.6411">
        <ele>1993.2473</ele>
        <time>2015-08-19T12:10:33Z</time>
      </trkpt>
      <trkpt lat="45.67077" lon="6.64111">
        <ele>1993.2473</ele>
        <time>2015-08-19T12:10:43Z</time>
      </trkpt>
      <trkpt lat="45.67074" lon="6.64111">
        <ele>1991.0648</ele>
        <time>2015-08-19T12:10:48Z</time>
      </trkpt>
      <trkpt lat="45.6707" lon="6.64112">
        <ele>1991.0648</ele>
        <time>2015-08-19T12:10:58Z</time>
      </trkpt>
      <trkpt lat="45.67068" lon="6.64115">
        <ele>1991.0648</ele>
        <time>2015-08-19T12:11:03Z</time>
      </trkpt>
      <trkpt lat="45.67064" lon="6.64111">
        <ele>1989.004</ele>
        <time>2015-08-19T12:11:13Z</time>
      </trkpt>
      <trkpt lat="45.67061" lon="6.64109">
        <ele>1989.004</ele>
        <time>2015-08-19T12:11:18Z</time>
      </trkpt>
      <trkpt lat="45.67053" lon="6.64105">
        <ele>1987.1609</ele>
        <time>2015-08-19T12:11:28Z</time>
      </trkpt>
      <trkpt lat="45.67051" lon="6.64103">
        <ele>1987.1609</ele>
        <time>2015-08-19T12:11:33Z</time>
      </trkpt>
      <trkpt lat="45.6705" lon="6.64097">
        <ele>1987.1609</ele>
        <time>2015-08-19T12:11:43Z</time>
      </trkpt>
      <trkpt lat="45.67049" lon="6.64092">
        <ele>1985.5798</ele>
        <time>2015-08-19T12:11:48Z</time>
      </trkpt>
      <trkpt lat="45.67049" lon="6.64082">
        <ele>1985.5798</ele>
        <time>2015-08-19T12:11:58Z</time>
      </trkpt>
      <trkpt lat="45.67047" lon="6.64077">
        <ele>1984.3594</ele>
        <time>2015-08-19T12:12:03Z</time>
      </trkpt>
      <trkpt lat="45.67045" lon="6.64067">
        <ele>1984.3594</ele>
        <time>2015-08-19T12:12:13Z</time>
      </trkpt>
      <trkpt lat="45.67044" lon="6.64062">
        <ele>1983.373</ele>
        <time>2015-08-19T12:12:18Z</time>
      </trkpt>
      <trkpt lat="45.67042" lon="6.64049">
        <ele>1982.6332</ele>
        <time>2015-08-19T12:12:33Z</time>
      </trkpt>
      <trkpt lat="45.6704" lon="6.64042">
        <ele>1982.6332</ele>
        <time>2015-08-19T12:12:38Z</time>
      </trkpt>
      <trkpt lat="45.67037" lon="6.64033">
        <ele>1982.0349</ele>
        <time>2015-08-19T12:12:48Z</time>
      </trkpt>
      <trkpt lat="45.67035" lon="6.64027">
        <ele>1982.0349</ele>
        <time>2015-08-19T12:12:53Z</time>
      </trkpt>
      <trkpt lat="45.67038" lon="6.64026">
        <ele>1982.0349</ele>
        <time>2015-08-19T12:13:03Z</time>
      </trkpt>
      <trkpt lat="45.6704" lon="6.64028">
        <ele>1981.6681</ele>
        <time>2015-08-19T12:13:08Z</time>
      </trkpt>
      <trkpt lat="45.67036" lon="6.64026">
        <ele>1981.6681</ele>
        <time>2015-08-19T12:13:18Z</time>
      </trkpt>
      <trkpt lat="45.67035" lon="6.64025">
        <ele>1981.6681</ele>
        <time>2015-08-19T12:13:23Z</time>
      </trkpt>
      <trkpt lat="45.67035" lon="6.64022">
        <ele>1981.6681</ele>
        <time>2015-08-19T12:13:33Z</time>
      </trkpt>
      <trkpt lat="45.67034" lon="6.64016">
        <ele>1981.6726</ele>
        <time>2015-08-19T12:13:38Z</time>
      </trkpt>
      <trkpt lat="45.67027" lon="6.64004">
        <ele>1981.7885</ele>
        <time>2015-08-19T12:13:48Z</time>
      </trkpt>
      <trkpt lat="45.67024" lon="6.64">
        <ele>1981.7885</ele>
        <time>2015-08-19T12:13:53Z</time>
      </trkpt>
      <trkpt lat="45.67018" lon="6.63991">
        <ele>1981.8605</ele>
        <time>2015-08-19T12:14:03Z</time>
      </trkpt>
      <trkpt lat="45.67014" lon="6.63989">
        <ele>1981.8605</ele>
        <time>2015-08-19T12:14:08Z</time>
      </trkpt>
      <trkpt lat="45.67011" lon="6.6398">
        <ele>1981.9613</ele>
        <time>2015-08-19T12:14:18Z</time>
      </trkpt>
      <trkpt lat="45.67009" lon="6.63973">
        <ele>1981.9613</ele>
        <time>2015-08-19T12:14:23Z</time>
      </trkpt>
      <trkpt lat="45.67001" lon="6.63958">
        <ele>1981.8986</ele>
        <time>2015-08-19T12:14:38Z</time>
      </trkpt>
      <trkpt lat="45.66998" lon="6.63954">
        <ele>1981.8986</ele>
        <time>2015-08-19T12:14:43Z</time>
      </trkpt>
      <trkpt lat="45.66991" lon="6.63949">
        <ele>1981.8839</ele>
        <time>2015-08-19T12:14:53Z</time>
      </trkpt>
      <trkpt lat="45.66987" lon="6.63948">
        <ele>1981.8839</ele>
        <time>2015-08-19T12:14:58Z</time>
      </trkpt>
      <trkpt lat="45.66984" lon="6.63943">
        <ele>1981.8839</ele>
        <time>2015-08-19T12:15:08Z</time>
      </trkpt>
      <trkpt lat="45.66981" lon="6.63941">
        <ele>1981.9546</ele>
        <time>2015-08-19T12:15:13Z</time>
      </trkpt>
      <trkpt lat="45.66975" lon="6.63932">
        <ele>1981.9546</ele>
        <time>2015-08-19T12:15:23Z</time>
      </trkpt>
      <trkpt lat="45.66972" lon="6.63931">
        <ele>1982.1306</ele>
        <time>2015-08-19T12:15:28Z</time>
      </trkpt>
      <trkpt lat="45.66965" lon="6.6393">
        <ele>1982.1306</ele>
        <time>2015-08-19T12:15:38Z</time>
      </trkpt>
      <trkpt lat="45.66961" lon="6.63927">
        <ele>1982.2427</ele>
        <time>2015-08-19T12:15:43Z</time>
      </trkpt>
      <trkpt lat="45.66954" lon="6.63924">
        <ele>1982.2427</ele>
        <time>2015-08-19T12:15:53Z</time>
      </trkpt>
      <trkpt lat="45.66951" lon="6.63923">
        <ele>1982.4226</ele>
        <time>2015-08-19T12:15:58Z</time>
      </trkpt>
      <trkpt lat="45.66947" lon="6.6392">
        <ele>1982.4226</ele>
        <time>2015-08-19T12:16:08Z</time>
      </trkpt>
      <trkpt lat="45.66944" lon="6.63918">
        <ele>1982.4226</ele>
        <time>2015-08-19T12:16:13Z</time>
      </trkpt>
      <trkpt lat="45.66938" lon="6.63917">
        <ele>1982.4463</ele>
        <time>2015-08-19T12:16:23Z</time>
      </trkpt>
      <trkpt lat="45.66934" lon="6.63915">
        <ele>1982.4463</ele>
        <time>2015-08-19T12:16:28Z</time>
      </trkpt>
      <trkpt lat="45.66931" lon="6.63913">
        <ele>1982.4463</ele>
        <time>2015-08-19T12:16:38Z</time>
      </trkpt>
      <trkpt lat="45.6693" lon="6.63909">
        <ele>1982.4238</ele>
        <time>2015-08-19T12:16:43Z</time>
      </trkpt>
      <trkpt lat="45.66924" lon="6.63899">
        <ele>1982.4862</ele>
        <time>2015-08-19T12:16:58Z</time>
      </trkpt>
      <trkpt lat="45.66923" lon="6.63897">
        <ele>1982.4862</ele>
        <time>2015-08-19T12:17:03Z</time>
      </trkpt>
      <trkpt lat="45.6692" lon="6.63886">
        <ele>1982.5526</ele>
        <time>2015-08-19T12:17:13Z</time>
      </trkpt>
      <trkpt lat="45.66917" lon="6.63882">
        <ele>1982.5526</ele>
        <time>2015-08-19T12:17:18Z</time>
      </trkpt>
      <trkpt lat="45.66911" lon="6.63872">
        <ele>1982.6781</ele>
        <time>2015-08-19T12:17:28Z</time>
      </trkpt>
      <trkpt lat="45.66909" lon="6.6387">
        <ele>1982.6781</ele>
        <time>2015-08-19T12:17:33Z</time>
      </trkpt>
      <trkpt lat="45.66905" lon="6.6386">
        <ele>1982.8992</ele>
        <time>2015-08-19T12:17:43Z</time>
      </trkpt>
      <trkpt lat="45.66904" lon="6.63856">
        <ele>1982.8992</ele>
        <time>2015-08-19T12:17:48Z</time>
      </trkpt>
      <trkpt lat="45.66903" lon="6.63847">
        <ele>1983.1342</ele>
        <time>2015-08-19T12:17:58Z</time>
      </trkpt>
      <trkpt lat="45.66905" lon="6.63842">
        <ele>1983.1342</ele>
        <time>2015-08-19T12:18:03Z</time>
      </trkpt>
      <trkpt lat="45.66907" lon="6.63834">
        <ele>1983.4802</ele>
        <time>2015-08-19T12:18:13Z</time>
      </trkpt>
      <trkpt lat="45.66905" lon="6.63834">
        <ele>1983.4802</ele>
        <time>2015-08-19T12:18:18Z</time>
      </trkpt>
      <trkpt lat="45.66905" lon="6.63833">
        <ele>1983.4802</ele>
        <time>2015-08-19T12:18:28Z</time>
      </trkpt>
      <trkpt lat="45.66905" lon="6.63833">
        <ele>1983.4802</ele>
        <time>2015-08-19T12:18:33Z</time>
      </trkpt>
      <trkpt lat="45.66902" lon="6.63817">
        <ele>1983.7822</ele>
        <time>2015-08-19T12:18:43Z</time>
      </trkpt>
      <trkpt lat="45.66899" lon="6.63811">
        <ele>1983.7822</ele>
        <time>2015-08-19T12:18:48Z</time>
      </trkpt>
      <trkpt lat="45.6689" lon="6.63799">
        <ele>1984.084</ele>
        <time>2015-08-19T12:18:58Z</time>
      </trkpt>
      <trkpt lat="45.66886" lon="6.63795">
        <ele>1984.084</ele>
        <time>2015-08-19T12:19:03Z</time>
      </trkpt>
      <trkpt lat="45.66877" lon="6.63783">
        <ele>1984.5703</ele>
        <time>2015-08-19T12:19:18Z</time>
      </trkpt>
      <trkpt lat="45.66873" lon="6.63779">
        <ele>1984.5703</ele>
        <time>2015-08-19T12:19:23Z</time>
      </trkpt>
      <trkpt lat="45.66867" lon="6.63767">
        <ele>1985.1093</ele>
        <time>2015-08-19T12:19:33Z</time>
      </trkpt>
      <trkpt lat="45.66865" lon="6.63761">
        <ele>1985.1093</ele>
        <time>2015-08-19T12:19:38Z</time>
      </trkpt>
      <trkpt lat="45.6686" lon="6.6375">
        <ele>1985.5498</ele>
        <time>2015-08-19T12:19:48Z</time>
      </trkpt>
      <trkpt lat="45.66856" lon="6.63743">
        <ele>1985.5498</ele>
        <time>2015-08-19T12:19:53Z</time>
      </trkpt>
      <trkpt lat="45.66851" lon="6.63737">
        <ele>1986.1991</ele>
        <time>2015-08-19T12:20:03Z</time>
      </trkpt>
      <trkpt lat="45.66847" lon="6.63734">
        <ele>1986.1991</ele>
        <time>2015-08-19T12:20:08Z</time>
      </trkpt>
      <trkpt lat="45.66838" lon="6.6373">
        <ele>1987.0239</ele>
        <time>2015-08-19T12:20:18Z</time>
      </trkpt>
      <trkpt lat="45.66832" lon="6.63729">
        <ele>1987.0239</ele>
        <time>2015-08-19T12:20:23Z</time>
      </trkpt>
      <trkpt lat="45.66824" lon="6.63731">
        <ele>1988.1089</ele>
        <time>2015-08-19T12:20:33Z</time>
      </trkpt>
      <trkpt lat="45.66819" lon="6.63734">
        <ele>1988.1089</ele>
        <time>2015-08-19T12:20:38Z</time>
      </trkpt>
      <trkpt lat="45.6681" lon="6.63737">
        <ele>1989.1998</ele>
        <time>2015-08-19T12:20:48Z</time>
      </trkpt>
      <trkpt lat="45.66809" lon="6.63738">
        <ele>1989.1998</ele>
        <time>2015-08-19T12:20:53Z</time>
      </trkpt>
      <trkpt lat="45.6681" lon="6.63723">
        <ele>1990.1193</ele>
        <time>2015-08-19T12:21:08Z</time>
      </trkpt>
      <trkpt lat="45.66809" lon="6.63718">
        <ele>1990.1193</ele>
        <time>2015-08-19T12:21:13Z</time>
      </trkpt>
      <trkpt lat="45.66811" lon="6.63708">
        <ele>1990.7897</ele>
        <time>2015-08-19T12:21:23Z</time>
      </trkpt>
      <trkpt lat="45.66809" lon="6.63704">
        <ele>1990.7897</ele>
        <time>2015-08-19T12:21:28Z</time>
      </trkpt>
      <trkpt lat="45.66802" lon="6.63701">
        <ele>1991.068</ele>
        <time>2015-08-19T12:21:38Z</time>
      </trkpt>
      <trkpt lat="45.66799" lon="6.63699">
        <ele>1991.068</ele>
        <time>2015-08-19T12:21:43Z</time>
      </trkpt>
      <trkpt lat="45.66788" lon="6.63701">
        <ele>1991.0823</ele>
        <time>2015-08-19T12:21:53Z</time>
      </trkpt>
      <trkpt lat="45.66784" lon="6.63701">
        <ele>1991.0823</ele>
        <time>2015-08-19T12:21:58Z</time>
      </trkpt>
      <trkpt lat="45.66778" lon="6.63697">
        <ele>1990.8368</ele>
        <time>2015-08-19T12:22:08Z</time>
      </trkpt>
      <trkpt lat="45.66776" lon="6.63693">
        <ele>1990.8368</ele>
        <time>2015-08-19T12:22:13Z</time>
      </trkpt>
      <trkpt lat="45.66774" lon="6.63688">
        <ele>1990.8368</ele>
        <time>2015-08-19T12:22:23Z</time>
      </trkpt>
      <trkpt lat="45.66774" lon="6.63683">
        <ele>1990.1488</ele>
        <time>2015-08-19T12:22:28Z</time>
      </trkpt>
      <trkpt lat="45.66776" lon="6.63682">
        <ele>1990.1488</ele>
        <time>2015-08-19T12:22:38Z</time>
      </trkpt>
      <trkpt lat="45.66777" lon="6.63683">
        <ele>1990.1488</ele>
        <time>2015-08-19T12:22:43Z</time>
      </trkpt>
      <trkpt lat="45.66774" lon="6.63685">
        <ele>1990.1488</ele>
        <time>2015-08-19T12:22:53Z</time>
      </trkpt>
      <trkpt lat="45.66773" lon="6.63685">
        <ele>1990.1488</ele>
        <time>2015-08-19T12:22:58Z</time>
      </trkpt>
      <trkpt lat="45.66774" lon="6.63683">
        <ele>1990.1488</ele>
        <time>2015-08-19T12:23:08Z</time>
      </trkpt>
      <trkpt lat="45.66773" lon="6.63683">
        <ele>1990.1488</ele>
        <time>2015-08-19T12:23:13Z</time>
      </trkpt>
      <trkpt lat="45.66772" lon="6.63685">
        <ele>1989.0955</ele>
        <time>2015-08-19T12:23:23Z</time>
      </trkpt>
      <trkpt lat="45.66773" lon="6.63685">
        <ele>1989.0955</ele>
        <time>2015-08-19T12:23:28Z</time>
      </trkpt>
      <trkpt lat="45.66772" lon="6.63687">
        <ele>1989.0955</ele>
        <time>2015-08-19T12:23:38Z</time>
      </trkpt>
      <trkpt lat="45.66773" lon="6.6369">
        <ele>1989.0955</ele>
        <time>2015-08-19T12:23:43Z</time>
      </trkpt>
      <trkpt lat="45.66774" lon="6.63691">
        <ele>1989.0955</ele>
        <time>2015-08-19T12:23:48Z</time>
      </trkpt>
      <trkpt lat="45.66775" lon="6.63691">
        <ele>1989.0955</ele>
        <time>2015-08-19T12:23:53Z</time>
      </trkpt>
      <trkpt lat="45.66775" lon="6.6369">
        <ele>1989.0955</ele>
        <time>2015-08-19T12:23:58Z</time>
      </trkpt>
      <trkpt lat="45.66776" lon="6.63688">
        <ele>1989.0955</ele>
        <time>2015-08-19T12:24:03Z</time>
      </trkpt>
      <trkpt lat="45.66775" lon="6.63687">
        <ele>1987.7926</ele>
        <time>2015-08-19T12:24:08Z</time>
      </trkpt>
      <trkpt lat="45.66774" lon="6.63683">
        <ele>1987.7926</ele>
        <time>2015-08-19T12:24:18Z</time>
      </trkpt>
      <trkpt lat="45.66773" lon="6.63682">
        <ele>1987.7926</ele>
        <time>2015-08-19T12:24:23Z</time>
      </trkpt>
      <trkpt lat="45.66773" lon="6.63683">
        <ele>1987.7926</ele>
        <time>2015-08-19T12:24:33Z</time>
      </trkpt>
      <trkpt lat="45.66772" lon="6.63683">
        <ele>1987.7926</ele>
        <time>2015-08-19T12:24:38Z</time>
      </trkpt>
      <trkpt lat="45.66775" lon="6.63684">
        <ele>1986.3771</ele>
        <time>2015-08-19T12:24:48Z</time>
      </trkpt>
      <trkpt lat="45.66775" lon="6.63684">
        <ele>1986.3771</ele>
        <time>2015-08-19T12:24:53Z</time>
      </trkpt>
      <trkpt lat="45.66774" lon="6.63684">
        <ele>1986.3771</ele>
        <time>2015-08-19T12:25:03Z</time>
      </trkpt>
      <trkpt lat="45.66775" lon="6.63683">
        <ele>1986.3771</ele>
        <time>2015-08-19T12:25:08Z</time>
      </trkpt>
      <trkpt lat="45.66775" lon="6.63683">
        <ele>1986.3771</ele>
        <time>2015-08-19T12:25:18Z</time>
      </trkpt>
      <trkpt lat="45.66774" lon="6.63683">
        <ele>1986.3771</ele>
        <time>2015-08-19T12:25:23Z</time>
      </trkpt>
      <trkpt lat="45.66775" lon="6.63683">
        <ele>1986.3771</ele>
        <time>2015-08-19T12:25:33Z</time>
      </trkpt>
      <trkpt lat="45.66775" lon="6.63685">
        <ele>1986.3771</ele>
        <time>2015-08-19T12:25:38Z</time>
      </trkpt>
      <trkpt lat="45.66775" lon="6.63686">
        <ele>1986.3771</ele>
        <time>2015-08-19T12:25:53Z</time>
      </trkpt>
      <trkpt lat="45.66775" lon="6.63686">
        <ele>1986.3771</ele>
        <time>2015-08-19T12:25:58Z</time>
      </trkpt>
      <trkpt lat="45.66775" lon="6.63685">
        <ele>1986.3771</ele>
        <time>2015-08-19T12:26:08Z</time>
      </trkpt>
      <trkpt lat="45.66775" lon="6.63684">
        <ele>1986.3771</ele>
        <time>2015-08-19T12:26:13Z</time>
      </trkpt>
      <trkpt lat="45.66775" lon="6.63683">
        <ele>1986.3771</ele>
        <time>2015-08-19T12:26:23Z</time>
      </trkpt>
      <trkpt lat="45.66775" lon="6.63682">
        <ele>1986.3771</ele>
        <time>2015-08-19T12:26:28Z</time>
      </trkpt>
      <trkpt lat="45.66775" lon="6.63682">
        <ele>1986.3771</ele>
        <time>2015-08-19T12:26:38Z</time>
      </trkpt>
      <trkpt lat="45.66774" lon="6.63681">
        <ele>1986.3771</ele>
        <time>2015-08-19T12:27:43Z</time>
      </trkpt>
      <trkpt lat="45.66774" lon="6.63681">
        <ele>1986.3771</ele>
        <time>2015-08-19T12:27:48Z</time>
      </trkpt>
      <trkpt lat="45.66773" lon="6.63688">
        <ele>1985.1633</ele>
        <time>2015-08-19T12:51:48Z</time>
      </trkpt>
      <trkpt lat="45.66774" lon="6.63692">
        <ele>1985.1633</ele>
        <time>2015-08-19T12:52:03Z</time>
      </trkpt>
      <trkpt lat="45.66774" lon="6.63692">
        <ele>1985.1633</ele>
        <time>2015-08-19T12:52:08Z</time>
      </trkpt>
      <trkpt lat="45.66782" lon="6.63697">
        <ele>1983.9523</ele>
        <time>2015-08-19T12:53:18Z</time>
      </trkpt>
      <trkpt lat="45.66784" lon="6.63699">
        <ele>1983.9523</ele>
        <time>2015-08-19T12:53:23Z</time>
      </trkpt>
      <trkpt lat="45.66785" lon="6.637">
        <ele>1983.9523</ele>
        <time>2015-08-19T12:53:33Z</time>
      </trkpt>
      <trkpt lat="45.66791" lon="6.63711">
        <ele>1982.9343</ele>
        <time>2015-08-19T12:54:08Z</time>
      </trkpt>
      <trkpt lat="45.66794" lon="6.63714">
        <ele>1982.9343</ele>
        <time>2015-08-19T12:54:13Z</time>
      </trkpt>
      <trkpt lat="45.66798" lon="6.63718">
        <ele>1982.9343</ele>
        <time>2015-08-19T12:54:23Z</time>
      </trkpt>
      <trkpt lat="45.66797" lon="6.63717">
        <ele>1982.2417</ele>
        <time>2015-08-19T12:54:28Z</time>
      </trkpt>
      <trkpt lat="45.66797" lon="6.63727">
        <ele>1982.2417</ele>
        <time>2015-08-19T12:54:38Z</time>
      </trkpt>
      <trkpt lat="45.66799" lon="6.63731">
        <ele>1981.5786</ele>
        <time>2015-08-19T12:54:43Z</time>
      </trkpt>
      <trkpt lat="45.66803" lon="6.63735">
        <ele>1981.5786</ele>
        <time>2015-08-19T12:54:53Z</time>
      </trkpt>
      <trkpt lat="45.66804" lon="6.63738">
        <ele>1981.5786</ele>
        <time>2015-08-19T12:54:58Z</time>
      </trkpt>
      <trkpt lat="45.66802" lon="6.63747">
        <ele>1981.247</ele>
        <time>2015-08-19T12:55:08Z</time>
      </trkpt>
      <trkpt lat="45.66797" lon="6.63751">
        <ele>1981.247</ele>
        <time>2015-08-19T12:55:13Z</time>
      </trkpt>
      <trkpt lat="45.66792" lon="6.63762">
        <ele>1981.0646</ele>
        <time>2015-08-19T12:55:23Z</time>
      </trkpt>
      <trkpt lat="45.66788" lon="6.63772">
        <ele>1981.0646</ele>
        <time>2015-08-19T12:55:28Z</time>
      </trkpt>
      <trkpt lat="45.66784" lon="6.63782">
        <ele>1980.9487</ele>
        <time>2015-08-19T12:55:38Z</time>
      </trkpt>
      <trkpt lat="45.66781" lon="6.63787">
        <ele>1980.9487</ele>
        <time>2015-08-19T12:55:43Z</time>
      </trkpt>
      <trkpt lat="45.66774" lon="6.63794">
        <ele>1980.7214</ele>
        <time>2015-08-19T12:55:53Z</time>
      </trkpt>
      <trkpt lat="45.66771" lon="6.63801">
        <ele>1980.7214</ele>
        <time>2015-08-19T12:55:58Z</time>
      </trkpt>
      <trkpt lat="45.66763" lon="6.63798">
        <ele>1980.2904</ele>
        <time>2015-08-19T12:56:13Z</time>
      </trkpt>
      <trkpt lat="45.66758" lon="6.63797">
        <ele>1980.2904</ele>
        <time>2015-08-19T12:56:18Z</time>
      </trkpt>
      <trkpt lat="45.66755" lon="6.63809">
        <ele>1979.5276</ele>
        <time>2015-08-19T12:56:28Z</time>
      </trkpt>
      <trkpt lat="45.66751" lon="6.63812">
        <ele>1979.5276</ele>
        <time>2015-08-19T12:56:33Z</time>
      </trkpt>
      <trkpt lat="45.66744" lon="6.63801">
        <ele>1978.5742</ele>
        <time>2015-08-19T12:56:43Z</time>
      </trkpt>
      <trkpt lat="45.66739" lon="6.63797">
        <ele>1978.5742</ele>
        <time>2015-08-19T12:56:48Z</time>
      </trkpt>
      <trkpt lat="45.66732" lon="6.63793">
        <ele>1977.5908</ele>
        <time>2015-08-19T12:56:58Z</time>
      </trkpt>
      <trkpt lat="45.66728" lon="6.63795">
        <ele>1977.5908</ele>
        <time>2015-08-19T12:57:03Z</time>
      </trkpt>
      <trkpt lat="45.66718" lon="6.63795">
        <ele>1976.3513</ele>
        <time>2015-08-19T12:57:13Z</time>
      </trkpt>
      <trkpt lat="45.66712" lon="6.63796">
        <ele>1976.3513</ele>
        <time>2015-08-19T12:57:18Z</time>
      </trkpt>
      <trkpt lat="45.66703" lon="6.63799">
        <ele>1974.9066</ele>
        <time>2015-08-19T12:57:28Z</time>
      </trkpt>
      <trkpt lat="45.667" lon="6.638">
        <ele>1974.9066</ele>
        <time>2015-08-19T12:57:33Z</time>
      </trkpt>
      <trkpt lat="45.66693" lon="6.63802">
        <ele>1973.2898</ele>
        <time>2015-08-19T12:57:43Z</time>
      </trkpt>
      <trkpt lat="45.66694" lon="6.63808">
        <ele>1973.2898</ele>
        <time>2015-08-19T12:57:48Z</time>
      </trkpt>
      <trkpt lat="45.6669" lon="6.63813">
        <ele>1971.4742</ele>
        <time>2015-08-19T12:57:58Z</time>
      </trkpt>
      <trkpt lat="45.66686" lon="6.63813">
        <ele>1971.4742</ele>
        <time>2015-08-19T12:58:03Z</time>
      </trkpt>
      <trkpt lat="45.66671" lon="6.63817">
        <ele>1969.4647</ele>
        <time>2015-08-19T12:58:18Z</time>
      </trkpt>
      <trkpt lat="45.66667" lon="6.6382">
        <ele>1969.4647</ele>
        <time>2015-08-19T12:58:23Z</time>
      </trkpt>
      <trkpt lat="45.66659" lon="6.6383">
        <ele>1967.396</ele>
        <time>2015-08-19T12:58:33Z</time>
      </trkpt>
      <trkpt lat="45.66656" lon="6.63834">
        <ele>1967.396</ele>
        <time>2015-08-19T12:58:38Z</time>
      </trkpt>
      <trkpt lat="45.6665" lon="6.6383">
        <ele>1965.234</ele>
        <time>2015-08-19T12:58:48Z</time>
      </trkpt>
      <trkpt lat="45.66648" lon="6.63829">
        <ele>1965.234</ele>
        <time>2015-08-19T12:58:53Z</time>
      </trkpt>
      <trkpt lat="45.66641" lon="6.63813">
        <ele>1963.0778</ele>
        <time>2015-08-19T12:59:03Z</time>
      </trkpt>
      <trkpt lat="45.66637" lon="6.63802">
        <ele>1963.0778</ele>
        <time>2015-08-19T12:59:08Z</time>
      </trkpt>
      <trkpt lat="45.66638" lon="6.63788">
        <ele>1961.0327</ele>
        <time>2015-08-19T12:59:18Z</time>
      </trkpt>
      <trkpt lat="45.66637" lon="6.63781">
        <ele>1961.0327</ele>
        <time>2015-08-19T12:59:23Z</time>
      </trkpt>
      <trkpt lat="45.66637" lon="6.63766">
        <ele>1959.1676</ele>
        <time>2015-08-19T12:59:33Z</time>
      </trkpt>
      <trkpt lat="45.66638" lon="6.6376">
        <ele>1959.1676</ele>
        <time>2015-08-19T12:59:38Z</time>
      </trkpt>
      <trkpt lat="45.66641" lon="6.63747">
        <ele>1957.4446</ele>
        <time>2015-08-19T12:59:48Z</time>
      </trkpt>
      <trkpt lat="45.66642" lon="6.63741">
        <ele>1957.4446</ele>
        <time>2015-08-19T12:59:53Z</time>
      </trkpt>
      <trkpt lat="45.66641" lon="6.63727">
        <ele>1955.6553</ele>
        <time>2015-08-19T13:00:03Z</time>
      </trkpt>
      <trkpt lat="45.66643" lon="6.6372">
        <ele>1955.6553</ele>
        <time>2015-08-19T13:00:08Z</time>
      </trkpt>
      <trkpt lat="45.66645" lon="6.63714">
        <ele>1953.6208</ele>
        <time>2015-08-19T13:00:18Z</time>
      </trkpt>
      <trkpt lat="45.66645" lon="6.63713">
        <ele>1953.6208</ele>
        <time>2015-08-19T13:00:23Z</time>
      </trkpt>
      <trkpt lat="45.66645" lon="6.63707">
        <ele>1953.6208</ele>
        <time>2015-08-19T13:00:38Z</time>
      </trkpt>
      <trkpt lat="45.66642" lon="6.63706">
        <ele>1953.6208</ele>
        <time>2015-08-19T13:00:43Z</time>
      </trkpt>
      <trkpt lat="45.6664" lon="6.63703">
        <ele>1950.7007</ele>
        <time>2015-08-19T13:00:53Z</time>
      </trkpt>
      <trkpt lat="45.66642" lon="6.637">
        <ele>1950.7007</ele>
        <time>2015-08-19T13:00:58Z</time>
      </trkpt>
      <trkpt lat="45.66645" lon="6.63695">
        <ele>1950.7007</ele>
        <time>2015-08-19T13:01:08Z</time>
      </trkpt>
      <trkpt lat="45.66646" lon="6.6369">
        <ele>1947.6584</ele>
        <time>2015-08-19T13:01:13Z</time>
      </trkpt>
      <trkpt lat="45.66644" lon="6.63683">
        <ele>1947.6584</ele>
        <time>2015-08-19T13:01:23Z</time>
      </trkpt>
      <trkpt lat="45.66642" lon="6.6368">
        <ele>1947.6584</ele>
        <time>2015-08-19T13:01:28Z</time>
      </trkpt>
      <trkpt lat="45.6664" lon="6.63671">
        <ele>1944.3801</ele>
        <time>2015-08-19T13:01:38Z</time>
      </trkpt>
      <trkpt lat="45.6664" lon="6.63668">
        <ele>1944.3801</ele>
        <time>2015-08-19T13:01:43Z</time>
      </trkpt>
      <trkpt lat="45.6664" lon="6.63662">
        <ele>1944.3801</ele>
        <time>2015-08-19T13:01:53Z</time>
      </trkpt>
      <trkpt lat="45.66639" lon="6.6366">
        <ele>1944.3801</ele>
        <time>2015-08-19T13:01:58Z</time>
      </trkpt>
      <trkpt lat="45.66632" lon="6.63673">
        <ele>1940.5735</ele>
        <time>2015-08-19T13:02:13Z</time>
      </trkpt>
      <trkpt lat="45.6663" lon="6.6368">
        <ele>1940.5735</ele>
        <time>2015-08-19T13:02:18Z</time>
      </trkpt>
      <trkpt lat="45.66625" lon="6.63695">
        <ele>1936.805</ele>
        <time>2015-08-19T13:02:28Z</time>
      </trkpt>
      <trkpt lat="45.66622" lon="6.63699">
        <ele>1936.805</ele>
        <time>2015-08-19T13:02:33Z</time>
      </trkpt>
      <trkpt lat="45.66615" lon="6.63712">
        <ele>1933.0946</ele>
        <time>2015-08-19T13:02:43Z</time>
      </trkpt>
      <trkpt lat="45.66612" lon="6.63718">
        <ele>1933.0946</ele>
        <time>2015-08-19T13:02:48Z</time>
      </trkpt>
      <trkpt lat="45.66604" lon="6.6373">
        <ele>1929.6191</ele>
        <time>2015-08-19T13:02:58Z</time>
      </trkpt>
      <trkpt lat="45.66599" lon="6.63733">
        <ele>1929.6191</ele>
        <time>2015-08-19T13:03:03Z</time>
      </trkpt>
      <trkpt lat="45.66589" lon="6.63732">
        <ele>1926.2389</ele>
        <time>2015-08-19T13:03:13Z</time>
      </trkpt>
      <trkpt lat="45.66583" lon="6.63731">
        <ele>1926.2389</ele>
        <time>2015-08-19T13:03:18Z</time>
      </trkpt>
      <trkpt lat="45.66573" lon="6.63721">
        <ele>1923.1554</ele>
        <time>2015-08-19T13:03:28Z</time>
      </trkpt>
      <trkpt lat="45.66569" lon="6.63715">
        <ele>1923.1554</ele>
        <time>2015-08-19T13:03:33Z</time>
      </trkpt>
      <trkpt lat="45.66563" lon="6.63702">
        <ele>1920.4825</ele>
        <time>2015-08-19T13:03:43Z</time>
      </trkpt>
      <trkpt lat="45.66558" lon="6.63698">
        <ele>1920.4825</ele>
        <time>2015-08-19T13:03:48Z</time>
      </trkpt>
      <trkpt lat="45.66548" lon="6.6369">
        <ele>1918.0358</ele>
        <time>2015-08-19T13:03:58Z</time>
      </trkpt>
      <trkpt lat="45.66544" lon="6.63687">
        <ele>1918.0358</ele>
        <time>2015-08-19T13:04:03Z</time>
      </trkpt>
      <trkpt lat="45.66535" lon="6.63682">
        <ele>1915.6293</ele>
        <time>2015-08-19T13:04:13Z</time>
      </trkpt>
      <trkpt lat="45.6653" lon="6.63678">
        <ele>1915.6293</ele>
        <time>2015-08-19T13:04:18Z</time>
      </trkpt>
      <trkpt lat="45.66518" lon="6.63679">
        <ele>1913.0615</ele>
        <time>2015-08-19T13:04:28Z</time>
      </trkpt>
      <trkpt lat="45.66513" lon="6.63681">
        <ele>1913.0615</ele>
        <time>2015-08-19T13:04:33Z</time>
      </trkpt>
      <trkpt lat="45.66504" lon="6.63689">
        <ele>1910.449</ele>
        <time>2015-08-19T13:04:43Z</time>
      </trkpt>
      <trkpt lat="45.665" lon="6.63689">
        <ele>1910.449</ele>
        <time>2015-08-19T13:04:48Z</time>
      </trkpt>
      <trkpt lat="45.66504" lon="6.63666">
        <ele>1907.9999</ele>
        <time>2015-08-19T13:05:03Z</time>
      </trkpt>
      <trkpt lat="45.66507" lon="6.63659">
        <ele>1907.9999</ele>
        <time>2015-08-19T13:05:08Z</time>
      </trkpt>
      <trkpt lat="45.66506" lon="6.63646">
        <ele>1905.5466</ele>
        <time>2015-08-19T13:05:18Z</time>
      </trkpt>
      <trkpt lat="45.66501" lon="6.63645">
        <ele>1905.5466</ele>
        <time>2015-08-19T13:05:23Z</time>
      </trkpt>
      <trkpt lat="45.66493" lon="6.63655">
        <ele>1903.0778</ele>
        <time>2015-08-19T13:05:33Z</time>
      </trkpt>
      <trkpt lat="45.66489" lon="6.6366">
        <ele>1903.0778</ele>
        <time>2015-08-19T13:05:38Z</time>
      </trkpt>
      <trkpt lat="45.66482" lon="6.63669">
        <ele>1900.6113</ele>
        <time>2015-08-19T13:05:48Z</time>
      </trkpt>
      <trkpt lat="45.66478" lon="6.63674">
        <ele>1900.6113</ele>
        <time>2015-08-19T13:05:53Z</time>
      </trkpt>
      <trkpt lat="45.66472" lon="6.63661">
        <ele>1898.2793</ele>
        <time>2015-08-19T13:06:03Z</time>
      </trkpt>
      <trkpt lat="45.66475" lon="6.63654">
        <ele>1898.2793</ele>
        <time>2015-08-19T13:06:08Z</time>
      </trkpt>
      <trkpt lat="45.6648" lon="6.6364">
        <ele>1896.0159</ele>
        <time>2015-08-19T13:06:18Z</time>
      </trkpt>
      <trkpt lat="45.66481" lon="6.63635">
        <ele>1896.0159</ele>
        <time>2015-08-19T13:06:23Z</time>
      </trkpt>
      <trkpt lat="45.66487" lon="6.63623">
        <ele>1893.6732</ele>
        <time>2015-08-19T13:06:33Z</time>
      </trkpt>
      <trkpt lat="45.6649" lon="6.63617">
        <ele>1893.6732</ele>
        <time>2015-08-19T13:06:38Z</time>
      </trkpt>
      <trkpt lat="45.66495" lon="6.63606">
        <ele>1891.0715</ele>
        <time>2015-08-19T13:06:48Z</time>
      </trkpt>
      <trkpt lat="45.66499" lon="6.636">
        <ele>1891.0715</ele>
        <time>2015-08-19T13:06:53Z</time>
      </trkpt>
      <trkpt lat="45.66508" lon="6.63594">
        <ele>1888.4193</ele>
        <time>2015-08-19T13:07:03Z</time>
      </trkpt>
      <trkpt lat="45.66511" lon="6.63587">
        <ele>1888.4193</ele>
        <time>2015-08-19T13:07:08Z</time>
      </trkpt>
      <trkpt lat="45.66505" lon="6.63578">
        <ele>1885.924</ele>
        <time>2015-08-19T13:07:18Z</time>
      </trkpt>
      <trkpt lat="45.665" lon="6.63583">
        <ele>1885.924</ele>
        <time>2015-08-19T13:07:23Z</time>
      </trkpt>
      <trkpt lat="45.66489" lon="6.63584">
        <ele>1883.5323</ele>
        <time>2015-08-19T13:07:33Z</time>
      </trkpt>
      <trkpt lat="45.66483" lon="6.63582">
        <ele>1883.5323</ele>
        <time>2015-08-19T13:07:38Z</time>
      </trkpt>
      <trkpt lat="45.66474" lon="6.6358">
        <ele>1881.2092</ele>
        <time>2015-08-19T13:07:48Z</time>
      </trkpt>
      <trkpt lat="45.66468" lon="6.63584">
        <ele>1881.2092</ele>
        <time>2015-08-19T13:07:53Z</time>
      </trkpt>
      <trkpt lat="45.6646" lon="6.63603">
        <ele>1878.7916</ele>
        <time>2015-08-19T13:08:08Z</time>
      </trkpt>
      <trkpt lat="45.66458" lon="6.6361">
        <ele>1878.7916</ele>
        <time>2015-08-19T13:08:13Z</time>
      </trkpt>
      <trkpt lat="45.66452" lon="6.63626">
        <ele>1876.4607</ele>
        <time>2015-08-19T13:08:23Z</time>
      </trkpt>
      <trkpt lat="45.6645" lon="6.63632">
        <ele>1876.4607</ele>
        <time>2015-08-19T13:08:28Z</time>
      </trkpt>
      <trkpt lat="45.6644" lon="6.63639">
        <ele>1874.2537</ele>
        <time>2015-08-19T13:08:38Z</time>
      </trkpt>
      <trkpt lat="45.66436" lon="6.63641">
        <ele>1874.2537</ele>
        <time>2015-08-19T13:08:43Z</time>
      </trkpt>
      <trkpt lat="45.66426" lon="6.63645">
        <ele>1872.0896</ele>
        <time>2015-08-19T13:08:53Z</time>
      </trkpt>
      <trkpt lat="45.66421" lon="6.63648">
        <ele>1872.0896</ele>
        <time>2015-08-19T13:08:58Z</time>
      </trkpt>
      <trkpt lat="45.6641" lon="6.63653">
        <ele>1869.922</ele>
        <time>2015-08-19T13:09:08Z</time>
      </trkpt>
      <trkpt lat="45.66405" lon="6.63657">
        <ele>1869.922</ele>
        <time>2015-08-19T13:09:13Z</time>
      </trkpt>
      <trkpt lat="45.66397" lon="6.63668">
        <ele>1867.7655</ele>
        <time>2015-08-19T13:09:23Z</time>
      </trkpt>
      <trkpt lat="45.66393" lon="6.63672">
        <ele>1867.7655</ele>
        <time>2015-08-19T13:09:28Z</time>
      </trkpt>
      <trkpt lat="45.66382" lon="6.63679">
        <ele>1865.6912</ele>
        <time>2015-08-19T13:09:38Z</time>
      </trkpt>
      <trkpt lat="45.66377" lon="6.63683">
        <ele>1865.6912</ele>
        <time>2015-08-19T13:09:43Z</time>
      </trkpt>
      <trkpt lat="45.66367" lon="6.63688">
        <ele>1863.6921</ele>
        <time>2015-08-19T13:09:53Z</time>
      </trkpt>
      <trkpt lat="45.66362" lon="6.63691">
        <ele>1863.6921</ele>
        <time>2015-08-19T13:09:58Z</time>
      </trkpt>
      <trkpt lat="45.66352" lon="6.63699">
        <ele>1861.7766</ele>
        <time>2015-08-19T13:10:08Z</time>
      </trkpt>
      <trkpt lat="45.66347" lon="6.63703">
        <ele>1861.7766</ele>
        <time>2015-08-19T13:10:13Z</time>
      </trkpt>
      <trkpt lat="45.66338" lon="6.63711">
        <ele>1859.9518</ele>
        <time>2015-08-19T13:10:23Z</time>
      </trkpt>
      <trkpt lat="45.66334" lon="6.63717">
        <ele>1859.9518</ele>
        <time>2015-08-19T13:10:28Z</time>
      </trkpt>
      <trkpt lat="45.66326" lon="6.63728">
        <ele>1858.1376</ele>
        <time>2015-08-19T13:10:38Z</time>
      </trkpt>
      <trkpt lat="45.66321" lon="6.63731">
        <ele>1858.1376</ele>
        <time>2015-08-19T13:10:43Z</time>
      </trkpt>
      <trkpt lat="45.66311" lon="6.63741">
        <ele>1856.4756</ele>
        <time>2015-08-19T13:10:53Z</time>
      </trkpt>
      <trkpt lat="45.66308" lon="6.63743">
        <ele>1856.4756</ele>
        <time>2015-08-19T13:10:58Z</time>
      </trkpt>
      <trkpt lat="45.66296" lon="6.63754">
        <ele>1854.8663</ele>
        <time>2015-08-19T13:11:13Z</time>
      </trkpt>
      <trkpt lat="45.66291" lon="6.63758">
        <ele>1854.8663</ele>
        <time>2015-08-19T13:11:18Z</time>
      </trkpt>
      <trkpt lat="45.66282" lon="6.63766">
        <ele>1853.2318</ele>
        <time>2015-08-19T13:11:28Z</time>
      </trkpt>
      <trkpt lat="45.66279" lon="6.63761">
        <ele>1853.2318</ele>
        <time>2015-08-19T13:11:33Z</time>
      </trkpt>
      <trkpt lat="45.66282" lon="6.63746">
        <ele>1851.6726</ele>
        <time>2015-08-19T13:11:43Z</time>
      </trkpt>
      <trkpt lat="45.66283" lon="6.63748">
        <ele>1851.6726</ele>
        <time>2015-08-19T13:11:48Z</time>
      </trkpt>
      <trkpt lat="45.66282" lon="6.63752">
        <ele>1851.6726</ele>
        <time>2015-08-19T13:11:58Z</time>
      </trkpt>
      <trkpt lat="45.6628" lon="6.63753">
        <ele>1851.6726</ele>
        <time>2015-08-19T13:12:03Z</time>
      </trkpt>
      <trkpt lat="45.66275" lon="6.63754">
        <ele>1849.9646</ele>
        <time>2015-08-19T13:12:13Z</time>
      </trkpt>
      <trkpt lat="45.66275" lon="6.63754">
        <ele>1849.9646</ele>
        <time>2015-08-19T13:12:18Z</time>
      </trkpt>
      <trkpt lat="45.66281" lon="6.63747">
        <ele>1849.9646</ele>
        <time>2015-08-19T13:12:28Z</time>
      </trkpt>
      <trkpt lat="45.66285" lon="6.63744">
        <ele>1848.4053</ele>
        <time>2015-08-19T13:12:33Z</time>
      </trkpt>
      <trkpt lat="45.66288" lon="6.63729">
        <ele>1847.0966</ele>
        <time>2015-08-19T13:12:43Z</time>
      </trkpt>
      <trkpt lat="45.6629" lon="6.63721">
        <ele>1847.0966</ele>
        <time>2015-08-19T13:12:48Z</time>
      </trkpt>
      <trkpt lat="45.66291" lon="6.63709">
        <ele>1845.8875</ele>
        <time>2015-08-19T13:12:58Z</time>
      </trkpt>
      <trkpt lat="45.66291" lon="6.63711">
        <ele>1845.8875</ele>
        <time>2015-08-19T13:13:03Z</time>
      </trkpt>
      <trkpt lat="45.66293" lon="6.63712">
        <ele>1845.8875</ele>
        <time>2015-08-19T13:13:18Z</time>
      </trkpt>
      <trkpt lat="45.66293" lon="6.63711">
        <ele>1845.8875</ele>
        <time>2015-08-19T13:13:23Z</time>
      </trkpt>
      <trkpt lat="45.66298" lon="6.63701">
        <ele>1844.479</ele>
        <time>2015-08-19T13:13:33Z</time>
      </trkpt>
      <trkpt lat="45.663" lon="6.63697">
        <ele>1844.479</ele>
        <time>2015-08-19T13:13:38Z</time>
      </trkpt>
      <trkpt lat="45.66303" lon="6.63686">
        <ele>1843.186</ele>
        <time>2015-08-19T13:13:48Z</time>
      </trkpt>
      <trkpt lat="45.66299" lon="6.63679">
        <ele>1843.186</ele>
        <time>2015-08-19T13:13:53Z</time>
      </trkpt>
      <trkpt lat="45.6629" lon="6.63681">
        <ele>1841.9392</ele>
        <time>2015-08-19T13:14:03Z</time>
      </trkpt>
      <trkpt lat="45.66286" lon="6.63683">
        <ele>1841.9392</ele>
        <time>2015-08-19T13:14:08Z</time>
      </trkpt>
      <trkpt lat="45.66276" lon="6.63684">
        <ele>1840.5593</ele>
        <time>2015-08-19T13:14:18Z</time>
      </trkpt>
      <trkpt lat="45.66271" lon="6.63686">
        <ele>1840.5593</ele>
        <time>2015-08-19T13:14:23Z</time>
      </trkpt>
      <trkpt lat="45.66264" lon="6.63689">
        <ele>1839.0247</ele>
        <time>2015-08-19T13:14:33Z</time>
      </trkpt>
      <trkpt lat="45.66258" lon="6.63693">
        <ele>1839.0247</ele>
        <time>2015-08-19T13:14:38Z</time>
      </trkpt>
      <trkpt lat="45.6625" lon="6.63702">
        <ele>1837.3444</ele>
        <time>2015-08-19T13:14:48Z</time>
      </trkpt>
      <trkpt lat="45.66247" lon="6.63707">
        <ele>1837.3444</ele>
        <time>2015-08-19T13:14:53Z</time>
      </trkpt>
      <trkpt lat="45.66239" lon="6.6372">
        <ele>1835.3546</ele>
        <time>2015-08-19T13:15:08Z</time>
      </trkpt>
      <trkpt lat="45.66236" lon="6.63727">
        <ele>1835.3546</ele>
        <time>2015-08-19T13:15:13Z</time>
      </trkpt>
      <trkpt lat="45.66232" lon="6.6374">
        <ele>1833.3223</ele>
        <time>2015-08-19T13:15:23Z</time>
      </trkpt>
      <trkpt lat="45.66228" lon="6.63747">
        <ele>1833.3223</ele>
        <time>2015-08-19T13:15:28Z</time>
      </trkpt>
      <trkpt lat="45.66221" lon="6.63757">
        <ele>1831.3076</ele>
        <time>2015-08-19T13:15:38Z</time>
      </trkpt>
      <trkpt lat="45.66218" lon="6.63761">
        <ele>1831.3076</ele>
        <time>2015-08-19T13:15:43Z</time>
      </trkpt>
      <trkpt lat="45.66211" lon="6.63768">
        <ele>1829.2222</ele>
        <time>2015-08-19T13:15:53Z</time>
      </trkpt>
      <trkpt lat="45.66212" lon="6.63769">
        <ele>1829.2222</ele>
        <time>2015-08-19T13:15:58Z</time>
      </trkpt>
      <trkpt lat="45.6621" lon="6.63769">
        <ele>1829.2222</ele>
        <time>2015-08-19T13:16:08Z</time>
      </trkpt>
      <trkpt lat="45.66207" lon="6.63766">
        <ele>1829.2222</ele>
        <time>2015-08-19T13:16:13Z</time>
      </trkpt>
      <trkpt lat="45.66201" lon="6.63769">
        <ele>1827.0132</ele>
        <time>2015-08-19T13:16:23Z</time>
      </trkpt>
      <trkpt lat="45.66199" lon="6.63773">
        <ele>1827.0132</ele>
        <time>2015-08-19T13:16:28Z</time>
      </trkpt>
      <trkpt lat="45.6619" lon="6.63782">
        <ele>1824.7332</ele>
        <time>2015-08-19T13:16:38Z</time>
      </trkpt>
      <trkpt lat="45.66186" lon="6.63786">
        <ele>1824.7332</ele>
        <time>2015-08-19T13:16:43Z</time>
      </trkpt>
      <trkpt lat="45.66176" lon="6.63795">
        <ele>1822.3872</ele>
        <time>2015-08-19T13:16:53Z</time>
      </trkpt>
      <trkpt lat="45.66172" lon="6.63799">
        <ele>1822.3872</ele>
        <time>2015-08-19T13:16:58Z</time>
      </trkpt>
      <trkpt lat="45.66159" lon="6.63816">
        <ele>1819.9811</ele>
        <time>2015-08-19T13:17:13Z</time>
      </trkpt>
      <trkpt lat="45.66159" lon="6.63826">
        <ele>1819.9811</ele>
        <time>2015-08-19T13:17:18Z</time>
      </trkpt>
      <trkpt lat="45.6616" lon="6.6384">
        <ele>1817.7502</ele>
        <time>2015-08-19T13:17:28Z</time>
      </trkpt>
      <trkpt lat="45.66159" lon="6.63846">
        <ele>1817.7502</ele>
        <time>2015-08-19T13:17:33Z</time>
      </trkpt>
      <trkpt lat="45.66153" lon="6.63855">
        <ele>1815.4948</ele>
        <time>2015-08-19T13:17:43Z</time>
      </trkpt>
      <trkpt lat="45.66152" lon="6.63865">
        <ele>1815.4948</ele>
        <time>2015-08-19T13:17:48Z</time>
      </trkpt>
      <trkpt lat="45.66151" lon="6.63876">
        <ele>1813.4763</ele>
        <time>2015-08-19T13:17:58Z</time>
      </trkpt>
      <trkpt lat="45.66149" lon="6.63881">
        <ele>1813.4763</ele>
        <time>2015-08-19T13:18:03Z</time>
      </trkpt>
      <trkpt lat="45.66145" lon="6.63887">
        <ele>1811.677</ele>
        <time>2015-08-19T13:18:13Z</time>
      </trkpt>
      <trkpt lat="45.66142" lon="6.63885">
        <ele>1811.677</ele>
        <time>2015-08-19T13:18:18Z</time>
      </trkpt>
      <trkpt lat="45.66133" lon="6.63873">
        <ele>1810.0078</ele>
        <time>2015-08-19T13:18:28Z</time>
      </trkpt>
      <trkpt lat="45.6613" lon="6.63871">
        <ele>1810.0078</ele>
        <time>2015-08-19T13:18:33Z</time>
      </trkpt>
      <trkpt lat="45.6613" lon="6.63871">
        <ele>1810.0078</ele>
        <time>2015-08-19T13:18:43Z</time>
      </trkpt>
      <trkpt lat="45.6613" lon="6.6387">
        <ele>1810.0078</ele>
        <time>2015-08-19T13:18:48Z</time>
      </trkpt>
      <trkpt lat="45.66129" lon="6.63874">
        <ele>1810.0078</ele>
        <time>2015-08-19T13:18:58Z</time>
      </trkpt>
      <trkpt lat="45.66128" lon="6.63875">
        <ele>1810.0078</ele>
        <time>2015-08-19T13:19:03Z</time>
      </trkpt>
      <trkpt lat="45.66128" lon="6.63875">
        <ele>1810.0078</ele>
        <time>2015-08-19T13:19:18Z</time>
      </trkpt>
      <trkpt lat="45.66122" lon="6.63879">
        <ele>1808.5588</ele>
        <time>2015-08-19T13:19:48Z</time>
      </trkpt>
      <trkpt lat="45.66121" lon="6.63883">
        <ele>1808.5588</ele>
        <time>2015-08-19T13:19:53Z</time>
      </trkpt>
      <trkpt lat="45.66118" lon="6.63883">
        <ele>1808.5588</ele>
        <time>2015-08-19T13:20:03Z</time>
      </trkpt>
      <trkpt lat="45.66113" lon="6.63882">
        <ele>1807.2113</ele>
        <time>2015-08-19T13:20:08Z</time>
      </trkpt>
      <trkpt lat="45.6611" lon="6.63882">
        <ele>1807.2113</ele>
        <time>2015-08-19T13:20:18Z</time>
      </trkpt>
      <trkpt lat="45.66108" lon="6.63885">
        <ele>1807.2113</ele>
        <time>2015-08-19T13:20:23Z</time>
      </trkpt>
      <trkpt lat="45.66101" lon="6.63889">
        <ele>1805.7683</ele>
        <time>2015-08-19T13:20:33Z</time>
      </trkpt>
      <trkpt lat="45.66097" lon="6.63892">
        <ele>1805.7683</ele>
        <time>2015-08-19T13:20:38Z</time>
      </trkpt>
      <trkpt lat="45.66093" lon="6.63897">
        <ele>1804.4366</ele>
        <time>2015-08-19T13:20:53Z</time>
      </trkpt>
      <trkpt lat="45.6609" lon="6.63898">
        <ele>1804.4366</ele>
        <time>2015-08-19T13:20:58Z</time>
      </trkpt>
      <trkpt lat="45.66084" lon="6.63902">
        <ele>1803.2063</ele>
        <time>2015-08-19T13:21:08Z</time>
      </trkpt>
      <trkpt lat="45.66083" lon="6.63902">
        <ele>1803.2063</ele>
        <time>2015-08-19T13:21:13Z</time>
      </trkpt>
      <trkpt lat="45.66072" lon="6.63907">
        <ele>1802.0674</ele>
        <time>2015-08-19T13:21:23Z</time>
      </trkpt>
      <trkpt lat="45.66071" lon="6.63908">
        <ele>1802.0674</ele>
        <time>2015-08-19T13:21:28Z</time>
      </trkpt>
      <trkpt lat="45.6606" lon="6.63909">
        <ele>1801.0397</ele>
        <time>2015-08-19T13:21:38Z</time>
      </trkpt>
      <trkpt lat="45.66055" lon="6.63911">
        <ele>1801.0397</ele>
        <time>2015-08-19T13:21:43Z</time>
      </trkpt>
      <trkpt lat="45.66045" lon="6.63911">
        <ele>1800.0687</ele>
        <time>2015-08-19T13:21:53Z</time>
      </trkpt>
      <trkpt lat="45.66041" lon="6.63911">
        <ele>1800.0687</ele>
        <time>2015-08-19T13:21:58Z</time>
      </trkpt>
      <trkpt lat="45.66035" lon="6.63911">
        <ele>1799.0035</ele>
        <time>2015-08-19T13:22:08Z</time>
      </trkpt>
      <trkpt lat="45.66031" lon="6.63912">
        <ele>1799.0035</ele>
        <time>2015-08-19T13:22:13Z</time>
      </trkpt>
      <trkpt lat="45.6602" lon="6.63915">
        <ele>1797.9061</ele>
        <time>2015-08-19T13:22:23Z</time>
      </trkpt>
      <trkpt lat="45.66015" lon="6.63913">
        <ele>1797.9061</ele>
        <time>2015-08-19T13:22:28Z</time>
      </trkpt>
      <trkpt lat="45.66005" lon="6.6391">
        <ele>1796.9204</ele>
        <time>2015-08-19T13:22:38Z</time>
      </trkpt>
      <trkpt lat="45.66" lon="6.6391">
        <ele>1796.9204</ele>
        <time>2015-08-19T13:22:43Z</time>
      </trkpt>
      <trkpt lat="45.65993" lon="6.63913">
        <ele>1796.0356</ele>
        <time>2015-08-19T13:22:53Z</time>
      </trkpt>
      <trkpt lat="45.65988" lon="6.63913">
        <ele>1796.0356</ele>
        <time>2015-08-19T13:22:58Z</time>
      </trkpt>
      <trkpt lat="45.65975" lon="6.6391">
        <ele>1795.2128</ele>
        <time>2015-08-19T13:23:13Z</time>
      </trkpt>
      <trkpt lat="45.6597" lon="6.63908">
        <ele>1795.2128</ele>
        <time>2015-08-19T13:23:18Z</time>
      </trkpt>
      <trkpt lat="45.65959" lon="6.63906">
        <ele>1794.5017</ele>
        <time>2015-08-19T13:23:28Z</time>
      </trkpt>
      <trkpt lat="45.65954" lon="6.63903">
        <ele>1794.5017</ele>
        <time>2015-08-19T13:23:33Z</time>
      </trkpt>
      <trkpt lat="45.65948" lon="6.6391">
        <ele>1793.8335</ele>
        <time>2015-08-19T13:23:43Z</time>
      </trkpt>
      <trkpt lat="45.65943" lon="6.63913">
        <ele>1793.8335</ele>
        <time>2015-08-19T13:23:48Z</time>
      </trkpt>
      <trkpt lat="45.65937" lon="6.63918">
        <ele>1793.1584</ele>
        <time>2015-08-19T13:23:58Z</time>
      </trkpt>
      <trkpt lat="45.65934" lon="6.63921">
        <ele>1793.1584</ele>
        <time>2015-08-19T13:24:03Z</time>
      </trkpt>
      <trkpt lat="45.65924" lon="6.63921">
        <ele>1792.6901</ele>
        <time>2015-08-19T13:24:13Z</time>
      </trkpt>
      <trkpt lat="45.6592" lon="6.63921">
        <ele>1792.6901</ele>
        <time>2015-08-19T13:24:18Z</time>
      </trkpt>
      <trkpt lat="45.6591" lon="6.63918">
        <ele>1792.4095</ele>
        <time>2015-08-19T13:24:28Z</time>
      </trkpt>
      <trkpt lat="45.65906" lon="6.63916">
        <ele>1792.4095</ele>
        <time>2015-08-19T13:24:33Z</time>
      </trkpt>
      <trkpt lat="45.65894" lon="6.63922">
        <ele>1792.1549</ele>
        <time>2015-08-19T13:24:48Z</time>
      </trkpt>
      <trkpt lat="45.65893" lon="6.63924">
        <ele>1792.1549</ele>
        <time>2015-08-19T13:24:53Z</time>
      </trkpt>
      <trkpt lat="45.6589" lon="6.6393">
        <ele>1792.1549</ele>
        <time>2015-08-19T13:25:03Z</time>
      </trkpt>
      <trkpt lat="45.65887" lon="6.63934">
        <ele>1792.2659</ele>
        <time>2015-08-19T13:25:08Z</time>
      </trkpt>
      <trkpt lat="45.65882" lon="6.6394">
        <ele>1792.2659</ele>
        <time>2015-08-19T13:25:18Z</time>
      </trkpt>
      <trkpt lat="45.65878" lon="6.63943">
        <ele>1792.437</ele>
        <time>2015-08-19T13:25:23Z</time>
      </trkpt>
      <trkpt lat="45.65873" lon="6.63945">
        <ele>1792.437</ele>
        <time>2015-08-19T13:25:33Z</time>
      </trkpt>
      <trkpt lat="45.6587" lon="6.63948">
        <ele>1792.6443</ele>
        <time>2015-08-19T13:25:38Z</time>
      </trkpt>
      <trkpt lat="45.65859" lon="6.63951">
        <ele>1792.9088</ele>
        <time>2015-08-19T13:25:48Z</time>
      </trkpt>
      <trkpt lat="45.65854" lon="6.63954">
        <ele>1792.9088</ele>
        <time>2015-08-19T13:25:53Z</time>
      </trkpt>
      <trkpt lat="45.65846" lon="6.63953">
        <ele>1793.0917</ele>
        <time>2015-08-19T13:26:03Z</time>
      </trkpt>
      <trkpt lat="45.65842" lon="6.63956">
        <ele>1793.0917</ele>
        <time>2015-08-19T13:26:08Z</time>
      </trkpt>
      <trkpt lat="45.65837" lon="6.63961">
        <ele>1793.3237</ele>
        <time>2015-08-19T13:26:18Z</time>
      </trkpt>
      <trkpt lat="45.65831" lon="6.63963">
        <ele>1793.3237</ele>
        <time>2015-08-19T13:26:23Z</time>
      </trkpt>
      <trkpt lat="45.65827" lon="6.63966">
        <ele>1793.5968</ele>
        <time>2015-08-19T13:26:33Z</time>
      </trkpt>
      <trkpt lat="45.65826" lon="6.63967">
        <ele>1793.5968</ele>
        <time>2015-08-19T13:26:38Z</time>
      </trkpt>
      <trkpt lat="45.65822" lon="6.63969">
        <ele>1793.5968</ele>
        <time>2015-08-19T13:26:48Z</time>
      </trkpt>
      <trkpt lat="45.65816" lon="6.63969">
        <ele>1794.1769</ele>
        <time>2015-08-19T13:26:53Z</time>
      </trkpt>
      <trkpt lat="45.65808" lon="6.6397">
        <ele>1794.1769</ele>
        <time>2015-08-19T13:27:08Z</time>
      </trkpt>
      <trkpt lat="45.65808" lon="6.6397">
        <ele>1794.1769</ele>
        <time>2015-08-19T13:27:13Z</time>
      </trkpt>
      <trkpt lat="45.65807" lon="6.6397">
        <ele>1794.1769</ele>
        <time>2015-08-19T13:27:23Z</time>
      </trkpt>
      <trkpt lat="45.65807" lon="6.63971">
        <ele>1795.8142</ele>
        <time>2015-08-19T13:30:28Z</time>
      </trkpt>
      <trkpt lat="45.65807" lon="6.63971">
        <ele>1795.8142</ele>
        <time>2015-08-19T13:30:33Z</time>
      </trkpt>
      <trkpt lat="45.65808" lon="6.6397">
        <ele>1795.8142</ele>
        <time>2015-08-19T13:30:43Z</time>
      </trkpt>
      <trkpt lat="45.65808" lon="6.63969">
        <ele>1795.8142</ele>
        <time>2015-08-19T13:30:48Z</time>
      </trkpt>
      <trkpt lat="45.65804" lon="6.63968">
        <ele>1795.8142</ele>
        <time>2015-08-19T13:31:03Z</time>
      </trkpt>
      <trkpt lat="45.6579" lon="6.63982">
        <ele>1797.7743</ele>
        <time>2015-08-19T13:31:18Z</time>
      </trkpt>
      <trkpt lat="45.65788" lon="6.63985">
        <ele>1797.7743</ele>
        <time>2015-08-19T13:31:23Z</time>
      </trkpt>
      <trkpt lat="45.65777" lon="6.63991">
        <ele>1799.6067</ele>
        <time>2015-08-19T13:31:33Z</time>
      </trkpt>
      <trkpt lat="45.65772" lon="6.6399">
        <ele>1799.6067</ele>
        <time>2015-08-19T13:31:38Z</time>
      </trkpt>
      <trkpt lat="45.65759" lon="6.63997">
        <ele>1801.168</ele>
        <time>2015-08-19T13:31:48Z</time>
      </trkpt>
      <trkpt lat="45.65753" lon="6.63998">
        <ele>1801.168</ele>
        <time>2015-08-19T13:31:53Z</time>
      </trkpt>
      <trkpt lat="45.65744" lon="6.64001">
        <ele>1802.4419</ele>
        <time>2015-08-19T13:32:03Z</time>
      </trkpt>
      <trkpt lat="45.65741" lon="6.64001">
        <ele>1802.4419</ele>
        <time>2015-08-19T13:32:08Z</time>
      </trkpt>
      <trkpt lat="45.6573" lon="6.64">
        <ele>1803.371</ele>
        <time>2015-08-19T13:32:18Z</time>
      </trkpt>
      <trkpt lat="45.65729" lon="6.64004">
        <ele>1803.371</ele>
        <time>2015-08-19T13:32:23Z</time>
      </trkpt>
      <trkpt lat="45.65728" lon="6.64005">
        <ele>1803.371</ele>
        <time>2015-08-19T13:32:33Z</time>
      </trkpt>
      <trkpt lat="45.65726" lon="6.64009">
        <ele>1803.371</ele>
        <time>2015-08-19T13:32:38Z</time>
      </trkpt>
      <trkpt lat="45.65715" lon="6.64015">
        <ele>1803.8165</ele>
        <time>2015-08-19T13:32:48Z</time>
      </trkpt>
      <trkpt lat="45.65709" lon="6.64019">
        <ele>1803.8165</ele>
        <time>2015-08-19T13:32:53Z</time>
      </trkpt>
      <trkpt lat="45.657" lon="6.6402">
        <ele>1804.0988</ele>
        <time>2015-08-19T13:33:03Z</time>
      </trkpt>
      <trkpt lat="45.65697" lon="6.64022">
        <ele>1804.0988</ele>
        <time>2015-08-19T13:33:08Z</time>
      </trkpt>
      <trkpt lat="45.65691" lon="6.64026">
        <ele>1804.2983</ele>
        <time>2015-08-19T13:33:18Z</time>
      </trkpt>
      <trkpt lat="45.65691" lon="6.64026">
        <ele>1804.2983</ele>
        <time>2015-08-19T13:33:23Z</time>
      </trkpt>
      <trkpt lat="45.65688" lon="6.64033">
        <ele>1804.2983</ele>
        <time>2015-08-19T13:33:33Z</time>
      </trkpt>
      <trkpt lat="45.65688" lon="6.64037">
        <ele>1804.2983</ele>
        <time>2015-08-19T13:33:38Z</time>
      </trkpt>
      <trkpt lat="45.65683" lon="6.64061">
        <ele>1804.635</ele>
        <time>2015-08-19T13:33:53Z</time>
      </trkpt>
      <trkpt lat="45.6568" lon="6.64065">
        <ele>1804.635</ele>
        <time>2015-08-19T13:33:58Z</time>
      </trkpt>
      <trkpt lat="45.65681" lon="6.64072">
        <ele>1804.635</ele>
        <time>2015-08-19T13:34:08Z</time>
      </trkpt>
      <trkpt lat="45.65681" lon="6.64072">
        <ele>1804.635</ele>
        <time>2015-08-19T13:34:13Z</time>
      </trkpt>
      <trkpt lat="45.65681" lon="6.64074">
        <ele>1805.4846</ele>
        <time>2015-08-19T13:34:23Z</time>
      </trkpt>
      <trkpt lat="45.65681" lon="6.64074">
        <ele>1805.4846</ele>
        <time>2015-08-19T13:34:28Z</time>
      </trkpt>
      <trkpt lat="45.65673" lon="6.64078">
        <ele>1805.4846</ele>
        <time>2015-08-19T13:34:38Z</time>
      </trkpt>
      <trkpt lat="45.65673" lon="6.64078">
        <ele>1805.4846</ele>
        <time>2015-08-19T13:34:43Z</time>
      </trkpt>
      <trkpt lat="45.65669" lon="6.64082">
        <ele>1806.3444</ele>
        <time>2015-08-19T13:34:53Z</time>
      </trkpt>
      <trkpt lat="45.65665" lon="6.64086">
        <ele>1806.3444</ele>
        <time>2015-08-19T13:34:58Z</time>
      </trkpt>
      <trkpt lat="45.65658" lon="6.64092">
        <ele>1807.1661</ele>
        <time>2015-08-19T13:35:08Z</time>
      </trkpt>
      <trkpt lat="45.65653" lon="6.64098">
        <ele>1807.1661</ele>
        <time>2015-08-19T13:35:13Z</time>
      </trkpt>
      <trkpt lat="45.65645" lon="6.64109">
        <ele>1808.2229</ele>
        <time>2015-08-19T13:35:23Z</time>
      </trkpt>
      <trkpt lat="45.6564" lon="6.64114">
        <ele>1808.2229</ele>
        <time>2015-08-19T13:35:28Z</time>
      </trkpt>
      <trkpt lat="45.65637" lon="6.64122">
        <ele>1809.5076</ele>
        <time>2015-08-19T13:35:38Z</time>
      </trkpt>
      <trkpt lat="45.65635" lon="6.64125">
        <ele>1809.5076</ele>
        <time>2015-08-19T13:35:43Z</time>
      </trkpt>
      <trkpt lat="45.65631" lon="6.64135">
        <ele>1810.7681</ele>
        <time>2015-08-19T13:35:58Z</time>
      </trkpt>
      <trkpt lat="45.65623" lon="6.64138">
        <ele>1810.7681</ele>
        <time>2015-08-19T13:36:03Z</time>
      </trkpt>
      <trkpt lat="45.6561" lon="6.6414">
        <ele>1811.9153</ele>
        <time>2015-08-19T13:36:13Z</time>
      </trkpt>
      <trkpt lat="45.65604" lon="6.64142">
        <ele>1811.9153</ele>
        <time>2015-08-19T13:36:18Z</time>
      </trkpt>
      <trkpt lat="45.656" lon="6.64146">
        <ele>1812.9248</ele>
        <time>2015-08-19T13:36:28Z</time>
      </trkpt>
      <trkpt lat="45.65598" lon="6.64151">
        <ele>1812.9248</ele>
        <time>2015-08-19T13:36:33Z</time>
      </trkpt>
      <trkpt lat="45.65591" lon="6.64161">
        <ele>1813.9042</ele>
        <time>2015-08-19T13:36:43Z</time>
      </trkpt>
      <trkpt lat="45.65587" lon="6.64165">
        <ele>1813.9042</ele>
        <time>2015-08-19T13:36:48Z</time>
      </trkpt>
      <trkpt lat="45.65572" lon="6.64176">
        <ele>1815.1263</ele>
        <time>2015-08-19T13:37:03Z</time>
      </trkpt>
      <trkpt lat="45.6557" lon="6.64178">
        <ele>1815.1263</ele>
        <time>2015-08-19T13:37:08Z</time>
      </trkpt>
      <trkpt lat="45.65563" lon="6.64183">
        <ele>1816.4545</ele>
        <time>2015-08-19T13:37:18Z</time>
      </trkpt>
      <trkpt lat="45.65558" lon="6.64185">
        <ele>1816.4545</ele>
        <time>2015-08-19T13:37:23Z</time>
      </trkpt>
      <trkpt lat="45.65549" lon="6.64188">
        <ele>1817.8627</ele>
        <time>2015-08-19T13:37:33Z</time>
      </trkpt>
      <trkpt lat="45.65547" lon="6.64188">
        <ele>1817.8627</ele>
        <time>2015-08-19T13:37:38Z</time>
      </trkpt>
      <trkpt lat="45.65543" lon="6.64191">
        <ele>1817.8627</ele>
        <time>2015-08-19T13:37:48Z</time>
      </trkpt>
      <trkpt lat="45.65543" lon="6.64191">
        <ele>1817.8627</ele>
        <time>2015-08-19T13:37:53Z</time>
      </trkpt>
      <trkpt lat="45.65542" lon="6.64191">
        <ele>1817.8627</ele>
        <time>2015-08-19T13:38:03Z</time>
      </trkpt>
      <trkpt lat="45.65542" lon="6.64191">
        <ele>1817.8627</ele>
        <time>2015-08-19T13:38:08Z</time>
      </trkpt>
      <trkpt lat="45.6554" lon="6.64192">
        <ele>1820.0906</ele>
        <time>2015-08-19T13:38:18Z</time>
      </trkpt>
      <trkpt lat="45.65538" lon="6.64193">
        <ele>1820.0906</ele>
        <time>2015-08-19T13:38:23Z</time>
      </trkpt>
      <trkpt lat="45.65533" lon="6.642">
        <ele>1820.0906</ele>
        <time>2015-08-19T13:38:33Z</time>
      </trkpt>
      <trkpt lat="45.65533" lon="6.64201">
        <ele>1822.3658</ele>
        <time>2015-08-19T13:38:38Z</time>
      </trkpt>
      <trkpt lat="45.65521" lon="6.64209">
        <ele>1824.6936</ele>
        <time>2015-08-19T13:38:53Z</time>
      </trkpt>
      <trkpt lat="45.65518" lon="6.64209">
        <ele>1824.6936</ele>
        <time>2015-08-19T13:38:58Z</time>
      </trkpt>
      <trkpt lat="45.65511" lon="6.6421">
        <ele>1826.9629</ele>
        <time>2015-08-19T13:39:08Z</time>
      </trkpt>
      <trkpt lat="45.65507" lon="6.64208">
        <ele>1826.9629</ele>
        <time>2015-08-19T13:39:13Z</time>
      </trkpt>
      <trkpt lat="45.655" lon="6.64214">
        <ele>1829.0719</ele>
        <time>2015-08-19T13:39:23Z</time>
      </trkpt>
      <trkpt lat="45.65496" lon="6.64217">
        <ele>1829.0719</ele>
        <time>2015-08-19T13:39:28Z</time>
      </trkpt>
      <trkpt lat="45.65487" lon="6.64217">
        <ele>1831.0994</ele>
        <time>2015-08-19T13:39:38Z</time>
      </trkpt>
      <trkpt lat="45.65482" lon="6.64215">
        <ele>1831.0994</ele>
        <time>2015-08-19T13:39:43Z</time>
      </trkpt>
      <trkpt lat="45.65477" lon="6.64217">
        <ele>1832.9027</ele>
        <time>2015-08-19T13:39:53Z</time>
      </trkpt>
      <trkpt lat="45.65476" lon="6.64219">
        <ele>1832.9027</ele>
        <time>2015-08-19T13:39:58Z</time>
      </trkpt>
      <trkpt lat="45.65473" lon="6.64217">
        <ele>1832.9027</ele>
        <time>2015-08-19T13:40:08Z</time>
      </trkpt>
      <trkpt lat="45.65473" lon="6.64218">
        <ele>1832.9027</ele>
        <time>2015-08-19T13:40:23Z</time>
      </trkpt>
      <trkpt lat="45.65473" lon="6.64218">
        <ele>1832.9027</ele>
        <time>2015-08-19T13:40:28Z</time>
      </trkpt>
      <trkpt lat="45.65469" lon="6.64219">
        <ele>1832.9027</ele>
        <time>2015-08-19T13:41:13Z</time>
      </trkpt>
      <trkpt lat="45.65466" lon="6.64222">
        <ele>1834.999</ele>
        <time>2015-08-19T13:41:28Z</time>
      </trkpt>
      <trkpt lat="45.65466" lon="6.64225">
        <ele>1834.999</ele>
        <time>2015-08-19T13:41:33Z</time>
      </trkpt>
      <trkpt lat="45.65465" lon="6.64226">
        <ele>1834.999</ele>
        <time>2015-08-19T13:41:43Z</time>
      </trkpt>
      <trkpt lat="45.65464" lon="6.64227">
        <ele>1834.999</ele>
        <time>2015-08-19T13:41:48Z</time>
      </trkpt>
      <trkpt lat="45.6546" lon="6.6423">
        <ele>1834.999</ele>
        <time>2015-08-19T13:41:58Z</time>
      </trkpt>
      <trkpt lat="45.65458" lon="6.64231">
        <ele>1837.0455</ele>
        <time>2015-08-19T13:42:03Z</time>
      </trkpt>
      <trkpt lat="45.65456" lon="6.64232">
        <ele>1837.0455</ele>
        <time>2015-08-19T13:42:13Z</time>
      </trkpt>
      <trkpt lat="45.65449" lon="6.64238">
        <ele>1839.2001</ele>
        <time>2015-08-19T13:42:28Z</time>
      </trkpt>
      <trkpt lat="45.65446" lon="6.6424">
        <ele>1839.2001</ele>
        <time>2015-08-19T13:42:33Z</time>
      </trkpt>
      <trkpt lat="45.65445" lon="6.6424">
        <ele>1839.2001</ele>
        <time>2015-08-19T13:42:43Z</time>
      </trkpt>
      <trkpt lat="45.65441" lon="6.64242">
        <ele>1841.4653</ele>
        <time>2015-08-19T13:42:48Z</time>
      </trkpt>
      <trkpt lat="45.6544" lon="6.64244">
        <ele>1841.4653</ele>
        <time>2015-08-19T13:42:58Z</time>
      </trkpt>
      <trkpt lat="45.6544" lon="6.64245">
        <ele>1841.4653</ele>
        <time>2015-08-19T13:43:03Z</time>
      </trkpt>
      <trkpt lat="45.65436" lon="6.6425">
        <ele>1841.4653</ele>
        <time>2015-08-19T13:43:18Z</time>
      </trkpt>
      <trkpt lat="45.65434" lon="6.64251">
        <ele>1843.7998</ele>
        <time>2015-08-19T13:43:23Z</time>
      </trkpt>
      <trkpt lat="45.6543" lon="6.64252">
        <ele>1843.7998</ele>
        <time>2015-08-19T13:43:33Z</time>
      </trkpt>
      <trkpt lat="45.65427" lon="6.64253">
        <ele>1843.7998</ele>
        <time>2015-08-19T13:43:38Z</time>
      </trkpt>
      <trkpt lat="45.65421" lon="6.64256">
        <ele>1846.3959</ele>
        <time>2015-08-19T13:43:48Z</time>
      </trkpt>
      <trkpt lat="45.6542" lon="6.64258">
        <ele>1846.3959</ele>
        <time>2015-08-19T13:43:53Z</time>
      </trkpt>
      <trkpt lat="45.65419" lon="6.6426">
        <ele>1846.3959</ele>
        <time>2015-08-19T13:44:03Z</time>
      </trkpt>
      <trkpt lat="45.65417" lon="6.64263">
        <ele>1846.3959</ele>
        <time>2015-08-19T13:44:08Z</time>
      </trkpt>
      <trkpt lat="45.65417" lon="6.64267">
        <ele>1846.3959</ele>
        <time>2015-08-19T13:44:18Z</time>
      </trkpt>
      <trkpt lat="45.65417" lon="6.64267">
        <ele>1846.3959</ele>
        <time>2015-08-19T13:44:23Z</time>
      </trkpt>
      <trkpt lat="45.65413" lon="6.64268">
        <ele>1848.9846</ele>
        <time>2015-08-19T13:44:33Z</time>
      </trkpt>
      <trkpt lat="45.65413" lon="6.64269">
        <ele>1848.9846</ele>
        <time>2015-08-19T13:44:53Z</time>
      </trkpt>
      <trkpt lat="45.65412" lon="6.6427">
        <ele>1848.9846</ele>
        <time>2015-08-19T13:44:58Z</time>
      </trkpt>
      <trkpt lat="45.65411" lon="6.64272">
        <ele>1848.9846</ele>
        <time>2015-08-19T13:45:08Z</time>
      </trkpt>
      <trkpt lat="45.65412" lon="6.64273">
        <ele>1848.9846</ele>
        <time>2015-08-19T13:45:13Z</time>
      </trkpt>
      <trkpt lat="45.65411" lon="6.64274">
        <ele>1848.9846</ele>
        <time>2015-08-19T13:45:23Z</time>
      </trkpt>
      <trkpt lat="45.6541" lon="6.64278">
        <ele>1848.9846</ele>
        <time>2015-08-19T13:45:28Z</time>
      </trkpt>
      <trkpt lat="45.6541" lon="6.64278">
        <ele>1848.9846</ele>
        <time>2015-08-19T13:45:38Z</time>
      </trkpt>
      <trkpt lat="45.65407" lon="6.64278">
        <ele>1852.2535</ele>
        <time>2015-08-19T13:45:43Z</time>
      </trkpt>
      <trkpt lat="45.65407" lon="6.64278">
        <ele>1852.2535</ele>
        <time>2015-08-19T13:45:53Z</time>
      </trkpt>
      <trkpt lat="45.65405" lon="6.64281">
        <ele>1852.2535</ele>
        <time>2015-08-19T13:46:08Z</time>
      </trkpt>
      <trkpt lat="45.65402" lon="6.6428">
        <ele>1852.2535</ele>
        <time>2015-08-19T13:46:13Z</time>
      </trkpt>
      <trkpt lat="45.65398" lon="6.64276">
        <ele>1855.8582</ele>
        <time>2015-08-19T13:46:23Z</time>
      </trkpt>
      <trkpt lat="45.65397" lon="6.64275">
        <ele>1855.8582</ele>
        <time>2015-08-19T13:46:28Z</time>
      </trkpt>
      <trkpt lat="45.65394" lon="6.64276">
        <ele>1855.8582</ele>
        <time>2015-08-19T13:46:38Z</time>
      </trkpt>
      <trkpt lat="45.65391" lon="6.64277">
        <ele>1855.8582</ele>
        <time>2015-08-19T13:46:43Z</time>
      </trkpt>
      <trkpt lat="45.6539" lon="6.64278">
        <ele>1855.8582</ele>
        <time>2015-08-19T13:46:58Z</time>
      </trkpt>
      <trkpt lat="45.65389" lon="6.64279">
        <ele>1859.5647</ele>
        <time>2015-08-19T13:47:18Z</time>
      </trkpt>
      <trkpt lat="45.65388" lon="6.64279">
        <ele>1859.5647</ele>
        <time>2015-08-19T13:47:28Z</time>
      </trkpt>
      <trkpt lat="45.65386" lon="6.64282">
        <ele>1859.5647</ele>
        <time>2015-08-19T13:47:33Z</time>
      </trkpt>
      <trkpt lat="45.65385" lon="6.64283">
        <ele>1859.5647</ele>
        <time>2015-08-19T13:47:43Z</time>
      </trkpt>
      <trkpt lat="45.65386" lon="6.64284">
        <ele>1859.5647</ele>
        <time>2015-08-19T13:47:48Z</time>
      </trkpt>
      <trkpt lat="45.65384" lon="6.64287">
        <ele>1859.5647</ele>
        <time>2015-08-19T13:47:58Z</time>
      </trkpt>
      <trkpt lat="45.65382" lon="6.64289">
        <ele>1863.5748</ele>
        <time>2015-08-19T13:48:03Z</time>
      </trkpt>
      <trkpt lat="45.65379" lon="6.6429">
        <ele>1863.5748</ele>
        <time>2015-08-19T13:48:13Z</time>
      </trkpt>
      <trkpt lat="45.65373" lon="6.64294">
        <ele>1867.4691</ele>
        <time>2015-08-19T13:48:18Z</time>
      </trkpt>
      <trkpt lat="45.65368" lon="6.64295">
        <ele>1867.4691</ele>
        <time>2015-08-19T13:48:28Z</time>
      </trkpt>
      <trkpt lat="45.65368" lon="6.64295">
        <ele>1867.4691</ele>
        <time>2015-08-19T13:48:33Z</time>
      </trkpt>
      <trkpt lat="45.65368" lon="6.64295">
        <ele>1867.4691</ele>
        <time>2015-08-19T13:48:43Z</time>
      </trkpt>
      <trkpt lat="45.6537" lon="6.64302">
        <ele>1871.2488</ele>
        <time>2015-08-19T13:49:03Z</time>
      </trkpt>
      <trkpt lat="45.6537" lon="6.64302">
        <ele>1871.2488</ele>
        <time>2015-08-19T13:49:08Z</time>
      </trkpt>
      <trkpt lat="45.65369" lon="6.64302">
        <ele>1871.2488</ele>
        <time>2015-08-19T13:49:48Z</time>
      </trkpt>
      <trkpt lat="45.65366" lon="6.64303">
        <ele>1871.2488</ele>
        <time>2015-08-19T13:49:53Z</time>
      </trkpt>
      <trkpt lat="45.65363" lon="6.64301">
        <ele>1871.2488</ele>
        <time>2015-08-19T13:50:03Z</time>
      </trkpt>
      <trkpt lat="45.65361" lon="6.643">
        <ele>1875.1172</ele>
        <time>2015-08-19T13:50:08Z</time>
      </trkpt>
      <trkpt lat="45.65357" lon="6.64298">
        <ele>1875.1172</ele>
        <time>2015-08-19T13:50:18Z</time>
      </trkpt>
      <trkpt lat="45.65356" lon="6.64301">
        <ele>1875.1172</ele>
        <time>2015-08-19T13:50:33Z</time>
      </trkpt>
      <trkpt lat="45.65356" lon="6.64304">
        <ele>1875.1172</ele>
        <time>2015-08-19T13:50:38Z</time>
      </trkpt>
      <trkpt lat="45.65358" lon="6.64305">
        <ele>1879.1906</ele>
        <time>2015-08-19T13:50:53Z</time>
      </trkpt>
      <trkpt lat="45.65359" lon="6.64307">
        <ele>1879.1906</ele>
        <time>2015-08-19T13:50:58Z</time>
      </trkpt>
      <trkpt lat="45.6536" lon="6.64308">
        <ele>1879.1906</ele>
        <time>2015-08-19T13:51:08Z</time>
      </trkpt>
      <trkpt lat="45.6536" lon="6.6431">
        <ele>1879.1906</ele>
        <time>2015-08-19T13:51:13Z</time>
      </trkpt>
      <trkpt lat="45.65359" lon="6.64312">
        <ele>1879.1906</ele>
        <time>2015-08-19T13:51:23Z</time>
      </trkpt>
      <trkpt lat="45.65359" lon="6.64319">
        <ele>1883.3169</ele>
        <time>2015-08-19T13:51:38Z</time>
      </trkpt>
      <trkpt lat="45.65356" lon="6.64321">
        <ele>1883.3169</ele>
        <time>2015-08-19T13:51:43Z</time>
      </trkpt>
      <trkpt lat="45.65356" lon="6.6432">
        <ele>1883.3169</ele>
        <time>2015-08-19T13:51:53Z</time>
      </trkpt>
      <trkpt lat="45.65356" lon="6.6432">
        <ele>1883.3169</ele>
        <time>2015-08-19T13:51:58Z</time>
      </trkpt>
      <trkpt lat="45.65354" lon="6.6432">
        <ele>1883.3169</ele>
        <time>2015-08-19T13:52:08Z</time>
      </trkpt>
      <trkpt lat="45.65351" lon="6.64321">
        <ele>1883.3169</ele>
        <time>2015-08-19T13:52:13Z</time>
      </trkpt>
      <trkpt lat="45.65347" lon="6.64319">
        <ele>1887.4854</ele>
        <time>2015-08-19T13:52:23Z</time>
      </trkpt>
      <trkpt lat="45.65344" lon="6.64319">
        <ele>1887.4854</ele>
        <time>2015-08-19T13:52:28Z</time>
      </trkpt>
      <trkpt lat="45.65343" lon="6.64319">
        <ele>1887.4854</ele>
        <time>2015-08-19T13:52:38Z</time>
      </trkpt>
      <trkpt lat="45.65343" lon="6.64319">
        <ele>1887.4854</ele>
        <time>2015-08-19T13:52:43Z</time>
      </trkpt>
      <trkpt lat="45.65346" lon="6.64327">
        <ele>1891.7002</ele>
        <time>2015-08-19T13:53:28Z</time>
      </trkpt>
      <trkpt lat="45.65346" lon="6.64327">
        <ele>1891.7002</ele>
        <time>2015-08-19T13:53:33Z</time>
      </trkpt>
      <trkpt lat="45.65348" lon="6.64327">
        <ele>1891.7002</ele>
        <time>2015-08-19T13:53:43Z</time>
      </trkpt>
      <trkpt lat="45.65349" lon="6.64331">
        <ele>1891.7002</ele>
        <time>2015-08-19T13:53:48Z</time>
      </trkpt>
      <trkpt lat="45.65351" lon="6.64338">
        <ele>1895.85</ele>
        <time>2015-08-19T13:53:58Z</time>
      </trkpt>
      <trkpt lat="45.65352" lon="6.64339">
        <ele>1895.85</ele>
        <time>2015-08-19T13:54:03Z</time>
      </trkpt>
      <trkpt lat="45.65355" lon="6.64339">
        <ele>1895.85</ele>
        <time>2015-08-19T13:54:13Z</time>
      </trkpt>
      <trkpt lat="45.65356" lon="6.64341">
        <ele>1895.85</ele>
        <time>2015-08-19T13:54:18Z</time>
      </trkpt>
      <trkpt lat="45.65357" lon="6.64352">
        <ele>1899.9478</ele>
        <time>2015-08-19T13:54:28Z</time>
      </trkpt>
      <trkpt lat="45.65356" lon="6.64353">
        <ele>1899.9478</ele>
        <time>2015-08-19T13:54:33Z</time>
      </trkpt>
      <trkpt lat="45.65356" lon="6.64357">
        <ele>1899.9478</ele>
        <time>2015-08-19T13:54:43Z</time>
      </trkpt>
      <trkpt lat="45.65355" lon="6.64358">
        <ele>1899.9478</ele>
        <time>2015-08-19T13:55:03Z</time>
      </trkpt>
      <trkpt lat="45.65354" lon="6.64358">
        <ele>1899.9478</ele>
        <time>2015-08-19T13:55:08Z</time>
      </trkpt>
      <trkpt lat="45.65352" lon="6.64361">
        <ele>1904.1062</ele>
        <time>2015-08-19T13:55:18Z</time>
      </trkpt>
      <trkpt lat="45.65351" lon="6.64362">
        <ele>1904.1062</ele>
        <time>2015-08-19T13:55:23Z</time>
      </trkpt>
      <trkpt lat="45.65348" lon="6.64361">
        <ele>1904.1062</ele>
        <time>2015-08-19T13:55:33Z</time>
      </trkpt>
      <trkpt lat="45.65347" lon="6.6436">
        <ele>1904.1062</ele>
        <time>2015-08-19T13:55:48Z</time>
      </trkpt>
      <trkpt lat="45.65345" lon="6.64357">
        <ele>1904.1062</ele>
        <time>2015-08-19T13:55:53Z</time>
      </trkpt>
      <trkpt lat="45.65342" lon="6.64356">
        <ele>1908.6177</ele>
        <time>2015-08-19T13:56:03Z</time>
      </trkpt>
      <trkpt lat="45.65341" lon="6.64357">
        <ele>1908.6177</ele>
        <time>2015-08-19T13:56:08Z</time>
      </trkpt>
      <trkpt lat="45.65334" lon="6.64353">
        <ele>1908.6177</ele>
        <time>2015-08-19T13:56:18Z</time>
      </trkpt>
      <trkpt lat="45.65331" lon="6.64352">
        <ele>1912.9739</ele>
        <time>2015-08-19T13:56:23Z</time>
      </trkpt>
      <trkpt lat="45.65328" lon="6.64348">
        <ele>1912.9739</ele>
        <time>2015-08-19T13:56:33Z</time>
      </trkpt>
      <trkpt lat="45.65327" lon="6.64348">
        <ele>1912.9739</ele>
        <time>2015-08-19T13:56:38Z</time>
      </trkpt>
      <trkpt lat="45.65327" lon="6.64347">
        <ele>1912.9739</ele>
        <time>2015-08-19T13:57:08Z</time>
      </trkpt>
      <trkpt lat="45.65327" lon="6.64348">
        <ele>1912.9739</ele>
        <time>2015-08-19T13:57:13Z</time>
      </trkpt>
      <trkpt lat="45.65327" lon="6.6435">
        <ele>1912.9739</ele>
        <time>2015-08-19T13:57:23Z</time>
      </trkpt>
      <trkpt lat="45.65327" lon="6.64352">
        <ele>1912.9739</ele>
        <time>2015-08-19T13:57:28Z</time>
      </trkpt>
      <trkpt lat="45.65328" lon="6.64353">
        <ele>1917.9725</ele>
        <time>2015-08-19T13:57:38Z</time>
      </trkpt>
      <trkpt lat="45.65328" lon="6.64355">
        <ele>1917.9725</ele>
        <time>2015-08-19T13:57:43Z</time>
      </trkpt>
      <trkpt lat="45.65329" lon="6.64357">
        <ele>1917.9725</ele>
        <time>2015-08-19T13:57:53Z</time>
      </trkpt>
      <trkpt lat="45.65329" lon="6.64357">
        <ele>1917.9725</ele>
        <time>2015-08-19T13:57:58Z</time>
      </trkpt>
      <trkpt lat="45.65327" lon="6.64358">
        <ele>1917.9725</ele>
        <time>2015-08-19T13:58:23Z</time>
      </trkpt>
      <trkpt lat="45.65326" lon="6.6436">
        <ele>1917.9725</ele>
        <time>2015-08-19T13:58:28Z</time>
      </trkpt>
      <trkpt lat="45.65326" lon="6.6436">
        <ele>1917.9725</ele>
        <time>2015-08-19T13:58:43Z</time>
      </trkpt>
      <trkpt lat="45.65325" lon="6.64361">
        <ele>1917.9725</ele>
        <time>2015-08-19T13:59:03Z</time>
      </trkpt>
      <trkpt lat="45.65324" lon="6.64363">
        <ele>1917.9725</ele>
        <time>2015-08-19T13:59:13Z</time>
      </trkpt>
      <trkpt lat="45.65322" lon="6.64363">
        <ele>1922.5934</ele>
        <time>2015-08-19T13:59:18Z</time>
      </trkpt>
      <trkpt lat="45.65317" lon="6.64364">
        <ele>1922.5934</ele>
        <time>2015-08-19T13:59:28Z</time>
      </trkpt>
      <trkpt lat="45.65314" lon="6.64365">
        <ele>1922.5934</ele>
        <time>2015-08-19T13:59:33Z</time>
      </trkpt>
      <trkpt lat="45.6531" lon="6.64366">
        <ele>1927.0596</ele>
        <time>2015-08-19T13:59:43Z</time>
      </trkpt>
      <trkpt lat="45.65303" lon="6.64365">
        <ele>1927.0596</ele>
        <time>2015-08-19T13:59:48Z</time>
      </trkpt>
      <trkpt lat="45.653" lon="6.64361">
        <ele>1931.2325</ele>
        <time>2015-08-19T13:59:58Z</time>
      </trkpt>
      <trkpt lat="45.65298" lon="6.64362">
        <ele>1931.2325</ele>
        <time>2015-08-19T14:00:03Z</time>
      </trkpt>
      <trkpt lat="45.65296" lon="6.64362">
        <ele>1931.2325</ele>
        <time>2015-08-19T14:00:13Z</time>
      </trkpt>
      <trkpt lat="45.65293" lon="6.64364">
        <ele>1931.2325</ele>
        <time>2015-08-19T14:00:18Z</time>
      </trkpt>
      <trkpt lat="45.65291" lon="6.64364">
        <ele>1935.2446</ele>
        <time>2015-08-19T14:00:28Z</time>
      </trkpt>
      <trkpt lat="45.6529" lon="6.64366">
        <ele>1935.2446</ele>
        <time>2015-08-19T14:00:33Z</time>
      </trkpt>
      <trkpt lat="45.6529" lon="6.64366">
        <ele>1935.2446</ele>
        <time>2015-08-19T14:00:43Z</time>
      </trkpt>
      <trkpt lat="45.6529" lon="6.64367">
        <ele>1935.2446</ele>
        <time>2015-08-19T14:00:48Z</time>
      </trkpt>
      <trkpt lat="45.6529" lon="6.64368">
        <ele>1935.2446</ele>
        <time>2015-08-19T14:00:58Z</time>
      </trkpt>
      <trkpt lat="45.65289" lon="6.6437">
        <ele>1935.2446</ele>
        <time>2015-08-19T14:01:03Z</time>
      </trkpt>
      <trkpt lat="45.65287" lon="6.64372">
        <ele>1935.2446</ele>
        <time>2015-08-19T14:01:18Z</time>
      </trkpt>
      <trkpt lat="45.65284" lon="6.64374">
        <ele>1939.4495</ele>
        <time>2015-08-19T14:02:23Z</time>
      </trkpt>
      <trkpt lat="45.65284" lon="6.64374">
        <ele>1939.4495</ele>
        <time>2015-08-19T14:02:28Z</time>
      </trkpt>
      <trkpt lat="45.6528" lon="6.64372">
        <ele>1939.4495</ele>
        <time>2015-08-19T14:02:43Z</time>
      </trkpt>
      <trkpt lat="45.65277" lon="6.64371">
        <ele>1939.4495</ele>
        <time>2015-08-19T14:02:48Z</time>
      </trkpt>
      <trkpt lat="45.65271" lon="6.64371">
        <ele>1943.0074</ele>
        <time>2015-08-19T14:02:53Z</time>
      </trkpt>
      <trkpt lat="45.65268" lon="6.64368">
        <ele>1943.0074</ele>
        <time>2015-08-19T14:02:58Z</time>
      </trkpt>
      <trkpt lat="45.65267" lon="6.64369">
        <ele>1943.0074</ele>
        <time>2015-08-19T14:03:03Z</time>
      </trkpt>
      <trkpt lat="45.65267" lon="6.64368">
        <ele>1943.0074</ele>
        <time>2015-08-19T14:03:18Z</time>
      </trkpt>
      <trkpt lat="45.65267" lon="6.64368">
        <ele>1943.0074</ele>
        <time>2015-08-19T14:03:23Z</time>
      </trkpt>
      <trkpt lat="45.65267" lon="6.64366">
        <ele>1943.0074</ele>
        <time>2015-08-19T14:03:48Z</time>
      </trkpt>
      <trkpt lat="45.65267" lon="6.64362">
        <ele>1946.0356</ele>
        <time>2015-08-19T14:03:53Z</time>
      </trkpt>
      <trkpt lat="45.65266" lon="6.64359">
        <ele>1946.0356</ele>
        <time>2015-08-19T14:03:58Z</time>
      </trkpt>
      <trkpt lat="45.65263" lon="6.64349">
        <ele>1948.7168</ele>
        <time>2015-08-19T14:04:08Z</time>
      </trkpt>
      <trkpt lat="45.65262" lon="6.64344">
        <ele>1948.7168</ele>
        <time>2015-08-19T14:04:13Z</time>
      </trkpt>
      <trkpt lat="45.65258" lon="6.64338">
        <ele>1951.077</ele>
        <time>2015-08-19T14:04:18Z</time>
      </trkpt>
      <trkpt lat="45.65255" lon="6.64335">
        <ele>1951.077</ele>
        <time>2015-08-19T14:04:23Z</time>
      </trkpt>
      <trkpt lat="45.65253" lon="6.6433">
        <ele>1951.077</ele>
        <time>2015-08-19T14:04:33Z</time>
      </trkpt>
      <trkpt lat="45.65252" lon="6.64325">
        <ele>1953.257</ele>
        <time>2015-08-19T14:04:38Z</time>
      </trkpt>
      <trkpt lat="45.65248" lon="6.64319">
        <ele>1953.257</ele>
        <time>2015-08-19T14:04:48Z</time>
      </trkpt>
      <trkpt lat="45.65245" lon="6.64314">
        <ele>1955.157</ele>
        <time>2015-08-19T14:04:53Z</time>
      </trkpt>
      <trkpt lat="45.65242" lon="6.64306">
        <ele>1955.157</ele>
        <time>2015-08-19T14:05:03Z</time>
      </trkpt>
      <trkpt lat="45.65239" lon="6.64302">
        <ele>1956.801</ele>
        <time>2015-08-19T14:05:08Z</time>
      </trkpt>
      <trkpt lat="45.65237" lon="6.64298">
        <ele>1956.801</ele>
        <time>2015-08-19T14:05:18Z</time>
      </trkpt>
      <trkpt lat="45.65236" lon="6.64293">
        <ele>1956.801</ele>
        <time>2015-08-19T14:05:23Z</time>
      </trkpt>
      <trkpt lat="45.65234" lon="6.64287">
        <ele>1958.3706</ele>
        <time>2015-08-19T14:05:33Z</time>
      </trkpt>
      <trkpt lat="45.65232" lon="6.64283">
        <ele>1958.3706</ele>
        <time>2015-08-19T14:05:38Z</time>
      </trkpt>
      <trkpt lat="45.65231" lon="6.64278">
        <ele>1958.3706</ele>
        <time>2015-08-19T14:05:48Z</time>
      </trkpt>
      <trkpt lat="45.65228" lon="6.64275">
        <ele>1959.7604</ele>
        <time>2015-08-19T14:05:53Z</time>
      </trkpt>
      <trkpt lat="45.65225" lon="6.64273">
        <ele>1959.7604</ele>
        <time>2015-08-19T14:06:03Z</time>
      </trkpt>
      <trkpt lat="45.65223" lon="6.64272">
        <ele>1959.7604</ele>
        <time>2015-08-19T14:06:08Z</time>
      </trkpt>
      <trkpt lat="45.6522" lon="6.6427">
        <ele>1960.9742</ele>
        <time>2015-08-19T14:06:18Z</time>
      </trkpt>
      <trkpt lat="45.65217" lon="6.64269">
        <ele>1960.9742</ele>
        <time>2015-08-19T14:06:23Z</time>
      </trkpt>
      <trkpt lat="45.65209" lon="6.64264">
        <ele>1962.2904</ele>
        <time>2015-08-19T14:06:38Z</time>
      </trkpt>
      <trkpt lat="45.65207" lon="6.64261">
        <ele>1962.2904</ele>
        <time>2015-08-19T14:06:43Z</time>
      </trkpt>
      <trkpt lat="45.65202" lon="6.64257">
        <ele>1962.2904</ele>
        <time>2015-08-19T14:06:53Z</time>
      </trkpt>
      <trkpt lat="45.65202" lon="6.64257">
        <ele>1962.2904</ele>
        <time>2015-08-19T14:06:58Z</time>
      </trkpt>
      <trkpt lat="45.65198" lon="6.64253">
        <ele>1964.1964</ele>
        <time>2015-08-19T14:07:08Z</time>
      </trkpt>
      <trkpt lat="45.65196" lon="6.6425">
        <ele>1964.1964</ele>
        <time>2015-08-19T14:07:13Z</time>
      </trkpt>
      <trkpt lat="45.65191" lon="6.64243">
        <ele>1966.2494</ele>
        <time>2015-08-19T14:07:23Z</time>
      </trkpt>
      <trkpt lat="45.65186" lon="6.64235">
        <ele>1966.2494</ele>
        <time>2015-08-19T14:07:28Z</time>
      </trkpt>
      <trkpt lat="45.6518" lon="6.64226">
        <ele>1968.2977</ele>
        <time>2015-08-19T14:07:38Z</time>
      </trkpt>
      <trkpt lat="45.65178" lon="6.64223">
        <ele>1968.2977</ele>
        <time>2015-08-19T14:07:43Z</time>
      </trkpt>
      <trkpt lat="45.65179" lon="6.64226">
        <ele>1968.2977</ele>
        <time>2015-08-19T14:07:53Z</time>
      </trkpt>
      <trkpt lat="45.65178" lon="6.64225">
        <ele>1968.2977</ele>
        <time>2015-08-19T14:07:58Z</time>
      </trkpt>
      <trkpt lat="45.65177" lon="6.64226">
        <ele>1968.2977</ele>
        <time>2015-08-19T14:08:08Z</time>
      </trkpt>
      <trkpt lat="45.65179" lon="6.64232">
        <ele>1970.1578</ele>
        <time>2015-08-19T14:08:13Z</time>
      </trkpt>
      <trkpt lat="45.65177" lon="6.64235">
        <ele>1970.1578</ele>
        <time>2015-08-19T14:08:23Z</time>
      </trkpt>
      <trkpt lat="45.65175" lon="6.64234">
        <ele>1970.1578</ele>
        <time>2015-08-19T14:08:28Z</time>
      </trkpt>
      <trkpt lat="45.6517" lon="6.64234">
        <ele>1971.4008</ele>
        <time>2015-08-19T14:08:38Z</time>
      </trkpt>
      <trkpt lat="45.65167" lon="6.64233">
        <ele>1971.4008</ele>
        <time>2015-08-19T14:08:43Z</time>
      </trkpt>
      <trkpt lat="45.65166" lon="6.64233">
        <ele>1971.4008</ele>
        <time>2015-08-19T14:08:53Z</time>
      </trkpt>
      <trkpt lat="45.65165" lon="6.64231">
        <ele>1971.4008</ele>
        <time>2015-08-19T14:08:58Z</time>
      </trkpt>
      <trkpt lat="45.65164" lon="6.6423">
        <ele>1971.4008</ele>
        <time>2015-08-19T14:09:13Z</time>
      </trkpt>
      <trkpt lat="45.65163" lon="6.64229">
        <ele>1971.4008</ele>
        <time>2015-08-19T14:09:18Z</time>
      </trkpt>
      <trkpt lat="45.65163" lon="6.64229">
        <ele>1971.4008</ele>
        <time>2015-08-19T14:09:28Z</time>
      </trkpt>
      <trkpt lat="45.65161" lon="6.64229">
        <ele>1973.1869</ele>
        <time>2015-08-19T14:09:33Z</time>
      </trkpt>
      <trkpt lat="45.65157" lon="6.64229">
        <ele>1973.1869</ele>
        <time>2015-08-19T14:09:43Z</time>
      </trkpt>
      <trkpt lat="45.6515" lon="6.64223">
        <ele>1974.9185</ele>
        <time>2015-08-19T14:09:48Z</time>
      </trkpt>
      <trkpt lat="45.6514" lon="6.64214">
        <ele>1976.4884</ele>
        <time>2015-08-19T14:09:58Z</time>
      </trkpt>
      <trkpt lat="45.65137" lon="6.64211">
        <ele>1976.4884</ele>
        <time>2015-08-19T14:10:03Z</time>
      </trkpt>
      <trkpt lat="45.65131" lon="6.64209">
        <ele>1978.0426</ele>
        <time>2015-08-19T14:10:13Z</time>
      </trkpt>
      <trkpt lat="45.65129" lon="6.64206">
        <ele>1978.0426</ele>
        <time>2015-08-19T14:10:18Z</time>
      </trkpt>
      <trkpt lat="45.65126" lon="6.64202">
        <ele>1978.0426</ele>
        <time>2015-08-19T14:10:28Z</time>
      </trkpt>
      <trkpt lat="45.65123" lon="6.64199">
        <ele>1979.5437</ele>
        <time>2015-08-19T14:10:33Z</time>
      </trkpt>
      <trkpt lat="45.65119" lon="6.64193">
        <ele>1979.5437</ele>
        <time>2015-08-19T14:10:43Z</time>
      </trkpt>
      <trkpt lat="45.65117" lon="6.64191">
        <ele>1979.5437</ele>
        <time>2015-08-19T14:10:48Z</time>
      </trkpt>
      <trkpt lat="45.65111" lon="6.64185">
        <ele>1981.0865</ele>
        <time>2015-08-19T14:10:58Z</time>
      </trkpt>
      <trkpt lat="45.65109" lon="6.6418">
        <ele>1981.0865</ele>
        <time>2015-08-19T14:11:03Z</time>
      </trkpt>
      <trkpt lat="45.65108" lon="6.64172">
        <ele>1982.4995</ele>
        <time>2015-08-19T14:11:13Z</time>
      </trkpt>
      <trkpt lat="45.65108" lon="6.64168">
        <ele>1982.4995</ele>
        <time>2015-08-19T14:11:18Z</time>
      </trkpt>
      <trkpt lat="45.65107" lon="6.6416">
        <ele>1982.4995</ele>
        <time>2015-08-19T14:11:28Z</time>
      </trkpt>
      <trkpt lat="45.65106" lon="6.64156">
        <ele>1983.8689</ele>
        <time>2015-08-19T14:11:33Z</time>
      </trkpt>
      <trkpt lat="45.65102" lon="6.64149">
        <ele>1983.8689</ele>
        <time>2015-08-19T14:11:43Z</time>
      </trkpt>
      <trkpt lat="45.651" lon="6.64144">
        <ele>1985.1161</ele>
        <time>2015-08-19T14:11:48Z</time>
      </trkpt>
      <trkpt lat="45.65089" lon="6.64136">
        <ele>1986.3126</ele>
        <time>2015-08-19T14:12:03Z</time>
      </trkpt>
      <trkpt lat="45.65086" lon="6.64136">
        <ele>1986.3126</ele>
        <time>2015-08-19T14:12:08Z</time>
      </trkpt>
      <trkpt lat="45.65081" lon="6.64136">
        <ele>1986.3126</ele>
        <time>2015-08-19T14:12:18Z</time>
      </trkpt>
      <trkpt lat="45.65077" lon="6.64137">
        <ele>1987.5105</ele>
        <time>2015-08-19T14:12:23Z</time>
      </trkpt>
      <trkpt lat="45.65072" lon="6.64141">
        <ele>1987.5105</ele>
        <time>2015-08-19T14:12:33Z</time>
      </trkpt>
      <trkpt lat="45.6507" lon="6.64143">
        <ele>1987.5105</ele>
        <time>2015-08-19T14:12:38Z</time>
      </trkpt>
      <trkpt lat="45.65063" lon="6.64147">
        <ele>1988.7574</ele>
        <time>2015-08-19T14:12:48Z</time>
      </trkpt>
      <trkpt lat="45.65061" lon="6.64148">
        <ele>1988.7574</ele>
        <time>2015-08-19T14:12:53Z</time>
      </trkpt>
      <trkpt lat="45.65054" lon="6.64152">
        <ele>1989.9825</ele>
        <time>2015-08-19T14:13:03Z</time>
      </trkpt>
      <trkpt lat="45.6505" lon="6.64155">
        <ele>1989.9825</ele>
        <time>2015-08-19T14:13:08Z</time>
      </trkpt>
      <trkpt lat="45.65045" lon="6.64161">
        <ele>1991.0765</ele>
        <time>2015-08-19T14:13:18Z</time>
      </trkpt>
      <trkpt lat="45.65042" lon="6.64164">
        <ele>1991.0765</ele>
        <time>2015-08-19T14:13:23Z</time>
      </trkpt>
      <trkpt lat="45.65039" lon="6.6417">
        <ele>1991.9674</ele>
        <time>2015-08-19T14:13:33Z</time>
      </trkpt>
      <trkpt lat="45.65037" lon="6.64172">
        <ele>1991.9674</ele>
        <time>2015-08-19T14:13:38Z</time>
      </trkpt>
      <trkpt lat="45.65032" lon="6.64179">
        <ele>1992.675</ele>
        <time>2015-08-19T14:13:48Z</time>
      </trkpt>
      <trkpt lat="45.6503" lon="6.64181">
        <ele>1992.675</ele>
        <time>2015-08-19T14:13:53Z</time>
      </trkpt>
      <trkpt lat="45.65025" lon="6.64185">
        <ele>1992.675</ele>
        <time>2015-08-19T14:14:03Z</time>
      </trkpt>
      <trkpt lat="45.65021" lon="6.64186">
        <ele>1993.3628</ele>
        <time>2015-08-19T14:14:08Z</time>
      </trkpt>
      <trkpt lat="45.65021" lon="6.64183">
        <ele>1993.3628</ele>
        <time>2015-08-19T14:14:18Z</time>
      </trkpt>
      <trkpt lat="45.65019" lon="6.6418">
        <ele>1993.3628</ele>
        <time>2015-08-19T14:14:23Z</time>
      </trkpt>
      <trkpt lat="45.6501" lon="6.6419">
        <ele>1994.2393</ele>
        <time>2015-08-19T14:14:38Z</time>
      </trkpt>
      <trkpt lat="45.65007" lon="6.64193">
        <ele>1994.2393</ele>
        <time>2015-08-19T14:14:43Z</time>
      </trkpt>
      <trkpt lat="45.65002" lon="6.64198">
        <ele>1995.2375</ele>
        <time>2015-08-19T14:14:53Z</time>
      </trkpt>
      <trkpt lat="45.64999" lon="6.64199">
        <ele>1995.2375</ele>
        <time>2015-08-19T14:14:58Z</time>
      </trkpt>
      <trkpt lat="45.64994" lon="6.64204">
        <ele>1995.2375</ele>
        <time>2015-08-19T14:15:08Z</time>
      </trkpt>
      <trkpt lat="45.64991" lon="6.64206">
        <ele>1996.2667</ele>
        <time>2015-08-19T14:15:13Z</time>
      </trkpt>
      <trkpt lat="45.64986" lon="6.64205">
        <ele>1996.2667</ele>
        <time>2015-08-19T14:15:23Z</time>
      </trkpt>
      <trkpt lat="45.64983" lon="6.64209">
        <ele>1996.2667</ele>
        <time>2015-08-19T14:15:28Z</time>
      </trkpt>
      <trkpt lat="45.64979" lon="6.64217">
        <ele>1997.2274</ele>
        <time>2015-08-19T14:15:38Z</time>
      </trkpt>
      <trkpt lat="45.64979" lon="6.6422">
        <ele>1997.2274</ele>
        <time>2015-08-19T14:15:43Z</time>
      </trkpt>
      <trkpt lat="45.64982" lon="6.64225">
        <ele>1997.2274</ele>
        <time>2015-08-19T14:15:53Z</time>
      </trkpt>
      <trkpt lat="45.64983" lon="6.6423">
        <ele>1998.3451</ele>
        <time>2015-08-19T14:15:58Z</time>
      </trkpt>
      <trkpt lat="45.64983" lon="6.64241">
        <ele>1998.3451</ele>
        <time>2015-08-19T14:16:08Z</time>
      </trkpt>
      <trkpt lat="45.64982" lon="6.64246">
        <ele>1999.4531</ele>
        <time>2015-08-19T14:16:13Z</time>
      </trkpt>
      <trkpt lat="45.64977" lon="6.64253">
        <ele>1999.4531</ele>
        <time>2015-08-19T14:16:23Z</time>
      </trkpt>
      <trkpt lat="45.64975" lon="6.64256">
        <ele>2000.6997</ele>
        <time>2015-08-19T14:16:28Z</time>
      </trkpt>
      <trkpt lat="45.64969" lon="6.6426">
        <ele>2000.6997</ele>
        <time>2015-08-19T14:16:38Z</time>
      </trkpt>
      <trkpt lat="45.64965" lon="6.6426">
        <ele>2001.8179</ele>
        <time>2015-08-19T14:16:43Z</time>
      </trkpt>
      <trkpt lat="45.64959" lon="6.6426">
        <ele>2001.8179</ele>
        <time>2015-08-19T14:16:53Z</time>
      </trkpt>
      <trkpt lat="45.64956" lon="6.64256">
        <ele>2002.849</ele>
        <time>2015-08-19T14:16:58Z</time>
      </trkpt>
      <trkpt lat="45.64947" lon="6.6425">
        <ele>2003.8892</ele>
        <time>2015-08-19T14:17:08Z</time>
      </trkpt>
      <trkpt lat="45.64942" lon="6.64247">
        <ele>2003.8892</ele>
        <time>2015-08-19T14:17:13Z</time>
      </trkpt>
      <trkpt lat="45.64929" lon="6.64237">
        <ele>2005.1422</ele>
        <time>2015-08-19T14:17:28Z</time>
      </trkpt>
      <trkpt lat="45.64926" lon="6.64234">
        <ele>2005.1422</ele>
        <time>2015-08-19T14:17:33Z</time>
      </trkpt>
      <trkpt lat="45.64921" lon="6.64226">
        <ele>2006.4073</ele>
        <time>2015-08-19T14:17:43Z</time>
      </trkpt>
      <trkpt lat="45.64919" lon="6.64223">
        <ele>2006.4073</ele>
        <time>2015-08-19T14:17:48Z</time>
      </trkpt>
      <trkpt lat="45.64909" lon="6.6422">
        <ele>2007.7867</ele>
        <time>2015-08-19T14:17:58Z</time>
      </trkpt>
      <trkpt lat="45.64906" lon="6.64221">
        <ele>2007.7867</ele>
        <time>2015-08-19T14:18:03Z</time>
      </trkpt>
      <trkpt lat="45.64906" lon="6.64219">
        <ele>2007.7867</ele>
        <time>2015-08-19T14:18:13Z</time>
      </trkpt>
      <trkpt lat="45.64907" lon="6.6422">
        <ele>2007.7867</ele>
        <time>2015-08-19T14:18:18Z</time>
      </trkpt>
      <trkpt lat="45.64907" lon="6.64222">
        <ele>2007.7867</ele>
        <time>2015-08-19T14:18:28Z</time>
      </trkpt>
      <trkpt lat="45.64908" lon="6.64222">
        <ele>2007.7867</ele>
        <time>2015-08-19T14:18:33Z</time>
      </trkpt>
      <trkpt lat="45.64906" lon="6.6422">
        <ele>2009.331</ele>
        <time>2015-08-19T14:18:43Z</time>
      </trkpt>
      <trkpt lat="45.64905" lon="6.64219">
        <ele>2009.331</ele>
        <time>2015-08-19T14:18:48Z</time>
      </trkpt>
      <trkpt lat="45.64903" lon="6.64217">
        <ele>2009.331</ele>
        <time>2015-08-19T14:18:58Z</time>
      </trkpt>
      <trkpt lat="45.64902" lon="6.64217">
        <ele>2009.331</ele>
        <time>2015-08-19T14:19:03Z</time>
      </trkpt>
      <trkpt lat="45.64902" lon="6.64218">
        <ele>2009.331</ele>
        <time>2015-08-19T14:19:18Z</time>
      </trkpt>
      <trkpt lat="45.64901" lon="6.64216">
        <ele>2009.331</ele>
        <time>2015-08-19T14:19:23Z</time>
      </trkpt>
      <trkpt lat="45.64901" lon="6.64216">
        <ele>2009.331</ele>
        <time>2015-08-19T14:19:33Z</time>
      </trkpt>
      <trkpt lat="45.64901" lon="6.64216">
        <ele>2009.331</ele>
        <time>2015-08-19T14:20:58Z</time>
      </trkpt>
      <trkpt lat="45.64901" lon="6.64216">
        <ele>2009.331</ele>
        <time>2015-08-19T14:21:03Z</time>
      </trkpt>
      <trkpt lat="45.64902" lon="6.64217">
        <ele>2009.331</ele>
        <time>2015-08-19T14:21:23Z</time>
      </trkpt>
      <trkpt lat="45.64902" lon="6.64217">
        <ele>2009.331</ele>
        <time>2015-08-19T14:21:28Z</time>
      </trkpt>
      <trkpt lat="45.64902" lon="6.64218">
        <ele>2009.331</ele>
        <time>2015-08-19T14:22:03Z</time>
      </trkpt>
      <trkpt lat="45.64902" lon="6.64218">
        <ele>2009.331</ele>
        <time>2015-08-19T14:22:08Z</time>
      </trkpt>
      <trkpt lat="45.64901" lon="6.64219">
        <ele>2010.3662</ele>
        <time>2015-08-19T14:25:33Z</time>
      </trkpt>
      <trkpt lat="45.64899" lon="6.64221">
        <ele>2010.3662</ele>
        <time>2015-08-19T14:25:43Z</time>
      </trkpt>
      <trkpt lat="45.64896" lon="6.64226">
        <ele>2010.3662</ele>
        <time>2015-08-19T14:26:03Z</time>
      </trkpt>
      <trkpt lat="45.64894" lon="6.64231">
        <ele>2010.9176</ele>
        <time>2015-08-19T14:26:08Z</time>
      </trkpt>
      <trkpt lat="45.64888" lon="6.64234">
        <ele>2010.9176</ele>
        <time>2015-08-19T14:26:18Z</time>
      </trkpt>
      <trkpt lat="45.64887" lon="6.64235">
        <ele>2010.9176</ele>
        <time>2015-08-19T14:26:23Z</time>
      </trkpt>
      <trkpt lat="45.64881" lon="6.6424">
        <ele>2011.4565</ele>
        <time>2015-08-19T14:26:33Z</time>
      </trkpt>
      <trkpt lat="45.64878" lon="6.64241">
        <ele>2011.4565</ele>
        <time>2015-08-19T14:26:38Z</time>
      </trkpt>
      <trkpt lat="45.64875" lon="6.64239">
        <ele>2011.4565</ele>
        <time>2015-08-19T14:26:48Z</time>
      </trkpt>
      <trkpt lat="45.64873" lon="6.64241">
        <ele>2011.4565</ele>
        <time>2015-08-19T14:26:53Z</time>
      </trkpt>
      <trkpt lat="45.64871" lon="6.6424">
        <ele>2012.1748</ele>
        <time>2015-08-19T14:27:03Z</time>
      </trkpt>
      <trkpt lat="45.64869" lon="6.64241">
        <ele>2012.1748</ele>
        <time>2015-08-19T14:27:08Z</time>
      </trkpt>
      <trkpt lat="45.64864" lon="6.64243">
        <ele>2012.1748</ele>
        <time>2015-08-19T14:27:18Z</time>
      </trkpt>
      <trkpt lat="45.64863" lon="6.64244">
        <ele>2012.1748</ele>
        <time>2015-08-19T14:27:23Z</time>
      </trkpt>
      <trkpt lat="45.64859" lon="6.64246">
        <ele>2013.0618</ele>
        <time>2015-08-19T14:27:33Z</time>
      </trkpt>
      <trkpt lat="45.64857" lon="6.64244">
        <ele>2013.0618</ele>
        <time>2015-08-19T14:27:38Z</time>
      </trkpt>
      <trkpt lat="45.64854" lon="6.64246">
        <ele>2013.0618</ele>
        <time>2015-08-19T14:27:48Z</time>
      </trkpt>
      <trkpt lat="45.64855" lon="6.6425">
        <ele>2013.0618</ele>
        <time>2015-08-19T14:27:53Z</time>
      </trkpt>
      <trkpt lat="45.64853" lon="6.6425">
        <ele>2014.2804</ele>
        <time>2015-08-19T14:28:03Z</time>
      </trkpt>
      <trkpt lat="45.64852" lon="6.64247">
        <ele>2014.2804</ele>
        <time>2015-08-19T14:28:08Z</time>
      </trkpt>
      <trkpt lat="45.64846" lon="6.64245">
        <ele>2014.2804</ele>
        <time>2015-08-19T14:28:18Z</time>
      </trkpt>
      <trkpt lat="45.64845" lon="6.6425">
        <ele>2015.7354</ele>
        <time>2015-08-19T14:28:23Z</time>
      </trkpt>
      <trkpt lat="45.64841" lon="6.6425">
        <ele>2015.7354</ele>
        <time>2015-08-19T14:28:33Z</time>
      </trkpt>
      <trkpt lat="45.64839" lon="6.64252">
        <ele>2015.7354</ele>
        <time>2015-08-19T14:28:38Z</time>
      </trkpt>
      <trkpt lat="45.64838" lon="6.64257">
        <ele>2017.3663</ele>
        <time>2015-08-19T14:28:53Z</time>
      </trkpt>
      <trkpt lat="45.64838" lon="6.64259">
        <ele>2017.3663</ele>
        <time>2015-08-19T14:28:58Z</time>
      </trkpt>
      <trkpt lat="45.64837" lon="6.64262">
        <ele>2017.3663</ele>
        <time>2015-08-19T14:29:08Z</time>
      </trkpt>
      <trkpt lat="45.64835" lon="6.64266">
        <ele>2017.3663</ele>
        <time>2015-08-19T14:29:13Z</time>
      </trkpt>
      <trkpt lat="45.64833" lon="6.64268">
        <ele>2019.045</ele>
        <time>2015-08-19T14:29:23Z</time>
      </trkpt>
      <trkpt lat="45.64831" lon="6.64269">
        <ele>2019.045</ele>
        <time>2015-08-19T14:29:28Z</time>
      </trkpt>
      <trkpt lat="45.64828" lon="6.64269">
        <ele>2019.045</ele>
        <time>2015-08-19T14:29:38Z</time>
      </trkpt>
      <trkpt lat="45.64826" lon="6.6427">
        <ele>2019.045</ele>
        <time>2015-08-19T14:29:43Z</time>
      </trkpt>
      <trkpt lat="45.64822" lon="6.64272">
        <ele>2021.0702</ele>
        <time>2015-08-19T14:29:53Z</time>
      </trkpt>
      <trkpt lat="45.64822" lon="6.64271">
        <ele>2021.0702</ele>
        <time>2015-08-19T14:29:58Z</time>
      </trkpt>
      <trkpt lat="45.64822" lon="6.64269">
        <ele>2021.0702</ele>
        <time>2015-08-19T14:30:08Z</time>
      </trkpt>
      <trkpt lat="45.64821" lon="6.6427">
        <ele>2021.0702</ele>
        <time>2015-08-19T14:30:13Z</time>
      </trkpt>
      <trkpt lat="45.64817" lon="6.64275">
        <ele>2022.9103</ele>
        <time>2015-08-19T14:30:23Z</time>
      </trkpt>
      <trkpt lat="45.64817" lon="6.64278">
        <ele>2022.9103</ele>
        <time>2015-08-19T14:30:28Z</time>
      </trkpt>
      <trkpt lat="45.64814" lon="6.64282">
        <ele>2022.9103</ele>
        <time>2015-08-19T14:30:38Z</time>
      </trkpt>
      <trkpt lat="45.64812" lon="6.64284">
        <ele>2022.9103</ele>
        <time>2015-08-19T14:30:43Z</time>
      </trkpt>
      <trkpt lat="45.64813" lon="6.64281">
        <ele>2025.0535</ele>
        <time>2015-08-19T14:30:53Z</time>
      </trkpt>
      <trkpt lat="45.64813" lon="6.64281">
        <ele>2025.0535</ele>
        <time>2015-08-19T14:30:58Z</time>
      </trkpt>
      <trkpt lat="45.64806" lon="6.64283">
        <ele>2025.0535</ele>
        <time>2015-08-19T14:31:13Z</time>
      </trkpt>
      <trkpt lat="45.64806" lon="6.64283">
        <ele>2025.0535</ele>
        <time>2015-08-19T14:31:18Z</time>
      </trkpt>
      <trkpt lat="45.64807" lon="6.6428">
        <ele>2027.389</ele>
        <time>2015-08-19T14:31:28Z</time>
      </trkpt>
      <trkpt lat="45.64806" lon="6.64281">
        <ele>2027.389</ele>
        <time>2015-08-19T14:31:33Z</time>
      </trkpt>
      <trkpt lat="45.64806" lon="6.64281">
        <ele>2027.389</ele>
        <time>2015-08-19T14:31:43Z</time>
      </trkpt>
      <trkpt lat="45.64806" lon="6.64282">
        <ele>2027.389</ele>
        <time>2015-08-19T14:32:13Z</time>
      </trkpt>
      <trkpt lat="45.64805" lon="6.64283">
        <ele>2027.389</ele>
        <time>2015-08-19T14:32:18Z</time>
      </trkpt>
      <trkpt lat="45.64802" lon="6.64287">
        <ele>2027.389</ele>
        <time>2015-08-19T14:32:28Z</time>
      </trkpt>
      <trkpt lat="45.648" lon="6.64289">
        <ele>2029.9723</ele>
        <time>2015-08-19T14:32:33Z</time>
      </trkpt>
      <trkpt lat="45.648" lon="6.64289">
        <ele>2029.9723</ele>
        <time>2015-08-19T14:32:43Z</time>
      </trkpt>
      <trkpt lat="45.64794" lon="6.64288">
        <ele>2029.9723</ele>
        <time>2015-08-19T14:32:58Z</time>
      </trkpt>
      <trkpt lat="45.64794" lon="6.64288">
        <ele>2029.9723</ele>
        <time>2015-08-19T14:33:03Z</time>
      </trkpt>
      <trkpt lat="45.64792" lon="6.64292">
        <ele>2029.9723</ele>
        <time>2015-08-19T14:33:13Z</time>
      </trkpt>
      <trkpt lat="45.6479" lon="6.64294">
        <ele>2033.07</ele>
        <time>2015-08-19T14:33:18Z</time>
      </trkpt>
      <trkpt lat="45.6479" lon="6.64294">
        <ele>2033.07</ele>
        <time>2015-08-19T14:33:28Z</time>
      </trkpt>
      <trkpt lat="45.6479" lon="6.64296">
        <ele>2033.07</ele>
        <time>2015-08-19T14:33:48Z</time>
      </trkpt>
      <trkpt lat="45.64788" lon="6.643">
        <ele>2033.07</ele>
        <time>2015-08-19T14:33:53Z</time>
      </trkpt>
      <trkpt lat="45.64788" lon="6.643">
        <ele>2033.07</ele>
        <time>2015-08-19T14:34:03Z</time>
      </trkpt>
      <trkpt lat="45.64789" lon="6.64305">
        <ele>2033.07</ele>
        <time>2015-08-19T14:34:08Z</time>
      </trkpt>
      <trkpt lat="45.64788" lon="6.64317">
        <ele>2036.4379</ele>
        <time>2015-08-19T14:34:18Z</time>
      </trkpt>
      <trkpt lat="45.6479" lon="6.6432">
        <ele>2036.4379</ele>
        <time>2015-08-19T14:34:23Z</time>
      </trkpt>
      <trkpt lat="45.64791" lon="6.64322">
        <ele>2036.4379</ele>
        <time>2015-08-19T14:34:33Z</time>
      </trkpt>
      <trkpt lat="45.64791" lon="6.64324">
        <ele>2036.4379</ele>
        <time>2015-08-19T14:35:18Z</time>
      </trkpt>
      <trkpt lat="45.64791" lon="6.64324">
        <ele>2036.4379</ele>
        <time>2015-08-19T14:35:23Z</time>
      </trkpt>
      <trkpt lat="45.64791" lon="6.64326">
        <ele>2036.4379</ele>
        <time>2015-08-19T14:35:38Z</time>
      </trkpt>
      <trkpt lat="45.64791" lon="6.64329">
        <ele>2040.6989</ele>
        <time>2015-08-19T14:35:43Z</time>
      </trkpt>
      <trkpt lat="45.64792" lon="6.64337">
        <ele>2040.6989</ele>
        <time>2015-08-19T14:35:53Z</time>
      </trkpt>
      <trkpt lat="45.64792" lon="6.64338">
        <ele>2040.6989</ele>
        <time>2015-08-19T14:36:13Z</time>
      </trkpt>
      <trkpt lat="45.64792" lon="6.6434">
        <ele>2040.6989</ele>
        <time>2015-08-19T14:36:23Z</time>
      </trkpt>
      <trkpt lat="45.64796" lon="6.64355">
        <ele>2045.4912</ele>
        <time>2015-08-19T14:36:38Z</time>
      </trkpt>
      <trkpt lat="45.64799" lon="6.64364">
        <ele>2045.4912</ele>
        <time>2015-08-19T14:36:43Z</time>
      </trkpt>
      <trkpt lat="45.64802" lon="6.64369">
        <ele>2049.8296</ele>
        <time>2015-08-19T14:36:53Z</time>
      </trkpt>
      <trkpt lat="45.64802" lon="6.64369">
        <ele>2049.8296</ele>
        <time>2015-08-19T14:36:58Z</time>
      </trkpt>
      <trkpt lat="45.64803" lon="6.64378">
        <ele>2049.8296</ele>
        <time>2015-08-19T14:37:08Z</time>
      </trkpt>
      <trkpt lat="45.64804" lon="6.64379">
        <ele>2049.8296</ele>
        <time>2015-08-19T14:37:13Z</time>
      </trkpt>
      <trkpt lat="45.64803" lon="6.64381">
        <ele>2049.8296</ele>
        <time>2015-08-19T14:37:23Z</time>
      </trkpt>
      <trkpt lat="45.64803" lon="6.64381">
        <ele>2049.8296</ele>
        <time>2015-08-19T14:37:28Z</time>
      </trkpt>
      <trkpt lat="45.64804" lon="6.64382">
        <ele>2054.157</ele>
        <time>2015-08-19T14:37:43Z</time>
      </trkpt>
      <trkpt lat="45.64803" lon="6.64385">
        <ele>2054.157</ele>
        <time>2015-08-19T14:38:03Z</time>
      </trkpt>
      <trkpt lat="45.64803" lon="6.64385">
        <ele>2054.157</ele>
        <time>2015-08-19T14:38:13Z</time>
      </trkpt>
      <trkpt lat="45.64802" lon="6.64389">
        <ele>2054.157</ele>
        <time>2015-08-19T14:38:28Z</time>
      </trkpt>
      <trkpt lat="45.64802" lon="6.64389">
        <ele>2054.157</ele>
        <time>2015-08-19T14:38:33Z</time>
      </trkpt>
      <trkpt lat="45.64801" lon="6.64393">
        <ele>2054.157</ele>
        <time>2015-08-19T14:38:43Z</time>
      </trkpt>
      <trkpt lat="45.64799" lon="6.64413">
        <ele>2058.38</ele>
        <time>2015-08-19T14:38:48Z</time>
      </trkpt>
      <trkpt lat="45.64799" lon="6.64414">
        <ele>2058.38</ele>
        <time>2015-08-19T14:38:58Z</time>
      </trkpt>
      <trkpt lat="45.64799" lon="6.64414">
        <ele>2058.38</ele>
        <time>2015-08-19T14:39:03Z</time>
      </trkpt>
      <trkpt lat="45.64797" lon="6.64424">
        <ele>2058.38</ele>
        <time>2015-08-19T14:39:28Z</time>
      </trkpt>
      <trkpt lat="45.64797" lon="6.64424">
        <ele>2058.38</ele>
        <time>2015-08-19T14:39:33Z</time>
      </trkpt>
      <trkpt lat="45.64797" lon="6.64425">
        <ele>2063.2764</ele>
        <time>2015-08-19T14:40:08Z</time>
      </trkpt>
      <trkpt lat="45.64797" lon="6.64425">
        <ele>2063.2764</ele>
        <time>2015-08-19T14:40:18Z</time>
      </trkpt>
      <trkpt lat="45.64799" lon="6.6443">
        <ele>2063.2764</ele>
        <time>2015-08-19T14:45:18Z</time>
      </trkpt>
      <trkpt lat="45.64805" lon="6.64451">
        <ele>2068.845</ele>
        <time>2015-08-19T14:45:28Z</time>
      </trkpt>
      <trkpt lat="45.64806" lon="6.64456">
        <ele>2068.845</ele>
        <time>2015-08-19T14:45:33Z</time>
      </trkpt>
      <trkpt lat="45.64809" lon="6.64472">
        <ele>2074.1174</ele>
        <time>2015-08-19T14:45:43Z</time>
      </trkpt>
      <trkpt lat="45.64809" lon="6.64472">
        <ele>2074.1174</ele>
        <time>2015-08-19T14:45:48Z</time>
      </trkpt>
      <trkpt lat="45.64816" lon="6.64478">
        <ele>2074.1174</ele>
        <time>2015-08-19T14:45:58Z</time>
      </trkpt>
      <trkpt lat="45.64819" lon="6.64482">
        <ele>2079.2349</ele>
        <time>2015-08-19T14:46:03Z</time>
      </trkpt>
      <trkpt lat="45.64826" lon="6.64489">
        <ele>2079.2349</ele>
        <time>2015-08-19T14:46:13Z</time>
      </trkpt>
      <trkpt lat="45.64829" lon="6.64491">
        <ele>2084.141</ele>
        <time>2015-08-19T14:46:18Z</time>
      </trkpt>
      <trkpt lat="45.64833" lon="6.64498">
        <ele>2084.141</ele>
        <time>2015-08-19T14:46:28Z</time>
      </trkpt>
      <trkpt lat="45.64835" lon="6.64502">
        <ele>2088.7856</ele>
        <time>2015-08-19T14:46:33Z</time>
      </trkpt>
      <trkpt lat="45.64838" lon="6.64507">
        <ele>2088.7856</ele>
        <time>2015-08-19T14:46:48Z</time>
      </trkpt>
      <trkpt lat="45.64839" lon="6.64506">
        <ele>2088.7856</ele>
        <time>2015-08-19T14:46:53Z</time>
      </trkpt>
      <trkpt lat="45.64839" lon="6.64505">
        <ele>2088.7856</ele>
        <time>2015-08-19T14:47:03Z</time>
      </trkpt>
      <trkpt lat="45.64838" lon="6.64505">
        <ele>2088.7856</ele>
        <time>2015-08-19T14:47:08Z</time>
      </trkpt>
      <trkpt lat="45.64838" lon="6.64513">
        <ele>2093.2659</ele>
        <time>2015-08-19T14:47:18Z</time>
      </trkpt>
      <trkpt lat="45.64839" lon="6.64516">
        <ele>2093.2659</ele>
        <time>2015-08-19T14:47:23Z</time>
      </trkpt>
      <trkpt lat="45.6484" lon="6.64519">
        <ele>2093.2659</ele>
        <time>2015-08-19T14:47:33Z</time>
      </trkpt>
      <trkpt lat="45.64842" lon="6.6452">
        <ele>2093.2659</ele>
        <time>2015-08-19T14:47:38Z</time>
      </trkpt>
      <trkpt lat="45.64845" lon="6.64527">
        <ele>2097.6155</ele>
        <time>2015-08-19T14:47:48Z</time>
      </trkpt>
      <trkpt lat="45.64847" lon="6.64528">
        <ele>2097.6155</ele>
        <time>2015-08-19T14:47:53Z</time>
      </trkpt>
      <trkpt lat="45.6485" lon="6.64532">
        <ele>2097.6155</ele>
        <time>2015-08-19T14:48:03Z</time>
      </trkpt>
      <trkpt lat="45.64851" lon="6.64532">
        <ele>2097.6155</ele>
        <time>2015-08-19T14:48:08Z</time>
      </trkpt>
      <trkpt lat="45.64854" lon="6.64535">
        <ele>2101.8809</ele>
        <time>2015-08-19T14:48:18Z</time>
      </trkpt>
      <trkpt lat="45.64855" lon="6.64536">
        <ele>2101.8809</ele>
        <time>2015-08-19T14:48:23Z</time>
      </trkpt>
      <trkpt lat="45.64857" lon="6.64536">
        <ele>2101.8809</ele>
        <time>2015-08-19T14:48:38Z</time>
      </trkpt>
      <trkpt lat="45.64857" lon="6.64535">
        <ele>2101.8809</ele>
        <time>2015-08-19T14:48:43Z</time>
      </trkpt>
      <trkpt lat="45.64854" lon="6.64538">
        <ele>2101.8809</ele>
        <time>2015-08-19T14:48:53Z</time>
      </trkpt>
      <trkpt lat="45.64854" lon="6.6454">
        <ele>2106.0327</ele>
        <time>2015-08-19T14:48:58Z</time>
      </trkpt>
      <trkpt lat="45.64852" lon="6.64548">
        <ele>2106.0327</ele>
        <time>2015-08-19T14:49:08Z</time>
      </trkpt>
      <trkpt lat="45.64853" lon="6.64549">
        <ele>2106.0327</ele>
        <time>2015-08-19T14:49:13Z</time>
      </trkpt>
      <trkpt lat="45.64856" lon="6.64555">
        <ele>2109.93</ele>
        <time>2015-08-19T14:49:23Z</time>
      </trkpt>
      <trkpt lat="45.64856" lon="6.64558">
        <ele>2109.93</ele>
        <time>2015-08-19T14:49:28Z</time>
      </trkpt>
      <trkpt lat="45.64857" lon="6.64565">
        <ele>2109.93</ele>
        <time>2015-08-19T14:49:38Z</time>
      </trkpt>
      <trkpt lat="45.64857" lon="6.64571">
        <ele>2113.5867</ele>
        <time>2015-08-19T14:49:43Z</time>
      </trkpt>
      <trkpt lat="45.64855" lon="6.64581">
        <ele>2113.5867</ele>
        <time>2015-08-19T14:49:53Z</time>
      </trkpt>
      <trkpt lat="45.64856" lon="6.64583">
        <ele>2113.5867</ele>
        <time>2015-08-19T14:49:58Z</time>
      </trkpt>
      <trkpt lat="45.6486" lon="6.64586">
        <ele>2117.0017</ele>
        <time>2015-08-19T14:50:08Z</time>
      </trkpt>
      <trkpt lat="45.64861" lon="6.64588">
        <ele>2117.0017</ele>
        <time>2015-08-19T14:50:13Z</time>
      </trkpt>
      <trkpt lat="45.64864" lon="6.64601">
        <ele>2120.075</ele>
        <time>2015-08-19T14:50:28Z</time>
      </trkpt>
      <trkpt lat="45.64865" lon="6.64603">
        <ele>2120.075</ele>
        <time>2015-08-19T14:50:33Z</time>
      </trkpt>
      <trkpt lat="45.64866" lon="6.64606">
        <ele>2120.075</ele>
        <time>2015-08-19T14:50:43Z</time>
      </trkpt>
      <trkpt lat="45.64864" lon="6.64608">
        <ele>2120.075</ele>
        <time>2015-08-19T14:50:48Z</time>
      </trkpt>
      <trkpt lat="45.64861" lon="6.64616">
        <ele>2123.363</ele>
        <time>2015-08-19T14:50:58Z</time>
      </trkpt>
      <trkpt lat="45.64862" lon="6.64617">
        <ele>2123.363</ele>
        <time>2015-08-19T14:51:03Z</time>
      </trkpt>
      <trkpt lat="45.64857" lon="6.64625">
        <ele>2123.363</ele>
        <time>2015-08-19T14:51:13Z</time>
      </trkpt>
      <trkpt lat="45.64854" lon="6.6463">
        <ele>2126.1848</ele>
        <time>2015-08-19T14:51:18Z</time>
      </trkpt>
      <trkpt lat="45.64853" lon="6.6464">
        <ele>2126.1848</ele>
        <time>2015-08-19T14:51:28Z</time>
      </trkpt>
      <trkpt lat="45.64853" lon="6.6464">
        <ele>2126.1848</ele>
        <time>2015-08-19T14:51:33Z</time>
      </trkpt>
      <trkpt lat="45.64848" lon="6.64642">
        <ele>2128.617</ele>
        <time>2015-08-19T14:51:43Z</time>
      </trkpt>
      <trkpt lat="45.64846" lon="6.64643">
        <ele>2128.617</ele>
        <time>2015-08-19T14:51:48Z</time>
      </trkpt>
      <trkpt lat="45.64839" lon="6.64645">
        <ele>2130.6458</ele>
        <time>2015-08-19T14:51:58Z</time>
      </trkpt>
      <trkpt lat="45.64837" lon="6.64646">
        <ele>2130.6458</ele>
        <time>2015-08-19T14:52:03Z</time>
      </trkpt>
      <trkpt lat="45.64832" lon="6.64647">
        <ele>2130.6458</ele>
        <time>2015-08-19T14:52:13Z</time>
      </trkpt>
      <trkpt lat="45.64828" lon="6.64649">
        <ele>2132.4177</ele>
        <time>2015-08-19T14:52:18Z</time>
      </trkpt>
      <trkpt lat="45.64824" lon="6.64655">
        <ele>2132.4177</ele>
        <time>2015-08-19T14:52:28Z</time>
      </trkpt>
      <trkpt lat="45.64823" lon="6.64657">
        <ele>2132.4177</ele>
        <time>2015-08-19T14:52:33Z</time>
      </trkpt>
      <trkpt lat="45.6482" lon="6.64661">
        <ele>2133.9688</ele>
        <time>2015-08-19T14:52:43Z</time>
      </trkpt>
      <trkpt lat="45.64818" lon="6.64663">
        <ele>2133.9688</ele>
        <time>2015-08-19T14:52:48Z</time>
      </trkpt>
      <trkpt lat="45.6482" lon="6.64667">
        <ele>2133.9688</ele>
        <time>2015-08-19T14:52:58Z</time>
      </trkpt>
      <trkpt lat="45.64818" lon="6.64667">
        <ele>2133.9688</ele>
        <time>2015-08-19T14:53:03Z</time>
      </trkpt>
      <trkpt lat="45.64808" lon="6.64667">
        <ele>2135.78</ele>
        <time>2015-08-19T14:53:18Z</time>
      </trkpt>
      <trkpt lat="45.64805" lon="6.6467">
        <ele>2135.78</ele>
        <time>2015-08-19T14:53:23Z</time>
      </trkpt>
      <trkpt lat="45.648" lon="6.64675">
        <ele>2137.5613</ele>
        <time>2015-08-19T14:53:33Z</time>
      </trkpt>
      <trkpt lat="45.64799" lon="6.64675">
        <ele>2137.5613</ele>
        <time>2015-08-19T14:53:38Z</time>
      </trkpt>
      <trkpt lat="45.64793" lon="6.6468">
        <ele>2137.5613</ele>
        <time>2015-08-19T14:53:48Z</time>
      </trkpt>
      <trkpt lat="45.64792" lon="6.64682">
        <ele>2139.015</ele>
        <time>2015-08-19T14:53:53Z</time>
      </trkpt>
      <trkpt lat="45.64789" lon="6.64683">
        <ele>2139.015</ele>
        <time>2015-08-19T14:54:03Z</time>
      </trkpt>
      <trkpt lat="45.64785" lon="6.64679">
        <ele>2139.015</ele>
        <time>2015-08-19T14:54:08Z</time>
      </trkpt>
      <trkpt lat="45.64784" lon="6.6468">
        <ele>2139.982</ele>
        <time>2015-08-19T14:54:18Z</time>
      </trkpt>
      <trkpt lat="45.64786" lon="6.6468">
        <ele>2139.982</ele>
        <time>2015-08-19T14:54:23Z</time>
      </trkpt>
      <trkpt lat="45.6479" lon="6.64676">
        <ele>2139.982</ele>
        <time>2015-08-19T14:54:33Z</time>
      </trkpt>
      <trkpt lat="45.64787" lon="6.64678">
        <ele>2140.5752</ele>
        <time>2015-08-19T14:54:38Z</time>
      </trkpt>
      <trkpt lat="45.64781" lon="6.64682">
        <ele>2140.5752</ele>
        <time>2015-08-19T14:54:48Z</time>
      </trkpt>
      <trkpt lat="45.64779" lon="6.64683">
        <ele>2140.5752</ele>
        <time>2015-08-19T14:54:53Z</time>
      </trkpt>
      <trkpt lat="45.6477" lon="6.64687">
        <ele>2141.391</ele>
        <time>2015-08-19T14:55:08Z</time>
      </trkpt>
      <trkpt lat="45.64769" lon="6.64688">
        <ele>2141.391</ele>
        <time>2015-08-19T14:55:13Z</time>
      </trkpt>
      <trkpt lat="45.64768" lon="6.6469">
        <ele>2141.391</ele>
        <time>2015-08-19T14:55:23Z</time>
      </trkpt>
      <trkpt lat="45.64766" lon="6.6469">
        <ele>2141.391</ele>
        <time>2015-08-19T14:55:28Z</time>
      </trkpt>
      <trkpt lat="45.64763" lon="6.64693">
        <ele>2142.3035</ele>
        <time>2015-08-19T14:55:38Z</time>
      </trkpt>
      <trkpt lat="45.64762" lon="6.64695">
        <ele>2142.3035</ele>
        <time>2015-08-19T14:55:43Z</time>
      </trkpt>
      <trkpt lat="45.64761" lon="6.64702">
        <ele>2142.3035</ele>
        <time>2015-08-19T14:55:53Z</time>
      </trkpt>
      <trkpt lat="45.64759" lon="6.64706">
        <ele>2143.369</ele>
        <time>2015-08-19T14:55:58Z</time>
      </trkpt>
      <trkpt lat="45.64759" lon="6.64712">
        <ele>2143.369</ele>
        <time>2015-08-19T14:56:08Z</time>
      </trkpt>
      <trkpt lat="45.64759" lon="6.64713">
        <ele>2143.369</ele>
        <time>2015-08-19T14:56:13Z</time>
      </trkpt>
      <trkpt lat="45.64758" lon="6.64712">
        <ele>2143.369</ele>
        <time>2015-08-19T14:56:23Z</time>
      </trkpt>
      <trkpt lat="45.64758" lon="6.64713">
        <ele>2143.369</ele>
        <time>2015-08-19T14:56:28Z</time>
      </trkpt>
      <trkpt lat="45.64756" lon="6.64714">
        <ele>2143.369</ele>
        <time>2015-08-19T14:56:38Z</time>
      </trkpt>
      <trkpt lat="45.64756" lon="6.64716">
        <ele>2144.8257</ele>
        <time>2015-08-19T14:56:43Z</time>
      </trkpt>
      <trkpt lat="45.64753" lon="6.64721">
        <ele>2144.8257</ele>
        <time>2015-08-19T14:56:58Z</time>
      </trkpt>
      <trkpt lat="45.64751" lon="6.64722">
        <ele>2144.8257</ele>
        <time>2015-08-19T14:57:03Z</time>
      </trkpt>
      <trkpt lat="45.64748" lon="6.6472">
        <ele>2146.6064</ele>
        <time>2015-08-19T14:57:13Z</time>
      </trkpt>
      <trkpt lat="45.64747" lon="6.64717">
        <ele>2146.6064</ele>
        <time>2015-08-19T14:57:18Z</time>
      </trkpt>
      <trkpt lat="45.64744" lon="6.64713">
        <ele>2146.6064</ele>
        <time>2015-08-19T14:57:28Z</time>
      </trkpt>
      <trkpt lat="45.64743" lon="6.64713">
        <ele>2146.6064</ele>
        <time>2015-08-19T14:57:33Z</time>
      </trkpt>
      <trkpt lat="45.6474" lon="6.64711">
        <ele>2148.5605</ele>
        <time>2015-08-19T14:57:43Z</time>
      </trkpt>
      <trkpt lat="45.64739" lon="6.64709">
        <ele>2148.5605</ele>
        <time>2015-08-19T14:57:48Z</time>
      </trkpt>
      <trkpt lat="45.64735" lon="6.6471">
        <ele>2148.5605</ele>
        <time>2015-08-19T14:57:58Z</time>
      </trkpt>
      <trkpt lat="45.64735" lon="6.64709">
        <ele>2148.5605</ele>
        <time>2015-08-19T14:58:03Z</time>
      </trkpt>
      <trkpt lat="45.64733" lon="6.64707">
        <ele>2148.5605</ele>
        <time>2015-08-19T14:58:13Z</time>
      </trkpt>
      <trkpt lat="45.64732" lon="6.64706">
        <ele>2150.3318</ele>
        <time>2015-08-19T14:58:18Z</time>
      </trkpt>
      <trkpt lat="45.6473" lon="6.64702">
        <ele>2150.3318</ele>
        <time>2015-08-19T14:58:28Z</time>
      </trkpt>
      <trkpt lat="45.64729" lon="6.64701">
        <ele>2150.3318</ele>
        <time>2015-08-19T14:58:33Z</time>
      </trkpt>
      <trkpt lat="45.64726" lon="6.64699">
        <ele>2150.3318</ele>
        <time>2015-08-19T14:58:43Z</time>
      </trkpt>
      <trkpt lat="45.64724" lon="6.64696">
        <ele>2152.2393</ele>
        <time>2015-08-19T14:58:48Z</time>
      </trkpt>
      <trkpt lat="45.64722" lon="6.64692">
        <ele>2152.2393</ele>
        <time>2015-08-19T14:58:58Z</time>
      </trkpt>
      <trkpt lat="45.6472" lon="6.64691">
        <ele>2152.2393</ele>
        <time>2015-08-19T14:59:03Z</time>
      </trkpt>
      <trkpt lat="45.64714" lon="6.64689">
        <ele>2154.564</ele>
        <time>2015-08-19T14:59:18Z</time>
      </trkpt>
      <trkpt lat="45.64716" lon="6.64685">
        <ele>2154.564</ele>
        <time>2015-08-19T14:59:23Z</time>
      </trkpt>
      <trkpt lat="45.64714" lon="6.64688">
        <ele>2154.564</ele>
        <time>2015-08-19T14:59:33Z</time>
      </trkpt>
      <trkpt lat="45.64712" lon="6.64688">
        <ele>2154.564</ele>
        <time>2015-08-19T14:59:38Z</time>
      </trkpt>
      <trkpt lat="45.6471" lon="6.64686">
        <ele>2156.9016</ele>
        <time>2015-08-19T14:59:48Z</time>
      </trkpt>
      <trkpt lat="45.64708" lon="6.64684">
        <ele>2156.9016</ele>
        <time>2015-08-19T14:59:53Z</time>
      </trkpt>
      <trkpt lat="45.64707" lon="6.64687">
        <ele>2156.9016</ele>
        <time>2015-08-19T15:00:03Z</time>
      </trkpt>
      <trkpt lat="45.64705" lon="6.64687">
        <ele>2156.9016</ele>
        <time>2015-08-19T15:00:08Z</time>
      </trkpt>
      <trkpt lat="45.64703" lon="6.64691">
        <ele>2159.2524</ele>
        <time>2015-08-19T15:00:18Z</time>
      </trkpt>
      <trkpt lat="45.64705" lon="6.64693">
        <ele>2159.2524</ele>
        <time>2015-08-19T15:00:23Z</time>
      </trkpt>
      <trkpt lat="45.647" lon="6.64693">
        <ele>2159.2524</ele>
        <time>2015-08-19T15:00:33Z</time>
      </trkpt>
      <trkpt lat="45.64698" lon="6.64695">
        <ele>2161.5159</ele>
        <time>2015-08-19T15:00:38Z</time>
      </trkpt>
      <trkpt lat="45.64695" lon="6.64693">
        <ele>2161.5159</ele>
        <time>2015-08-19T15:00:48Z</time>
      </trkpt>
      <trkpt lat="45.64693" lon="6.64695">
        <ele>2161.5159</ele>
        <time>2015-08-19T15:00:53Z</time>
      </trkpt>
      <trkpt lat="45.6469" lon="6.64694">
        <ele>2163.5986</ele>
        <time>2015-08-19T15:01:03Z</time>
      </trkpt>
      <trkpt lat="45.64691" lon="6.64694">
        <ele>2163.5986</ele>
        <time>2015-08-19T15:01:08Z</time>
      </trkpt>
      <trkpt lat="45.64692" lon="6.64694">
        <ele>2163.5986</ele>
        <time>2015-08-19T15:01:18Z</time>
      </trkpt>
      <trkpt lat="45.64694" lon="6.64697">
        <ele>2163.5986</ele>
        <time>2015-08-19T15:01:23Z</time>
      </trkpt>
      <trkpt lat="45.64693" lon="6.64694">
        <ele>2163.5986</ele>
        <time>2015-08-19T15:01:33Z</time>
      </trkpt>
      <trkpt lat="45.64693" lon="6.64694">
        <ele>2163.5986</ele>
        <time>2015-08-19T15:01:38Z</time>
      </trkpt>
      <trkpt lat="45.64691" lon="6.64695">
        <ele>2165.3142</ele>
        <time>2015-08-19T15:02:28Z</time>
      </trkpt>
      <trkpt lat="45.64685" lon="6.64694">
        <ele>2165.3142</ele>
        <time>2015-08-19T15:02:38Z</time>
      </trkpt>
      <trkpt lat="45.64679" lon="6.64692">
        <ele>2166.7783</ele>
        <time>2015-08-19T15:02:43Z</time>
      </trkpt>
      <trkpt lat="45.64671" lon="6.64695">
        <ele>2166.7783</ele>
        <time>2015-08-19T15:02:53Z</time>
      </trkpt>
      <trkpt lat="45.64669" lon="6.64696">
        <ele>2168.042</ele>
        <time>2015-08-19T15:02:58Z</time>
      </trkpt>
      <trkpt lat="45.64664" lon="6.64701">
        <ele>2168.042</ele>
        <time>2015-08-19T15:03:08Z</time>
      </trkpt>
      <trkpt lat="45.64663" lon="6.64704">
        <ele>2168.042</ele>
        <time>2015-08-19T15:03:13Z</time>
      </trkpt>
      <trkpt lat="45.64658" lon="6.6471">
        <ele>2169.484</ele>
        <time>2015-08-19T15:03:23Z</time>
      </trkpt>
      <trkpt lat="45.64657" lon="6.64713">
        <ele>2169.484</ele>
        <time>2015-08-19T15:03:28Z</time>
      </trkpt>
      <trkpt lat="45.64656" lon="6.64714">
        <ele>2169.484</ele>
        <time>2015-08-19T15:03:38Z</time>
      </trkpt>
      <trkpt lat="45.64657" lon="6.64712">
        <ele>2169.484</ele>
        <time>2015-08-19T15:03:43Z</time>
      </trkpt>
      <trkpt lat="45.64658" lon="6.64708">
        <ele>2169.484</ele>
        <time>2015-08-19T15:03:53Z</time>
      </trkpt>
      <trkpt lat="45.64658" lon="6.64708">
        <ele>2169.484</ele>
        <time>2015-08-19T15:03:58Z</time>
      </trkpt>
      <trkpt lat="45.6466" lon="6.64707">
        <ele>2171.0945</ele>
        <time>2015-08-19T15:04:08Z</time>
      </trkpt>
      <trkpt lat="45.64659" lon="6.64707">
        <ele>2171.0945</ele>
        <time>2015-08-19T15:04:13Z</time>
      </trkpt>
      <trkpt lat="45.64654" lon="6.64713">
        <ele>2171.0945</ele>
        <time>2015-08-19T15:04:23Z</time>
      </trkpt>
      <trkpt lat="45.64652" lon="6.64716">
        <ele>2172.4167</ele>
        <time>2015-08-19T15:04:28Z</time>
      </trkpt>
      <trkpt lat="45.64646" lon="6.64723">
        <ele>2172.4167</ele>
        <time>2015-08-19T15:04:43Z</time>
      </trkpt>
      <trkpt lat="45.64646" lon="6.64724">
        <ele>2172.4167</ele>
        <time>2015-08-19T15:04:48Z</time>
      </trkpt>
      <trkpt lat="45.64643" lon="6.6473">
        <ele>2173.8506</ele>
        <time>2015-08-19T15:04:58Z</time>
      </trkpt>
      <trkpt lat="45.6464" lon="6.64735">
        <ele>2173.8506</ele>
        <time>2015-08-19T15:05:03Z</time>
      </trkpt>
      <trkpt lat="45.64638" lon="6.64742">
        <ele>2175.189</ele>
        <time>2015-08-19T15:05:13Z</time>
      </trkpt>
      <trkpt lat="45.64638" lon="6.64745">
        <ele>2175.189</ele>
        <time>2015-08-19T15:05:18Z</time>
      </trkpt>
      <trkpt lat="45.64635" lon="6.64746">
        <ele>2175.189</ele>
        <time>2015-08-19T15:05:28Z</time>
      </trkpt>
      <trkpt lat="45.64633" lon="6.64747">
        <ele>2175.189</ele>
        <time>2015-08-19T15:05:33Z</time>
      </trkpt>
      <trkpt lat="45.64635" lon="6.64749">
        <ele>2175.189</ele>
        <time>2015-08-19T15:05:43Z</time>
      </trkpt>
      <trkpt lat="45.64635" lon="6.6475">
        <ele>2176.8599</ele>
        <time>2015-08-19T15:05:48Z</time>
      </trkpt>
      <trkpt lat="45.64636" lon="6.64754">
        <ele>2176.8599</ele>
        <time>2015-08-19T15:05:58Z</time>
      </trkpt>
      <trkpt lat="45.64634" lon="6.64755">
        <ele>2176.8599</ele>
        <time>2015-08-19T15:06:03Z</time>
      </trkpt>
      <trkpt lat="45.64635" lon="6.64757">
        <ele>2176.8599</ele>
        <time>2015-08-19T15:06:13Z</time>
      </trkpt>
      <trkpt lat="45.64636" lon="6.64756">
        <ele>2176.8599</ele>
        <time>2015-08-19T15:06:18Z</time>
      </trkpt>
      <trkpt lat="45.64635" lon="6.64762">
        <ele>2178.7832</ele>
        <time>2015-08-19T15:06:33Z</time>
      </trkpt>
      <trkpt lat="45.64634" lon="6.64763">
        <ele>2178.7832</ele>
        <time>2015-08-19T15:06:38Z</time>
      </trkpt>
      <trkpt lat="45.64633" lon="6.64764">
        <ele>2178.7832</ele>
        <time>2015-08-19T15:06:48Z</time>
      </trkpt>
      <trkpt lat="45.64632" lon="6.64765">
        <ele>2178.7832</ele>
        <time>2015-08-19T15:06:53Z</time>
      </trkpt>
      <trkpt lat="45.64631" lon="6.64766">
        <ele>2178.7832</ele>
        <time>2015-08-19T15:07:03Z</time>
      </trkpt>
      <trkpt lat="45.64628" lon="6.64766">
        <ele>2178.7832</ele>
        <time>2015-08-19T15:07:08Z</time>
      </trkpt>
      <trkpt lat="45.64626" lon="6.64769">
        <ele>2181.346</ele>
        <time>2015-08-19T15:07:18Z</time>
      </trkpt>
      <trkpt lat="45.64626" lon="6.64772">
        <ele>2181.346</ele>
        <time>2015-08-19T15:07:23Z</time>
      </trkpt>
      <trkpt lat="45.64624" lon="6.64772">
        <ele>2181.346</ele>
        <time>2015-08-19T15:07:33Z</time>
      </trkpt>
      <trkpt lat="45.64622" lon="6.64774">
        <ele>2181.346</ele>
        <time>2015-08-19T15:07:38Z</time>
      </trkpt>
      <trkpt lat="45.64621" lon="6.64771">
        <ele>2181.346</ele>
        <time>2015-08-19T15:07:48Z</time>
      </trkpt>
      <trkpt lat="45.64619" lon="6.64772">
        <ele>2184.111</ele>
        <time>2015-08-19T15:07:53Z</time>
      </trkpt>
      <trkpt lat="45.64616" lon="6.64775">
        <ele>2184.111</ele>
        <time>2015-08-19T15:08:03Z</time>
      </trkpt>
      <trkpt lat="45.64615" lon="6.64777">
        <ele>2184.111</ele>
        <time>2015-08-19T15:08:08Z</time>
      </trkpt>
      <trkpt lat="45.64611" lon="6.64776">
        <ele>2184.111</ele>
        <time>2015-08-19T15:08:18Z</time>
      </trkpt>
      <trkpt lat="45.6461" lon="6.64778">
        <ele>2186.7603</ele>
        <time>2015-08-19T15:08:23Z</time>
      </trkpt>
      <trkpt lat="45.64611" lon="6.64781">
        <ele>2186.7603</ele>
        <time>2015-08-19T15:08:33Z</time>
      </trkpt>
      <trkpt lat="45.64612" lon="6.64781">
        <ele>2186.7603</ele>
        <time>2015-08-19T15:08:38Z</time>
      </trkpt>
      <trkpt lat="45.64613" lon="6.6478">
        <ele>2186.7603</ele>
        <time>2015-08-19T15:08:53Z</time>
      </trkpt>
      <trkpt lat="45.64614" lon="6.64783">
        <ele>2186.7603</ele>
        <time>2015-08-19T15:08:58Z</time>
      </trkpt>
      <trkpt lat="45.64614" lon="6.64785">
        <ele>2186.7603</ele>
        <time>2015-08-19T15:09:08Z</time>
      </trkpt>
      <trkpt lat="45.64616" lon="6.64784">
        <ele>2189.8198</ele>
        <time>2015-08-19T15:09:13Z</time>
      </trkpt>
      <trkpt lat="45.64618" lon="6.64787">
        <ele>2189.8198</ele>
        <time>2015-08-19T15:09:23Z</time>
      </trkpt>
      <trkpt lat="45.64621" lon="6.64789">
        <ele>2189.8198</ele>
        <time>2015-08-19T15:09:28Z</time>
      </trkpt>
      <trkpt lat="45.64622" lon="6.64795">
        <ele>2192.5657</ele>
        <time>2015-08-19T15:09:38Z</time>
      </trkpt>
      <trkpt lat="45.64623" lon="6.64797">
        <ele>2192.5657</ele>
        <time>2015-08-19T15:09:43Z</time>
      </trkpt>
      <trkpt lat="45.64623" lon="6.64799">
        <ele>2192.5657</ele>
        <time>2015-08-19T15:09:53Z</time>
      </trkpt>
      <trkpt lat="45.64624" lon="6.64801">
        <ele>2192.5657</ele>
        <time>2015-08-19T15:09:58Z</time>
      </trkpt>
      <trkpt lat="45.64626" lon="6.64806">
        <ele>2194.8325</ele>
        <time>2015-08-19T15:10:08Z</time>
      </trkpt>
      <trkpt lat="45.64627" lon="6.6481">
        <ele>2194.8325</ele>
        <time>2015-08-19T15:10:13Z</time>
      </trkpt>
      <trkpt lat="45.64629" lon="6.64815">
        <ele>2194.8325</ele>
        <time>2015-08-19T15:10:23Z</time>
      </trkpt>
      <trkpt lat="45.64629" lon="6.64816">
        <ele>2194.8325</ele>
        <time>2015-08-19T15:10:28Z</time>
      </trkpt>
      <trkpt lat="45.64629" lon="6.64816">
        <ele>2197.4048</ele>
        <time>2015-08-19T15:10:38Z</time>
      </trkpt>
      <trkpt lat="45.64631" lon="6.64816">
        <ele>2197.4048</ele>
        <time>2015-08-19T15:10:43Z</time>
      </trkpt>
      <trkpt lat="45.64634" lon="6.6482">
        <ele>2197.4048</ele>
        <time>2015-08-19T15:10:53Z</time>
      </trkpt>
      <trkpt lat="45.64633" lon="6.64821">
        <ele>2197.4048</ele>
        <time>2015-08-19T15:10:58Z</time>
      </trkpt>
      <trkpt lat="45.64636" lon="6.64824">
        <ele>2200.1584</ele>
        <time>2015-08-19T15:11:13Z</time>
      </trkpt>
      <trkpt lat="45.64636" lon="6.64827">
        <ele>2200.1584</ele>
        <time>2015-08-19T15:11:18Z</time>
      </trkpt>
      <trkpt lat="45.64639" lon="6.64833">
        <ele>2200.1584</ele>
        <time>2015-08-19T15:11:28Z</time>
      </trkpt>
      <trkpt lat="45.6464" lon="6.64835">
        <ele>2200.1584</ele>
        <time>2015-08-19T15:11:33Z</time>
      </trkpt>
      <trkpt lat="45.64641" lon="6.64832">
        <ele>2202.949</ele>
        <time>2015-08-19T15:11:43Z</time>
      </trkpt>
      <trkpt lat="45.64642" lon="6.6483">
        <ele>2202.949</ele>
        <time>2015-08-19T15:11:48Z</time>
      </trkpt>
      <trkpt lat="45.64641" lon="6.64837">
        <ele>2202.949</ele>
        <time>2015-08-19T15:11:58Z</time>
      </trkpt>
      <trkpt lat="45.64641" lon="6.64839">
        <ele>2202.949</ele>
        <time>2015-08-19T15:12:03Z</time>
      </trkpt>
      <trkpt lat="45.64644" lon="6.64847">
        <ele>2205.9592</ele>
        <time>2015-08-19T15:12:13Z</time>
      </trkpt>
      <trkpt lat="45.64643" lon="6.64851">
        <ele>2205.9592</ele>
        <time>2015-08-19T15:12:18Z</time>
      </trkpt>
      <trkpt lat="45.64645" lon="6.64855">
        <ele>2205.9592</ele>
        <time>2015-08-19T15:12:28Z</time>
      </trkpt>
      <trkpt lat="45.64648" lon="6.64858">
        <ele>2209.085</ele>
        <time>2015-08-19T15:12:33Z</time>
      </trkpt>
      <trkpt lat="45.64651" lon="6.64862">
        <ele>2209.085</ele>
        <time>2015-08-19T15:12:48Z</time>
      </trkpt>
      <trkpt lat="45.64652" lon="6.64865">
        <ele>2209.085</ele>
        <time>2015-08-19T15:12:53Z</time>
      </trkpt>
      <trkpt lat="45.64654" lon="6.64869">
        <ele>2212.4734</ele>
        <time>2015-08-19T15:13:03Z</time>
      </trkpt>
      <trkpt lat="45.64656" lon="6.6487">
        <ele>2212.4734</ele>
        <time>2015-08-19T15:13:08Z</time>
      </trkpt>
      <trkpt lat="45.64656" lon="6.64873">
        <ele>2212.4734</ele>
        <time>2015-08-19T15:13:18Z</time>
      </trkpt>
      <trkpt lat="45.64657" lon="6.64873">
        <ele>2212.4734</ele>
        <time>2015-08-19T15:13:23Z</time>
      </trkpt>
      <trkpt lat="45.64658" lon="6.6488">
        <ele>2215.54</ele>
        <time>2015-08-19T15:13:33Z</time>
      </trkpt>
      <trkpt lat="45.64658" lon="6.64881">
        <ele>2215.54</ele>
        <time>2015-08-19T15:13:38Z</time>
      </trkpt>
      <trkpt lat="45.6466" lon="6.64882">
        <ele>2215.54</ele>
        <time>2015-08-19T15:13:48Z</time>
      </trkpt>
      <trkpt lat="45.6466" lon="6.64884">
        <ele>2215.54</ele>
        <time>2015-08-19T15:13:53Z</time>
      </trkpt>
      <trkpt lat="45.64663" lon="6.64888">
        <ele>2215.54</ele>
        <time>2015-08-19T15:14:03Z</time>
      </trkpt>
      <trkpt lat="45.64664" lon="6.6489">
        <ele>2218.9402</ele>
        <time>2015-08-19T15:14:08Z</time>
      </trkpt>
      <trkpt lat="45.6467" lon="6.64896">
        <ele>2218.9402</ele>
        <time>2015-08-19T15:14:23Z</time>
      </trkpt>
      <trkpt lat="45.64671" lon="6.64897">
        <ele>2218.9402</ele>
        <time>2015-08-19T15:14:28Z</time>
      </trkpt>
      <trkpt lat="45.64675" lon="6.64898">
        <ele>2222.6606</ele>
        <time>2015-08-19T15:14:38Z</time>
      </trkpt>
      <trkpt lat="45.64673" lon="6.64898">
        <ele>2222.6606</ele>
        <time>2015-08-19T15:14:43Z</time>
      </trkpt>
      <trkpt lat="45.64676" lon="6.64901">
        <ele>2222.6606</ele>
        <time>2015-08-19T15:14:53Z</time>
      </trkpt>
      <trkpt lat="45.64676" lon="6.64904">
        <ele>2222.6606</ele>
        <time>2015-08-19T15:14:58Z</time>
      </trkpt>
      <trkpt lat="45.6468" lon="6.64905">
        <ele>2226.2988</ele>
        <time>2015-08-19T15:15:08Z</time>
      </trkpt>
      <trkpt lat="45.6468" lon="6.64908">
        <ele>2226.2988</ele>
        <time>2015-08-19T15:15:13Z</time>
      </trkpt>
      <trkpt lat="45.64683" lon="6.64908">
        <ele>2226.2988</ele>
        <time>2015-08-19T15:15:23Z</time>
      </trkpt>
      <trkpt lat="45.64685" lon="6.6491">
        <ele>2226.2988</ele>
        <time>2015-08-19T15:15:28Z</time>
      </trkpt>
      <trkpt lat="45.64684" lon="6.64914">
        <ele>2229.9004</ele>
        <time>2015-08-19T15:15:38Z</time>
      </trkpt>
      <trkpt lat="45.64685" lon="6.64916">
        <ele>2229.9004</ele>
        <time>2015-08-19T15:15:43Z</time>
      </trkpt>
      <trkpt lat="45.64687" lon="6.64916">
        <ele>2229.9004</ele>
        <time>2015-08-19T15:15:53Z</time>
      </trkpt>
      <trkpt lat="45.64688" lon="6.64916">
        <ele>2229.9004</ele>
        <time>2015-08-19T15:15:58Z</time>
      </trkpt>
      <trkpt lat="45.64688" lon="6.64913">
        <ele>2229.9004</ele>
        <time>2015-08-19T15:16:08Z</time>
      </trkpt>
      <trkpt lat="45.64687" lon="6.64915">
        <ele>2229.9004</ele>
        <time>2015-08-19T15:16:13Z</time>
      </trkpt>
      <trkpt lat="45.64689" lon="6.64922">
        <ele>2233.8245</ele>
        <time>2015-08-19T15:16:28Z</time>
      </trkpt>
      <trkpt lat="45.6469" lon="6.64923">
        <ele>2233.8245</ele>
        <time>2015-08-19T15:16:33Z</time>
      </trkpt>
      <trkpt lat="45.64694" lon="6.64927">
        <ele>2233.8245</ele>
        <time>2015-08-19T15:16:43Z</time>
      </trkpt>
      <trkpt lat="45.64696" lon="6.64929">
        <ele>2233.8245</ele>
        <time>2015-08-19T15:16:48Z</time>
      </trkpt>
      <trkpt lat="45.64698" lon="6.64937">
        <ele>2237.5383</ele>
        <time>2015-08-19T15:16:58Z</time>
      </trkpt>
      <trkpt lat="45.64698" lon="6.6494">
        <ele>2237.5383</ele>
        <time>2015-08-19T15:17:03Z</time>
      </trkpt>
      <trkpt lat="45.64701" lon="6.64944">
        <ele>2237.5383</ele>
        <time>2015-08-19T15:17:13Z</time>
      </trkpt>
      <trkpt lat="45.64704" lon="6.64947">
        <ele>2241.0825</ele>
        <time>2015-08-19T15:17:18Z</time>
      </trkpt>
      <trkpt lat="45.64705" lon="6.64952">
        <ele>2241.0825</ele>
        <time>2015-08-19T15:17:28Z</time>
      </trkpt>
      <trkpt lat="45.64707" lon="6.64955">
        <ele>2241.0825</ele>
        <time>2015-08-19T15:17:33Z</time>
      </trkpt>
      <trkpt lat="45.64711" lon="6.6496">
        <ele>2244.221</ele>
        <time>2015-08-19T15:17:43Z</time>
      </trkpt>
      <trkpt lat="45.64711" lon="6.64958">
        <ele>2244.221</ele>
        <time>2015-08-19T15:17:48Z</time>
      </trkpt>
      <trkpt lat="45.64714" lon="6.6496">
        <ele>2244.221</ele>
        <time>2015-08-19T15:17:58Z</time>
      </trkpt>
      <trkpt lat="45.64715" lon="6.64964">
        <ele>2247.1975</ele>
        <time>2015-08-19T15:18:03Z</time>
      </trkpt>
      <trkpt lat="45.64716" lon="6.6497">
        <ele>2247.1975</ele>
        <time>2015-08-19T15:18:13Z</time>
      </trkpt>
      <trkpt lat="45.64714" lon="6.64972">
        <ele>2247.1975</ele>
        <time>2015-08-19T15:18:18Z</time>
      </trkpt>
      <trkpt lat="45.64715" lon="6.64977">
        <ele>2250.296</ele>
        <time>2015-08-19T15:18:33Z</time>
      </trkpt>
      <trkpt lat="45.64716" lon="6.64978">
        <ele>2250.296</ele>
        <time>2015-08-19T15:18:38Z</time>
      </trkpt>
      <trkpt lat="45.64718" lon="6.64978">
        <ele>2250.296</ele>
        <time>2015-08-19T15:18:48Z</time>
      </trkpt>
      <trkpt lat="45.6472" lon="6.64976">
        <ele>2250.296</ele>
        <time>2015-08-19T15:18:53Z</time>
      </trkpt>
      <trkpt lat="45.64722" lon="6.64981">
        <ele>2250.296</ele>
        <time>2015-08-19T15:19:03Z</time>
      </trkpt>
      <trkpt lat="45.64719" lon="6.64982">
        <ele>2253.1743</ele>
        <time>2015-08-19T15:19:08Z</time>
      </trkpt>
      <trkpt lat="45.64716" lon="6.64986">
        <ele>2253.1743</ele>
        <time>2015-08-19T15:19:18Z</time>
      </trkpt>
      <trkpt lat="45.64714" lon="6.64985">
        <ele>2253.1743</ele>
        <time>2015-08-19T15:19:23Z</time>
      </trkpt>
      <trkpt lat="45.64712" lon="6.64989">
        <ele>2256.078</ele>
        <time>2015-08-19T15:19:33Z</time>
      </trkpt>
      <trkpt lat="45.6471" lon="6.64995">
        <ele>2256.078</ele>
        <time>2015-08-19T15:19:38Z</time>
      </trkpt>
      <trkpt lat="45.64711" lon="6.64998">
        <ele>2256.078</ele>
        <time>2015-08-19T15:19:48Z</time>
      </trkpt>
      <trkpt lat="45.64711" lon="6.65003">
        <ele>2258.9749</ele>
        <time>2015-08-19T15:19:53Z</time>
      </trkpt>
      <trkpt lat="45.64712" lon="6.65">
        <ele>2258.9749</ele>
        <time>2015-08-19T15:20:03Z</time>
      </trkpt>
      <trkpt lat="45.64711" lon="6.65">
        <ele>2258.9749</ele>
        <time>2015-08-19T15:20:08Z</time>
      </trkpt>
      <trkpt lat="45.6471" lon="6.65">
        <ele>2258.9749</ele>
        <time>2015-08-19T15:20:23Z</time>
      </trkpt>
      <trkpt lat="45.6471" lon="6.64998">
        <ele>2258.9749</ele>
        <time>2015-08-19T15:20:28Z</time>
      </trkpt>
      <trkpt lat="45.64707" lon="6.64994">
        <ele>2261.288</ele>
        <time>2015-08-19T15:20:38Z</time>
      </trkpt>
      <trkpt lat="45.64708" lon="6.64995">
        <ele>2261.288</ele>
        <time>2015-08-19T15:20:43Z</time>
      </trkpt>
      <trkpt lat="45.64709" lon="6.64998">
        <ele>2261.288</ele>
        <time>2015-08-19T15:20:53Z</time>
      </trkpt>
      <trkpt lat="45.6471" lon="6.65001">
        <ele>2261.288</ele>
        <time>2015-08-19T15:20:58Z</time>
      </trkpt>
      <trkpt lat="45.64711" lon="6.64999">
        <ele>2261.288</ele>
        <time>2015-08-19T15:21:08Z</time>
      </trkpt>
      <trkpt lat="45.64708" lon="6.65">
        <ele>2263.2195</ele>
        <time>2015-08-19T15:21:13Z</time>
      </trkpt>
      <trkpt lat="45.64702" lon="6.64997">
        <ele>2263.2195</ele>
        <time>2015-08-19T15:21:23Z</time>
      </trkpt>
      <trkpt lat="45.64707" lon="6.64996">
        <ele>2264.77</ele>
        <time>2015-08-19T15:21:28Z</time>
      </trkpt>
      <trkpt lat="45.6471" lon="6.64997">
        <ele>2264.77</ele>
        <time>2015-08-19T15:21:38Z</time>
      </trkpt>
      <trkpt lat="45.64709" lon="6.64997">
        <ele>2264.77</ele>
        <time>2015-08-19T15:21:43Z</time>
      </trkpt>
      <trkpt lat="45.6471" lon="6.64993">
        <ele>2264.77</ele>
        <time>2015-08-19T15:21:53Z</time>
      </trkpt>
      <trkpt lat="45.64708" lon="6.64996">
        <ele>2265.9702</ele>
        <time>2015-08-19T15:21:58Z</time>
      </trkpt>
      <trkpt lat="45.64707" lon="6.65">
        <ele>2265.9702</ele>
        <time>2015-08-19T15:22:13Z</time>
      </trkpt>
      <trkpt lat="45.64706" lon="6.65002">
        <ele>2265.9702</ele>
        <time>2015-08-19T15:22:18Z</time>
      </trkpt>
      <trkpt lat="45.64707" lon="6.65001">
        <ele>2265.9702</ele>
        <time>2015-08-19T15:22:28Z</time>
      </trkpt>
      <trkpt lat="45.64708" lon="6.65">
        <ele>2265.9702</ele>
        <time>2015-08-19T15:22:33Z</time>
      </trkpt>
      <trkpt lat="45.64709" lon="6.64996">
        <ele>2267.0374</ele>
        <time>2015-08-19T15:22:43Z</time>
      </trkpt>
      <trkpt lat="45.6471" lon="6.64996">
        <ele>2267.0374</ele>
        <time>2015-08-19T15:22:48Z</time>
      </trkpt>
      <trkpt lat="45.6471" lon="6.64996">
        <ele>2267.0374</ele>
        <time>2015-08-19T15:22:58Z</time>
      </trkpt>
      <trkpt lat="45.6471" lon="6.64995">
        <ele>2267.0374</ele>
        <time>2015-08-19T15:23:03Z</time>
      </trkpt>
      <trkpt lat="45.64711" lon="6.64998">
        <ele>2267.0374</ele>
        <time>2015-08-19T15:23:13Z</time>
      </trkpt>
      <trkpt lat="45.6471" lon="6.64998">
        <ele>2267.0374</ele>
        <time>2015-08-19T15:23:18Z</time>
      </trkpt>
      <trkpt lat="45.64708" lon="6.64998">
        <ele>2267.0374</ele>
        <time>2015-08-19T15:23:28Z</time>
      </trkpt>
      <trkpt lat="45.64708" lon="6.64998">
        <ele>2267.0374</ele>
        <time>2015-08-19T15:23:33Z</time>
      </trkpt>
      <trkpt lat="45.64708" lon="6.65002">
        <ele>2267.0374</ele>
        <time>2015-08-19T15:23:43Z</time>
      </trkpt>
      <trkpt lat="45.6471" lon="6.65003">
        <ele>2268.1294</ele>
        <time>2015-08-19T15:23:48Z</time>
      </trkpt>
      <trkpt lat="45.64708" lon="6.65007">
        <ele>2268.1294</ele>
        <time>2015-08-19T15:23:58Z</time>
      </trkpt>
      <trkpt lat="45.64706" lon="6.65008">
        <ele>2268.1294</ele>
        <time>2015-08-19T15:24:03Z</time>
      </trkpt>
      <trkpt lat="45.64703" lon="6.65015">
        <ele>2269.0325</ele>
        <time>2015-08-19T15:24:13Z</time>
      </trkpt>
      <trkpt lat="45.64706" lon="6.65017">
        <ele>2269.0325</ele>
        <time>2015-08-19T15:24:18Z</time>
      </trkpt>
      <trkpt lat="45.64707" lon="6.65025">
        <ele>2269.736</ele>
        <time>2015-08-19T15:24:28Z</time>
      </trkpt>
      <trkpt lat="45.64706" lon="6.65028">
        <ele>2269.736</ele>
        <time>2015-08-19T15:24:33Z</time>
      </trkpt>
      <trkpt lat="45.64706" lon="6.65033">
        <ele>2269.736</ele>
        <time>2015-08-19T15:24:43Z</time>
      </trkpt>
      <trkpt lat="45.64708" lon="6.65036">
        <ele>2269.736</ele>
        <time>2015-08-19T15:24:48Z</time>
      </trkpt>
      <trkpt lat="45.64708" lon="6.65047">
        <ele>2270.8804</ele>
        <time>2015-08-19T15:25:03Z</time>
      </trkpt>
      <trkpt lat="45.64709" lon="6.65051">
        <ele>2270.8804</ele>
        <time>2015-08-19T15:25:08Z</time>
      </trkpt>
      <trkpt lat="45.64711" lon="6.65057">
        <ele>2270.8804</ele>
        <time>2015-08-19T15:25:18Z</time>
      </trkpt>
      <trkpt lat="45.64711" lon="6.65059">
        <ele>2272.0327</ele>
        <time>2015-08-19T15:25:23Z</time>
      </trkpt>
      <trkpt lat="45.64709" lon="6.65067">
        <ele>2272.0327</ele>
        <time>2015-08-19T15:25:33Z</time>
      </trkpt>
      <trkpt lat="45.64711" lon="6.65064">
        <ele>2272.0327</ele>
        <time>2015-08-19T15:25:38Z</time>
      </trkpt>
      <trkpt lat="45.64711" lon="6.65065">
        <ele>2272.9087</ele>
        <time>2015-08-19T15:25:48Z</time>
      </trkpt>
      <trkpt lat="45.64707" lon="6.65064">
        <ele>2272.9087</ele>
        <time>2015-08-19T15:25:53Z</time>
      </trkpt>
      <trkpt lat="45.64707" lon="6.65063">
        <ele>2272.9087</ele>
        <time>2015-08-19T15:26:03Z</time>
      </trkpt>
      <trkpt lat="45.64708" lon="6.65065">
        <ele>2272.9087</ele>
        <time>2015-08-19T15:26:08Z</time>
      </trkpt>
      <trkpt lat="45.64706" lon="6.65062">
        <ele>2272.9087</ele>
        <time>2015-08-19T15:26:18Z</time>
      </trkpt>
      <trkpt lat="45.64707" lon="6.65067">
        <ele>2273.4465</ele>
        <time>2015-08-19T15:26:23Z</time>
      </trkpt>
      <trkpt lat="45.64708" lon="6.65074">
        <ele>2273.4465</ele>
        <time>2015-08-19T15:26:33Z</time>
      </trkpt>
      <trkpt lat="45.64707" lon="6.65077">
        <ele>2273.4465</ele>
        <time>2015-08-19T15:26:38Z</time>
      </trkpt>
      <trkpt lat="45.64703" lon="6.6508">
        <ele>2273.763</ele>
        <time>2015-08-19T15:26:48Z</time>
      </trkpt>
      <trkpt lat="45.64703" lon="6.65084">
        <ele>2273.763</ele>
        <time>2015-08-19T15:26:53Z</time>
      </trkpt>
      <trkpt lat="45.64702" lon="6.65089">
        <ele>2273.763</ele>
        <time>2015-08-19T15:27:03Z</time>
      </trkpt>
      <trkpt lat="45.64704" lon="6.65091">
        <ele>2274.3274</ele>
        <time>2015-08-19T15:27:08Z</time>
      </trkpt>
      <trkpt lat="45.64706" lon="6.65101">
        <ele>2274.3274</ele>
        <time>2015-08-19T15:27:23Z</time>
      </trkpt>
      <trkpt lat="45.64704" lon="6.65103">
        <ele>2275.285</ele>
        <time>2015-08-19T15:27:28Z</time>
      </trkpt>
      <trkpt lat="45.64704" lon="6.65106">
        <ele>2275.285</ele>
        <time>2015-08-19T15:27:38Z</time>
      </trkpt>
      <trkpt lat="45.64704" lon="6.65108">
        <ele>2275.285</ele>
        <time>2015-08-19T15:27:43Z</time>
      </trkpt>
      <trkpt lat="45.64704" lon="6.65112">
        <ele>2275.285</ele>
        <time>2015-08-19T15:27:53Z</time>
      </trkpt>
      <trkpt lat="45.64704" lon="6.65114">
        <ele>2275.285</ele>
        <time>2015-08-19T15:27:58Z</time>
      </trkpt>
      <trkpt lat="45.64704" lon="6.65118">
        <ele>2276.741</ele>
        <time>2015-08-19T15:28:08Z</time>
      </trkpt>
      <trkpt lat="45.64704" lon="6.6512">
        <ele>2276.741</ele>
        <time>2015-08-19T15:28:13Z</time>
      </trkpt>
      <trkpt lat="45.64702" lon="6.65123">
        <ele>2276.741</ele>
        <time>2015-08-19T15:28:23Z</time>
      </trkpt>
      <trkpt lat="45.64703" lon="6.65126">
        <ele>2276.741</ele>
        <time>2015-08-19T15:28:28Z</time>
      </trkpt>
      <trkpt lat="45.64704" lon="6.65128">
        <ele>2276.741</ele>
        <time>2015-08-19T15:28:38Z</time>
      </trkpt>
      <trkpt lat="45.64704" lon="6.6513">
        <ele>2278.6611</ele>
        <time>2015-08-19T15:28:43Z</time>
      </trkpt>
      <trkpt lat="45.64706" lon="6.65123">
        <ele>2278.6611</ele>
        <time>2015-08-19T15:28:53Z</time>
      </trkpt>
      <trkpt lat="45.64706" lon="6.65123">
        <ele>2278.6611</ele>
        <time>2015-08-19T15:28:58Z</time>
      </trkpt>
      <trkpt lat="45.64707" lon="6.65125">
        <ele>2278.6611</ele>
        <time>2015-08-19T15:29:08Z</time>
      </trkpt>
      <trkpt lat="45.64706" lon="6.65126">
        <ele>2280.8828</ele>
        <time>2015-08-19T15:29:13Z</time>
      </trkpt>
      <trkpt lat="45.64702" lon="6.65129">
        <ele>2280.8828</ele>
        <time>2015-08-19T15:29:23Z</time>
      </trkpt>
      <trkpt lat="45.64699" lon="6.6513">
        <ele>2280.8828</ele>
        <time>2015-08-19T15:29:28Z</time>
      </trkpt>
      <trkpt lat="45.64692" lon="6.65132">
        <ele>2283.096</ele>
        <time>2015-08-19T15:29:38Z</time>
      </trkpt>
      <trkpt lat="45.64691" lon="6.6513">
        <ele>2283.096</ele>
        <time>2015-08-19T15:29:43Z</time>
      </trkpt>
      <trkpt lat="45.64686" lon="6.65131">
        <ele>2283.096</ele>
        <time>2015-08-19T15:29:58Z</time>
      </trkpt>
      <trkpt lat="45.64683" lon="6.65136">
        <ele>2285.215</ele>
        <time>2015-08-19T15:30:03Z</time>
      </trkpt>
      <trkpt lat="45.6468" lon="6.65141">
        <ele>2285.215</ele>
        <time>2015-08-19T15:30:13Z</time>
      </trkpt>
      <trkpt lat="45.64676" lon="6.65144">
        <ele>2285.215</ele>
        <time>2015-08-19T15:30:18Z</time>
      </trkpt>
      <trkpt lat="45.64675" lon="6.65153">
        <ele>2287.3914</ele>
        <time>2015-08-19T15:30:28Z</time>
      </trkpt>
      <trkpt lat="45.64674" lon="6.65154">
        <ele>2287.3914</ele>
        <time>2015-08-19T15:30:33Z</time>
      </trkpt>
      <trkpt lat="45.64676" lon="6.65157">
        <ele>2287.3914</ele>
        <time>2015-08-19T15:30:43Z</time>
      </trkpt>
      <trkpt lat="45.64676" lon="6.65154">
        <ele>2287.3914</ele>
        <time>2015-08-19T15:30:48Z</time>
      </trkpt>
      <trkpt lat="45.64672" lon="6.65153">
        <ele>2289.6782</ele>
        <time>2015-08-19T15:30:58Z</time>
      </trkpt>
      <trkpt lat="45.64669" lon="6.65152">
        <ele>2289.6782</ele>
        <time>2015-08-19T15:31:03Z</time>
      </trkpt>
      <trkpt lat="45.64667" lon="6.65152">
        <ele>2289.6782</ele>
        <time>2015-08-19T15:31:13Z</time>
      </trkpt>
      <trkpt lat="45.64664" lon="6.65152">
        <ele>2289.6782</ele>
        <time>2015-08-19T15:31:18Z</time>
      </trkpt>
      <trkpt lat="45.64664" lon="6.65159">
        <ele>2291.693</ele>
        <time>2015-08-19T15:31:28Z</time>
      </trkpt>
      <trkpt lat="45.64665" lon="6.65163">
        <ele>2291.693</ele>
        <time>2015-08-19T15:31:33Z</time>
      </trkpt>
      <trkpt lat="45.64661" lon="6.65157">
        <ele>2291.693</ele>
        <time>2015-08-19T15:31:48Z</time>
      </trkpt>
      <trkpt lat="45.64659" lon="6.65158">
        <ele>2293.845</ele>
        <time>2015-08-19T15:31:53Z</time>
      </trkpt>
      <trkpt lat="45.6466" lon="6.65165">
        <ele>2293.845</ele>
        <time>2015-08-19T15:32:03Z</time>
      </trkpt>
      <trkpt lat="45.64659" lon="6.65167">
        <ele>2293.845</ele>
        <time>2015-08-19T15:32:08Z</time>
      </trkpt>
      <trkpt lat="45.6466" lon="6.65167">
        <ele>2293.845</ele>
        <time>2015-08-19T15:32:18Z</time>
      </trkpt>
      <trkpt lat="45.64662" lon="6.65168">
        <ele>2295.8645</ele>
        <time>2015-08-19T15:32:23Z</time>
      </trkpt>
      <trkpt lat="45.64656" lon="6.65168">
        <ele>2295.8645</ele>
        <time>2015-08-19T15:32:33Z</time>
      </trkpt>
      <trkpt lat="45.64654" lon="6.65166">
        <ele>2295.8645</ele>
        <time>2015-08-19T15:32:38Z</time>
      </trkpt>
      <trkpt lat="45.64652" lon="6.65167">
        <ele>2297.7764</ele>
        <time>2015-08-19T15:32:48Z</time>
      </trkpt>
      <trkpt lat="45.64651" lon="6.65172">
        <ele>2297.7764</ele>
        <time>2015-08-19T15:32:53Z</time>
      </trkpt>
      <trkpt lat="45.64652" lon="6.65174">
        <ele>2297.7764</ele>
        <time>2015-08-19T15:33:03Z</time>
      </trkpt>
      <trkpt lat="45.64653" lon="6.65176">
        <ele>2297.7764</ele>
        <time>2015-08-19T15:33:08Z</time>
      </trkpt>
      <trkpt lat="45.64656" lon="6.65173">
        <ele>2299.8337</ele>
        <time>2015-08-19T15:33:18Z</time>
      </trkpt>
      <trkpt lat="45.64655" lon="6.65173">
        <ele>2299.8337</ele>
        <time>2015-08-19T15:33:23Z</time>
      </trkpt>
      <trkpt lat="45.64652" lon="6.65174">
        <ele>2299.8337</ele>
        <time>2015-08-19T15:33:33Z</time>
      </trkpt>
      <trkpt lat="45.64652" lon="6.65172">
        <ele>2299.8337</ele>
        <time>2015-08-19T15:33:38Z</time>
      </trkpt>
      <trkpt lat="45.6465" lon="6.65174">
        <ele>2299.8337</ele>
        <time>2015-08-19T15:33:48Z</time>
      </trkpt>
      <trkpt lat="45.64649" lon="6.65175">
        <ele>2299.8337</ele>
        <time>2015-08-19T15:33:53Z</time>
      </trkpt>
      <trkpt lat="45.64644" lon="6.65179">
        <ele>2301.983</ele>
        <time>2015-08-19T15:34:03Z</time>
      </trkpt>
      <trkpt lat="45.64644" lon="6.65182">
        <ele>2301.983</ele>
        <time>2015-08-19T15:34:08Z</time>
      </trkpt>
      <trkpt lat="45.64643" lon="6.65185">
        <ele>2301.983</ele>
        <time>2015-08-19T15:34:18Z</time>
      </trkpt>
      <trkpt lat="45.64645" lon="6.65186">
        <ele>2301.983</ele>
        <time>2015-08-19T15:34:23Z</time>
      </trkpt>
      <trkpt lat="45.64649" lon="6.65189">
        <ele>2304.6062</ele>
        <time>2015-08-19T15:34:38Z</time>
      </trkpt>
      <trkpt lat="45.64651" lon="6.65188">
        <ele>2304.6062</ele>
        <time>2015-08-19T15:34:43Z</time>
      </trkpt>
      <trkpt lat="45.6465" lon="6.65192">
        <ele>2304.6062</ele>
        <time>2015-08-19T15:34:53Z</time>
      </trkpt>
      <trkpt lat="45.6465" lon="6.6519">
        <ele>2304.6062</ele>
        <time>2015-08-19T15:34:58Z</time>
      </trkpt>
      <trkpt lat="45.64649" lon="6.65185">
        <ele>2307.1768</ele>
        <time>2015-08-19T15:35:08Z</time>
      </trkpt>
      <trkpt lat="45.64647" lon="6.65188">
        <ele>2307.1768</ele>
        <time>2015-08-19T15:35:13Z</time>
      </trkpt>
      <trkpt lat="45.64645" lon="6.65195">
        <ele>2307.1768</ele>
        <time>2015-08-19T15:35:23Z</time>
      </trkpt>
      <trkpt lat="45.64642" lon="6.65194">
        <ele>2309.7983</ele>
        <time>2015-08-19T15:35:28Z</time>
      </trkpt>
      <trkpt lat="45.6464" lon="6.65199">
        <ele>2309.7983</ele>
        <time>2015-08-19T15:35:38Z</time>
      </trkpt>
      <trkpt lat="45.64638" lon="6.65201">
        <ele>2309.7983</ele>
        <time>2015-08-19T15:35:43Z</time>
      </trkpt>
      <trkpt lat="45.64642" lon="6.65205">
        <ele>2312.566</ele>
        <time>2015-08-19T15:35:53Z</time>
      </trkpt>
      <trkpt lat="45.64644" lon="6.65207">
        <ele>2312.566</ele>
        <time>2015-08-19T15:35:58Z</time>
      </trkpt>
      <trkpt lat="45.64641" lon="6.6521">
        <ele>2312.566</ele>
        <time>2015-08-19T15:36:08Z</time>
      </trkpt>
      <trkpt lat="45.64641" lon="6.65215">
        <ele>2315.6545</ele>
        <time>2015-08-19T15:36:13Z</time>
      </trkpt>
      <trkpt lat="45.64641" lon="6.65224">
        <ele>2315.6545</ele>
        <time>2015-08-19T15:36:23Z</time>
      </trkpt>
      <trkpt lat="45.6464" lon="6.65229">
        <ele>2318.7349</ele>
        <time>2015-08-19T15:36:28Z</time>
      </trkpt>
      <trkpt lat="45.6464" lon="6.65235">
        <ele>2318.7349</ele>
        <time>2015-08-19T15:36:38Z</time>
      </trkpt>
      <trkpt lat="45.64641" lon="6.65228">
        <ele>2321.5593</ele>
        <time>2015-08-19T15:36:43Z</time>
      </trkpt>
      <trkpt lat="45.64636" lon="6.65234">
        <ele>2321.5593</ele>
        <time>2015-08-19T15:36:58Z</time>
      </trkpt>
      <trkpt lat="45.64636" lon="6.65234">
        <ele>2321.5593</ele>
        <time>2015-08-19T15:37:03Z</time>
      </trkpt>
      <trkpt lat="45.64636" lon="6.65247">
        <ele>2323.6836</ele>
        <time>2015-08-19T15:37:43Z</time>
      </trkpt>
      <trkpt lat="45.64635" lon="6.65253">
        <ele>2323.6836</ele>
        <time>2015-08-19T15:37:48Z</time>
      </trkpt>
      <trkpt lat="45.64631" lon="6.65263">
        <ele>2325.4614</ele>
        <time>2015-08-19T15:37:58Z</time>
      </trkpt>
      <trkpt lat="45.6463" lon="6.65267">
        <ele>2325.4614</ele>
        <time>2015-08-19T15:38:03Z</time>
      </trkpt>
      <trkpt lat="45.64631" lon="6.6527">
        <ele>2325.4614</ele>
        <time>2015-08-19T15:38:13Z</time>
      </trkpt>
      <trkpt lat="45.64631" lon="6.65271">
        <ele>2325.4614</ele>
        <time>2015-08-19T15:38:18Z</time>
      </trkpt>
      <trkpt lat="45.6463" lon="6.65278">
        <ele>2327.207</ele>
        <time>2015-08-19T15:38:28Z</time>
      </trkpt>
      <trkpt lat="45.6463" lon="6.65278">
        <ele>2327.207</ele>
        <time>2015-08-19T15:38:33Z</time>
      </trkpt>
      <trkpt lat="45.64627" lon="6.65289">
        <ele>2327.207</ele>
        <time>2015-08-19T15:39:48Z</time>
      </trkpt>
      <trkpt lat="45.64626" lon="6.65292">
        <ele>2329.4712</ele>
        <time>2015-08-19T15:39:53Z</time>
      </trkpt>
      <trkpt lat="45.64626" lon="6.65292">
        <ele>2329.4712</ele>
        <time>2015-08-19T15:40:03Z</time>
      </trkpt>
      <trkpt lat="45.64625" lon="6.65297">
        <ele>2329.4712</ele>
        <time>2015-08-19T15:41:08Z</time>
      </trkpt>
      <trkpt lat="45.64622" lon="6.653">
        <ele>2329.4712</ele>
        <time>2015-08-19T15:41:38Z</time>
      </trkpt>
      <trkpt lat="45.64622" lon="6.65305">
        <ele>2332.4026</ele>
        <time>2015-08-19T15:41:53Z</time>
      </trkpt>
      <trkpt lat="45.64622" lon="6.65307">
        <ele>2332.4026</ele>
        <time>2015-08-19T15:41:58Z</time>
      </trkpt>
      <trkpt lat="45.64621" lon="6.65318">
        <ele>2335.042</ele>
        <time>2015-08-19T15:42:08Z</time>
      </trkpt>
      <trkpt lat="45.64619" lon="6.65322">
        <ele>2335.042</ele>
        <time>2015-08-19T15:42:13Z</time>
      </trkpt>
      <trkpt lat="45.64619" lon="6.65322">
        <ele>2335.042</ele>
        <time>2015-08-19T15:42:23Z</time>
      </trkpt>
      <trkpt lat="45.64619" lon="6.65325">
        <ele>2335.042</ele>
        <time>2015-08-19T15:42:58Z</time>
      </trkpt>
      <trkpt lat="45.64612" lon="6.65336">
        <ele>2338.2305</ele>
        <time>2015-08-19T15:43:13Z</time>
      </trkpt>
      <trkpt lat="45.64607" lon="6.65343">
        <ele>2338.2305</ele>
        <time>2015-08-19T15:43:28Z</time>
      </trkpt>
      <trkpt lat="45.64605" lon="6.65345">
        <ele>2341.1174</ele>
        <time>2015-08-19T15:43:33Z</time>
      </trkpt>
      <trkpt lat="45.64595" lon="6.65355">
        <ele>2344.0686</ele>
        <time>2015-08-19T15:43:43Z</time>
      </trkpt>
      <trkpt lat="45.64591" lon="6.65359">
        <ele>2344.0686</ele>
        <time>2015-08-19T15:43:48Z</time>
      </trkpt>
      <trkpt lat="45.64583" lon="6.65365">
        <ele>2346.9905</ele>
        <time>2015-08-19T15:43:58Z</time>
      </trkpt>
      <trkpt lat="45.64577" lon="6.65371">
        <ele>2346.9905</ele>
        <time>2015-08-19T15:44:03Z</time>
      </trkpt>
      <trkpt lat="45.6457" lon="6.65377">
        <ele>2350.2573</ele>
        <time>2015-08-19T15:44:13Z</time>
      </trkpt>
      <trkpt lat="45.64565" lon="6.65382">
        <ele>2350.2573</ele>
        <time>2015-08-19T15:44:18Z</time>
      </trkpt>
      <trkpt lat="45.64562" lon="6.65384">
        <ele>2353.4084</ele>
        <time>2015-08-19T15:44:28Z</time>
      </trkpt>
      <trkpt lat="45.6456" lon="6.65386">
        <ele>2353.4084</ele>
        <time>2015-08-19T15:44:33Z</time>
      </trkpt>
      <trkpt lat="45.6456" lon="6.65386">
        <ele>2353.4084</ele>
        <time>2015-08-19T15:44:43Z</time>
      </trkpt>
      <trkpt lat="45.64559" lon="6.65386">
        <ele>2353.4084</ele>
        <time>2015-08-19T15:45:48Z</time>
      </trkpt>
      <trkpt lat="45.64558" lon="6.65387">
        <ele>2353.4084</ele>
        <time>2015-08-19T15:45:53Z</time>
      </trkpt>
      <trkpt lat="45.64558" lon="6.65387">
        <ele>2353.4084</ele>
        <time>2015-08-19T15:46:03Z</time>
      </trkpt>
      <trkpt lat="45.64557" lon="6.65388">
        <ele>2353.4084</ele>
        <time>2015-08-19T15:46:08Z</time>
      </trkpt>
      <trkpt lat="45.6455" lon="6.65389">
        <ele>2356.896</ele>
        <time>2015-08-19T15:46:18Z</time>
      </trkpt>
      <trkpt lat="45.64547" lon="6.65386">
        <ele>2356.896</ele>
        <time>2015-08-19T15:46:23Z</time>
      </trkpt>
      <trkpt lat="45.64543" lon="6.65386">
        <ele>2356.896</ele>
        <time>2015-08-19T15:46:33Z</time>
      </trkpt>
      <trkpt lat="45.6454" lon="6.65387">
        <ele>2360.043</ele>
        <time>2015-08-19T15:46:38Z</time>
      </trkpt>
      <trkpt lat="45.64532" lon="6.6539">
        <ele>2360.043</ele>
        <time>2015-08-19T15:46:48Z</time>
      </trkpt>
      <trkpt lat="45.64529" lon="6.6539">
        <ele>2363.1887</ele>
        <time>2015-08-19T15:46:53Z</time>
      </trkpt>
      <trkpt lat="45.64523" lon="6.65393">
        <ele>2363.1887</ele>
        <time>2015-08-19T15:47:03Z</time>
      </trkpt>
      <trkpt lat="45.64521" lon="6.65394">
        <ele>2363.1887</ele>
        <time>2015-08-19T15:47:08Z</time>
      </trkpt>
      <trkpt lat="45.64521" lon="6.65394">
        <ele>2363.1887</ele>
        <time>2015-08-19T15:47:23Z</time>
      </trkpt>
      <trkpt lat="45.6452" lon="6.65394">
        <ele>2366.1436</ele>
        <time>2015-08-19T15:47:28Z</time>
      </trkpt>
      <trkpt lat="45.64518" lon="6.65395">
        <ele>2366.1436</ele>
        <time>2015-08-19T15:47:38Z</time>
      </trkpt>
      <trkpt lat="45.64514" lon="6.65397">
        <ele>2366.1436</ele>
        <time>2015-08-19T15:47:53Z</time>
      </trkpt>
      <trkpt lat="45.64512" lon="6.65395">
        <ele>2366.1436</ele>
        <time>2015-08-19T15:47:58Z</time>
      </trkpt>
      <trkpt lat="45.64504" lon="6.65387">
        <ele>2368.9045</ele>
        <time>2015-08-19T15:48:08Z</time>
      </trkpt>
      <trkpt lat="45.64502" lon="6.65385">
        <ele>2368.9045</ele>
        <time>2015-08-19T15:48:13Z</time>
      </trkpt>
      <trkpt lat="45.64501" lon="6.65382">
        <ele>2368.9045</ele>
        <time>2015-08-19T15:48:23Z</time>
      </trkpt>
      <trkpt lat="45.64501" lon="6.65383">
        <ele>2368.9045</ele>
        <time>2015-08-19T15:48:28Z</time>
      </trkpt>
      <trkpt lat="45.64499" lon="6.65388">
        <ele>2371.9023</ele>
        <time>2015-08-19T15:48:38Z</time>
      </trkpt>
      <trkpt lat="45.64499" lon="6.6539">
        <ele>2371.9023</ele>
        <time>2015-08-19T15:48:43Z</time>
      </trkpt>
      <trkpt lat="45.64498" lon="6.65392">
        <ele>2371.9023</ele>
        <time>2015-08-19T15:48:53Z</time>
      </trkpt>
      <trkpt lat="45.64497" lon="6.65393">
        <ele>2371.9023</ele>
        <time>2015-08-19T15:48:58Z</time>
      </trkpt>
      <trkpt lat="45.64491" lon="6.654">
        <ele>2375.363</ele>
        <time>2015-08-19T15:49:13Z</time>
      </trkpt>
      <trkpt lat="45.64493" lon="6.65403">
        <ele>2375.363</ele>
        <time>2015-08-19T15:49:18Z</time>
      </trkpt>
      <trkpt lat="45.64496" lon="6.65408">
        <ele>2375.363</ele>
        <time>2015-08-19T15:49:28Z</time>
      </trkpt>
      <trkpt lat="45.64497" lon="6.65409">
        <ele>2375.363</ele>
        <time>2015-08-19T15:49:33Z</time>
      </trkpt>
      <trkpt lat="45.64496" lon="6.65412">
        <ele>2378.6145</ele>
        <time>2015-08-19T15:49:43Z</time>
      </trkpt>
      <trkpt lat="45.64498" lon="6.65408">
        <ele>2378.6145</ele>
        <time>2015-08-19T15:49:48Z</time>
      </trkpt>
      <trkpt lat="45.64498" lon="6.65409">
        <ele>2378.6145</ele>
        <time>2015-08-19T15:49:58Z</time>
      </trkpt>
      <trkpt lat="45.64499" lon="6.65405">
        <ele>2378.6145</ele>
        <time>2015-08-19T15:50:03Z</time>
      </trkpt>
      <trkpt lat="45.645" lon="6.65405">
        <ele>2378.6145</ele>
        <time>2015-08-19T15:50:13Z</time>
      </trkpt>
      <trkpt lat="45.64501" lon="6.65407">
        <ele>2378.6145</ele>
        <time>2015-08-19T15:50:18Z</time>
      </trkpt>
      <trkpt lat="45.64499" lon="6.65413">
        <ele>2381.915</ele>
        <time>2015-08-19T15:50:28Z</time>
      </trkpt>
      <trkpt lat="45.64497" lon="6.65415">
        <ele>2381.915</ele>
        <time>2015-08-19T15:50:33Z</time>
      </trkpt>
      <trkpt lat="45.64495" lon="6.65417">
        <ele>2381.915</ele>
        <time>2015-08-19T15:50:43Z</time>
      </trkpt>
      <trkpt lat="45.64493" lon="6.65419">
        <ele>2381.915</ele>
        <time>2015-08-19T15:50:48Z</time>
      </trkpt>
      <trkpt lat="45.64489" lon="6.65422">
        <ele>2385.013</ele>
        <time>2015-08-19T15:50:58Z</time>
      </trkpt>
      <trkpt lat="45.64486" lon="6.6542">
        <ele>2385.013</ele>
        <time>2015-08-19T15:51:03Z</time>
      </trkpt>
      <trkpt lat="45.64488" lon="6.65424">
        <ele>2385.013</ele>
        <time>2015-08-19T15:51:13Z</time>
      </trkpt>
      <trkpt lat="45.64488" lon="6.65422">
        <ele>2385.013</ele>
        <time>2015-08-19T15:51:18Z</time>
      </trkpt>
      <trkpt lat="45.64486" lon="6.65418">
        <ele>2388.382</ele>
        <time>2015-08-19T15:51:33Z</time>
      </trkpt>
      <trkpt lat="45.64485" lon="6.65422">
        <ele>2388.382</ele>
        <time>2015-08-19T15:51:38Z</time>
      </trkpt>
      <trkpt lat="45.64489" lon="6.65431">
        <ele>2391.813</ele>
        <time>2015-08-19T15:51:48Z</time>
      </trkpt>
      <trkpt lat="45.64491" lon="6.65435">
        <ele>2391.813</ele>
        <time>2015-08-19T15:51:53Z</time>
      </trkpt>
      <trkpt lat="45.64493" lon="6.65436">
        <ele>2391.813</ele>
        <time>2015-08-19T15:52:03Z</time>
      </trkpt>
      <trkpt lat="45.64494" lon="6.65437">
        <ele>2391.813</ele>
        <time>2015-08-19T15:52:08Z</time>
      </trkpt>
      <trkpt lat="45.64497" lon="6.65436">
        <ele>2395.0815</ele>
        <time>2015-08-19T15:52:18Z</time>
      </trkpt>
      <trkpt lat="45.64499" lon="6.65435">
        <ele>2395.0815</ele>
        <time>2015-08-19T15:52:23Z</time>
      </trkpt>
      <trkpt lat="45.64499" lon="6.65432">
        <ele>2395.0815</ele>
        <time>2015-08-19T15:52:33Z</time>
      </trkpt>
      <trkpt lat="45.645" lon="6.65434">
        <ele>2395.0815</ele>
        <time>2015-08-19T15:52:38Z</time>
      </trkpt>
      <trkpt lat="45.64502" lon="6.65437">
        <ele>2398.1257</ele>
        <time>2015-08-19T15:52:48Z</time>
      </trkpt>
      <trkpt lat="45.64504" lon="6.65438">
        <ele>2398.1257</ele>
        <time>2015-08-19T15:52:53Z</time>
      </trkpt>
      <trkpt lat="45.64508" lon="6.65437">
        <ele>2398.1257</ele>
        <time>2015-08-19T15:53:03Z</time>
      </trkpt>
      <trkpt lat="45.64511" lon="6.65434">
        <ele>2400.9602</ele>
        <time>2015-08-19T15:53:08Z</time>
      </trkpt>
      <trkpt lat="45.64518" lon="6.65436">
        <ele>2400.9602</ele>
        <time>2015-08-19T15:53:23Z</time>
      </trkpt>
      <trkpt lat="45.64521" lon="6.65437">
        <ele>2403.5708</ele>
        <time>2015-08-19T15:53:28Z</time>
      </trkpt>
      <trkpt lat="45.64522" lon="6.65439">
        <ele>2403.5708</ele>
        <time>2015-08-19T15:53:38Z</time>
      </trkpt>
      <trkpt lat="45.6452" lon="6.65439">
        <ele>2403.5708</ele>
        <time>2015-08-19T15:53:43Z</time>
      </trkpt>
      <trkpt lat="45.6452" lon="6.65437">
        <ele>2403.5708</ele>
        <time>2015-08-19T15:53:53Z</time>
      </trkpt>
      <trkpt lat="45.6452" lon="6.65436">
        <ele>2403.5708</ele>
        <time>2015-08-19T15:53:58Z</time>
      </trkpt>
      <trkpt lat="45.64515" lon="6.65436">
        <ele>2405.887</ele>
        <time>2015-08-19T15:54:08Z</time>
      </trkpt>
      <trkpt lat="45.64514" lon="6.6544">
        <ele>2405.887</ele>
        <time>2015-08-19T15:54:13Z</time>
      </trkpt>
      <trkpt lat="45.64511" lon="6.65444">
        <ele>2405.887</ele>
        <time>2015-08-19T15:54:23Z</time>
      </trkpt>
      <trkpt lat="45.64513" lon="6.65446">
        <ele>2405.887</ele>
        <time>2015-08-19T15:54:28Z</time>
      </trkpt>
      <trkpt lat="45.64515" lon="6.65447">
        <ele>2408.1907</ele>
        <time>2015-08-19T15:54:38Z</time>
      </trkpt>
      <trkpt lat="45.64515" lon="6.65449">
        <ele>2408.1907</ele>
        <time>2015-08-19T15:54:43Z</time>
      </trkpt>
      <trkpt lat="45.64517" lon="6.65451">
        <ele>2408.1907</ele>
        <time>2015-08-19T15:54:53Z</time>
      </trkpt>
      <trkpt lat="45.64518" lon="6.6545">
        <ele>2408.1907</ele>
        <time>2015-08-19T15:54:58Z</time>
      </trkpt>
      <trkpt lat="45.6452" lon="6.65452">
        <ele>2408.1907</ele>
        <time>2015-08-19T15:55:08Z</time>
      </trkpt>
      <trkpt lat="45.6452" lon="6.65453">
        <ele>2408.1907</ele>
        <time>2015-08-19T15:55:13Z</time>
      </trkpt>
      <trkpt lat="45.64518" lon="6.65455">
        <ele>2410.5269</ele>
        <time>2015-08-19T15:55:28Z</time>
      </trkpt>
      <trkpt lat="45.64516" lon="6.65456">
        <ele>2410.5269</ele>
        <time>2015-08-19T15:55:33Z</time>
      </trkpt>
      <trkpt lat="45.64516" lon="6.6546">
        <ele>2410.5269</ele>
        <time>2015-08-19T15:55:43Z</time>
      </trkpt>
      <trkpt lat="45.64519" lon="6.65459">
        <ele>2410.5269</ele>
        <time>2015-08-19T15:55:48Z</time>
      </trkpt>
      <trkpt lat="45.64523" lon="6.6546">
        <ele>2412.8647</ele>
        <time>2015-08-19T15:55:58Z</time>
      </trkpt>
      <trkpt lat="45.64524" lon="6.65461">
        <ele>2412.8647</ele>
        <time>2015-08-19T15:56:03Z</time>
      </trkpt>
      <trkpt lat="45.64524" lon="6.65466">
        <ele>2412.8647</ele>
        <time>2015-08-19T15:56:13Z</time>
      </trkpt>
      <trkpt lat="45.64527" lon="6.65464">
        <ele>2412.8647</ele>
        <time>2015-08-19T15:56:18Z</time>
      </trkpt>
      <trkpt lat="45.64529" lon="6.65462">
        <ele>2415.3928</ele>
        <time>2015-08-19T15:56:28Z</time>
      </trkpt>
      <trkpt lat="45.64529" lon="6.65464">
        <ele>2415.3928</ele>
        <time>2015-08-19T15:56:33Z</time>
      </trkpt>
      <trkpt lat="45.64528" lon="6.65463">
        <ele>2415.3928</ele>
        <time>2015-08-19T15:56:43Z</time>
      </trkpt>
      <trkpt lat="45.64528" lon="6.65464">
        <ele>2415.3928</ele>
        <time>2015-08-19T15:56:48Z</time>
      </trkpt>
      <trkpt lat="45.64529" lon="6.65465">
        <ele>2415.3928</ele>
        <time>2015-08-19T15:56:58Z</time>
      </trkpt>
      <trkpt lat="45.64528" lon="6.6546">
        <ele>2415.3928</ele>
        <time>2015-08-19T15:57:03Z</time>
      </trkpt>
      <trkpt lat="45.6453" lon="6.65461">
        <ele>2417.996</ele>
        <time>2015-08-19T15:57:13Z</time>
      </trkpt>
      <trkpt lat="45.6453" lon="6.65457">
        <ele>2417.996</ele>
        <time>2015-08-19T15:57:18Z</time>
      </trkpt>
      <trkpt lat="45.64527" lon="6.65463">
        <ele>2417.996</ele>
        <time>2015-08-19T15:57:28Z</time>
      </trkpt>
      <trkpt lat="45.64526" lon="6.65466">
        <ele>2420.4534</ele>
        <time>2015-08-19T15:57:33Z</time>
      </trkpt>
      <trkpt lat="45.64522" lon="6.65473">
        <ele>2420.4534</ele>
        <time>2015-08-19T15:57:48Z</time>
      </trkpt>
      <trkpt lat="45.64523" lon="6.65476">
        <ele>2422.776</ele>
        <time>2015-08-19T15:57:53Z</time>
      </trkpt>
      <trkpt lat="45.64522" lon="6.65481">
        <ele>2422.776</ele>
        <time>2015-08-19T15:58:03Z</time>
      </trkpt>
      <trkpt lat="45.64522" lon="6.65483">
        <ele>2422.776</ele>
        <time>2015-08-19T15:58:08Z</time>
      </trkpt>
      <trkpt lat="45.64523" lon="6.65478">
        <ele>2422.776</ele>
        <time>2015-08-19T15:58:18Z</time>
      </trkpt>
      <trkpt lat="45.64524" lon="6.65479">
        <ele>2425.3923</ele>
        <time>2015-08-19T15:58:23Z</time>
      </trkpt>
      <trkpt lat="45.64529" lon="6.6548">
        <ele>2425.3923</ele>
        <time>2015-08-19T15:58:33Z</time>
      </trkpt>
      <trkpt lat="45.64531" lon="6.6548">
        <ele>2425.3923</ele>
        <time>2015-08-19T15:58:38Z</time>
      </trkpt>
      <trkpt lat="45.64531" lon="6.65481">
        <ele>2425.3923</ele>
        <time>2015-08-19T15:58:48Z</time>
      </trkpt>
      <trkpt lat="45.64529" lon="6.65483">
        <ele>2427.9065</ele>
        <time>2015-08-19T15:58:53Z</time>
      </trkpt>
      <trkpt lat="45.64528" lon="6.65483">
        <ele>2427.9065</ele>
        <time>2015-08-19T15:59:03Z</time>
      </trkpt>
      <trkpt lat="45.64531" lon="6.6548">
        <ele>2427.9065</ele>
        <time>2015-08-19T15:59:08Z</time>
      </trkpt>
      <trkpt lat="45.64531" lon="6.65487">
        <ele>2427.9065</ele>
        <time>2015-08-19T15:59:23Z</time>
      </trkpt>
      <trkpt lat="45.64529" lon="6.65492">
        <ele>2430.4421</ele>
        <time>2015-08-19T15:59:28Z</time>
      </trkpt>
      <trkpt lat="45.64528" lon="6.65496">
        <ele>2430.4421</ele>
        <time>2015-08-19T15:59:38Z</time>
      </trkpt>
      <trkpt lat="45.64526" lon="6.65496">
        <ele>2430.4421</ele>
        <time>2015-08-19T15:59:43Z</time>
      </trkpt>
      <trkpt lat="45.64526" lon="6.65499">
        <ele>2430.4421</ele>
        <time>2015-08-19T15:59:53Z</time>
      </trkpt>
      <trkpt lat="45.64525" lon="6.65504">
        <ele>2432.8535</ele>
        <time>2015-08-19T15:59:58Z</time>
      </trkpt>
      <trkpt lat="45.64528" lon="6.65509">
        <ele>2432.8535</ele>
        <time>2015-08-19T16:00:08Z</time>
      </trkpt>
      <trkpt lat="45.64527" lon="6.65512">
        <ele>2432.8535</ele>
        <time>2015-08-19T16:00:13Z</time>
      </trkpt>
      <trkpt lat="45.64524" lon="6.65519">
        <ele>2435.0215</ele>
        <time>2015-08-19T16:00:23Z</time>
      </trkpt>
      <trkpt lat="45.64523" lon="6.65521">
        <ele>2435.0215</ele>
        <time>2015-08-19T16:00:28Z</time>
      </trkpt>
      <trkpt lat="45.64521" lon="6.65527">
        <ele>2435.0215</ele>
        <time>2015-08-19T16:00:38Z</time>
      </trkpt>
      <trkpt lat="45.64519" lon="6.6553">
        <ele>2436.8352</ele>
        <time>2015-08-19T16:00:43Z</time>
      </trkpt>
      <trkpt lat="45.64518" lon="6.65536">
        <ele>2436.8352</ele>
        <time>2015-08-19T16:00:53Z</time>
      </trkpt>
      <trkpt lat="45.64516" lon="6.65543">
        <ele>2438.3667</ele>
        <time>2015-08-19T16:00:58Z</time>
      </trkpt>
      <trkpt lat="45.64514" lon="6.65552">
        <ele>2438.3667</ele>
        <time>2015-08-19T16:01:08Z</time>
      </trkpt>
      <trkpt lat="45.64512" lon="6.65558">
        <ele>2439.6978</ele>
        <time>2015-08-19T16:01:13Z</time>
      </trkpt>
      <trkpt lat="45.64509" lon="6.65565">
        <ele>2439.6978</ele>
        <time>2015-08-19T16:01:23Z</time>
      </trkpt>
      <trkpt lat="45.64506" lon="6.65569">
        <ele>2440.818</ele>
        <time>2015-08-19T16:01:28Z</time>
      </trkpt>
      <trkpt lat="45.64501" lon="6.65576">
        <ele>2440.818</ele>
        <time>2015-08-19T16:01:38Z</time>
      </trkpt>
      <trkpt lat="45.64499" lon="6.65577">
        <ele>2440.818</ele>
        <time>2015-08-19T16:01:43Z</time>
      </trkpt>
      <trkpt lat="45.64491" lon="6.6558">
        <ele>2442.2808</ele>
        <time>2015-08-19T16:01:58Z</time>
      </trkpt>
      <trkpt lat="45.64488" lon="6.6558">
        <ele>2442.2808</ele>
        <time>2015-08-19T16:02:03Z</time>
      </trkpt>
      <trkpt lat="45.64486" lon="6.65584">
        <ele>2442.2808</ele>
        <time>2015-08-19T16:02:13Z</time>
      </trkpt>
      <trkpt lat="45.64488" lon="6.65586">
        <ele>2442.2808</ele>
        <time>2015-08-19T16:02:18Z</time>
      </trkpt>
      <trkpt lat="45.64493" lon="6.65582">
        <ele>2443.9346</ele>
        <time>2015-08-19T16:02:28Z</time>
      </trkpt>
      <trkpt lat="45.64493" lon="6.65587">
        <ele>2443.9346</ele>
        <time>2015-08-19T16:02:33Z</time>
      </trkpt>
      <trkpt lat="45.64491" lon="6.65591">
        <ele>2443.9346</ele>
        <time>2015-08-19T16:02:43Z</time>
      </trkpt>
      <trkpt lat="45.6449" lon="6.65593">
        <ele>2443.9346</ele>
        <time>2015-08-19T16:02:48Z</time>
      </trkpt>
      <trkpt lat="45.64487" lon="6.65592">
        <ele>2446.0996</ele>
        <time>2015-08-19T16:02:58Z</time>
      </trkpt>
      <trkpt lat="45.64487" lon="6.65593">
        <ele>2446.0996</ele>
        <time>2015-08-19T16:03:03Z</time>
      </trkpt>
      <trkpt lat="45.64488" lon="6.65592">
        <ele>2446.0996</ele>
        <time>2015-08-19T16:03:13Z</time>
      </trkpt>
      <trkpt lat="45.64487" lon="6.65595">
        <ele>2446.0996</ele>
        <time>2015-08-19T16:03:18Z</time>
      </trkpt>
      <trkpt lat="45.64489" lon="6.656">
        <ele>2446.0996</ele>
        <time>2015-08-19T16:03:28Z</time>
      </trkpt>
      <trkpt lat="45.64489" lon="6.65603">
        <ele>2448.5955</ele>
        <time>2015-08-19T16:03:33Z</time>
      </trkpt>
      <trkpt lat="45.64491" lon="6.65608">
        <ele>2448.5955</ele>
        <time>2015-08-19T16:03:43Z</time>
      </trkpt>
      <trkpt lat="45.64489" lon="6.65611">
        <ele>2448.5955</ele>
        <time>2015-08-19T16:03:48Z</time>
      </trkpt>
      <trkpt lat="45.64489" lon="6.6561">
        <ele>2448.5955</ele>
        <time>2015-08-19T16:03:58Z</time>
      </trkpt>
      <trkpt lat="45.64488" lon="6.65612">
        <ele>2451.269</ele>
        <time>2015-08-19T16:04:03Z</time>
      </trkpt>
      <trkpt lat="45.64492" lon="6.65615">
        <ele>2451.269</ele>
        <time>2015-08-19T16:04:18Z</time>
      </trkpt>
      <trkpt lat="45.64494" lon="6.65616">
        <ele>2451.269</ele>
        <time>2015-08-19T16:04:23Z</time>
      </trkpt>
      <trkpt lat="45.64497" lon="6.65618">
        <ele>2454.0347</ele>
        <time>2015-08-19T16:04:33Z</time>
      </trkpt>
      <trkpt lat="45.64497" lon="6.65621">
        <ele>2454.0347</ele>
        <time>2015-08-19T16:04:38Z</time>
      </trkpt>
      <trkpt lat="45.64492" lon="6.65625">
        <ele>2454.0347</ele>
        <time>2015-08-19T16:04:48Z</time>
      </trkpt>
      <trkpt lat="45.6449" lon="6.65624">
        <ele>2456.655</ele>
        <time>2015-08-19T16:04:53Z</time>
      </trkpt>
      <trkpt lat="45.6449" lon="6.65631">
        <ele>2456.655</ele>
        <time>2015-08-19T16:05:03Z</time>
      </trkpt>
      <trkpt lat="45.64492" lon="6.65634">
        <ele>2456.655</ele>
        <time>2015-08-19T16:05:08Z</time>
      </trkpt>
      <trkpt lat="45.64495" lon="6.65636">
        <ele>2459.3276</ele>
        <time>2015-08-19T16:05:18Z</time>
      </trkpt>
      <trkpt lat="45.64497" lon="6.65639">
        <ele>2459.3276</ele>
        <time>2015-08-19T16:05:23Z</time>
      </trkpt>
      <trkpt lat="45.64499" lon="6.6564">
        <ele>2459.3276</ele>
        <time>2015-08-19T16:05:33Z</time>
      </trkpt>
      <trkpt lat="45.64499" lon="6.6564">
        <ele>2459.3276</ele>
        <time>2015-08-19T16:05:38Z</time>
      </trkpt>
      <trkpt lat="45.64502" lon="6.65645">
        <ele>2462.02</ele>
        <time>2015-08-19T16:05:48Z</time>
      </trkpt>
      <trkpt lat="45.64502" lon="6.65648">
        <ele>2462.02</ele>
        <time>2015-08-19T16:05:53Z</time>
      </trkpt>
      <trkpt lat="45.64504" lon="6.6565">
        <ele>2462.02</ele>
        <time>2015-08-19T16:06:03Z</time>
      </trkpt>
      <trkpt lat="45.64503" lon="6.65655">
        <ele>2462.02</ele>
        <time>2015-08-19T16:06:08Z</time>
      </trkpt>
      <trkpt lat="45.64502" lon="6.65665">
        <ele>2464.8167</ele>
        <time>2015-08-19T16:06:23Z</time>
      </trkpt>
      <trkpt lat="45.64502" lon="6.65668">
        <ele>2464.8167</ele>
        <time>2015-08-19T16:06:28Z</time>
      </trkpt>
      <trkpt lat="45.64504" lon="6.65676">
        <ele>2464.8167</ele>
        <time>2015-08-19T16:06:38Z</time>
      </trkpt>
      <trkpt lat="45.64505" lon="6.65678">
        <ele>2467.666</ele>
        <time>2015-08-19T16:06:43Z</time>
      </trkpt>
      <trkpt lat="45.64502" lon="6.65681">
        <ele>2467.666</ele>
        <time>2015-08-19T16:06:53Z</time>
      </trkpt>
      <trkpt lat="45.645" lon="6.65683">
        <ele>2467.666</ele>
        <time>2015-08-19T16:06:58Z</time>
      </trkpt>
      <trkpt lat="45.64496" lon="6.6568">
        <ele>2470.2754</ele>
        <time>2015-08-19T16:07:08Z</time>
      </trkpt>
      <trkpt lat="45.645" lon="6.65683">
        <ele>2470.2754</ele>
        <time>2015-08-19T16:07:13Z</time>
      </trkpt>
      <trkpt lat="45.64499" lon="6.65685">
        <ele>2470.2754</ele>
        <time>2015-08-19T16:07:23Z</time>
      </trkpt>
      <trkpt lat="45.64499" lon="6.65685">
        <ele>2470.2754</ele>
        <time>2015-08-19T16:07:28Z</time>
      </trkpt>
      <trkpt lat="45.64498" lon="6.65685">
        <ele>2470.2754</ele>
        <time>2015-08-19T16:07:38Z</time>
      </trkpt>
      <trkpt lat="45.64497" lon="6.65686">
        <ele>2470.2754</ele>
        <time>2015-08-19T16:07:43Z</time>
      </trkpt>
      <trkpt lat="45.645" lon="6.65685">
        <ele>2472.691</ele>
        <time>2015-08-19T16:07:53Z</time>
      </trkpt>
      <trkpt lat="45.645" lon="6.65686">
        <ele>2472.691</ele>
        <time>2015-08-19T16:07:58Z</time>
      </trkpt>
      <trkpt lat="45.64498" lon="6.65688">
        <ele>2472.691</ele>
        <time>2015-08-19T16:08:08Z</time>
      </trkpt>
      <trkpt lat="45.64497" lon="6.65688">
        <ele>2472.691</ele>
        <time>2015-08-19T16:08:13Z</time>
      </trkpt>
      <trkpt lat="45.64497" lon="6.65686">
        <ele>2472.691</ele>
        <time>2015-08-19T16:08:23Z</time>
      </trkpt>
      <trkpt lat="45.645" lon="6.65684">
        <ele>2474.7542</ele>
        <time>2015-08-19T16:08:28Z</time>
      </trkpt>
      <trkpt lat="45.64505" lon="6.6568">
        <ele>2474.7542</ele>
        <time>2015-08-19T16:08:43Z</time>
      </trkpt>
      <trkpt lat="45.64506" lon="6.65681">
        <ele>2474.7542</ele>
        <time>2015-08-19T16:08:48Z</time>
      </trkpt>
      <trkpt lat="45.64505" lon="6.6568">
        <ele>2474.7542</ele>
        <time>2015-08-19T16:08:58Z</time>
      </trkpt>
      <trkpt lat="45.64505" lon="6.6568">
        <ele>2474.7542</ele>
        <time>2015-08-19T16:09:03Z</time>
      </trkpt>
      <trkpt lat="45.64503" lon="6.6568">
        <ele>2476.435</ele>
        <time>2015-08-19T16:09:13Z</time>
      </trkpt>
      <trkpt lat="45.64503" lon="6.65681">
        <ele>2476.435</ele>
        <time>2015-08-19T16:09:18Z</time>
      </trkpt>
      <trkpt lat="45.64503" lon="6.65683">
        <ele>2476.435</ele>
        <time>2015-08-19T16:09:28Z</time>
      </trkpt>
      <trkpt lat="45.64502" lon="6.65679">
        <ele>2476.435</ele>
        <time>2015-08-19T16:09:33Z</time>
      </trkpt>
      <trkpt lat="45.64499" lon="6.6568">
        <ele>2476.435</ele>
        <time>2015-08-19T16:09:43Z</time>
      </trkpt>
      <trkpt lat="45.645" lon="6.65682">
        <ele>2476.435</ele>
        <time>2015-08-19T16:09:48Z</time>
      </trkpt>
      <trkpt lat="45.64499" lon="6.65685">
        <ele>2477.7207</ele>
        <time>2015-08-19T16:09:58Z</time>
      </trkpt>
      <trkpt lat="45.645" lon="6.65686">
        <ele>2477.7207</ele>
        <time>2015-08-19T16:10:03Z</time>
      </trkpt>
      <trkpt lat="45.645" lon="6.65685">
        <ele>2477.7207</ele>
        <time>2015-08-19T16:10:13Z</time>
      </trkpt>
      <trkpt lat="45.64499" lon="6.65685">
        <ele>2477.7207</ele>
        <time>2015-08-19T16:10:18Z</time>
      </trkpt>
      <trkpt lat="45.645" lon="6.65685">
        <ele>2477.7207</ele>
        <time>2015-08-19T16:10:28Z</time>
      </trkpt>
      <trkpt lat="45.64499" lon="6.65684">
        <ele>2477.7207</ele>
        <time>2015-08-19T16:10:33Z</time>
      </trkpt>
      <trkpt lat="45.64497" lon="6.65684">
        <ele>2477.7207</ele>
        <time>2015-08-19T16:10:43Z</time>
      </trkpt>
      <trkpt lat="45.64497" lon="6.65684">
        <ele>2477.7207</ele>
        <time>2015-08-19T16:10:48Z</time>
      </trkpt>
      <trkpt lat="45.64497" lon="6.65685">
        <ele>2477.7207</ele>
        <time>2015-08-19T16:10:58Z</time>
      </trkpt>
      <trkpt lat="45.64498" lon="6.65685">
        <ele>2477.7207</ele>
        <time>2015-08-19T16:11:03Z</time>
      </trkpt>
      <trkpt lat="45.64498" lon="6.65691">
        <ele>2478.7732</ele>
        <time>2015-08-19T16:11:18Z</time>
      </trkpt>
      <trkpt lat="45.64497" lon="6.65692">
        <ele>2478.7732</ele>
        <time>2015-08-19T16:11:23Z</time>
      </trkpt>
      <trkpt lat="45.64495" lon="6.65693">
        <ele>2478.7732</ele>
        <time>2015-08-19T16:11:33Z</time>
      </trkpt>
      <trkpt lat="45.64495" lon="6.65694">
        <ele>2478.7732</ele>
        <time>2015-08-19T16:11:38Z</time>
      </trkpt>
      <trkpt lat="45.64496" lon="6.657">
        <ele>2478.7732</ele>
        <time>2015-08-19T16:11:48Z</time>
      </trkpt>
      <trkpt lat="45.64493" lon="6.65699">
        <ele>2479.5996</ele>
        <time>2015-08-19T16:11:53Z</time>
      </trkpt>
      <trkpt lat="45.64487" lon="6.65704">
        <ele>2479.5996</ele>
        <time>2015-08-19T16:12:03Z</time>
      </trkpt>
      <trkpt lat="45.64484" lon="6.6571">
        <ele>2480.1057</ele>
        <time>2015-08-19T16:12:08Z</time>
      </trkpt>
      <trkpt lat="45.6449" lon="6.65718">
        <ele>2480.1057</ele>
        <time>2015-08-19T16:12:18Z</time>
      </trkpt>
      <trkpt lat="45.64495" lon="6.65723">
        <ele>2480.0754</ele>
        <time>2015-08-19T16:12:23Z</time>
      </trkpt>
      <trkpt lat="45.64494" lon="6.65727">
        <ele>2480.0754</ele>
        <time>2015-08-19T16:12:33Z</time>
      </trkpt>
      <trkpt lat="45.64492" lon="6.65726">
        <ele>2480.0754</ele>
        <time>2015-08-19T16:12:38Z</time>
      </trkpt>
      <trkpt lat="45.64483" lon="6.65726">
        <ele>2479.2673</ele>
        <time>2015-08-19T16:12:48Z</time>
      </trkpt>
      <trkpt lat="45.6448" lon="6.65727">
        <ele>2479.2673</ele>
        <time>2015-08-19T16:12:53Z</time>
      </trkpt>
      <trkpt lat="45.64481" lon="6.6574">
        <ele>2478.122</ele>
        <time>2015-08-19T16:13:03Z</time>
      </trkpt>
      <trkpt lat="45.64486" lon="6.65742">
        <ele>2478.122</ele>
        <time>2015-08-19T16:13:08Z</time>
      </trkpt>
      <trkpt lat="45.64499" lon="6.65754">
        <ele>2476.271</ele>
        <time>2015-08-19T16:13:23Z</time>
      </trkpt>
      <trkpt lat="45.64495" lon="6.65756">
        <ele>2476.271</ele>
        <time>2015-08-19T16:13:28Z</time>
      </trkpt>
      <trkpt lat="45.64496" lon="6.65762">
        <ele>2476.271</ele>
        <time>2015-08-19T16:13:38Z</time>
      </trkpt>
      <trkpt lat="45.64499" lon="6.65766">
        <ele>2473.8206</ele>
        <time>2015-08-19T16:13:43Z</time>
      </trkpt>
      <trkpt lat="45.64501" lon="6.65775">
        <ele>2473.8206</ele>
        <time>2015-08-19T16:13:53Z</time>
      </trkpt>
      <trkpt lat="45.64502" lon="6.65779">
        <ele>2470.8572</ele>
        <time>2015-08-19T16:13:58Z</time>
      </trkpt>
      <trkpt lat="45.64496" lon="6.65775">
        <ele>2470.8572</ele>
        <time>2015-08-19T16:14:08Z</time>
      </trkpt>
      <trkpt lat="45.64492" lon="6.65775">
        <ele>2467.7788</ele>
        <time>2015-08-19T16:14:13Z</time>
      </trkpt>
      <trkpt lat="45.64487" lon="6.65778">
        <ele>2467.7788</ele>
        <time>2015-08-19T16:14:23Z</time>
      </trkpt>
      <trkpt lat="45.64484" lon="6.65773">
        <ele>2464.551</ele>
        <time>2015-08-19T16:14:28Z</time>
      </trkpt>
      <trkpt lat="45.64476" lon="6.65769">
        <ele>2464.551</ele>
        <time>2015-08-19T16:14:38Z</time>
      </trkpt>
      <trkpt lat="45.64477" lon="6.65774">
        <ele>2461.3726</ele>
        <time>2015-08-19T16:14:43Z</time>
      </trkpt>
      <trkpt lat="45.64479" lon="6.65785">
        <ele>2461.3726</ele>
        <time>2015-08-19T16:14:53Z</time>
      </trkpt>
      <trkpt lat="45.64477" lon="6.65783">
        <ele>2458.0955</ele>
        <time>2015-08-19T16:14:58Z</time>
      </trkpt>
      <trkpt lat="45.64469" lon="6.65781">
        <ele>2458.0955</ele>
        <time>2015-08-19T16:15:08Z</time>
      </trkpt>
      <trkpt lat="45.64466" lon="6.65784">
        <ele>2454.583</ele>
        <time>2015-08-19T16:15:13Z</time>
      </trkpt>
      <trkpt lat="45.64467" lon="6.65792">
        <ele>2454.583</ele>
        <time>2015-08-19T16:15:23Z</time>
      </trkpt>
      <trkpt lat="45.64468" lon="6.65795">
        <ele>2454.583</ele>
        <time>2015-08-19T16:15:28Z</time>
      </trkpt>
      <trkpt lat="45.64473" lon="6.65803">
        <ele>2450.2764</ele>
        <time>2015-08-19T16:15:43Z</time>
      </trkpt>
      <trkpt lat="45.64473" lon="6.65804">
        <ele>2450.2764</ele>
        <time>2015-08-19T16:15:48Z</time>
      </trkpt>
      <trkpt lat="45.64467" lon="6.65806">
        <ele>2450.2764</ele>
        <time>2015-08-19T16:15:58Z</time>
      </trkpt>
      <trkpt lat="45.64465" lon="6.65806">
        <ele>2450.2764</ele>
        <time>2015-08-19T16:16:03Z</time>
      </trkpt>
      <trkpt lat="45.64465" lon="6.65808">
        <ele>2445.6685</ele>
        <time>2015-08-19T16:16:13Z</time>
      </trkpt>
      <trkpt lat="45.64463" lon="6.65805">
        <ele>2445.6685</ele>
        <time>2015-08-19T16:16:18Z</time>
      </trkpt>
      <trkpt lat="45.64462" lon="6.65806">
        <ele>2445.6685</ele>
        <time>2015-08-19T16:16:28Z</time>
      </trkpt>
      <trkpt lat="45.6446" lon="6.65805">
        <ele>2445.6685</ele>
        <time>2015-08-19T16:16:33Z</time>
      </trkpt>
      <trkpt lat="45.64457" lon="6.65806">
        <ele>2441.0725</ele>
        <time>2015-08-19T16:16:43Z</time>
      </trkpt>
      <trkpt lat="45.64457" lon="6.65806">
        <ele>2441.0725</ele>
        <time>2015-08-19T16:16:48Z</time>
      </trkpt>
      <trkpt lat="45.64453" lon="6.65807">
        <ele>2441.0725</ele>
        <time>2015-08-19T16:16:58Z</time>
      </trkpt>
      <trkpt lat="45.64453" lon="6.65807">
        <ele>2441.0725</ele>
        <time>2015-08-19T16:17:03Z</time>
      </trkpt>
      <trkpt lat="45.64453" lon="6.65815">
        <ele>2435.9854</ele>
        <time>2015-08-19T16:17:13Z</time>
      </trkpt>
      <trkpt lat="45.64452" lon="6.65821">
        <ele>2435.9854</ele>
        <time>2015-08-19T16:17:18Z</time>
      </trkpt>
      <trkpt lat="45.64449" lon="6.65827">
        <ele>2430.9795</ele>
        <time>2015-08-19T16:17:28Z</time>
      </trkpt>
      <trkpt lat="45.64451" lon="6.65831">
        <ele>2430.9795</ele>
        <time>2015-08-19T16:17:33Z</time>
      </trkpt>
      <trkpt lat="45.64447" lon="6.65834">
        <ele>2430.9795</ele>
        <time>2015-08-19T16:17:43Z</time>
      </trkpt>
      <trkpt lat="45.64446" lon="6.65833">
        <ele>2426.0085</ele>
        <time>2015-08-19T16:17:48Z</time>
      </trkpt>
      <trkpt lat="45.64443" lon="6.65836">
        <ele>2426.0085</ele>
        <time>2015-08-19T16:17:58Z</time>
      </trkpt>
      <trkpt lat="45.64444" lon="6.65844">
        <ele>2421.0435</ele>
        <time>2015-08-19T16:18:03Z</time>
      </trkpt>
      <trkpt lat="45.64441" lon="6.65854">
        <ele>2421.0435</ele>
        <time>2015-08-19T16:18:18Z</time>
      </trkpt>
      <trkpt lat="45.64444" lon="6.65856">
        <ele>2416.2722</ele>
        <time>2015-08-19T16:18:23Z</time>
      </trkpt>
      <trkpt lat="45.64441" lon="6.65856">
        <ele>2416.2722</ele>
        <time>2015-08-19T16:18:33Z</time>
      </trkpt>
      <trkpt lat="45.64437" lon="6.65861">
        <ele>2416.2722</ele>
        <time>2015-08-19T16:18:38Z</time>
      </trkpt>
      <trkpt lat="45.64433" lon="6.65868">
        <ele>2411.523</ele>
        <time>2015-08-19T16:18:48Z</time>
      </trkpt>
      <trkpt lat="45.64435" lon="6.65874">
        <ele>2411.523</ele>
        <time>2015-08-19T16:18:53Z</time>
      </trkpt>
      <trkpt lat="45.64431" lon="6.65883">
        <ele>2406.8806</ele>
        <time>2015-08-19T16:19:03Z</time>
      </trkpt>
      <trkpt lat="45.64431" lon="6.65888">
        <ele>2406.8806</ele>
        <time>2015-08-19T16:19:08Z</time>
      </trkpt>
      <trkpt lat="45.64428" lon="6.65896">
        <ele>2402.38</ele>
        <time>2015-08-19T16:19:18Z</time>
      </trkpt>
      <trkpt lat="45.64428" lon="6.65899">
        <ele>2402.38</ele>
        <time>2015-08-19T16:19:23Z</time>
      </trkpt>
      <trkpt lat="45.64426" lon="6.65908">
        <ele>2402.38</ele>
        <time>2015-08-19T16:19:33Z</time>
      </trkpt>
      <trkpt lat="45.64426" lon="6.65913">
        <ele>2397.893</ele>
        <time>2015-08-19T16:19:38Z</time>
      </trkpt>
      <trkpt lat="45.64422" lon="6.65923">
        <ele>2397.893</ele>
        <time>2015-08-19T16:19:48Z</time>
      </trkpt>
      <trkpt lat="45.64421" lon="6.65928">
        <ele>2393.5183</ele>
        <time>2015-08-19T16:19:53Z</time>
      </trkpt>
      <trkpt lat="45.64416" lon="6.6594">
        <ele>2389.446</ele>
        <time>2015-08-19T16:20:03Z</time>
      </trkpt>
      <trkpt lat="45.64417" lon="6.65945">
        <ele>2389.446</ele>
        <time>2015-08-19T16:20:08Z</time>
      </trkpt>
      <trkpt lat="45.64415" lon="6.65955">
        <ele>2385.52</ele>
        <time>2015-08-19T16:20:18Z</time>
      </trkpt>
      <trkpt lat="45.64413" lon="6.65962">
        <ele>2385.52</ele>
        <time>2015-08-19T16:20:23Z</time>
      </trkpt>
      <trkpt lat="45.64416" lon="6.65974">
        <ele>2381.4795</ele>
        <time>2015-08-19T16:20:33Z</time>
      </trkpt>
      <trkpt lat="45.64418" lon="6.65977">
        <ele>2381.4795</ele>
        <time>2015-08-19T16:20:38Z</time>
      </trkpt>
      <trkpt lat="45.64422" lon="6.65993">
        <ele>2377.2407</ele>
        <time>2015-08-19T16:20:53Z</time>
      </trkpt>
      <trkpt lat="45.6442" lon="6.65997">
        <ele>2377.2407</ele>
        <time>2015-08-19T16:20:58Z</time>
      </trkpt>
      <trkpt lat="45.64421" lon="6.66007">
        <ele>2373.159</ele>
        <time>2015-08-19T16:21:08Z</time>
      </trkpt>
      <trkpt lat="45.64422" lon="6.66015">
        <ele>2373.159</ele>
        <time>2015-08-19T16:21:13Z</time>
      </trkpt>
      <trkpt lat="45.6442" lon="6.66023">
        <ele>2369.058</ele>
        <time>2015-08-19T16:21:23Z</time>
      </trkpt>
      <trkpt lat="45.6442" lon="6.6603">
        <ele>2369.058</ele>
        <time>2015-08-19T16:21:28Z</time>
      </trkpt>
      <trkpt lat="45.6442" lon="6.66039">
        <ele>2365.1348</ele>
        <time>2015-08-19T16:21:38Z</time>
      </trkpt>
      <trkpt lat="45.64419" lon="6.66043">
        <ele>2365.1348</ele>
        <time>2015-08-19T16:21:43Z</time>
      </trkpt>
      <trkpt lat="45.64418" lon="6.66047">
        <ele>2365.1348</ele>
        <time>2015-08-19T16:21:53Z</time>
      </trkpt>
      <trkpt lat="45.64421" lon="6.66049">
        <ele>2365.1348</ele>
        <time>2015-08-19T16:21:58Z</time>
      </trkpt>
      <trkpt lat="45.64417" lon="6.66055">
        <ele>2360.9792</ele>
        <time>2015-08-19T16:22:08Z</time>
      </trkpt>
      <trkpt lat="45.64415" lon="6.66059">
        <ele>2360.9792</ele>
        <time>2015-08-19T16:22:13Z</time>
      </trkpt>
      <trkpt lat="45.64411" lon="6.66068">
        <ele>2357.1204</ele>
        <time>2015-08-19T16:22:23Z</time>
      </trkpt>
      <trkpt lat="45.64407" lon="6.66074">
        <ele>2357.1204</ele>
        <time>2015-08-19T16:22:28Z</time>
      </trkpt>
      <trkpt lat="45.6441" lon="6.66094">
        <ele>2353.412</ele>
        <time>2015-08-19T16:22:43Z</time>
      </trkpt>
      <trkpt lat="45.64408" lon="6.66098">
        <ele>2353.412</ele>
        <time>2015-08-19T16:22:48Z</time>
      </trkpt>
      <trkpt lat="45.64403" lon="6.66107">
        <ele>2349.8777</ele>
        <time>2015-08-19T16:22:58Z</time>
      </trkpt>
      <trkpt lat="45.64403" lon="6.66111">
        <ele>2349.8777</ele>
        <time>2015-08-19T16:23:03Z</time>
      </trkpt>
      <trkpt lat="45.64405" lon="6.6612">
        <ele>2346.6382</ele>
        <time>2015-08-19T16:23:13Z</time>
      </trkpt>
      <trkpt lat="45.64403" lon="6.66127">
        <ele>2346.6382</ele>
        <time>2015-08-19T16:23:18Z</time>
      </trkpt>
      <trkpt lat="45.64398" lon="6.6614">
        <ele>2343.5305</ele>
        <time>2015-08-19T16:23:28Z</time>
      </trkpt>
      <trkpt lat="45.64394" lon="6.66143">
        <ele>2343.5305</ele>
        <time>2015-08-19T16:23:33Z</time>
      </trkpt>
      <trkpt lat="45.64384" lon="6.66146">
        <ele>2340.7495</ele>
        <time>2015-08-19T16:23:43Z</time>
      </trkpt>
      <trkpt lat="45.64383" lon="6.66151">
        <ele>2340.7495</ele>
        <time>2015-08-19T16:23:48Z</time>
      </trkpt>
      <trkpt lat="45.64383" lon="6.66155">
        <ele>2340.7495</ele>
        <time>2015-08-19T16:23:53Z</time>
      </trkpt>
      <trkpt lat="45.6438" lon="6.66159">
        <ele>2338.142</ele>
        <time>2015-08-19T16:23:58Z</time>
      </trkpt>
      <trkpt lat="45.64383" lon="6.66174">
        <ele>2335.8835</ele>
        <time>2015-08-19T16:24:08Z</time>
      </trkpt>
      <trkpt lat="45.64387" lon="6.66172">
        <ele>2335.8835</ele>
        <time>2015-08-19T16:24:13Z</time>
      </trkpt>
      <trkpt lat="45.64395" lon="6.66165">
        <ele>2334.1487</ele>
        <time>2015-08-19T16:24:18Z</time>
      </trkpt>
      <trkpt lat="45.64395" lon="6.66164">
        <ele>2334.1487</ele>
        <time>2015-08-19T16:24:23Z</time>
      </trkpt>
      <trkpt lat="45.64392" lon="6.66167">
        <ele>2334.1487</ele>
        <time>2015-08-19T16:24:28Z</time>
      </trkpt>
      <trkpt lat="45.64391" lon="6.66166">
        <ele>2334.1487</ele>
        <time>2015-08-19T16:24:33Z</time>
      </trkpt>
      <trkpt lat="45.64389" lon="6.66167">
        <ele>2334.1487</ele>
        <time>2015-08-19T16:24:38Z</time>
      </trkpt>
      <trkpt lat="45.64385" lon="6.66167">
        <ele>2332.4783</ele>
        <time>2015-08-19T16:24:43Z</time>
      </trkpt>
      <trkpt lat="45.64385" lon="6.66167">
        <ele>2332.4783</ele>
        <time>2015-08-19T16:24:48Z</time>
      </trkpt>
      <trkpt lat="45.64385" lon="6.66184">
        <ele>2331.499</ele>
        <time>2015-08-19T16:26:48Z</time>
      </trkpt>
      <trkpt lat="45.64384" lon="6.66186">
        <ele>2331.499</ele>
        <time>2015-08-19T16:26:53Z</time>
      </trkpt>
      <trkpt lat="45.64378" lon="6.66194">
        <ele>2330.405</ele>
        <time>2015-08-19T16:27:03Z</time>
      </trkpt>
      <trkpt lat="45.64376" lon="6.66194">
        <ele>2330.405</ele>
        <time>2015-08-19T16:27:08Z</time>
      </trkpt>
      <trkpt lat="45.64367" lon="6.66195">
        <ele>2329.3005</ele>
        <time>2015-08-19T16:27:18Z</time>
      </trkpt>
      <trkpt lat="45.64365" lon="6.662">
        <ele>2329.3005</ele>
        <time>2015-08-19T16:27:23Z</time>
      </trkpt>
      <trkpt lat="45.64362" lon="6.6621">
        <ele>2327.965</ele>
        <time>2015-08-19T16:27:33Z</time>
      </trkpt>
      <trkpt lat="45.6436" lon="6.66213">
        <ele>2327.965</ele>
        <time>2015-08-19T16:27:38Z</time>
      </trkpt>
      <trkpt lat="45.64356" lon="6.66218">
        <ele>2327.965</ele>
        <time>2015-08-19T16:27:48Z</time>
      </trkpt>
      <trkpt lat="45.64354" lon="6.66223">
        <ele>2326.425</ele>
        <time>2015-08-19T16:27:53Z</time>
      </trkpt>
      <trkpt lat="45.64344" lon="6.66227">
        <ele>2325.0374</ele>
        <time>2015-08-19T16:28:03Z</time>
      </trkpt>
      <trkpt lat="45.6434" lon="6.66231">
        <ele>2325.0374</ele>
        <time>2015-08-19T16:28:08Z</time>
      </trkpt>
      <trkpt lat="45.64332" lon="6.66229">
        <ele>2323.8003</ele>
        <time>2015-08-19T16:28:18Z</time>
      </trkpt>
      <trkpt lat="45.64327" lon="6.66228">
        <ele>2323.8003</ele>
        <time>2015-08-19T16:28:23Z</time>
      </trkpt>
      <trkpt lat="45.64322" lon="6.66233">
        <ele>2322.712</ele>
        <time>2015-08-19T16:28:33Z</time>
      </trkpt>
      <trkpt lat="45.64319" lon="6.66235">
        <ele>2322.712</ele>
        <time>2015-08-19T16:28:38Z</time>
      </trkpt>
      <trkpt lat="45.64311" lon="6.66241">
        <ele>2321.6118</ele>
        <time>2015-08-19T16:28:48Z</time>
      </trkpt>
      <trkpt lat="45.64306" lon="6.66244">
        <ele>2321.6118</ele>
        <time>2015-08-19T16:28:53Z</time>
      </trkpt>
      <trkpt lat="45.64305" lon="6.66248">
        <ele>2321.6118</ele>
        <time>2015-08-19T16:28:58Z</time>
      </trkpt>
      <trkpt lat="45.64296" lon="6.66254">
        <ele>2320.3218</ele>
        <time>2015-08-19T16:29:08Z</time>
      </trkpt>
      <trkpt lat="45.64294" lon="6.66259">
        <ele>2320.3218</ele>
        <time>2015-08-19T16:29:13Z</time>
      </trkpt>
      <trkpt lat="45.64284" lon="6.66265">
        <ele>2318.9663</ele>
        <time>2015-08-19T16:29:28Z</time>
      </trkpt>
      <trkpt lat="45.64282" lon="6.66268">
        <ele>2318.9663</ele>
        <time>2015-08-19T16:29:33Z</time>
      </trkpt>
      <trkpt lat="45.64275" lon="6.6627">
        <ele>2317.6028</ele>
        <time>2015-08-19T16:29:43Z</time>
      </trkpt>
      <trkpt lat="45.6427" lon="6.66272">
        <ele>2317.6028</ele>
        <time>2015-08-19T16:29:48Z</time>
      </trkpt>
      <trkpt lat="45.64264" lon="6.66274">
        <ele>2316.3567</ele>
        <time>2015-08-19T16:29:58Z</time>
      </trkpt>
      <trkpt lat="45.64259" lon="6.66274">
        <ele>2316.3567</ele>
        <time>2015-08-19T16:30:03Z</time>
      </trkpt>
      <trkpt lat="45.64253" lon="6.66273">
        <ele>2315.2144</ele>
        <time>2015-08-19T16:30:13Z</time>
      </trkpt>
      <trkpt lat="45.64254" lon="6.66275">
        <ele>2315.2144</ele>
        <time>2015-08-19T16:30:18Z</time>
      </trkpt>
      <trkpt lat="45.64254" lon="6.66274">
        <ele>2315.2144</ele>
        <time>2015-08-19T16:30:28Z</time>
      </trkpt>
      <trkpt lat="45.64256" lon="6.66274">
        <ele>2315.2144</ele>
        <time>2015-08-19T16:30:33Z</time>
      </trkpt>
      <trkpt lat="45.64261" lon="6.66281">
        <ele>2313.932</ele>
        <time>2015-08-19T16:30:43Z</time>
      </trkpt>
      <trkpt lat="45.64261" lon="6.66281">
        <ele>2313.932</ele>
        <time>2015-08-19T16:30:48Z</time>
      </trkpt>
      <trkpt lat="45.64259" lon="6.6628">
        <ele>2313.932</ele>
        <time>2015-08-19T16:30:58Z</time>
      </trkpt>
      <trkpt lat="45.64258" lon="6.66278">
        <ele>2313.932</ele>
        <time>2015-08-19T16:31:03Z</time>
      </trkpt>
      <trkpt lat="45.6425" lon="6.66278">
        <ele>2312.6155</ele>
        <time>2015-08-19T16:31:13Z</time>
      </trkpt>
      <trkpt lat="45.64244" lon="6.66274">
        <ele>2312.6155</ele>
        <time>2015-08-19T16:31:18Z</time>
      </trkpt>
      <trkpt lat="45.64235" lon="6.66273">
        <ele>2311.3784</ele>
        <time>2015-08-19T16:31:28Z</time>
      </trkpt>
      <trkpt lat="45.64232" lon="6.66267">
        <ele>2311.3784</ele>
        <time>2015-08-19T16:31:33Z</time>
      </trkpt>
      <trkpt lat="45.64226" lon="6.6626">
        <ele>2310.2964</ele>
        <time>2015-08-19T16:31:43Z</time>
      </trkpt>
      <trkpt lat="45.64227" lon="6.66255">
        <ele>2310.2964</ele>
        <time>2015-08-19T16:31:48Z</time>
      </trkpt>
      <trkpt lat="45.64222" lon="6.66267">
        <ele>2308.8484</ele>
        <time>2015-08-19T16:32:03Z</time>
      </trkpt>
      <trkpt lat="45.6422" lon="6.66271">
        <ele>2308.8484</ele>
        <time>2015-08-19T16:32:08Z</time>
      </trkpt>
      <trkpt lat="45.64218" lon="6.66282">
        <ele>2307.1294</ele>
        <time>2015-08-19T16:32:18Z</time>
      </trkpt>
      <trkpt lat="45.64218" lon="6.66287">
        <ele>2307.1294</ele>
        <time>2015-08-19T16:32:23Z</time>
      </trkpt>
      <trkpt lat="45.64215" lon="6.66292">
        <ele>2307.1294</ele>
        <time>2015-08-19T16:32:33Z</time>
      </trkpt>
      <trkpt lat="45.64212" lon="6.66293">
        <ele>2305.0403</ele>
        <time>2015-08-19T16:32:38Z</time>
      </trkpt>
      <trkpt lat="45.64212" lon="6.66298">
        <ele>2305.0403</ele>
        <time>2015-08-19T16:32:48Z</time>
      </trkpt>
      <trkpt lat="45.64209" lon="6.66295">
        <ele>2305.0403</ele>
        <time>2015-08-19T16:32:53Z</time>
      </trkpt>
      <trkpt lat="45.64203" lon="6.6629">
        <ele>2302.5059</ele>
        <time>2015-08-19T16:33:03Z</time>
      </trkpt>
      <trkpt lat="45.642" lon="6.66286">
        <ele>2302.5059</ele>
        <time>2015-08-19T16:33:08Z</time>
      </trkpt>
      <trkpt lat="45.64199" lon="6.6629">
        <ele>2302.5059</ele>
        <time>2015-08-19T16:33:18Z</time>
      </trkpt>
      <trkpt lat="45.64194" lon="6.66289">
        <ele>2300.0908</ele>
        <time>2015-08-19T16:33:23Z</time>
      </trkpt>
      <trkpt lat="45.64191" lon="6.66288">
        <ele>2300.0908</ele>
        <time>2015-08-19T16:33:33Z</time>
      </trkpt>
      <trkpt lat="45.64191" lon="6.66289">
        <ele>2300.0908</ele>
        <time>2015-08-19T16:33:38Z</time>
      </trkpt>
      <trkpt lat="45.64191" lon="6.66291">
        <ele>2300.0908</ele>
        <time>2015-08-19T16:33:48Z</time>
      </trkpt>
      <trkpt lat="45.6419" lon="6.66293">
        <ele>2300.0908</ele>
        <time>2015-08-19T16:33:53Z</time>
      </trkpt>
      <trkpt lat="45.64179" lon="6.66298">
        <ele>2296.676</ele>
        <time>2015-08-19T16:34:08Z</time>
      </trkpt>
      <trkpt lat="45.64177" lon="6.66297">
        <ele>2296.676</ele>
        <time>2015-08-19T16:34:13Z</time>
      </trkpt>
      <trkpt lat="45.64169" lon="6.66298">
        <ele>2293.3457</ele>
        <time>2015-08-19T16:34:23Z</time>
      </trkpt>
      <trkpt lat="45.64168" lon="6.66294">
        <ele>2293.3457</ele>
        <time>2015-08-19T16:34:28Z</time>
      </trkpt>
      <trkpt lat="45.6416" lon="6.66291">
        <ele>2290.1816</ele>
        <time>2015-08-19T16:34:38Z</time>
      </trkpt>
      <trkpt lat="45.64155" lon="6.66291">
        <ele>2290.1816</ele>
        <time>2015-08-19T16:34:43Z</time>
      </trkpt>
      <trkpt lat="45.6415" lon="6.6629">
        <ele>2287.245</ele>
        <time>2015-08-19T16:34:53Z</time>
      </trkpt>
      <trkpt lat="45.64147" lon="6.6629">
        <ele>2287.245</ele>
        <time>2015-08-19T16:34:58Z</time>
      </trkpt>
      <trkpt lat="45.64139" lon="6.66285">
        <ele>2284.4626</ele>
        <time>2015-08-19T16:35:08Z</time>
      </trkpt>
      <trkpt lat="45.64137" lon="6.66284">
        <ele>2284.4626</ele>
        <time>2015-08-19T16:35:13Z</time>
      </trkpt>
      <trkpt lat="45.6413" lon="6.66276">
        <ele>2281.9963</ele>
        <time>2015-08-19T16:35:23Z</time>
      </trkpt>
      <trkpt lat="45.64126" lon="6.66274">
        <ele>2281.9963</ele>
        <time>2015-08-19T16:35:28Z</time>
      </trkpt>
      <trkpt lat="45.64113" lon="6.66271">
        <ele>2279.6929</ele>
        <time>2015-08-19T16:35:43Z</time>
      </trkpt>
      <trkpt lat="45.6411" lon="6.6627">
        <ele>2279.6929</ele>
        <time>2015-08-19T16:35:48Z</time>
      </trkpt>
      <trkpt lat="45.64104" lon="6.66266">
        <ele>2277.5535</ele>
        <time>2015-08-19T16:35:53Z</time>
      </trkpt>
      <trkpt lat="45.64106" lon="6.66263">
        <ele>2277.5535</ele>
        <time>2015-08-19T16:35:58Z</time>
      </trkpt>
      <trkpt lat="45.64104" lon="6.66266">
        <ele>2277.5535</ele>
        <time>2015-08-19T16:36:03Z</time>
      </trkpt>
      <trkpt lat="45.64094" lon="6.66263">
        <ele>2275.1619</ele>
        <time>2015-08-19T16:36:13Z</time>
      </trkpt>
      <trkpt lat="45.64091" lon="6.66264">
        <ele>2275.1619</ele>
        <time>2015-08-19T16:36:18Z</time>
      </trkpt>
      <trkpt lat="45.64085" lon="6.66263">
        <ele>2275.1619</ele>
        <time>2015-08-19T16:36:28Z</time>
      </trkpt>
      <trkpt lat="45.64084" lon="6.66266">
        <ele>2272.7375</ele>
        <time>2015-08-19T16:36:33Z</time>
      </trkpt>
      <trkpt lat="45.64087" lon="6.66272">
        <ele>2272.7375</ele>
        <time>2015-08-19T16:36:48Z</time>
      </trkpt>
      <trkpt lat="45.64084" lon="6.66272">
        <ele>2272.7375</ele>
        <time>2015-08-19T16:36:53Z</time>
      </trkpt>
      <trkpt lat="45.64079" lon="6.6627">
        <ele>2269.6775</ele>
        <time>2015-08-19T16:36:58Z</time>
      </trkpt>
      <trkpt lat="45.64075" lon="6.66268">
        <ele>2269.6775</ele>
        <time>2015-08-19T16:37:03Z</time>
      </trkpt>
      <trkpt lat="45.64068" lon="6.66274">
        <ele>2266.7217</ele>
        <time>2015-08-19T16:37:13Z</time>
      </trkpt>
      <trkpt lat="45.64064" lon="6.66272">
        <ele>2266.7217</ele>
        <time>2015-08-19T16:37:18Z</time>
      </trkpt>
      <trkpt lat="45.64058" lon="6.6627">
        <ele>2263.892</ele>
        <time>2015-08-19T16:37:28Z</time>
      </trkpt>
      <trkpt lat="45.64053" lon="6.66269">
        <ele>2263.892</ele>
        <time>2015-08-19T16:37:33Z</time>
      </trkpt>
      <trkpt lat="45.64041" lon="6.6626">
        <ele>2261.3535</ele>
        <time>2015-08-19T16:37:48Z</time>
      </trkpt>
      <trkpt lat="45.64039" lon="6.66263">
        <ele>2261.3535</ele>
        <time>2015-08-19T16:37:53Z</time>
      </trkpt>
      <trkpt lat="45.64037" lon="6.66266">
        <ele>2261.3535</ele>
        <time>2015-08-19T16:38:03Z</time>
      </trkpt>
      <trkpt lat="45.64034" lon="6.66269">
        <ele>2258.451</ele>
        <time>2015-08-19T16:38:08Z</time>
      </trkpt>
      <trkpt lat="45.64028" lon="6.66282">
        <ele>2255.4565</ele>
        <time>2015-08-19T16:38:18Z</time>
      </trkpt>
      <trkpt lat="45.64025" lon="6.66279">
        <ele>2255.4565</ele>
        <time>2015-08-19T16:38:23Z</time>
      </trkpt>
      <trkpt lat="45.64017" lon="6.66275">
        <ele>2252.4656</ele>
        <time>2015-08-19T16:38:33Z</time>
      </trkpt>
      <trkpt lat="45.64013" lon="6.66277">
        <ele>2252.4656</ele>
        <time>2015-08-19T16:38:38Z</time>
      </trkpt>
      <trkpt lat="45.64006" lon="6.66277">
        <ele>2249.4646</ele>
        <time>2015-08-19T16:38:48Z</time>
      </trkpt>
      <trkpt lat="45.64003" lon="6.66279">
        <ele>2249.4646</ele>
        <time>2015-08-19T16:38:53Z</time>
      </trkpt>
      <trkpt lat="45.63999" lon="6.66279">
        <ele>2249.4646</ele>
        <time>2015-08-19T16:38:58Z</time>
      </trkpt>
      <trkpt lat="45.63997" lon="6.6628">
        <ele>2246.47</ele>
        <time>2015-08-19T16:39:03Z</time>
      </trkpt>
      <trkpt lat="45.63989" lon="6.66279">
        <ele>2246.47</ele>
        <time>2015-08-19T16:39:13Z</time>
      </trkpt>
      <trkpt lat="45.63987" lon="6.66278">
        <ele>2243.627</ele>
        <time>2015-08-19T16:39:18Z</time>
      </trkpt>
      <trkpt lat="45.63984" lon="6.66277">
        <ele>2243.627</ele>
        <time>2015-08-19T16:39:23Z</time>
      </trkpt>
      <trkpt lat="45.63983" lon="6.66278">
        <ele>2243.627</ele>
        <time>2015-08-19T16:39:28Z</time>
      </trkpt>
      <trkpt lat="45.63981" lon="6.66276">
        <ele>2243.627</ele>
        <time>2015-08-19T16:39:38Z</time>
      </trkpt>
      <trkpt lat="45.63979" lon="6.66274">
        <ele>2240.7527</ele>
        <time>2015-08-19T16:39:43Z</time>
      </trkpt>
      <trkpt lat="45.63976" lon="6.66272">
        <ele>2240.7527</ele>
        <time>2015-08-19T16:39:48Z</time>
      </trkpt>
      <trkpt lat="45.63975" lon="6.66273">
        <ele>2240.7527</ele>
        <time>2015-08-19T16:39:53Z</time>
      </trkpt>
      <trkpt lat="45.63967" lon="6.66274">
        <ele>2237.9077</ele>
        <time>2015-08-19T16:40:03Z</time>
      </trkpt>
      <trkpt lat="45.63963" lon="6.66277">
        <ele>2237.9077</ele>
        <time>2015-08-19T16:40:08Z</time>
      </trkpt>
      <trkpt lat="45.63958" lon="6.66286">
        <ele>2234.6736</ele>
        <time>2015-08-19T16:40:23Z</time>
      </trkpt>
      <trkpt lat="45.63955" lon="6.66284">
        <ele>2234.6736</ele>
        <time>2015-08-19T16:40:28Z</time>
      </trkpt>
      <trkpt lat="45.63945" lon="6.66276">
        <ele>2231.8442</ele>
        <time>2015-08-19T16:40:38Z</time>
      </trkpt>
      <trkpt lat="45.63943" lon="6.66275">
        <ele>2231.8442</ele>
        <time>2015-08-19T16:40:43Z</time>
      </trkpt>
      <trkpt lat="45.63937" lon="6.66278">
        <ele>2231.8442</ele>
        <time>2015-08-19T16:40:53Z</time>
      </trkpt>
      <trkpt lat="45.63936" lon="6.66278">
        <ele>2228.9587</ele>
        <time>2015-08-19T16:40:58Z</time>
      </trkpt>
      <trkpt lat="45.63928" lon="6.66288">
        <ele>2226.1375</ele>
        <time>2015-08-19T16:41:08Z</time>
      </trkpt>
      <trkpt lat="45.63927" lon="6.66291">
        <ele>2226.1375</ele>
        <time>2015-08-19T16:41:13Z</time>
      </trkpt>
      <trkpt lat="45.63924" lon="6.66293">
        <ele>2226.1375</ele>
        <time>2015-08-19T16:41:18Z</time>
      </trkpt>
      <trkpt lat="45.63921" lon="6.66294">
        <ele>2226.1375</ele>
        <time>2015-08-19T16:41:23Z</time>
      </trkpt>
      <trkpt lat="45.63916" lon="6.66292">
        <ele>2222.8435</ele>
        <time>2015-08-19T16:41:28Z</time>
      </trkpt>
      <trkpt lat="45.63915" lon="6.66293">
        <ele>2222.8435</ele>
        <time>2015-08-19T16:41:33Z</time>
      </trkpt>
      <trkpt lat="45.63909" lon="6.66293">
        <ele>2222.8435</ele>
        <time>2015-08-19T16:41:43Z</time>
      </trkpt>
      <trkpt lat="45.63903" lon="6.66294">
        <ele>2219.4883</ele>
        <time>2015-08-19T16:41:48Z</time>
      </trkpt>
      <trkpt lat="45.63901" lon="6.66295">
        <ele>2219.4883</ele>
        <time>2015-08-19T16:41:53Z</time>
      </trkpt>
      <trkpt lat="45.63899" lon="6.66296">
        <ele>2219.4883</ele>
        <time>2015-08-19T16:41:58Z</time>
      </trkpt>
      <trkpt lat="45.63894" lon="6.66298">
        <ele>2215.9778</ele>
        <time>2015-08-19T16:42:08Z</time>
      </trkpt>
      <trkpt lat="45.63891" lon="6.663">
        <ele>2215.9778</ele>
        <time>2015-08-19T16:42:13Z</time>
      </trkpt>
      <trkpt lat="45.6389" lon="6.66306">
        <ele>2215.9778</ele>
        <time>2015-08-19T16:42:23Z</time>
      </trkpt>
      <trkpt lat="45.63885" lon="6.66309">
        <ele>2212.3694</ele>
        <time>2015-08-19T16:42:28Z</time>
      </trkpt>
      <trkpt lat="45.63878" lon="6.66313">
        <ele>2212.3694</ele>
        <time>2015-08-19T16:42:33Z</time>
      </trkpt>
      <trkpt lat="45.63875" lon="6.66315">
        <ele>2209.149</ele>
        <time>2015-08-19T16:42:38Z</time>
      </trkpt>
      <trkpt lat="45.63873" lon="6.66317">
        <ele>2209.149</ele>
        <time>2015-08-19T16:42:43Z</time>
      </trkpt>
      <trkpt lat="45.63871" lon="6.6632">
        <ele>2209.149</ele>
        <time>2015-08-19T16:42:48Z</time>
      </trkpt>
      <trkpt lat="45.63871" lon="6.6632">
        <ele>2209.149</ele>
        <time>2015-08-19T16:42:53Z</time>
      </trkpt>
      <trkpt lat="45.63868" lon="6.66318">
        <ele>2209.149</ele>
        <time>2015-08-19T16:43:03Z</time>
      </trkpt>
      <trkpt lat="45.63864" lon="6.66313">
        <ele>2206.2896</ele>
        <time>2015-08-19T16:43:08Z</time>
      </trkpt>
      <trkpt lat="45.63858" lon="6.66308">
        <ele>2206.2896</ele>
        <time>2015-08-19T16:43:13Z</time>
      </trkpt>
      <trkpt lat="45.63854" lon="6.66305">
        <ele>2203.8662</ele>
        <time>2015-08-19T16:43:18Z</time>
      </trkpt>
      <trkpt lat="45.63852" lon="6.66302">
        <ele>2203.8662</ele>
        <time>2015-08-19T16:43:23Z</time>
      </trkpt>
      <trkpt lat="45.63847" lon="6.66302">
        <ele>2203.8662</ele>
        <time>2015-08-19T16:43:28Z</time>
      </trkpt>
      <trkpt lat="45.63844" lon="6.66298">
        <ele>2201.6882</ele>
        <time>2015-08-19T16:43:33Z</time>
      </trkpt>
      <trkpt lat="45.63842" lon="6.66293">
        <ele>2201.6882</ele>
        <time>2015-08-19T16:43:38Z</time>
      </trkpt>
      <trkpt lat="45.63836" lon="6.6629">
        <ele>2199.8516</ele>
        <time>2015-08-19T16:43:43Z</time>
      </trkpt>
      <trkpt lat="45.6383" lon="6.66289">
        <ele>2199.8516</ele>
        <time>2015-08-19T16:43:53Z</time>
      </trkpt>
      <trkpt lat="45.63826" lon="6.66286">
        <ele>2198.3286</ele>
        <time>2015-08-19T16:43:58Z</time>
      </trkpt>
      <trkpt lat="45.63823" lon="6.66284">
        <ele>2198.3286</ele>
        <time>2015-08-19T16:44:03Z</time>
      </trkpt>
      <trkpt lat="45.6382" lon="6.66281">
        <ele>2198.3286</ele>
        <time>2015-08-19T16:44:08Z</time>
      </trkpt>
      <trkpt lat="45.6381" lon="6.66287">
        <ele>2196.8918</ele>
        <time>2015-08-19T16:44:18Z</time>
      </trkpt>
      <trkpt lat="45.63807" lon="6.66288">
        <ele>2196.8918</ele>
        <time>2015-08-19T16:44:23Z</time>
      </trkpt>
      <trkpt lat="45.638" lon="6.66283">
        <ele>2195.3584</ele>
        <time>2015-08-19T16:44:33Z</time>
      </trkpt>
      <trkpt lat="45.63794" lon="6.66284">
        <ele>2195.3584</ele>
        <time>2015-08-19T16:44:38Z</time>
      </trkpt>
      <trkpt lat="45.63788" lon="6.66281">
        <ele>2193.9053</ele>
        <time>2015-08-19T16:44:48Z</time>
      </trkpt>
      <trkpt lat="45.63786" lon="6.66279">
        <ele>2193.9053</ele>
        <time>2015-08-19T16:44:53Z</time>
      </trkpt>
      <trkpt lat="45.63785" lon="6.66274">
        <ele>2193.9053</ele>
        <time>2015-08-19T16:44:58Z</time>
      </trkpt>
      <trkpt lat="45.63784" lon="6.66273">
        <ele>2193.9053</ele>
        <time>2015-08-19T16:45:03Z</time>
      </trkpt>
      <trkpt lat="45.63776" lon="6.66267">
        <ele>2192.2498</ele>
        <time>2015-08-19T16:45:18Z</time>
      </trkpt>
      <trkpt lat="45.63771" lon="6.66267">
        <ele>2192.2498</ele>
        <time>2015-08-19T16:45:23Z</time>
      </trkpt>
      <trkpt lat="45.63766" lon="6.66264">
        <ele>2190.3745</ele>
        <time>2015-08-19T16:45:33Z</time>
      </trkpt>
      <trkpt lat="45.63763" lon="6.66259">
        <ele>2190.3745</ele>
        <time>2015-08-19T16:45:38Z</time>
      </trkpt>
      <trkpt lat="45.6376" lon="6.66251">
        <ele>2188.5967</ele>
        <time>2015-08-19T16:45:48Z</time>
      </trkpt>
      <trkpt lat="45.63756" lon="6.66251">
        <ele>2188.5967</ele>
        <time>2015-08-19T16:45:53Z</time>
      </trkpt>
      <trkpt lat="45.63745" lon="6.66249">
        <ele>2186.6904</ele>
        <time>2015-08-19T16:46:08Z</time>
      </trkpt>
      <trkpt lat="45.63742" lon="6.66249">
        <ele>2186.6904</ele>
        <time>2015-08-19T16:46:13Z</time>
      </trkpt>
      <trkpt lat="45.63737" lon="6.66243">
        <ele>2184.8796</ele>
        <time>2015-08-19T16:46:23Z</time>
      </trkpt>
      <trkpt lat="45.63736" lon="6.66239">
        <ele>2184.8796</ele>
        <time>2015-08-19T16:46:28Z</time>
      </trkpt>
      <trkpt lat="45.63724" lon="6.66232">
        <ele>2182.9531</ele>
        <time>2015-08-19T16:46:38Z</time>
      </trkpt>
      <trkpt lat="45.63721" lon="6.6623">
        <ele>2182.9531</ele>
        <time>2015-08-19T16:46:43Z</time>
      </trkpt>
      <trkpt lat="45.63716" lon="6.66229">
        <ele>2182.9531</ele>
        <time>2015-08-19T16:46:53Z</time>
      </trkpt>
      <trkpt lat="45.63714" lon="6.66229">
        <ele>2180.9897</ele>
        <time>2015-08-19T16:46:58Z</time>
      </trkpt>
      <trkpt lat="45.63709" lon="6.66224">
        <ele>2180.9897</ele>
        <time>2015-08-19T16:47:08Z</time>
      </trkpt>
      <trkpt lat="45.63708" lon="6.66222">
        <ele>2180.9897</ele>
        <time>2015-08-19T16:47:13Z</time>
      </trkpt>
      <trkpt lat="45.63704" lon="6.66215">
        <ele>2178.8752</ele>
        <time>2015-08-19T16:47:23Z</time>
      </trkpt>
      <trkpt lat="45.63701" lon="6.66213">
        <ele>2178.8752</ele>
        <time>2015-08-19T16:47:28Z</time>
      </trkpt>
      <trkpt lat="45.63694" lon="6.6621">
        <ele>2176.7925</ele>
        <time>2015-08-19T16:47:38Z</time>
      </trkpt>
      <trkpt lat="45.63692" lon="6.66207">
        <ele>2176.7925</ele>
        <time>2015-08-19T16:47:43Z</time>
      </trkpt>
      <trkpt lat="45.63687" lon="6.662">
        <ele>2174.8242</ele>
        <time>2015-08-19T16:47:53Z</time>
      </trkpt>
      <trkpt lat="45.63684" lon="6.662">
        <ele>2174.8242</ele>
        <time>2015-08-19T16:47:58Z</time>
      </trkpt>
      <trkpt lat="45.63679" lon="6.66201">
        <ele>2174.8242</ele>
        <time>2015-08-19T16:48:13Z</time>
      </trkpt>
      <trkpt lat="45.6368" lon="6.66199">
        <ele>2172.9175</ele>
        <time>2015-08-19T16:48:18Z</time>
      </trkpt>
      <trkpt lat="45.63679" lon="6.662">
        <ele>2172.9175</ele>
        <time>2015-08-19T16:48:28Z</time>
      </trkpt>
      <trkpt lat="45.6368" lon="6.66203">
        <ele>2172.9175</ele>
        <time>2015-08-19T16:48:33Z</time>
      </trkpt>
      <trkpt lat="45.63681" lon="6.66207">
        <ele>2172.9175</ele>
        <time>2015-08-19T16:48:43Z</time>
      </trkpt>
      <trkpt lat="45.63682" lon="6.66209">
        <ele>2172.9175</ele>
        <time>2015-08-19T16:48:48Z</time>
      </trkpt>
      <trkpt lat="45.63683" lon="6.66211">
        <ele>2170.5903</ele>
        <time>2015-08-19T16:48:53Z</time>
      </trkpt>
      <trkpt lat="45.63683" lon="6.66211">
        <ele>2170.5903</ele>
        <time>2015-08-19T16:48:58Z</time>
      </trkpt>
      <trkpt lat="45.63672" lon="6.66207">
        <ele>2168.9976</ele>
        <time>2015-08-19T16:49:38Z</time>
      </trkpt>
      <trkpt lat="45.6367" lon="6.66206">
        <ele>2168.9976</ele>
        <time>2015-08-19T16:49:43Z</time>
      </trkpt>
      <trkpt lat="45.63665" lon="6.66198">
        <ele>2167.535</ele>
        <time>2015-08-19T16:49:53Z</time>
      </trkpt>
      <trkpt lat="45.63665" lon="6.66195">
        <ele>2167.535</ele>
        <time>2015-08-19T16:49:58Z</time>
      </trkpt>
      <trkpt lat="45.63663" lon="6.66193">
        <ele>2167.535</ele>
        <time>2015-08-19T16:50:08Z</time>
      </trkpt>
      <trkpt lat="45.63662" lon="6.66193">
        <ele>2167.535</ele>
        <time>2015-08-19T16:50:13Z</time>
      </trkpt>
      <trkpt lat="45.63652" lon="6.6619">
        <ele>2166.2192</ele>
        <time>2015-08-19T16:50:23Z</time>
      </trkpt>
      <trkpt lat="45.63645" lon="6.6619">
        <ele>2166.2192</ele>
        <time>2015-08-19T16:50:28Z</time>
      </trkpt>
      <trkpt lat="45.63632" lon="6.66188">
        <ele>2164.7048</ele>
        <time>2015-08-19T16:50:43Z</time>
      </trkpt>
      <trkpt lat="45.63629" lon="6.66188">
        <ele>2164.7048</ele>
        <time>2015-08-19T16:50:48Z</time>
      </trkpt>
      <trkpt lat="45.6362" lon="6.66194">
        <ele>2163.2202</ele>
        <time>2015-08-19T16:50:58Z</time>
      </trkpt>
      <trkpt lat="45.63615" lon="6.66197">
        <ele>2163.2202</ele>
        <time>2015-08-19T16:51:03Z</time>
      </trkpt>
      <trkpt lat="45.63611" lon="6.66196">
        <ele>2161.8037</ele>
        <time>2015-08-19T16:51:08Z</time>
      </trkpt>
      <trkpt lat="45.63606" lon="6.66194">
        <ele>2161.8037</ele>
        <time>2015-08-19T16:51:13Z</time>
      </trkpt>
      <trkpt lat="45.636" lon="6.66194">
        <ele>2160.4048</ele>
        <time>2015-08-19T16:51:18Z</time>
      </trkpt>
      <trkpt lat="45.63595" lon="6.66195">
        <ele>2160.4048</ele>
        <time>2015-08-19T16:51:28Z</time>
      </trkpt>
      <trkpt lat="45.63592" lon="6.66193">
        <ele>2158.9614</ele>
        <time>2015-08-19T16:51:33Z</time>
      </trkpt>
      <trkpt lat="45.63582" lon="6.66194">
        <ele>2157.504</ele>
        <time>2015-08-19T16:51:43Z</time>
      </trkpt>
      <trkpt lat="45.6358" lon="6.66197">
        <ele>2157.504</ele>
        <time>2015-08-19T16:51:48Z</time>
      </trkpt>
      <trkpt lat="45.63573" lon="6.66206">
        <ele>2155.8574</ele>
        <time>2015-08-19T16:51:58Z</time>
      </trkpt>
      <trkpt lat="45.63568" lon="6.66209">
        <ele>2155.8574</ele>
        <time>2015-08-19T16:52:03Z</time>
      </trkpt>
      <trkpt lat="45.63561" lon="6.66216">
        <ele>2154.2651</ele>
        <time>2015-08-19T16:52:13Z</time>
      </trkpt>
      <trkpt lat="45.63557" lon="6.66219">
        <ele>2154.2651</ele>
        <time>2015-08-19T16:52:18Z</time>
      </trkpt>
      <trkpt lat="45.63551" lon="6.66228">
        <ele>2152.6924</ele>
        <time>2015-08-19T16:52:33Z</time>
      </trkpt>
      <trkpt lat="45.63549" lon="6.66231">
        <ele>2152.6924</ele>
        <time>2015-08-19T16:52:38Z</time>
      </trkpt>
      <trkpt lat="45.63545" lon="6.66236">
        <ele>2152.6924</ele>
        <time>2015-08-19T16:52:48Z</time>
      </trkpt>
      <trkpt lat="45.63543" lon="6.66236">
        <ele>2151.0928</ele>
        <time>2015-08-19T16:52:53Z</time>
      </trkpt>
      <trkpt lat="45.63537" lon="6.6624">
        <ele>2151.0928</ele>
        <time>2015-08-19T16:53:03Z</time>
      </trkpt>
      <trkpt lat="45.63535" lon="6.66243">
        <ele>2149.769</ele>
        <time>2015-08-19T16:53:08Z</time>
      </trkpt>
      <trkpt lat="45.63529" lon="6.66245">
        <ele>2149.769</ele>
        <time>2015-08-19T16:53:18Z</time>
      </trkpt>
      <trkpt lat="45.63528" lon="6.66246">
        <ele>2149.769</ele>
        <time>2015-08-19T16:53:23Z</time>
      </trkpt>
      <trkpt lat="45.6352" lon="6.66255">
        <ele>2148.4539</ele>
        <time>2015-08-19T16:53:33Z</time>
      </trkpt>
      <trkpt lat="45.63518" lon="6.66259">
        <ele>2148.4539</ele>
        <time>2015-08-19T16:53:38Z</time>
      </trkpt>
      <trkpt lat="45.63513" lon="6.66264">
        <ele>2147.2163</ele>
        <time>2015-08-19T16:53:48Z</time>
      </trkpt>
      <trkpt lat="45.63512" lon="6.66264">
        <ele>2147.2163</ele>
        <time>2015-08-19T16:53:53Z</time>
      </trkpt>
      <trkpt lat="45.63506" lon="6.66268">
        <ele>2147.2163</ele>
        <time>2015-08-19T16:54:03Z</time>
      </trkpt>
      <trkpt lat="45.63499" lon="6.66273">
        <ele>2146.1206</ele>
        <time>2015-08-19T16:54:08Z</time>
      </trkpt>
      <trkpt lat="45.63494" lon="6.66281">
        <ele>2146.1206</ele>
        <time>2015-08-19T16:54:18Z</time>
      </trkpt>
      <trkpt lat="45.63488" lon="6.66288">
        <ele>2144.8792</ele>
        <time>2015-08-19T16:54:23Z</time>
      </trkpt>
      <trkpt lat="45.63479" lon="6.66304">
        <ele>2143.5876</ele>
        <time>2015-08-19T16:54:38Z</time>
      </trkpt>
      <trkpt lat="45.63477" lon="6.66308">
        <ele>2143.5876</ele>
        <time>2015-08-19T16:54:43Z</time>
      </trkpt>
      <trkpt lat="45.6347" lon="6.66311">
        <ele>2142.6362</ele>
        <time>2015-08-19T16:54:53Z</time>
      </trkpt>
      <trkpt lat="45.63467" lon="6.6631">
        <ele>2142.6362</ele>
        <time>2015-08-19T16:54:58Z</time>
      </trkpt>
      <trkpt lat="45.63465" lon="6.66313">
        <ele>2142.6362</ele>
        <time>2015-08-19T16:55:08Z</time>
      </trkpt>
      <trkpt lat="45.6346" lon="6.66314">
        <ele>2142.2568</ele>
        <time>2015-08-19T16:55:13Z</time>
      </trkpt>
      <trkpt lat="45.63452" lon="6.66323">
        <ele>2142.0857</ele>
        <time>2015-08-19T16:55:23Z</time>
      </trkpt>
      <trkpt lat="45.63448" lon="6.66327">
        <ele>2142.0857</ele>
        <time>2015-08-19T16:55:28Z</time>
      </trkpt>
      <trkpt lat="45.63443" lon="6.66332">
        <ele>2142.247</ele>
        <time>2015-08-19T16:55:38Z</time>
      </trkpt>
      <trkpt lat="45.63443" lon="6.66332">
        <ele>2142.247</ele>
        <time>2015-08-19T16:55:43Z</time>
      </trkpt>
      <trkpt lat="45.63437" lon="6.66337">
        <ele>2142.247</ele>
        <time>2015-08-19T16:55:53Z</time>
      </trkpt>
      <trkpt lat="45.63436" lon="6.66338">
        <ele>2142.247</ele>
        <time>2015-08-19T16:55:58Z</time>
      </trkpt>
      <trkpt lat="45.63432" lon="6.66339">
        <ele>2142.4368</ele>
        <time>2015-08-19T16:56:08Z</time>
      </trkpt>
      <trkpt lat="45.63431" lon="6.6634">
        <ele>2142.4368</ele>
        <time>2015-08-19T16:56:13Z</time>
      </trkpt>
      <trkpt lat="45.63424" lon="6.66341">
        <ele>2142.4368</ele>
        <time>2015-08-19T16:56:23Z</time>
      </trkpt>
      <trkpt lat="45.63421" lon="6.66342">
        <ele>2142.301</ele>
        <time>2015-08-19T16:56:28Z</time>
      </trkpt>
      <trkpt lat="45.63416" lon="6.66348">
        <ele>2142.301</ele>
        <time>2015-08-19T16:56:38Z</time>
      </trkpt>
      <trkpt lat="45.63414" lon="6.6635">
        <ele>2142.301</ele>
        <time>2015-08-19T16:56:43Z</time>
      </trkpt>
      <trkpt lat="45.63406" lon="6.6635">
        <ele>2141.3547</ele>
        <time>2015-08-19T16:56:53Z</time>
      </trkpt>
      <trkpt lat="45.63403" lon="6.6635">
        <ele>2141.3547</ele>
        <time>2015-08-19T16:56:58Z</time>
      </trkpt>
      <trkpt lat="45.634" lon="6.66352">
        <ele>2141.3547</ele>
        <time>2015-08-19T16:57:08Z</time>
      </trkpt>
      <trkpt lat="45.634" lon="6.66352">
        <ele>2141.3547</ele>
        <time>2015-08-19T16:57:13Z</time>
      </trkpt>
      <trkpt lat="45.63396" lon="6.66354">
        <ele>2140.174</ele>
        <time>2015-08-19T16:57:23Z</time>
      </trkpt>
      <trkpt lat="45.63395" lon="6.66354">
        <ele>2140.174</ele>
        <time>2015-08-19T16:57:28Z</time>
      </trkpt>
      <trkpt lat="45.63395" lon="6.66346">
        <ele>2140.174</ele>
        <time>2015-08-19T16:57:38Z</time>
      </trkpt>
      <trkpt lat="45.63392" lon="6.66343">
        <ele>2138.184</ele>
        <time>2015-08-19T16:57:43Z</time>
      </trkpt>
      <trkpt lat="45.63386" lon="6.66348">
        <ele>2138.184</ele>
        <time>2015-08-19T16:57:53Z</time>
      </trkpt>
      <trkpt lat="45.63382" lon="6.66349">
        <ele>2135.9778</ele>
        <time>2015-08-19T16:57:58Z</time>
      </trkpt>
      <trkpt lat="45.6338" lon="6.66353">
        <ele>2135.9778</ele>
        <time>2015-08-19T16:58:08Z</time>
      </trkpt>
      <trkpt lat="45.63379" lon="6.66357">
        <ele>2135.9778</ele>
        <time>2015-08-19T16:58:13Z</time>
      </trkpt>
      <trkpt lat="45.63376" lon="6.66365">
        <ele>2133.0686</ele>
        <time>2015-08-19T16:58:28Z</time>
      </trkpt>
      <trkpt lat="45.63374" lon="6.66371">
        <ele>2133.0686</ele>
        <time>2015-08-19T16:58:33Z</time>
      </trkpt>
      <trkpt lat="45.63369" lon="6.66378">
        <ele>2130.0159</ele>
        <time>2015-08-19T16:58:43Z</time>
      </trkpt>
      <trkpt lat="45.63369" lon="6.66382">
        <ele>2130.0159</ele>
        <time>2015-08-19T16:58:48Z</time>
      </trkpt>
      <trkpt lat="45.63369" lon="6.66388">
        <ele>2130.0159</ele>
        <time>2015-08-19T16:58:58Z</time>
      </trkpt>
      <trkpt lat="45.63368" lon="6.66389">
        <ele>2130.0159</ele>
        <time>2015-08-19T16:59:03Z</time>
      </trkpt>
      <trkpt lat="45.63366" lon="6.66394">
        <ele>2126.532</ele>
        <time>2015-08-19T16:59:13Z</time>
      </trkpt>
      <trkpt lat="45.63366" lon="6.66401">
        <ele>2126.532</ele>
        <time>2015-08-19T16:59:18Z</time>
      </trkpt>
      <trkpt lat="45.63364" lon="6.66407">
        <ele>2122.8845</ele>
        <time>2015-08-19T16:59:28Z</time>
      </trkpt>
      <trkpt lat="45.63361" lon="6.66412">
        <ele>2122.8845</ele>
        <time>2015-08-19T16:59:33Z</time>
      </trkpt>
      <trkpt lat="45.63355" lon="6.66418">
        <ele>2119.2063</ele>
        <time>2015-08-19T16:59:43Z</time>
      </trkpt>
      <trkpt lat="45.63355" lon="6.66419">
        <ele>2119.2063</ele>
        <time>2015-08-19T16:59:48Z</time>
      </trkpt>
      <trkpt lat="45.63358" lon="6.66413">
        <ele>2119.2063</ele>
        <time>2015-08-19T16:59:58Z</time>
      </trkpt>
      <trkpt lat="45.63357" lon="6.66411">
        <ele>2119.2063</ele>
        <time>2015-08-19T17:00:03Z</time>
      </trkpt>
      <trkpt lat="45.63356" lon="6.66421">
        <ele>2115.5635</ele>
        <time>2015-08-19T17:00:13Z</time>
      </trkpt>
      <trkpt lat="45.63354" lon="6.66425">
        <ele>2115.5635</ele>
        <time>2015-08-19T17:00:18Z</time>
      </trkpt>
      <trkpt lat="45.63349" lon="6.66429">
        <ele>2111.8728</ele>
        <time>2015-08-19T17:00:28Z</time>
      </trkpt>
      <trkpt lat="45.63348" lon="6.66419">
        <ele>2111.8728</ele>
        <time>2015-08-19T17:00:33Z</time>
      </trkpt>
      <trkpt lat="45.63342" lon="6.66407">
        <ele>2107.7402</ele>
        <time>2015-08-19T17:00:48Z</time>
      </trkpt>
      <trkpt lat="45.63341" lon="6.66407">
        <ele>2107.7402</ele>
        <time>2015-08-19T17:00:53Z</time>
      </trkpt>
      <trkpt lat="45.63337" lon="6.66415">
        <ele>2107.7402</ele>
        <time>2015-08-19T17:01:03Z</time>
      </trkpt>
      <trkpt lat="45.63335" lon="6.66418">
        <ele>2103.5942</ele>
        <time>2015-08-19T17:01:08Z</time>
      </trkpt>
      <trkpt lat="45.63328" lon="6.6642">
        <ele>2103.5942</ele>
        <time>2015-08-19T17:01:18Z</time>
      </trkpt>
      <trkpt lat="45.63325" lon="6.66422">
        <ele>2099.4724</ele>
        <time>2015-08-19T17:01:23Z</time>
      </trkpt>
      <trkpt lat="45.6332" lon="6.66423">
        <ele>2099.4724</ele>
        <time>2015-08-19T17:01:33Z</time>
      </trkpt>
      <trkpt lat="45.63319" lon="6.66425">
        <ele>2099.4724</ele>
        <time>2015-08-19T17:01:38Z</time>
      </trkpt>
      <trkpt lat="45.63316" lon="6.66436">
        <ele>2095.091</ele>
        <time>2015-08-19T17:01:48Z</time>
      </trkpt>
      <trkpt lat="45.63315" lon="6.66438">
        <ele>2095.091</ele>
        <time>2015-08-19T17:01:53Z</time>
      </trkpt>
      <trkpt lat="45.63311" lon="6.66442">
        <ele>2095.091</ele>
        <time>2015-08-19T17:02:03Z</time>
      </trkpt>
      <trkpt lat="45.6331" lon="6.66447">
        <ele>2090.5925</ele>
        <time>2015-08-19T17:02:08Z</time>
      </trkpt>
      <trkpt lat="45.63308" lon="6.66449">
        <ele>2090.5925</ele>
        <time>2015-08-19T17:02:18Z</time>
      </trkpt>
      <trkpt lat="45.63306" lon="6.6645">
        <ele>2090.5925</ele>
        <time>2015-08-19T17:02:23Z</time>
      </trkpt>
      <trkpt lat="45.63303" lon="6.66458">
        <ele>2085.9502</ele>
        <time>2015-08-19T17:02:33Z</time>
      </trkpt>
      <trkpt lat="45.63302" lon="6.66462">
        <ele>2085.9502</ele>
        <time>2015-08-19T17:02:38Z</time>
      </trkpt>
      <trkpt lat="45.63298" lon="6.66462">
        <ele>2085.9502</ele>
        <time>2015-08-19T17:02:43Z</time>
      </trkpt>
      <trkpt lat="45.63293" lon="6.66463">
        <ele>2081.3267</ele>
        <time>2015-08-19T17:02:48Z</time>
      </trkpt>
      <trkpt lat="45.63294" lon="6.66468">
        <ele>2081.3267</ele>
        <time>2015-08-19T17:02:53Z</time>
      </trkpt>
      <trkpt lat="45.63294" lon="6.6648">
        <ele>2077.0022</ele>
        <time>2015-08-19T17:03:08Z</time>
      </trkpt>
      <trkpt lat="45.63293" lon="6.66482">
        <ele>2077.0022</ele>
        <time>2015-08-19T17:03:13Z</time>
      </trkpt>
      <trkpt lat="45.63289" lon="6.66488">
        <ele>2077.0022</ele>
        <time>2015-08-19T17:03:23Z</time>
      </trkpt>
      <trkpt lat="45.63288" lon="6.66491">
        <ele>2072.7317</ele>
        <time>2015-08-19T17:03:28Z</time>
      </trkpt>
      <trkpt lat="45.63283" lon="6.66492">
        <ele>2072.7317</ele>
        <time>2015-08-19T17:03:38Z</time>
      </trkpt>
      <trkpt lat="45.63281" lon="6.66492">
        <ele>2072.7317</ele>
        <time>2015-08-19T17:03:43Z</time>
      </trkpt>
      <trkpt lat="45.63276" lon="6.66491">
        <ele>2068.402</ele>
        <time>2015-08-19T17:03:48Z</time>
      </trkpt>
      <trkpt lat="45.63274" lon="6.6649">
        <ele>2068.402</ele>
        <time>2015-08-19T17:03:53Z</time>
      </trkpt>
      <trkpt lat="45.63273" lon="6.66487">
        <ele>2068.402</ele>
        <time>2015-08-19T17:04:03Z</time>
      </trkpt>
      <trkpt lat="45.63274" lon="6.66487">
        <ele>2068.402</ele>
        <time>2015-08-19T17:04:08Z</time>
      </trkpt>
      <trkpt lat="45.63274" lon="6.66487">
        <ele>2068.402</ele>
        <time>2015-08-19T17:04:18Z</time>
      </trkpt>
      <trkpt lat="45.63271" lon="6.66487">
        <ele>2068.402</ele>
        <time>2015-08-19T17:04:23Z</time>
      </trkpt>
      <trkpt lat="45.63268" lon="6.66486">
        <ele>2063.6787</ele>
        <time>2015-08-19T17:04:33Z</time>
      </trkpt>
      <trkpt lat="45.63265" lon="6.66487">
        <ele>2063.6787</ele>
        <time>2015-08-19T17:04:38Z</time>
      </trkpt>
      <trkpt lat="45.63257" lon="6.665">
        <ele>2059.3618</ele>
        <time>2015-08-19T17:04:48Z</time>
      </trkpt>
      <trkpt lat="45.63255" lon="6.66503">
        <ele>2059.3618</ele>
        <time>2015-08-19T17:04:53Z</time>
      </trkpt>
      <trkpt lat="45.63251" lon="6.66513">
        <ele>2055.2837</ele>
        <time>2015-08-19T17:05:08Z</time>
      </trkpt>
      <trkpt lat="45.6325" lon="6.66518">
        <ele>2055.2837</ele>
        <time>2015-08-19T17:05:13Z</time>
      </trkpt>
      <trkpt lat="45.63247" lon="6.66525">
        <ele>2051.533</ele>
        <time>2015-08-19T17:05:23Z</time>
      </trkpt>
      <trkpt lat="45.63244" lon="6.66526">
        <ele>2051.533</ele>
        <time>2015-08-19T17:05:28Z</time>
      </trkpt>
      <trkpt lat="45.6324" lon="6.66526">
        <ele>2051.533</ele>
        <time>2015-08-19T17:05:33Z</time>
      </trkpt>
      <trkpt lat="45.63239" lon="6.66531">
        <ele>2047.9462</ele>
        <time>2015-08-19T17:05:38Z</time>
      </trkpt>
      <trkpt lat="45.63238" lon="6.66544">
        <ele>2044.6731</ele>
        <time>2015-08-19T17:05:48Z</time>
      </trkpt>
      <trkpt lat="45.63239" lon="6.6655">
        <ele>2044.6731</ele>
        <time>2015-08-19T17:05:53Z</time>
      </trkpt>
      <trkpt lat="45.63237" lon="6.6656">
        <ele>2041.7078</ele>
        <time>2015-08-19T17:06:03Z</time>
      </trkpt>
      <trkpt lat="45.63235" lon="6.66564">
        <ele>2041.7078</ele>
        <time>2015-08-19T17:06:08Z</time>
      </trkpt>
      <trkpt lat="45.63233" lon="6.66568">
        <ele>2041.7078</ele>
        <time>2015-08-19T17:06:13Z</time>
      </trkpt>
      <trkpt lat="45.63231" lon="6.66576">
        <ele>2039.0002</ele>
        <time>2015-08-19T17:06:18Z</time>
      </trkpt>
      <trkpt lat="45.63231" lon="6.6659">
        <ele>2036.5035</ele>
        <time>2015-08-19T17:06:28Z</time>
      </trkpt>
      <trkpt lat="45.6323" lon="6.66595">
        <ele>2036.5035</ele>
        <time>2015-08-19T17:06:33Z</time>
      </trkpt>
      <trkpt lat="45.6323" lon="6.66603">
        <ele>2036.5035</ele>
        <time>2015-08-19T17:06:38Z</time>
      </trkpt>
      <trkpt lat="45.63228" lon="6.66611">
        <ele>2033.9714</ele>
        <time>2015-08-19T17:06:43Z</time>
      </trkpt>
      <trkpt lat="45.63225" lon="6.66629">
        <ele>2031.6802</ele>
        <time>2015-08-19T17:06:53Z</time>
      </trkpt>
      <trkpt lat="45.63225" lon="6.66637">
        <ele>2031.6802</ele>
        <time>2015-08-19T17:06:58Z</time>
      </trkpt>
      <trkpt lat="45.63223" lon="6.66653">
        <ele>2029.5679</ele>
        <time>2015-08-19T17:07:08Z</time>
      </trkpt>
      <trkpt lat="45.63222" lon="6.66658">
        <ele>2029.5679</ele>
        <time>2015-08-19T17:07:13Z</time>
      </trkpt>
      <trkpt lat="45.63222" lon="6.6667">
        <ele>2027.5765</ele>
        <time>2015-08-19T17:07:23Z</time>
      </trkpt>
      <trkpt lat="45.63223" lon="6.66677">
        <ele>2027.5765</ele>
        <time>2015-08-19T17:07:28Z</time>
      </trkpt>
      <trkpt lat="45.63228" lon="6.66689">
        <ele>2025.753</ele>
        <time>2015-08-19T17:07:38Z</time>
      </trkpt>
      <trkpt lat="45.63231" lon="6.66692">
        <ele>2025.753</ele>
        <time>2015-08-19T17:07:43Z</time>
      </trkpt>
      <trkpt lat="45.63237" lon="6.66707">
        <ele>2023.9381</ele>
        <time>2015-08-19T17:07:58Z</time>
      </trkpt>
      <trkpt lat="45.63234" lon="6.66714">
        <ele>2023.9381</ele>
        <time>2015-08-19T17:08:03Z</time>
      </trkpt>
      <trkpt lat="45.63229" lon="6.66726">
        <ele>2022.2583</ele>
        <time>2015-08-19T17:08:13Z</time>
      </trkpt>
      <trkpt lat="45.63226" lon="6.66733">
        <ele>2022.2583</ele>
        <time>2015-08-19T17:08:18Z</time>
      </trkpt>
      <trkpt lat="45.63222" lon="6.66748">
        <ele>2020.6284</ele>
        <time>2015-08-19T17:08:28Z</time>
      </trkpt>
      <trkpt lat="45.6322" lon="6.66758">
        <ele>2020.6284</ele>
        <time>2015-08-19T17:08:33Z</time>
      </trkpt>
      <trkpt lat="45.63218" lon="6.66764">
        <ele>2019.1567</ele>
        <time>2015-08-19T17:08:38Z</time>
      </trkpt>
      <trkpt lat="45.63215" lon="6.66777">
        <ele>2017.8856</ele>
        <time>2015-08-19T17:08:48Z</time>
      </trkpt>
      <trkpt lat="45.63213" lon="6.66784">
        <ele>2017.8856</ele>
        <time>2015-08-19T17:08:53Z</time>
      </trkpt>
      <trkpt lat="45.6321" lon="6.66798">
        <ele>2016.6516</ele>
        <time>2015-08-19T17:09:03Z</time>
      </trkpt>
      <trkpt lat="45.63209" lon="6.66804">
        <ele>2016.6516</ele>
        <time>2015-08-19T17:09:08Z</time>
      </trkpt>
      <trkpt lat="45.63209" lon="6.66818">
        <ele>2015.4907</ele>
        <time>2015-08-19T17:09:18Z</time>
      </trkpt>
      <trkpt lat="45.63209" lon="6.66825">
        <ele>2015.4907</ele>
        <time>2015-08-19T17:09:23Z</time>
      </trkpt>
      <trkpt lat="45.6321" lon="6.66844">
        <ele>2014.2489</ele>
        <time>2015-08-19T17:09:38Z</time>
      </trkpt>
      <trkpt lat="45.63208" lon="6.66852">
        <ele>2014.2489</ele>
        <time>2015-08-19T17:09:43Z</time>
      </trkpt>
      <trkpt lat="45.63208" lon="6.66858">
        <ele>2013.1725</ele>
        <time>2015-08-19T17:09:48Z</time>
      </trkpt>
      <trkpt lat="45.63208" lon="6.66862">
        <ele>2013.1725</ele>
        <time>2015-08-19T17:09:53Z</time>
      </trkpt>
      <trkpt lat="45.63207" lon="6.66864">
        <ele>2013.1725</ele>
        <time>2015-08-19T17:09:58Z</time>
      </trkpt>
      <trkpt lat="45.63206" lon="6.6687">
        <ele>2012.0717</ele>
        <time>2015-08-19T17:10:03Z</time>
      </trkpt>
      <trkpt lat="45.63205" lon="6.66886">
        <ele>2011.0586</ele>
        <time>2015-08-19T17:10:18Z</time>
      </trkpt>
      <trkpt lat="45.63205" lon="6.66894">
        <ele>2011.0586</ele>
        <time>2015-08-19T17:10:23Z</time>
      </trkpt>
      <trkpt lat="45.63206" lon="6.669">
        <ele>2010.2228</ele>
        <time>2015-08-19T17:10:28Z</time>
      </trkpt>
      <trkpt lat="45.63207" lon="6.66905">
        <ele>2010.2228</ele>
        <time>2015-08-19T17:10:33Z</time>
      </trkpt>
      <trkpt lat="45.63215" lon="6.66913">
        <ele>2009.5459</ele>
        <time>2015-08-19T17:10:43Z</time>
      </trkpt>
      <trkpt lat="45.63217" lon="6.66917">
        <ele>2009.5459</ele>
        <time>2015-08-19T17:10:48Z</time>
      </trkpt>
      <trkpt lat="45.63217" lon="6.66918">
        <ele>2009.5459</ele>
        <time>2015-08-19T17:10:58Z</time>
      </trkpt>
      <trkpt lat="45.63216" lon="6.66917">
        <ele>2009.5459</ele>
        <time>2015-08-19T17:11:03Z</time>
      </trkpt>
      <trkpt lat="45.63216" lon="6.66914">
        <ele>2009.5459</ele>
        <time>2015-08-19T17:11:13Z</time>
      </trkpt>
      <trkpt lat="45.63215" lon="6.66914">
        <ele>2008.9958</ele>
        <time>2015-08-19T17:11:18Z</time>
      </trkpt>
      <trkpt lat="45.63215" lon="6.66914">
        <ele>2008.9958</ele>
        <time>2015-08-19T17:11:28Z</time>
      </trkpt>
      <trkpt lat="45.63217" lon="6.66913">
        <ele>2008.9958</ele>
        <time>2015-08-19T17:11:33Z</time>
      </trkpt>
      <trkpt lat="45.6322" lon="6.66915">
        <ele>2008.9958</ele>
        <time>2015-08-19T17:11:43Z</time>
      </trkpt>
      <trkpt lat="45.6322" lon="6.66915">
        <ele>2008.9958</ele>
        <time>2015-08-19T17:11:48Z</time>
      </trkpt>
      <trkpt lat="45.6322" lon="6.66915">
        <ele>2008.9958</ele>
        <time>2015-08-19T17:11:58Z</time>
      </trkpt>
      <trkpt lat="45.6322" lon="6.66915">
        <ele>2008.9958</ele>
        <time>2015-08-19T17:12:08Z</time>
      </trkpt>
      <trkpt lat="45.6322" lon="6.66915">
        <ele>2008.9958</ele>
        <time>2015-08-19T17:12:13Z</time>
      </trkpt>
      <trkpt lat="45.6322" lon="6.66914">
        <ele>2008.9958</ele>
        <time>2015-08-19T17:12:18Z</time>
      </trkpt>
      <trkpt lat="45.6322" lon="6.66914">
        <ele>2008.9958</ele>
        <time>2015-08-19T17:12:28Z</time>
      </trkpt>
      <trkpt lat="45.6322" lon="6.66915">
        <ele>2008.9958</ele>
        <time>2015-08-19T17:12:33Z</time>
      </trkpt>
      <trkpt lat="45.63219" lon="6.66915">
        <ele>2008.644</ele>
        <time>2015-08-19T17:12:38Z</time>
      </trkpt>
      <trkpt lat="45.63219" lon="6.66915">
        <ele>2008.644</ele>
        <time>2015-08-19T17:12:43Z</time>
      </trkpt>
      <trkpt lat="45.63218" lon="6.66916">
        <ele>2008.644</ele>
        <time>2015-08-19T17:12:48Z</time>
      </trkpt>
    </trkseg>
  </trk>
</gpx>